# Wetter Temperatur Luftdruck Luftfeuchtigkeit Sichtweite Windgeschwindigkeit Windrichtung Zeit
1 Clear 39 1000 21 10000 2.6 290 09:19 14.07.2020
2 Clear 37 1000 29 10000 2.6 250 08:43 14.07.2020
3 Clear 37 1000 29 10000 2.6 250 08:23 14.07.2020
4 Clear 35 1000 32 10000 1 0 07:56 14.07.2020
5 Clear 35 1000 32 10000 1 0 07:37 14.07.2020
6 Clear 35 1000 32 10000 1 0 07:18 14.07.2020
7 Clear 32 999 31 10000 2.1 0 06:37 14.07.2020
8 Clear 33 999 27 10000 2.6 300 06:19 14.07.2020
9 Clear 29 998 35 10000 1 300 05:25 14.07.2020
10 Clear 27 997 44 10000 3.6 320 04:36 14.07.2020
11 Clear 28 997 42 10000 1.5 320 03:34 14.07.2020
12 Clear 30 997 33 10000 1.5 260 02:44 14.07.2020
13 Clear 30 997 33 10000 1.5 260 02:21 14.07.2020
14 Clear 30 997 30 9000 2.1 270 01:35 14.07.2020
15 Clear 31 996 31 10000 1 20 00:49 14.07.2020
16 Clear 31 996 31 10000 1 20 00:28 14.07.2020
17 Clear 31 997 29 10000 3.38 25 23:59 13.07.2020
18 Clear 31 997 29 10000 3.38 25 23:37 13.07.2020
19 Clear 31 997 29 10000 3.51 14 23:18 13.07.2020
20 Clear 34 996 24 10000 2.1 170 22:40 13.07.2020
21 Clear 34 996 24 10000 2.1 170 22:21 13.07.2020
22 Clear 35 996 23 10000 1.5 150 21:57 13.07.2020
23 Clear 35 996 23 10000 1.5 150 21:38 13.07.2020
24 Clear 35 996 23 10000 1.5 150 21:20 13.07.2020
25 Clear 35 996 21 10000 2.6 140 20:57 13.07.2020
26 Clear 35 996 21 10000 2.6 140 20:38 13.07.2020
27 Clear 35 996 21 10000 2.6 140 20:20 13.07.2020
28 Clear 37 995 23 10000 2.6 330 19:45 13.07.2020
29 Clear 37 995 23 10000 2.6 330 19:26 13.07.2020
30 Clear 41 995 16 10000 3.1 310 18:59 13.07.2020
31 Clear 41 995 16 10000 3.1 310 18:40 13.07.2020
32 Clear 41 995 16 10000 3.1 310 18:21 13.07.2020
33 Clouds 43 995 14 10000 4.6 310 17:56 13.07.2020
34 Clouds 43 995 14 10000 4.6 310 17:38 13.07.2020
35 Clouds 43 995 14 10000 4.6 310 17:20 13.07.2020
36 Clouds 43 995 14 10000 4.6 300 16:55 13.07.2020
37 Clouds 43 995 14 10000 4.6 300 16:37 13.07.2020
38 Clouds 43 995 14 10000 4.6 300 16:18 13.07.2020
39 Clouds 43 995 15 10000 4.1 280 15:56 13.07.2020
40 Clouds 43 995 15 10000 4.1 280 15:37 13.07.2020
41 Clouds 43 995 15 10000 4.1 280 15:18 13.07.2020
42 Clouds 44 995 13 10000 4.6 280 14:56 13.07.2020
43 Clouds 44 995 13 10000 4.6 280 14:36 13.07.2020
44 Clouds 44 995 13 10000 4.6 280 14:18 13.07.2020
45 Clear 43 996 16 10000 6.2 220 13:42 13.07.2020
46 Clear 43 996 16 10000 6.2 220 13:21 13.07.2020
47 Clear 42 996 20 10000 3.6 280 12:54 13.07.2020
48 Clear 42 996 20 10000 3.6 280 12:36 13.07.2020
49 Clear 42 996 20 10000 3.6 280 12:18 13.07.2020
50 Clear 41 997 21 10000 2.6 0 11:40 13.07.2020
51 Clear 41 997 21 10000 2.6 0 11:22 13.07.2020
52 Clear 41 997 21 10000 2.6 0 11:22 13.07.2020
53 Clear 40 997 26 10000 3.6 280 10:43 13.07.2020
54 Clear 40 997 26 10000 3.6 280 10:21 13.07.2020
55 Clear 39 997 26 10000 4.1 280 09:56 13.07.2020
56 Clear 39 997 26 10000 4.1 280 09:38 13.07.2020
57 Clear 39 997 26 10000 4.1 280 09:18 13.07.2020
58 Clear 36 997 32 10000 5.7 270 08:46 13.07.2020
59 Clear 36 997 32 10000 5.7 270 08:26 13.07.2020
60 Clear 35 997 30 10000 4.1 290 07:22 13.07.2020
61 Clear 37 996 15 0 3.4 299 06:53 13.07.2020
62 Clear 28 995 34 10000 2.1 300 06:35 13.07.2020
63 Clear 28 995 34 10000 2.1 300 05:35 13.07.2020
64 Clear 30 995 28 10000 2.1 260 03:31 13.07.2020
65 Clear 29 995 35 10000 1 170 01:44 13.07.2020
66 Clear 29 995 35 10000 1 170 01:22 13.07.2020
67 Clear 30 995 30 10000 1.5 210 00:44 13.07.2020
68 Clear 30 995 30 10000 1.5 210 00:22 13.07.2020
69 Clear 33 996 27 10000 1.5 240 23:43 12.07.2020
70 Clear 33 996 27 10000 1.5 240 23:23 12.07.2020
71 Clear 34 996 24 10000 1.5 210 22:58 12.07.2020
72 Clear 34 996 24 10000 1.5 210 22:37 12.07.2020
73 Clear 34 996 24 10000 1.5 210 22:19 12.07.2020
74 Clear 36 996 22 10000 1 0 21:57 12.07.2020
75 Clear 36 996 22 10000 1 0 21:39 12.07.2020
76 Clear 36 996 22 10000 1 0 21:19 12.07.2020
77 Clear 35 996 26 10000 1.5 340 20:58 12.07.2020
78 Clear 35 996 26 10000 1.5 340 20:38 12.07.2020
79 Clear 35 996 26 10000 1.5 340 20:19 12.07.2020
80 Clear 39 996 20 10000 0.5 0 19:40 12.07.2020
81 Clear 39 996 20 10000 0.5 0 19:22 12.07.2020
82 Clear 42 996 17 10000 2.1 270 18:59 12.07.2020
83 Clear 42 996 17 10000 2.1 270 18:40 12.07.2020
84 Clear 42 996 17 10000 2.1 270 18:19 12.07.2020
85 Clear 43 996 15 10000 6.7 290 17:40 12.07.2020
86 Clear 43 996 15 10000 6.7 290 17:21 12.07.2020
87 Clear 44 996 15 10000 6.2 280 16:58 12.07.2020
88 Clear 44 996 15 10000 6.2 280 16:40 12.07.2020
89 Clear 44 996 15 10000 6.2 280 16:18 12.07.2020
90 Clear 44 996 17 10000 5.7 280 15:43 12.07.2020
91 Clear 44 996 17 10000 5.7 280 15:23 12.07.2020
92 Clear 44 996 14 10000 5.7 260 14:43 12.07.2020
93 Clear 44 996 14 10000 5.7 260 14:23 12.07.2020
94 Clear 44 997 14 10000 7.7 290 13:41 12.07.2020
95 Clear 44 997 14 10000 7.7 290 13:22 12.07.2020
96 Clear 43 997 17 10000 6.7 270 12:58 12.07.2020
97 Clear 43 997 17 10000 6.7 270 12:58 12.07.2020
98 Clear 43 997 17 10000 6.7 270 12:40 12.07.2020
99 Clear 43 997 17 10000 6.7 270 12:19 12.07.2020
100 Clear 42 998 23 10000 6.7 290 11:57 12.07.2020
101 Clear 42 998 23 10000 6.7 290 11:39 12.07.2020
102 Clear 42 998 23 10000 6.7 290 11:18 12.07.2020
103 Clear 40 998 26 10000 6.2 280 10:41 12.07.2020
104 Clear 40 998 26 10000 6.2 280 10:20 12.07.2020
105 Clear 39 998 27 10000 5.1 280 09:43 12.07.2020
106 Clear 39 998 27 10000 5.1 280 09:22 12.07.2020
107 Clear 37 998 25 10000 5.7 290 08:57 12.07.2020
108 Clear 37 998 25 10000 5.7 290 08:38 12.07.2020
109 Clear 37 998 25 10000 5.7 290 08:20 12.07.2020
110 Clear 35 998 23 10000 6.2 280 07:49 12.07.2020
111 Clear 35 998 23 10000 6.2 280 07:31 12.07.2020
112 Clear 32 998 24 10000 4.6 250 06:55 12.07.2020
113 Clear 32 998 24 10000 4.6 250 06:37 12.07.2020
114 Clear 32 998 24 10000 4.6 250 06:18 12.07.2020
115 Clouds 28 997 30 10000 1.5 340 04:58 12.07.2020
116 Clouds 28 997 30 10000 1.5 340 04:29 12.07.2020
117 Clear 29 997 26 10000 3.1 320 03:45 12.07.2020
118 Clear 29 997 26 10000 3.1 320 03:25 12.07.2020
119 Clouds 30 997 25 10000 3.1 330 02:26 12.07.2020
120 Clear 32 997 24 10000 3.1 320 01:29 12.07.2020
121 Clear 34 997 21 10000 4.6 320 00:39 12.07.2020
122 Clear 34 997 21 10000 4.6 320 00:21 12.07.2020
123 Clear 35 998 20 10000 3.6 330 23:41 11.07.2020
124 Clear 35 998 20 10000 3.6 330 23:22 11.07.2020
125 Clear 38 998 18 10000 5.7 320 22:57 11.07.2020
126 Clear 38 998 18 10000 5.7 320 22:38 11.07.2020
127 Clear 38 998 18 10000 5.7 320 22:20 11.07.2020
128 Clear 37 998 18 10000 5.7 310 21:55 11.07.2020
129 Clear 37 998 18 10000 5.7 310 21:36 11.07.2020
130 Clear 37 998 18 10000 5.7 310 21:18 11.07.2020
131 Clear 39 998 15 10000 5.7 290 20:54 11.07.2020
132 Clear 39 998 15 10000 5.7 290 20:36 11.07.2020
133 Clear 39 998 15 10000 5.7 290 20:18 11.07.2020
134 Clouds 41 998 14 10000 6.7 290 19:44 11.07.2020
135 Clouds 41 998 14 10000 6.7 290 19:26 11.07.2020
136 Clouds 43 997 13 10000 7.7 290 18:57 11.07.2020
137 Clouds 43 997 13 10000 7.7 290 18:39 11.07.2020
138 Clouds 43 997 13 10000 7.7 290 18:20 11.07.2020
139 Clouds 44 997 12 10000 7.2 280 17:56 11.07.2020
140 Clouds 44 997 12 10000 7.2 280 17:38 11.07.2020
141 Clouds 44 997 12 10000 7.2 280 17:19 11.07.2020
142 Clouds 46 997 11 10000 9.3 280 16:44 11.07.2020
143 Clouds 46 997 11 10000 9.3 280 16:25 11.07.2020
144 Clouds 46 997 11 10000 10.8 290 15:59 11.07.2020
145 Clouds 46 997 11 10000 10.8 290 15:41 11.07.2020
146 Clouds 46 997 11 10000 10.8 290 15:20 11.07.2020
147 Clouds 46 997 11 10000 6.2 330 14:58 11.07.2020
148 Clouds 46 997 11 10000 6.2 330 14:39 11.07.2020
149 Clouds 46 997 11 10000 6.2 330 14:20 11.07.2020
150 Clouds 47 998 12 10000 7.2 340 13:43 11.07.2020
151 Clouds 47 998 12 10000 7.2 340 13:22 11.07.2020
152 Clear 46 998 13 10000 7.7 350 12:58 11.07.2020
153 Clear 46 998 13 10000 7.7 350 12:40 11.07.2020
154 Clear 46 998 13 10000 7.7 350 12:21 11.07.2020
155 Clear 46 999 14 10000 7.2 340 11:56 11.07.2020
156 Clear 46 999 14 10000 7.2 340 11:38 11.07.2020
157 Clear 46 999 14 10000 7.2 340 11:18 11.07.2020
158 Clear 44 999 16 10000 7.7 330 10:41 11.07.2020
159 Clear 44 999 16 10000 7.7 330 10:23 11.07.2020
160 Clear 43 999 16 10000 8.2 330 09:45 11.07.2020
161 Clear 43 999 16 10000 8.2 330 09:21 11.07.2020
162 Clear 39 999 18 10000 5.7 330 08:55 11.07.2020
163 Clear 39 999 18 10000 5.7 330 08:36 11.07.2020
164 Clear 39 999 18 10000 5.7 330 08:18 11.07.2020
165 Clear 37 999 20 10000 5.1 330 07:40 11.07.2020
166 Clear 37 999 20 10000 5.1 330 07:20 11.07.2020
167 Clear 34 999 23 10000 4.1 340 06:53 11.07.2020
168 Clear 34 999 23 10000 4.1 340 06:21 11.07.2020
169 Clear 32 999 24 10000 4.6 320 05:21 11.07.2020
170 Clear 33 998 21 10000 6.2 320 04:55 11.07.2020
171 Clear 33 998 21 10000 6.2 320 04:32 11.07.2020
172 Clear 34 998 20 10000 6.7 310 02:59 11.07.2020
173 Clear 34 998 20 10000 6.7 310 02:37 11.07.2020
174 Clear 35 998 21 10000 6.2 310 01:32 11.07.2020
175 Clear 35 998 24 10000 5.7 310 00:59 11.07.2020
176 Clear 35 998 24 10000 5.7 310 00:40 11.07.2020
177 Clear 35 998 24 10000 5.7 310 00:21 11.07.2020
178 Clear 35 998 23 10000 4.6 310 23:57 10.07.2020
179 Clear 35 998 23 10000 4.6 310 23:39 10.07.2020
180 Clear 35 998 23 10000 4.6 310 23:19 10.07.2020
181 Clear 38 999 17 10000 5.7 300 22:45 10.07.2020
182 Clear 38 999 17 10000 5.7 300 22:21 10.07.2020
183 Clear 39 999 17 10000 4.6 300 21:56 10.07.2020
184 Clear 39 999 17 10000 4.6 300 21:36 10.07.2020
185 Clear 39 999 17 10000 4.6 300 21:18 10.07.2020
186 Clear 40 998 16 10000 4.1 280 20:41 10.07.2020
187 Clear 40 998 16 10000 4.1 280 20:23 10.07.2020
188 Clear 42 998 15 10000 5.1 280 19:57 10.07.2020
189 Clear 42 998 15 10000 5.1 280 19:57 10.07.2020
190 Clear 42 998 15 10000 5.1 280 19:39 10.07.2020
191 Clear 42 998 15 10000 5.1 280 19:20 10.07.2020
192 Clear 44 997 13 10000 6.2 290 18:42 10.07.2020
193 Clear 44 997 13 10000 6.2 290 18:21 10.07.2020
194 Clear 46 997 12 10000 5.7 280 17:58 10.07.2020
195 Clear 46 997 12 10000 5.7 280 17:39 10.07.2020
196 Clear 46 997 12 10000 5.7 280 17:21 10.07.2020
197 Clear 47 997 12 10000 3.6 300 16:43 10.07.2020
198 Clear 47 997 12 10000 3.6 300 16:21 10.07.2020
199 Clear 47 997 11 10000 2.1 0 15:48 10.07.2020
200 Clear 47 997 11 10000 2.1 0 15:27 10.07.2020
201 Clear 47 997 11 10000 2.6 320 14:59 10.07.2020
202 Clear 47 997 11 10000 2.6 320 14:40 10.07.2020
203 Clear 47 997 11 10000 2.6 320 14:20 10.07.2020
204 Clear 47 998 12 10000 4.1 350 13:58 10.07.2020
205 Clear 47 998 12 10000 4.1 350 13:38 10.07.2020
206 Clear 47 998 12 10000 4.1 350 13:20 10.07.2020
207 Clear 46 998 13 10000 4.6 340 12:56 10.07.2020
208 Clear 46 998 13 10000 4.6 340 12:37 10.07.2020
209 Clear 46 998 13 10000 4.6 340 12:19 10.07.2020
210 Clear 45 999 15 10000 5.1 320 11:41 10.07.2020
211 Clear 45 999 15 10000 5.1 320 11:21 10.07.2020
212 Clear 44 999 15 10000 4.6 320 10:57 10.07.2020
213 Clear 44 999 15 10000 4.6 320 10:38 10.07.2020
214 Clear 41 999 16 10000 6.2 310 10:19 10.07.2020
215 Clear 41 999 16 10000 6.2 310 09:40 10.07.2020
216 Clear 41 999 16 10000 6.2 310 09:22 10.07.2020
217 Clear 39 999 20 10000 6.7 300 08:58 10.07.2020
218 Clear 39 999 20 10000 6.7 300 08:40 10.07.2020
219 Clear 39 999 20 10000 6.7 300 08:22 10.07.2020
220 Clear 36 999 20 10000 5.7 300 07:45 10.07.2020
221 Clear 36 999 20 10000 5.7 300 07:23 10.07.2020
222 Clear 33 998 24 10000 4.1 320 06:54 10.07.2020
223 Clear 33 998 24 10000 4.1 320 06:54 10.07.2020
224 Clear 33 998 24 10000 4.1 320 06:36 10.07.2020
225 Clear 31 998 29 10000 3.6 320 05:27 10.07.2020
226 Clear 30 997 35 10000 3.6 310 03:54 10.07.2020
227 Clear 32 997 31 10000 4.1 300 02:54 10.07.2020
228 Clear 34 997 28 10000 4.6 300 01:57 10.07.2020
229 Clear 35 997 24 10000 4.1 290 00:55 10.07.2020
230 Clear 35 997 24 10000 4.1 290 00:23 10.07.2020
231 Clear 34 997 23 10000 3.6 300 23:56 09.07.2020
232 Clear 34 997 23 10000 3.6 300 23:37 09.07.2020
233 Clear 34 997 23 10000 3.6 300 23:19 09.07.2020
234 Clear 37 998 20 10000 2.6 280 22:56 09.07.2020
235 Clear 37 998 20 10000 2.6 280 22:38 09.07.2020
236 Clear 37 998 20 10000 2.6 280 22:19 09.07.2020
237 Clear 38 998 14 0 4.95 331 21:54 09.07.2020
238 Clear 38 997 19 10000 1 290 21:36 09.07.2020
239 Clear 38 997 19 10000 1 290 21:18 09.07.2020
240 Clear 38 997 19 10000 1 290 20:41 09.07.2020
241 Clouds 38 997 19 10000 1 290 20:22 09.07.2020
242 Clouds 39 997 20 10000 2.1 300 19:43 09.07.2020
243 Clouds 39 997 20 10000 2.1 300 19:22 09.07.2020
244 Clouds 42 996 17 10000 3.6 290 18:59 09.07.2020
245 Clouds 42 996 17 10000 3.6 290 18:41 09.07.2020
246 Clouds 43 996 15 10000 5.1 290 18:19 09.07.2020
247 Clouds 46 996 13 10000 5.7 290 17:43 09.07.2020
248 Clouds 46 996 13 10000 5.7 290 17:24 09.07.2020
249 Clouds 47 996 12 10000 6.7 300 16:59 09.07.2020
250 Clouds 47 996 12 10000 6.7 300 16:39 09.07.2020
251 Clouds 47 996 12 10000 6.7 300 16:19 09.07.2020
252 Clouds 47 996 12 10000 4.6 270 15:59 09.07.2020
253 Clouds 47 996 12 10000 4.6 270 15:40 09.07.2020
254 Clouds 47 996 12 10000 4.6 270 15:21 09.07.2020
255 Clouds 47 997 15 10000 5.1 250 14:58 09.07.2020
256 Clouds 47 997 15 10000 5.1 250 14:40 09.07.2020
257 Clouds 47 997 15 10000 5.1 250 14:22 09.07.2020
258 Clear 46 997 16 10000 5.1 290 13:57 09.07.2020
259 Clear 46 997 16 10000 5.1 290 13:38 09.07.2020
260 Clear 46 997 16 10000 5.1 290 13:19 09.07.2020
261 Clear 44 998 18 10000 5.1 290 12:42 09.07.2020
262 Clear 44 998 18 10000 5.1 290 12:24 09.07.2020
263 Clear 43 998 21 10000 5.7 280 11:59 09.07.2020
264 Clear 43 998 21 10000 5.7 280 11:41 09.07.2020
265 Clear 43 998 21 10000 5.7 280 11:21 09.07.2020
266 Clear 41 998 21 10000 6.7 300 10:57 09.07.2020
267 Clear 41 998 21 10000 6.7 300 10:57 09.07.2020
268 Clear 41 998 21 10000 6.7 300 10:38 09.07.2020
269 Clear 41 998 21 10000 6.7 300 10:20 09.07.2020
270 Clear 40 998 21 10000 6.2 290 09:43 09.07.2020
271 Clear 40 998 21 10000 6.2 290 09:23 09.07.2020
272 Clear 37 999 25 10000 6.2 300 08:54 09.07.2020
273 Clear 37 999 25 10000 6.2 300 08:36 09.07.2020
274 Clear 37 999 25 10000 6.2 300 08:18 09.07.2020
275 Clouds 35 998 26 10000 6.7 300 07:42 09.07.2020
276 Clouds 35 998 26 10000 6.7 300 07:21 09.07.2020
277 Clear 34 997 30 10000 4.1 320 06:40 09.07.2020
278 Clear 34 997 30 10000 4.1 320 06:19 09.07.2020
279 Clear 32 997 35 10000 5.7 290 04:29 09.07.2020
280 Clear 33 996 22 10000 4.1 280 03:24 09.07.2020
281 Clear 33 996 24 6000 3.1 320 01:58 09.07.2020
282 Clear 33 996 24 6000 3.1 320 01:23 09.07.2020
283 Clear 35 996 23 7000 3.6 310 00:43 09.07.2020
284 Clear 35 996 23 7000 3.6 310 00:23 09.07.2020
285 Clear 38 996 22 10000 5.1 290 23:44 08.07.2020
286 Clear 38 996 22 10000 5.1 290 23:26 08.07.2020
287 Clear 38 997 22 10000 5.1 290 22:57 08.07.2020
288 Clear 38 997 22 10000 5.1 290 22:38 08.07.2020
289 Clear 38 997 22 10000 5.1 290 22:20 08.07.2020
290 Clear 35 996 24 10000 1.5 260 21:57 08.07.2020
291 Clear 35 996 24 10000 1.5 260 21:38 08.07.2020
292 Clear 35 996 24 10000 1.5 260 21:20 08.07.2020
293 Clear 39 996 21 10000 2.1 260 20:45 08.07.2020
294 Clear 39 996 21 10000 2.1 260 20:26 08.07.2020
295 Clear 42 996 17 10000 3.6 260 19:58 08.07.2020
296 Clear 42 996 17 10000 3.6 260 19:40 08.07.2020
297 Clear 42 996 17 10000 3.6 260 19:21 08.07.2020
298 Clear 44 995 15 10000 2.1 280 18:55 08.07.2020
299 Clear 44 995 15 10000 2.1 280 18:36 08.07.2020
300 Clear 44 995 15 10000 2.1 280 18:18 08.07.2020
301 Clear 45 995 13 10000 5.1 250 17:55 08.07.2020
302 Clear 45 995 13 10000 5.1 250 17:36 08.07.2020
303 Clear 45 995 13 10000 5.1 250 17:18 08.07.2020
304 Clear 46 995 11 10000 6.2 240 16:39 08.07.2020
305 Clear 46 995 11 10000 6.2 240 16:20 08.07.2020
306 Clear 46 996 14 10000 5.1 220 15:58 08.07.2020
307 Clear 46 996 14 10000 5.1 220 15:39 08.07.2020
308 Clear 46 996 14 10000 5.1 220 15:19 08.07.2020
309 Clear 46 996 15 10000 3.1 240 14:48 08.07.2020
310 Clear 46 996 15 10000 3.1 240 14:29 08.07.2020
311 Clear 46 996 16 10000 4.1 250 13:58 08.07.2020
312 Clear 46 996 16 10000 4.1 250 13:40 08.07.2020
313 Clear 46 996 16 10000 4.1 250 13:22 08.07.2020
314 Clear 45 996 15 10000 4.1 250 12:44 08.07.2020
315 Clear 45 996 15 10000 4.1 250 12:21 08.07.2020
316 Clear 43 997 18 10000 3.6 250 11:57 08.07.2020
317 Clear 43 997 18 10000 3.6 250 11:38 08.07.2020
318 Clear 43 997 18 10000 3.6 250 11:20 08.07.2020
319 Clear 41 997 20 10000 2.6 270 10:44 08.07.2020
320 Clear 41 997 20 10000 2.6 270 10:26 08.07.2020
321 Clear 39 997 24 8000 2.6 250 09:47 08.07.2020
322 Clear 39 997 24 8000 2.6 250 09:26 08.07.2020
323 Clear 35 997 28 10000 2.6 270 08:58 08.07.2020
324 Clear 35 997 28 10000 2.6 270 08:39 08.07.2020
325 Clear 35 997 28 10000 2.6 270 08:20 08.07.2020
326 Clear 35 996 28 7000 2.6 360 07:46 08.07.2020
327 Clear 35 996 28 7000 2.6 360 07:22 08.07.2020
328 Clear 38 996 11 0 2.43 354 06:53 08.07.2020
329 Clear 28 996 34 10000 2.6 300 06:32 08.07.2020
330 Clear 28 996 34 10000 2.6 300 05:50 08.07.2020
331 Clear 28 995 39 10000 3.1 300 04:58 08.07.2020
332 Clear 28 995 39 10000 3.1 300 04:20 08.07.2020
333 Clear 28 995 37 10000 1.5 160 02:20 08.07.2020
334 Clear 30 995 33 10000 2.1 150 01:39 08.07.2020
335 Clear 32 995 29 10000 1.5 210 00:59 08.07.2020
336 Clear 32 995 29 10000 1.5 210 00:22 08.07.2020
337 Clear 34 995 24 10000 5.32 310 23:44 07.07.2020
338 Clear 34 995 24 10000 4.86 288 23:24 07.07.2020
339 Clear 37 995 20 10000 3.1 240 22:58 07.07.2020
340 Clear 37 995 20 10000 3.1 240 22:40 07.07.2020
341 Clear 37 995 20 10000 3.1 240 22:20 07.07.2020
342 Clear 34 995 24 10000 1.5 220 21:58 07.07.2020
343 Clear 34 995 24 10000 1.5 220 21:38 07.07.2020
344 Clear 34 995 24 10000 1.5 220 21:19 07.07.2020
345 Clear 37 995 23 10000 1 0 20:56 07.07.2020
346 Clear 37 995 23 10000 1 0 20:37 07.07.2020
347 Clear 37 995 23 10000 1 0 20:19 07.07.2020
348 Clear 40 994 20 10000 2.6 220 19:39 07.07.2020
349 Clear 40 994 20 10000 2.6 220 19:21 07.07.2020
350 Clear 44 994 13 10000 2.6 240 18:56 07.07.2020
351 Clear 44 994 13 10000 2.6 240 18:38 07.07.2020
352 Clear 44 994 13 10000 2.6 240 18:19 07.07.2020
353 Clear 45 993 12 10000 4.6 270 17:57 07.07.2020
354 Clear 45 993 12 10000 4.6 270 17:38 07.07.2020
355 Clear 45 993 12 10000 4.6 270 17:20 07.07.2020
356 Clear 46 993 10 10000 5.1 270 16:43 07.07.2020
357 Clear 46 993 10 10000 5.1 270 16:23 07.07.2020
358 Clear 46 994 12 10000 5.1 270 15:57 07.07.2020
359 Clear 46 994 12 10000 5.1 270 15:37 07.07.2020
360 Clear 46 994 12 10000 5.1 270 15:19 07.07.2020
361 Clear 46 994 12 10000 6.2 280 14:46 07.07.2020
362 Clear 46 994 12 10000 6.2 280 14:25 07.07.2020
363 Clear 47 994 13 10000 6.7 290 13:46 07.07.2020
364 Clear 47 994 13 10000 6.7 290 13:22 07.07.2020
365 Clear 45 995 15 10000 6.2 270 12:58 07.07.2020
366 Clear 45 995 15 10000 6.2 270 12:40 07.07.2020
367 Clear 45 995 15 10000 6.2 270 12:21 07.07.2020
368 Clear 44 995 17 10000 5.1 270 11:48 07.07.2020
369 Clear 44 995 17 10000 5.1 270 11:24 07.07.2020
370 Clear 46 994 9 0 7.48 288 10:59 07.07.2020
371 Clear 46 994 9 0 7.48 288 10:59 07.07.2020
372 Clear 46 994 9 0 7.48 288 10:41 07.07.2020
373 Clear 40 995 23 10000 5.1 270 10:21 07.07.2020
374 Clear 40 995 23 10000 5.1 270 09:55 07.07.2020
375 Clear 40 995 23 10000 5.1 270 09:37 07.07.2020
376 Clear 40 995 23 10000 5.1 270 09:37 07.07.2020
377 Clear 40 995 23 10000 5.1 270 09:18 07.07.2020
378 Clear 38 995 24 10000 6.2 260 08:40 07.07.2020
379 Clear 36 994 22 10000 4.1 240 08:22 07.07.2020
380 Clear 36 994 22 10000 4.1 240 07:41 07.07.2020
381 Clear 36 994 22 10000 4.1 240 07:21 07.07.2020
382 Clear 34 994 26 10000 3.6 240 06:49 07.07.2020
383 Clear 34 994 26 10000 3.6 240 06:28 07.07.2020
384 Clear 31 994 29 10000 2.6 230 05:51 07.07.2020
385 Clear 31 994 29 10000 2.6 230 05:21 07.07.2020
386 Clear 30 993 33 10000 3.6 210 04:38 07.07.2020
387 Clear 30 993 30 10000 2.6 200 03:35 07.07.2020
388 Clear 31 993 27 10000 3.1 270 02:21 07.07.2020
389 Clear 32 993 25 10000 2.1 250 01:22 07.07.2020
390 Clear 32 993 27 10000 1.5 230 00:42 07.07.2020
391 Clear 32 993 27 10000 1.5 230 00:24 07.07.2020
392 Clear 32 993 24 10000 1.5 260 23:55 06.07.2020
393 Clear 32 993 24 10000 1.5 260 23:36 06.07.2020
394 Clear 32 993 24 10000 1.5 260 23:18 06.07.2020
395 Clear 35 993 19 10000 4.1 300 22:41 06.07.2020
396 Clear 35 993 19 10000 4.1 300 22:20 06.07.2020
397 Clear 38 992 13 0 5.88 314 21:57 06.07.2020
398 Clear 38 992 13 0 5.88 314 21:38 06.07.2020
399 Clear 38 992 12 0 5.25 318 21:19 06.07.2020
400 Clear 39 992 12 0 5.89 318 20:59 06.07.2020
401 Clear 40 992 16 10000 3.1 250 20:38 06.07.2020
402 Clear 40 992 16 10000 3.1 250 20:20 06.07.2020
403 Clear 40 992 16 10000 3.1 250 19:56 06.07.2020
404 Clear 40 992 16 10000 3.1 250 19:38 06.07.2020
405 Clear 40 992 16 10000 3.1 250 19:20 06.07.2020
406 Clear 43 992 14 10000 3.6 270 18:55 06.07.2020
407 Clear 43 992 14 10000 3.6 270 18:36 06.07.2020
408 Clear 43 992 14 10000 3.6 270 18:18 06.07.2020
409 Clear 44 991 13 10000 5.1 270 17:42 06.07.2020
410 Clear 44 991 13 10000 5.1 270 17:23 06.07.2020
411 Clear 45 991 12 10000 6.7 280 16:55 06.07.2020
412 Clear 45 991 12 10000 6.7 280 16:37 06.07.2020
413 Clear 45 991 12 10000 6.7 280 16:18 06.07.2020
414 Clear 46 991 11 10000 7.7 280 15:42 06.07.2020
415 Clear 46 991 11 10000 7.7 280 15:24 06.07.2020
416 Clear 46 992 11 10000 8.2 280 14:57 06.07.2020
417 Clear 46 992 11 10000 8.2 280 14:37 06.07.2020
418 Clear 46 992 11 10000 8.2 280 14:19 06.07.2020
419 Clear 46 992 10 10000 5.7 290 13:51 06.07.2020
420 Clear 46 992 10 10000 5.7 290 13:28 06.07.2020
421 Clear 45 993 16 10000 5.1 280 12:59 06.07.2020
422 Clear 45 993 16 10000 5.1 280 12:41 06.07.2020
423 Clear 45 993 16 10000 5.1 280 12:18 06.07.2020
424 Clear 43 993 19 10000 6.2 280 11:57 06.07.2020
425 Clear 43 993 19 10000 6.2 280 11:37 06.07.2020
426 Clear 43 993 19 10000 6.2 280 11:19 06.07.2020
427 Clear 41 993 23 10000 5.1 290 10:42 06.07.2020
428 Clear 41 993 23 10000 5.1 290 10:22 06.07.2020
429 Clear 39 994 27 10000 5.1 290 09:58 06.07.2020
430 Clear 39 994 27 10000 5.1 290 09:39 06.07.2020
431 Clear 39 994 27 10000 5.1 290 09:21 06.07.2020
432 Clear 36 994 32 10000 5.1 280 08:55 06.07.2020
433 Clear 36 994 32 10000 5.1 280 08:36 06.07.2020
434 Clear 36 994 32 10000 5.1 280 08:18 06.07.2020
435 Clear 33 993 31 10000 6.2 240 07:40 06.07.2020
436 Clear 33 993 31 10000 6.2 240 07:22 06.07.2020
437 Clear 30 992 30 10000 2.6 260 06:39 06.07.2020
438 Clear 30 992 30 10000 2.6 260 06:20 06.07.2020
439 Clear 30 992 30 10000 2.6 260 05:38 06.07.2020
440 Clear 26 992 31 10000 3.6 310 04:52 06.07.2020
441 Clear 27 991 28 10000 1 0 03:26 06.07.2020
442 Clear 33 991 17 0 3.98 355 02:22 06.07.2020
443 Clear 32 992 21 10000 3.6 300 01:28 06.07.2020
444 Clear 32 992 21 10000 3.6 300 00:36 06.07.2020
445 Clear 32 992 21 10000 3.6 300 00:18 06.07.2020
446 Clear 34 992 21 10000 3.1 270 23:41 05.07.2020
447 Clear 34 992 21 10000 3.1 270 23:23 05.07.2020
448 Clear 35 993 20 10000 3.6 260 22:59 05.07.2020
449 Clear 35 993 20 10000 3.6 260 22:40 05.07.2020
450 Clear 35 993 20 10000 3.6 260 22:20 05.07.2020
451 Clear 37 993 18 10000 3.6 270 21:57 05.07.2020
452 Clear 37 993 18 10000 3.6 270 21:38 05.07.2020
453 Clear 37 993 18 10000 3.6 270 21:18 05.07.2020
454 Clear 39 992 14 10000 3.6 280 20:57 05.07.2020
455 Clear 39 992 14 10000 3.6 280 20:38 05.07.2020
456 Clear 39 992 14 10000 3.6 280 20:20 05.07.2020
457 Clear 40 992 13 10000 4.1 290 19:43 05.07.2020
458 Clear 40 992 13 10000 4.1 290 19:43 05.07.2020
459 Clear 40 992 13 10000 4.1 290 19:21 05.07.2020
460 Clear 42 992 13 10000 4.6 300 18:56 05.07.2020
461 Clear 42 992 13 10000 4.6 300 18:37 05.07.2020
462 Clear 42 992 13 10000 4.6 300 18:37 05.07.2020
463 Clear 42 992 13 10000 4.6 300 18:19 05.07.2020
464 Clear 45 992 11 10000 7.7 300 17:43 05.07.2020
465 Clear 45 992 11 10000 7.7 300 17:20 05.07.2020
466 Clear 46 992 10 10000 10.8 300 16:59 05.07.2020
467 Clear 46 992 10 10000 10.8 300 16:40 05.07.2020
468 Clear 46 992 10 10000 10.8 300 16:21 05.07.2020
469 Clear 47 992 10 10000 10.3 280 15:41 05.07.2020
470 Clear 47 992 10 10000 10.3 280 15:20 05.07.2020
471 Clear 47 992 10 10000 10.3 280 15:20 05.07.2020
472 Clear 47 993 10 10000 11.3 280 14:57 05.07.2020
473 Clear 47 993 10 10000 11.3 280 14:38 05.07.2020
474 Clear 47 993 10 10000 11.3 280 14:20 05.07.2020
475 Clear 47 993 9 10000 10.3 280 13:41 05.07.2020
476 Clear 47 993 9 10000 10.3 280 13:23 05.07.2020
477 Clear 46 994 10 10000 9.8 290 12:46 05.07.2020
478 Clear 46 994 10 10000 9.8 290 12:25 05.07.2020
479 Clear 46 994 10 10000 8.2 280 11:58 05.07.2020
480 Clear 46 994 10 10000 8.2 280 11:39 05.07.2020
481 Clear 46 994 10 10000 8.2 280 11:21 05.07.2020
482 Clear 44 995 17 10000 6.2 280 10:57 05.07.2020
483 Clear 44 995 17 10000 6.2 280 10:38 05.07.2020
484 Clear 44 995 17 10000 6.2 280 10:19 05.07.2020
485 Clear 41 995 20 10000 4.6 270 09:42 05.07.2020
486 Clear 41 995 20 10000 4.6 270 09:21 05.07.2020
487 Clear 39 995 20 10000 4.1 260 08:58 05.07.2020
488 Clear 39 995 20 10000 4.1 260 08:38 05.07.2020
489 Clear 39 995 20 10000 4.1 260 08:38 05.07.2020
490 Clear 39 995 20 10000 4.1 260 08:19 05.07.2020
491 Clear 36 995 19 10000 3.6 280 07:43 05.07.2020
492 Clear 36 995 19 10000 3.6 280 07:22 05.07.2020
493 Clear 33 995 21 10000 3.6 310 06:47 05.07.2020
494 Clear 29 995 23 10000 3.6 300 04:42 05.07.2020
495 Clear 31 995 23 10000 4.1 320 03:19 05.07.2020
496 Clear 32 995 27 10000 4.1 320 02:41 05.07.2020
497 Clear 34 995 24 10000 5.1 310 01:59 05.07.2020
498 Clear 34 995 24 10000 5.1 310 01:31 05.07.2020
499 Clear 35 996 21 10000 4.1 270 00:53 05.07.2020
500 Clear 35 996 21 10000 4.1 270 00:31 05.07.2020
501 Clear 36 996 22 10000 4.6 270 23:58 04.07.2020
502 Clear 36 996 22 10000 4.6 270 23:40 04.07.2020
503 Clear 36 996 22 10000 4.6 270 23:22 04.07.2020
504 Clear 38 997 16 10000 5.7 280 22:43 04.07.2020
505 Clear 38 997 16 10000 5.7 280 22:25 04.07.2020
506 Clear 38 997 14 10000 4.6 290 21:58 04.07.2020
507 Clear 38 997 14 10000 4.6 290 21:40 04.07.2020
508 Clear 38 997 14 10000 4.6 290 21:22 04.07.2020
509 Clear 38 997 16 10000 4.1 300 20:43 04.07.2020
510 Clear 38 997 16 10000 4.1 300 20:22 04.07.2020
511 Clear 40 997 13 10000 5.1 290 20:00 04.07.2020
512 Clear 40 997 13 10000 5.1 290 19:41 04.07.2020
513 Clear 43 997 11 10000 7.7 290 19:21 04.07.2020
514 Clear 43 997 11 10000 7.7 290 19:21 04.07.2020
515 Clear 43 997 11 10000 7.7 290 18:46 04.07.2020
516 Clear 43 997 11 10000 7.7 290 18:24 04.07.2020
517 Clear 45 996 11 10000 8.2 300 17:59 04.07.2020
518 Clear 45 996 11 10000 8.2 300 17:41 04.07.2020
519 Clear 45 996 11 10000 8.2 300 17:22 04.07.2020
520 Clear 46 997 9 10000 8.2 290 16:56 04.07.2020
521 Clear 46 997 9 10000 8.2 290 16:37 04.07.2020
522 Clear 46 997 9 10000 8.2 290 16:18 04.07.2020
523 Clear 46 997 9 10000 8.7 280 15:42 04.07.2020
524 Clear 46 997 9 10000 8.7 280 15:24 04.07.2020
525 Clear 46 998 9 10000 6.7 340 14:58 04.07.2020
526 Clear 46 998 9 10000 6.7 340 14:37 04.07.2020
527 Clear 46 998 9 10000 6.7 340 14:18 04.07.2020
528 Clear 46 998 10 10000 9.3 270 13:56 04.07.2020
529 Clear 46 998 10 10000 9.3 270 13:36 04.07.2020
530 Clear 46 998 10 10000 9.3 270 13:18 04.07.2020
531 Clear 45 999 10 10000 9.3 290 12:40 04.07.2020
532 Clear 45 999 10 10000 9.3 290 12:20 04.07.2020
533 Clear 44 1000 12 10000 7.2 250 11:45 04.07.2020
534 Clear 44 1000 12 10000 7.2 250 11:25 04.07.2020
535 Clear 43 1000 15 10000 4.1 310 10:59 04.07.2020
536 Clear 43 1000 15 10000 4.1 310 10:39 04.07.2020
537 Clear 43 1000 15 10000 4.1 310 10:20 04.07.2020
538 Clear 41 1001 16 10000 4.1 310 09:55 04.07.2020
539 Clear 41 1001 16 10000 4.1 310 09:36 04.07.2020
540 Clear 41 1001 16 10000 4.1 310 09:18 04.07.2020
541 Clear 37 1001 22 10000 4.1 280 08:45 04.07.2020
542 Clear 37 1001 22 10000 4.1 280 08:26 04.07.2020
543 Clear 35 1001 21 10000 3.1 330 07:43 04.07.2020
544 Clear 35 1001 21 10000 3.1 330 07:25 04.07.2020
545 Clear 32 1001 25 10000 4.1 260 06:48 04.07.2020
546 Clear 32 1001 25 10000 4.1 260 06:20 04.07.2020
547 Clear 29 1000 26 10000 2.1 290 05:32 04.07.2020
548 Clear 28 1000 30 10000 3.1 360 04:23 04.07.2020
549 Clear 29 1001 26 10000 2.1 310 02:48 04.07.2020
550 Clear 32 1001 22 10000 2.1 310 01:51 04.07.2020
551 Clear 35 1001 16 10000 3.6 280 00:59 04.07.2020
552 Clear 35 1001 16 10000 3.6 280 00:40 04.07.2020
553 Clear 35 1001 16 10000 3.6 280 00:21 04.07.2020
554 Clear 35 1001 17 10000 3.6 270 23:39 03.07.2020
555 Clear 35 1001 17 10000 3.6 270 23:18 03.07.2020
556 Clear 35 1001 17 10000 3.6 270 23:18 03.07.2020
557 Clear 33 1001 19 10000 2.1 280 22:54 03.07.2020
558 Clear 33 1001 19 10000 2.1 280 22:36 03.07.2020
559 Clear 33 1001 19 10000 2.1 280 22:18 03.07.2020
560 Clear 35 1001 20 9000 2.1 310 21:39 03.07.2020
561 Clear 35 1001 20 9000 2.1 310 21:19 03.07.2020
562 Clear 35 1001 20 10000 1.5 300 20:46 03.07.2020
563 Clear 35 1001 20 10000 1.5 300 20:27 03.07.2020
564 Clear 37 1001 16 10000 2.6 290 19:59 03.07.2020
565 Clear 37 1000 9 0 3.52 324 19:40 03.07.2020
566 Clear 41 1000 13 10000 2.1 330 19:18 03.07.2020
567 Clear 41 1000 13 10000 2.1 330 18:45 03.07.2020
568 Clear 41 1000 13 10000 2.1 330 18:24 03.07.2020
569 Clear 43 1000 12 10000 4.6 330 17:59 03.07.2020
570 Clear 43 1000 12 10000 4.6 330 17:41 03.07.2020
571 Clear 43 1000 12 10000 4.6 330 17:20 03.07.2020
572 Clear 44 1000 10 10000 5.7 310 16:41 03.07.2020
573 Clear 44 1000 10 10000 5.7 310 16:23 03.07.2020
574 Clear 45 1001 10 10000 7.2 330 15:46 03.07.2020
575 Clear 45 1001 10 10000 7.2 330 15:24 03.07.2020
576 Clear 45 1001 10 10000 6.7 270 14:58 03.07.2020
577 Clear 45 1001 10 10000 6.7 270 14:39 03.07.2020
578 Clear 45 1001 10 10000 6.7 270 14:20 03.07.2020
579 Clear 44 1001 12 10000 3.1 310 13:47 03.07.2020
580 Clear 44 1001 12 10000 3.1 310 13:29 03.07.2020
581 Clear 43 1002 12 10000 2.6 0 12:57 03.07.2020
582 Clear 43 1002 12 10000 2.6 0 12:38 03.07.2020
583 Clear 43 1002 12 10000 2.6 0 12:19 03.07.2020
584 Clear 43 1002 13 10000 2.6 0 11:42 03.07.2020
585 Clear 43 1002 13 10000 2.6 0 11:23 03.07.2020
586 Clear 42 1003 14 10000 2.6 0 10:58 03.07.2020
587 Clear 42 1003 14 10000 2.6 0 10:39 03.07.2020
588 Clear 42 1003 14 10000 2.6 0 10:20 03.07.2020
589 Clear 41 1003 16 10000 2.1 320 09:55 03.07.2020
590 Clear 41 1003 16 10000 2.1 320 09:37 03.07.2020
591 Clear 41 1003 16 10000 2.1 320 09:18 03.07.2020
592 Clear 38 1003 21 10000 2.6 350 08:40 03.07.2020
593 Clear 38 1003 21 10000 2.6 350 08:19 03.07.2020
594 Clear 35 1002 24 10000 2.6 310 07:48 03.07.2020
595 Clear 35 1002 24 10000 2.6 310 07:26 03.07.2020
596 Clear 32 1002 25 10000 2.1 310 06:49 03.07.2020
597 Clear 32 1002 25 10000 2.1 310 06:19 03.07.2020
598 Clear 28 1001 32 10000 1.5 280 04:55 03.07.2020
599 Clear 26 1000 34 10000 1.51 37 03:32 03.07.2020
600 Clear 26 1000 39 10000 2.56 57 02:47 03.07.2020
601 Clear 26 1000 39 10000 1.82 56 02:27 03.07.2020
602 Clear 28 1000 34 10000 0.5 0 01:28 03.07.2020
603 Clear 30 1000 33 10000 1 0 00:50 03.07.2020
604 Clear 30 1000 33 10000 1 0 00:32 03.07.2020
605 Clear 30 1001 30 10000 3.6 170 23:47 02.07.2020
606 Clear 30 1001 30 10000 3.6 170 23:20 02.07.2020
607 Clear 31 1001 22 10000 1.5 50 22:58 02.07.2020
608 Clear 31 1001 22 10000 1.5 50 22:40 02.07.2020
609 Clear 31 1001 22 10000 1.5 50 22:20 02.07.2020
610 Clear 33 1001 26 10000 1.5 290 21:56 02.07.2020
611 Clear 33 1001 26 10000 1.5 290 21:38 02.07.2020
612 Clear 33 1001 26 10000 1.5 290 21:18 02.07.2020
613 Clear 35 1000 23 10000 1.64 315 20:57 02.07.2020
614 Clear 35 1000 23 10000 1.64 315 20:39 02.07.2020
615 Clear 35 1000 23 10000 1.71 328 20:18 02.07.2020
616 Clear 38 1000 17 10000 1 0 19:41 02.07.2020
617 Clear 38 1000 17 10000 1 0 19:22 02.07.2020
618 Clear 41 999 13 10000 2.1 270 18:58 02.07.2020
619 Clear 41 999 13 10000 2.1 270 18:40 02.07.2020
620 Clear 41 999 13 10000 2.1 270 18:21 02.07.2020
621 Clear 42 999 12 10000 4.1 250 17:54 02.07.2020
622 Clear 42 999 12 10000 4.1 250 17:36 02.07.2020
623 Clear 42 999 12 10000 4.1 250 17:18 02.07.2020
624 Clear 43 999 13 10000 3.1 290 16:41 02.07.2020
625 Clear 43 999 13 10000 3.1 290 16:20 02.07.2020
626 Clear 43 998 7 0 6.44 304 15:55 02.07.2020
627 Clear 43 999 14 10000 3.1 270 15:36 02.07.2020
628 Clear 43 999 14 10000 3.1 270 15:18 02.07.2020
629 Clear 43 999 14 10000 3.1 270 14:44 02.07.2020
630 Clear 43 999 14 10000 3.1 270 14:44 02.07.2020
631 Clear 43 999 14 10000 3.1 270 14:21 02.07.2020
632 Clear 43 999 15 10000 3.1 270 13:56 02.07.2020
633 Clear 43 999 15 10000 3.1 270 13:37 02.07.2020
634 Clear 43 999 15 10000 3.1 270 13:18 02.07.2020
635 Clear 42 1000 15 10000 4.1 270 12:41 02.07.2020
636 Clear 42 1000 15 10000 4.1 270 12:22 02.07.2020
637 Clear 41 1000 16 10000 4.1 220 11:55 02.07.2020
638 Clear 41 1000 16 10000 4.1 220 11:37 02.07.2020
639 Clear 41 1000 16 10000 4.1 220 11:19 02.07.2020
640 Clear 41 1000 19 10000 2.6 200 10:42 02.07.2020
641 Clear 41 1000 19 10000 2.6 200 10:23 02.07.2020
642 Clear 39 1000 21 10000 3.1 200 09:44 02.07.2020
643 Clear 39 1000 21 10000 3.1 200 09:23 02.07.2020
644 Clear 38 1000 19 10000 2.1 140 08:59 02.07.2020
645 Clear 38 1000 19 10000 2.1 140 08:40 02.07.2020
646 Clear 38 1000 19 10000 2.1 140 08:20 02.07.2020
647 Clear 34 1000 24 10000 1 0 07:42 02.07.2020
648 Clear 34 1000 24 10000 1 0 07:22 02.07.2020
649 Clear 31 999 29 10000 2.1 210 06:47 02.07.2020
650 Clear 31 999 29 10000 2.1 210 06:27 02.07.2020
651 Clear 28 999 32 10000 1.5 220 05:49 02.07.2020
652 Clear 26 998 39 10000 1 0 04:55 02.07.2020
653 Clear 28 998 42 10000 2.1 80 03:34 02.07.2020
654 Clear 28 998 39 10000 1.5 130 01:51 02.07.2020
655 Clear 30 998 35 10000 1 0 00:45 02.07.2020
656 Clear 30 998 35 10000 1 0 00:19 02.07.2020
657 Clear 28 998 37 10000 0.95 260 23:43 01.07.2020
658 Clear 28 998 37 10000 1.71 304 23:23 01.07.2020
659 Clear 30 998 28 10000 1 0 22:55 01.07.2020
660 Clear 30 998 28 10000 1 0 22:37 01.07.2020
661 Clear 30 998 28 10000 1 0 22:19 01.07.2020
662 Clear 33 998 22 10000 1.5 260 21:57 01.07.2020
663 Clear 33 998 22 10000 1.5 260 21:39 01.07.2020
664 Clear 33 998 22 10000 1.5 260 21:20 01.07.2020
665 Clear 35 998 21 10000 1 320 20:46 01.07.2020
666 Clear 35 998 21 10000 1 320 20:28 01.07.2020
667 Clear 35 997 26 10000 1.5 80 19:58 01.07.2020
668 Clear 35 997 26 10000 1.5 80 19:40 01.07.2020
669 Clear 35 997 26 10000 1.5 80 19:20 01.07.2020
670 Clear 39 997 18 10000 2.1 350 18:56 01.07.2020
671 Clear 39 997 18 10000 2.1 350 18:38 01.07.2020
672 Clear 39 997 18 10000 2.1 350 18:20 01.07.2020
673 Clear 41 997 15 10000 5.1 320 17:41 01.07.2020
674 Clear 41 997 15 10000 5.1 320 17:41 01.07.2020
675 Clear 41 997 15 10000 5.1 320 17:21 01.07.2020
676 Clear 42 997 13 10000 4.1 270 16:57 01.07.2020
677 Clear 42 997 13 10000 4.1 270 16:39 01.07.2020
678 Clear 42 997 13 10000 4.1 270 16:20 01.07.2020
679 Clear 42 997 13 10000 4.6 250 15:42 01.07.2020
680 Clear 42 997 13 10000 4.6 250 15:23 01.07.2020
681 Clear 42 998 14 10000 3.1 230 14:58 01.07.2020
682 Clear 42 998 14 10000 3.1 230 14:38 01.07.2020
683 Clear 42 998 14 10000 3.1 230 14:19 01.07.2020
684 Clear 42 998 15 10000 3.1 290 13:54 01.07.2020
685 Clear 42 998 15 10000 3.1 290 13:36 01.07.2020
686 Clear 42 998 15 10000 3.1 290 13:18 01.07.2020
687 Clear 42 998 16 10000 3.1 290 12:41 01.07.2020
688 Clear 42 998 16 10000 3.1 290 12:22 01.07.2020
689 Clear 40 999 20 10000 3.6 0 11:58 01.07.2020
690 Clear 40 999 20 10000 3.6 0 11:40 01.07.2020
691 Clear 40 999 20 10000 3.6 0 11:21 01.07.2020
692 Clear 40 999 20 10000 4.6 290 10:43 01.07.2020
693 Clear 40 999 20 10000 4.6 290 10:24 01.07.2020
694 Clear 37 999 29 10000 5.1 280 09:59 01.07.2020
695 Clear 37 999 29 10000 5.1 280 09:38 01.07.2020
696 Clear 37 999 29 10000 5.1 280 09:20 01.07.2020
697 Clear 37 999 29 10000 5.1 280 09:20 01.07.2020
698 Clear 35 999 28 10000 5.7 300 08:57 01.07.2020
699 Clear 35 999 28 10000 5.7 300 08:38 01.07.2020
700 Clear 35 999 28 10000 5.7 300 08:19 01.07.2020
701 Clear 33 998 29 10000 7.7 300 07:41 01.07.2020
702 Clear 33 998 29 10000 7.7 300 07:22 01.07.2020
703 Clear 31 998 31 10000 5.7 310 06:54 01.07.2020
704 Clear 31 998 31 10000 5.7 310 06:32 01.07.2020
705 Clear 28 998 37 10000 3.6 330 05:35 01.07.2020
706 Clear 28 996 32 10000 1.5 280 03:55 01.07.2020
707 Clear 28 996 32 10000 1.5 280 03:36 01.07.2020
708 Clear 28 996 32 10000 1.5 280 03:18 01.07.2020
709 Clear 29 996 35 10000 0.5 0 01:56 01.07.2020
710 Clear 29 996 35 10000 1.5 290 00:48 01.07.2020
711 Clear 29 996 35 10000 1.5 290 00:27 01.07.2020
712 Clear 32 996 29 10000 3.1 220 23:57 30.06.2020
713 Clear 32 996 29 10000 3.1 220 23:39 30.06.2020
714 Clear 32 996 29 10000 3.1 220 23:19 30.06.2020
715 Clear 30 996 28 10000 1.5 160 22:42 30.06.2020
716 Clear 30 996 28 10000 1.5 160 22:19 30.06.2020
717 Clear 32 996 24 10000 1.5 140 21:42 30.06.2020
718 Clear 32 996 24 10000 1.5 140 21:19 30.06.2020
719 Clear 34 996 24 10000 0.5 0 20:59 30.06.2020
720 Clear 34 996 24 10000 0.5 0 20:40 30.06.2020
721 Clear 34 996 24 10000 0.5 0 20:20 30.06.2020
722 Clear 39 996 17 10000 1.5 260 19:43 30.06.2020
723 Clear 39 996 17 10000 1.5 260 19:20 30.06.2020
724 Clear 39 996 17 10000 1.5 260 19:20 30.06.2020
725 Clear 40 996 16 10000 4.1 250 18:54 30.06.2020
726 Clear 40 996 16 10000 4.1 250 18:36 30.06.2020
727 Clear 40 996 16 10000 4.1 250 18:18 30.06.2020
728 Clear 42 995 16 10000 5.7 260 17:38 30.06.2020
729 Clear 42 995 16 10000 5.7 260 17:20 30.06.2020
730 Clear 42 995 16 10000 5.1 260 16:55 30.06.2020
731 Clear 42 995 16 10000 5.1 260 16:36 30.06.2020
732 Clear 42 995 16 10000 5.1 260 16:18 30.06.2020
733 Clear 42 996 16 10000 5.7 260 15:42 30.06.2020
734 Clear 42 996 16 10000 5.7 260 15:22 30.06.2020
735 Clear 42 996 17 10000 5.1 270 14:58 30.06.2020
736 Clear 42 996 17 10000 5.1 270 14:40 30.06.2020
737 Clear 42 996 17 10000 5.1 270 14:18 30.06.2020
738 Clear 43 996 16 10000 5.1 270 13:42 30.06.2020
739 Clear 43 996 16 10000 5.1 270 13:21 30.06.2020
740 Clear 42 997 15 10000 4.6 300 12:59 30.06.2020
741 Clear 42 997 15 10000 4.6 300 12:40 30.06.2020
742 Clear 42 997 15 10000 4.6 300 12:21 30.06.2020
743 Clear 41 997 16 10000 5.7 330 11:59 30.06.2020
744 Clear 41 997 16 10000 5.7 330 11:39 30.06.2020
745 Clear 41 997 16 10000 5.7 330 11:20 30.06.2020
746 Clear 41 997 16 10000 5.7 330 11:20 30.06.2020
747 Clear 40 997 17 10000 6.2 320 10:59 30.06.2020
748 Clear 43 998 12 10000 6.2 280 16:44 28.06.2020
749 Clear 43 998 12 10000 6.2 280 16:26 28.06.2020
750 Clear 43 999 11 10000 6.2 250 15:58 28.06.2020
751 Clear 43 999 11 10000 6.2 250 15:39 28.06.2020
752 Clear 43 999 11 10000 6.2 250 15:19 28.06.2020
753 Clear 43 999 11 10000 6.2 250 15:19 28.06.2020
754 Clear 43 999 12 10000 6.2 250 14:47 28.06.2020
755 Clear 43 999 12 10000 6.2 250 14:47 28.06.2020
756 Clear 43 999 12 10000 6.2 250 14:28 28.06.2020
757 Clear 43 1000 14 10000 2.6 290 13:59 28.06.2020
758 Clear 43 1000 14 10000 2.6 290 13:38 28.06.2020
759 Clear 43 1000 14 10000 2.6 290 13:38 28.06.2020
760 Clear 43 1000 14 10000 2.6 290 13:38 28.06.2020
761 Clear 43 1000 14 10000 2.6 290 13:20 28.06.2020
762 Clear 43 1000 14 10000 2.6 290 13:20 28.06.2020
763 Clear 42 1000 15 10000 4.1 250 12:56 28.06.2020
764 Clear 42 1000 15 10000 4.1 250 12:37 28.06.2020
765 Clear 42 1000 15 10000 4.1 250 12:19 28.06.2020
766 Clear 42 1001 15 10000 4.1 300 11:56 28.06.2020
767 Clear 42 1001 15 10000 4.1 300 11:38 28.06.2020
768 Clear 42 1001 15 10000 4.1 300 11:19 28.06.2020
769 Clear 40 1001 21 10000 2.6 300 10:55 28.06.2020
770 Clear 40 1001 21 10000 2.6 300 10:36 28.06.2020
771 Clear 40 1001 21 10000 2.6 300 10:36 28.06.2020
772 Clear 40 1001 21 10000 2.6 300 10:18 28.06.2020
773 Clear 39 1002 20 10000 4.1 330 09:40 28.06.2020
774 Clear 39 1002 20 10000 4.1 330 09:21 28.06.2020
775 Clear 36 1001 23 10000 5.1 320 08:48 28.06.2020
776 Clear 36 1001 23 10000 5.1 320 08:26 28.06.2020
777 Clear 35 1001 24 10000 4.1 320 07:50 28.06.2020
778 Clear 35 1001 24 10000 4.1 320 07:30 28.06.2020
779 Clear 31 1001 29 10000 3.1 290 06:44 28.06.2020
780 Clear 31 1001 29 10000 3.1 290 06:24 28.06.2020
781 Clear 28 1001 32 10000 2.1 260 05:27 28.06.2020
782 Clear 26 1000 34 10000 1.5 250 03:45 28.06.2020
783 Clear 26 999 34 10000 1.5 250 02:47 28.06.2020
784 Clear 26 999 34 10000 1.5 250 02:18 28.06.2020
785 Clear 28 999 26 10000 1 0 01:27 28.06.2020
786 Clear 28 999 30 8000 1 280 00:51 28.06.2020
787 Clear 28 999 30 8000 1 280 00:27 28.06.2020
788 Clear 28 1000 30 10000 1 310 23:43 27.06.2020
789 Clear 28 1000 30 10000 1 310 23:24 27.06.2020
790 Clear 31 1000 25 10000 1 320 22:59 27.06.2020
791 Clear 31 1000 25 10000 1 320 22:40 27.06.2020
792 Clear 31 1000 25 10000 1 320 22:22 27.06.2020
793 Clear 33 1001 22 10000 1.5 330 21:56 27.06.2020
794 Clear 33 1001 22 10000 1.5 330 21:38 27.06.2020
795 Clear 33 1001 22 10000 1.5 330 21:19 27.06.2020
796 Clear 34 1000 23 10000 1 330 20:44 27.06.2020
797 Clear 34 1000 23 10000 1 330 20:19 27.06.2020
798 Clear 37 1000 19 10000 2.6 340 19:56 27.06.2020
799 Clear 37 1000 19 10000 2.6 340 19:37 27.06.2020
800 Clear 37 1000 19 10000 2.6 340 19:18 27.06.2020
801 Clear 39 1000 16 10000 3.6 320 18:46 27.06.2020
802 Clear 39 1000 16 10000 3.6 320 18:28 27.06.2020
803 Clear 42 1000 14 10000 4.6 300 17:58 27.06.2020
804 Clear 42 1000 14 10000 4.6 300 17:38 27.06.2020
805 Clear 42 1000 14 10000 4.6 300 17:19 27.06.2020
806 Clear 43 1000 12 10000 4.1 300 16:46 27.06.2020
807 Clear 43 1000 12 10000 4.1 300 16:28 27.06.2020
808 Clear 44 1000 12 10000 6.2 290 15:59 27.06.2020
809 Clear 44 1000 12 10000 6.2 290 15:41 27.06.2020
810 Clear 44 1000 12 10000 6.2 290 15:21 27.06.2020
811 Clear 44 1001 10 10000 5.1 270 14:43 27.06.2020
812 Clear 44 1001 10 10000 5.1 270 14:25 27.06.2020
813 Clear 44 1001 10 10000 7.2 300 13:59 27.06.2020
814 Clear 44 1001 10 10000 7.2 300 13:38 27.06.2020
815 Clear 44 1001 10 10000 7.2 300 13:38 27.06.2020
816 Clear 44 1001 10 10000 7.2 300 13:19 27.06.2020
817 Clear 44 1002 8 10000 7.7 270 12:57 27.06.2020
818 Clear 44 1002 8 10000 7.7 270 12:39 27.06.2020
819 Clear 44 1002 8 10000 7.7 270 12:21 27.06.2020
820 Clear 43 1002 11 10000 4.1 290 11:55 27.06.2020
821 Clear 43 1002 11 10000 4.1 290 11:36 27.06.2020
822 Clear 43 1002 11 10000 4.1 290 11:18 27.06.2020
823 Clear 42 1002 14 10000 3.1 340 10:38 27.06.2020
824 Clear 42 1002 14 10000 3.1 340 10:19 27.06.2020
825 Clear 39 1002 17 10000 2.6 340 09:41 27.06.2020
826 Clear 39 1002 17 10000 2.6 340 09:23 27.06.2020
827 Clear 36 1003 20 10000 3.6 350 08:59 27.06.2020
828 Clear 36 1003 20 10000 3.6 350 08:39 27.06.2020
829 Clear 36 1003 20 10000 3.6 350 08:21 27.06.2020
830 Clear 34 1003 20 10000 5.1 310 07:45 27.06.2020
831 Clear 34 1003 20 10000 5.1 310 07:24 27.06.2020
832 Clear 31 1002 27 10000 4.1 270 06:46 27.06.2020
833 Clear 31 1002 27 10000 4.1 270 06:27 27.06.2020
834 Clear 26 1001 31 10000 2.6 300 04:23 27.06.2020
835 Clear 28 1000 28 10000 1.5 330 03:52 27.06.2020
836 Clear 27 1000 26 10000 1.5 280 02:56 27.06.2020
837 Clear 27 1000 26 10000 1.5 280 02:34 27.06.2020
838 Clear 28 1000 26 10000 1.5 290 01:43 27.06.2020
839 Clear 30 1000 25 10000 2.6 320 00:57 27.06.2020
840 Clear 30 1000 25 10000 2.6 320 00:36 27.06.2020
841 Clear 34 1000 20 10000 4.1 270 23:45 26.06.2020
842 Clear 34 1000 20 10000 4.1 270 23:25 26.06.2020
843 Clear 35 1000 19 10000 5.1 270 22:57 26.06.2020
844 Clear 35 1000 19 10000 5.1 270 22:38 26.06.2020
845 Clear 35 1000 19 10000 5.1 270 22:19 26.06.2020
846 Clear 35 1000 19 10000 4.6 270 21:57 26.06.2020
847 Clear 35 1000 19 10000 4.6 270 21:37 26.06.2020
848 Clear 35 1000 20 10000 4.6 260 21:19 26.06.2020
849 Clear 36 1000 20 10000 1.5 240 20:43 26.06.2020
850 Clear 36 1000 20 10000 1.5 240 20:23 26.06.2020
851 Clear 38 1000 18 10000 3.1 250 19:47 26.06.2020
852 Clear 38 1000 18 10000 3.1 250 19:24 26.06.2020
853 Clear 40 1000 17 10000 3.6 240 18:58 26.06.2020
854 Clear 40 1000 17 10000 3.6 240 18:38 26.06.2020
855 Clear 40 1000 17 10000 3.6 240 18:19 26.06.2020
856 Clear 43 1000 12 10000 5.7 270 17:44 26.06.2020
857 Clear 43 1000 12 10000 5.7 270 17:25 26.06.2020
858 Clear 44 1000 11 10000 6.7 270 16:49 26.06.2020
859 Clear 44 1000 11 10000 6.7 270 16:27 26.06.2020
860 Clear 44 1000 11 10000 6.7 270 15:55 26.06.2020
861 Clear 44 1000 11 10000 6.7 270 15:37 26.06.2020
862 Clear 44 1000 11 10000 6.7 270 15:19 26.06.2020
863 Clear 45 1000 10 10000 6.2 270 14:57 26.06.2020
864 Clear 45 1000 10 10000 6.2 270 14:38 26.06.2020
865 Clear 45 1000 10 10000 6.2 270 14:20 26.06.2020
866 Clear 44 1001 11 10000 8.2 280 13:44 26.06.2020
867 Clear 44 1001 11 10000 8.2 280 13:23 26.06.2020
868 Clear 43 1001 14 10000 8.2 290 12:55 26.06.2020
869 Clear 43 1001 14 10000 8.2 290 12:37 26.06.2020
870 Clear 43 1001 14 10000 8.2 290 12:18 26.06.2020
871 Clear 41 1002 20 10000 7.2 280 11:54 26.06.2020
872 Clear 41 1002 20 10000 7.2 280 11:36 26.06.2020
873 Clear 41 1002 20 10000 7.2 280 11:18 26.06.2020
874 Clear 41 1002 20 10000 7.2 280 11:18 26.06.2020
875 Clear 39 1002 21 10000 6.7 300 10:40 26.06.2020
876 Clear 39 1002 21 10000 6.7 300 10:20 26.06.2020
877 Clear 37 1003 23 10000 7.2 290 09:57 26.06.2020
878 Clear 37 1003 23 10000 7.2 290 09:38 26.06.2020
879 Clear 35 1002 26 10000 7.2 290 09:19 26.06.2020
880 Clear 35 1002 26 10000 7.2 290 08:45 26.06.2020
881 Clear 35 1002 26 10000 7.2 290 08:27 26.06.2020
882 Clear 32 1002 31 10000 7.2 290 07:48 26.06.2020
883 Clear 32 1002 31 10000 7.2 290 07:23 26.06.2020
884 Clear 30 1002 30 10000 4.1 270 06:49 26.06.2020
885 Clear 30 1002 30 10000 4.1 270 06:30 26.06.2020
886 Clear 27 1002 30 10000 2.6 270 05:52 26.06.2020
887 Clear 27 1002 30 10000 2.6 270 05:18 26.06.2020
888 Clear 30 1001 27 10000 4.6 240 02:32 26.06.2020
889 Clear 31 1001 22 10000 5.1 250 01:35 26.06.2020
890 Clear 30 1001 25 10000 3.1 240 00:50 26.06.2020
891 Clear 30 1001 25 10000 3.1 240 00:30 26.06.2020
892 Clear 27 1001 28 10000 1 0 23:47 25.06.2020
893 Clear 27 1001 28 10000 1 0 23:22 25.06.2020
894 Clear 27 1001 28 10000 1 0 23:22 25.06.2020
895 Clear 28 1001 28 10000 1.5 200 22:58 25.06.2020
896 Clear 28 1001 28 10000 1.5 200 22:39 25.06.2020
897 Clear 28 1001 28 10000 1.5 200 22:20 25.06.2020
898 Clear 29 1002 28 10000 1.5 200 21:57 25.06.2020
899 Clear 29 1002 28 10000 1.5 200 21:39 25.06.2020
900 Clear 29 1002 28 10000 1.5 200 21:20 25.06.2020
901 Clear 32 1002 22 10000 1.5 190 20:57 25.06.2020
902 Clear 32 1002 22 10000 1.5 190 20:39 25.06.2020
903 Clear 32 1002 22 10000 1.5 190 20:21 25.06.2020
904 Clear 35 1001 16 10000 2.1 260 19:41 25.06.2020
905 Clear 39 1001 13 10000 4.1 290 19:21 25.06.2020
906 Clear 39 1001 13 10000 4.1 290 19:00 25.06.2020
907 Clear 39 1001 13 10000 4.1 290 18:59 25.06.2020
908 Clear 39 1001 13 10000 4.1 290 18:39 25.06.2020
909 Clear 39 1001 13 10000 4.1 290 18:20 25.06.2020
910 Clear 41 1001 12 10000 6.2 290 17:45 25.06.2020
911 Clear 41 1001 12 10000 6.2 290 17:20 25.06.2020
912 Clear 40 1002 14 10000 7.2 300 16:59 25.06.2020
913 Clear 40 1002 14 10000 7.2 300 16:40 25.06.2020
914 Clear 40 1002 14 10000 7.2 300 16:19 25.06.2020
915 Clear 41 1002 13 10000 7.2 300 15:43 25.06.2020
916 Clear 41 1002 13 10000 7.2 300 15:25 25.06.2020
917 Clear 40 1003 14 10000 7.2 280 14:56 25.06.2020
918 Clear 40 1003 14 10000 7.2 280 14:37 25.06.2020
919 Clear 40 1003 14 10000 7.2 280 14:19 25.06.2020
920 Clear 39 1003 16 10000 6.7 260 13:42 25.06.2020
921 Clear 39 1003 16 10000 6.7 260 13:22 25.06.2020
922 Clear 39 1003 18 10000 6.7 280 12:59 25.06.2020
923 Clear 41 1001 10 0 6.56 300 12:41 25.06.2020
924 Clear 37 1004 25 10000 7.2 270 12:20 25.06.2020
925 Clear 37 1004 25 10000 7.2 270 11:43 25.06.2020
926 Clear 37 1004 25 10000 7.2 270 11:23 25.06.2020
927 Clear 36 1004 28 10000 7.7 290 10:46 25.06.2020
928 Clear 34 1004 34 10000 8.2 290 10:27 25.06.2020
929 Clear 34 1004 34 10000 8.2 290 09:59 25.06.2020
930 Clear 34 1004 34 10000 8.2 290 09:40 25.06.2020
931 Clear 33 1004 36 10000 7.7 290 09:20 25.06.2020
932 Clear 33 1004 36 10000 7.7 290 08:45 25.06.2020
933 Clear 33 1004 36 10000 7.7 290 08:20 25.06.2020
934 Clear 33 1004 24 0 7.68 308 07:45 25.06.2020
935 Clear 31 1004 27 0 7.85 312 07:26 25.06.2020
936 Clear 31 1004 27 0 7.85 312 06:50 25.06.2020
937 Clear 30 1004 29 0 8.16 315 06:27 25.06.2020
938 Clear 30 1004 29 0 8.16 315 05:51 25.06.2020
939 Clear 27 1004 42 10000 5.7 290 03:58 25.06.2020
940 Clear 27 1004 42 10000 5.7 290 03:32 25.06.2020
941 Clear 28 1004 37 10000 4.6 290 02:42 25.06.2020
942 Clear 29 1004 32 10000 5.1 300 01:59 25.06.2020
943 Clear 29 1004 32 10000 5.1 300 01:21 25.06.2020
944 Clear 31 1004 25 10000 7.7 300 00:44 25.06.2020
945 Clear 31 1004 25 10000 7.7 300 00:21 25.06.2020
946 Clear 31 1004 22 10000 7.2 290 23:44 24.06.2020
947 Clear 31 1004 22 10000 7.2 290 23:26 24.06.2020
948 Clear 32 1004 21 10000 7.2 280 22:58 24.06.2020
949 Clear 32 1004 21 10000 7.2 280 22:40 24.06.2020
950 Clear 32 1004 21 10000 7.2 280 22:20 24.06.2020
951 Clear 34 1004 20 10000 7.2 280 21:56 24.06.2020
952 Clear 34 1004 20 10000 7.2 280 21:37 24.06.2020
953 Clear 34 1004 20 10000 7.2 280 21:18 24.06.2020
954 Clear 35 1004 17 10000 6.2 270 20:58 24.06.2020
955 Clear 35 1004 17 10000 6.2 270 20:39 24.06.2020
956 Clear 35 1004 17 10000 6.2 270 20:20 24.06.2020
957 Clear 36 1004 15 10000 6.2 280 19:57 24.06.2020
958 Clear 36 1004 15 10000 6.2 280 19:37 24.06.2020
959 Clear 36 1004 15 10000 6.2 280 19:18 24.06.2020
960 Clear 38 1003 14 10000 7.2 280 18:57 24.06.2020
961 Clear 38 1003 14 10000 7.2 280 18:38 24.06.2020
962 Clear 38 1003 14 10000 7.2 280 18:20 24.06.2020
963 Clear 40 1003 12 10000 8.2 290 17:43 24.06.2020
964 Clear 40 1003 12 10000 8.2 290 17:21 24.06.2020
965 Clear 40 1002 8 0 9.45 308 16:59 24.06.2020
966 Clear 40 1002 8 0 9.45 308 16:40 24.06.2020
967 Clear 41 1002 7 0 9.95 307 16:22 24.06.2020
968 Clear 41 1002 7 0 9.95 307 15:59 24.06.2020
969 Clear 42 1003 9 10000 7.7 290 15:39 24.06.2020
970 Clear 42 1003 9 10000 7.7 290 15:20 24.06.2020
971 Clear 42 1003 9 10000 7.7 290 14:54 24.06.2020
972 Clear 42 1003 9 10000 7.7 290 14:36 24.06.2020
973 Clear 42 1003 9 10000 7.7 290 14:18 24.06.2020
974 Clear 41 1004 11 10000 8.7 280 13:42 24.06.2020
975 Clear 41 1004 11 10000 8.7 280 13:21 24.06.2020
976 Clear 41 1004 12 10000 10.3 290 12:42 24.06.2020
977 Clear 41 1004 12 10000 10.3 290 12:21 24.06.2020
978 Clear 40 1004 12 10000 11.3 290 11:58 24.06.2020
979 Clear 40 1004 12 10000 11.3 290 11:39 24.06.2020
980 Clear 40 1004 12 10000 11.3 290 11:21 24.06.2020
981 Clear 40 1005 14 10000 10.8 290 10:45 24.06.2020
982 Clear 40 1005 14 10000 10.8 290 10:19 24.06.2020
983 Clear 38 1005 17 10000 9.8 290 09:46 24.06.2020
984 Clear 38 1005 17 10000 9.8 290 09:26 24.06.2020
985 Clear 36 1005 16 10000 10.8 300 08:59 24.06.2020
986 Clear 36 1005 16 10000 10.8 300 08:40 24.06.2020
987 Clear 36 1005 16 10000 10.8 300 08:18 24.06.2020
988 Clear 34 1005 20 10000 9.3 310 07:46 24.06.2020
989 Clear 34 1005 20 10000 9.3 310 07:25 24.06.2020
990 Clear 31 1004 22 10000 8.2 300 06:45 24.06.2020
991 Clear 31 1004 22 10000 8.2 300 06:24 24.06.2020
992 Clear 30 1004 23 10000 6.7 310 05:39 24.06.2020
993 Clear 29 1003 23 10000 8.2 310 04:38 24.06.2020
994 Clear 30 1003 22 10000 8.2 310 03:38 24.06.2020
995 Clear 30 1003 23 10000 8.2 300 02:54 24.06.2020
996 Clear 31 1003 22 10000 7.7 300 02:21 24.06.2020
997 Clear 32 1003 22 10000 7.2 310 00:52 24.06.2020
998 Clear 32 1003 22 10000 7.2 310 00:33 24.06.2020
999 Clear 33 1003 26 10000 7.7 300 23:49 23.06.2020
1000 Clear 33 1003 26 10000 7.7 300 23:22 23.06.2020
1001 Clear 32 1003 25 10000 5.7 300 22:59 23.06.2020
1002 Clear 32 1003 25 10000 5.7 300 22:41 23.06.2020
1003 Clear 32 1003 25 10000 5.7 300 22:18 23.06.2020
1004 Clear 34 1003 18 10000 7.7 290 21:56 23.06.2020
1005 Clear 34 1003 18 10000 7.7 290 21:37 23.06.2020
1006 Clear 34 1003 18 10000 7.7 290 21:18 23.06.2020
1007 Clear 35 1003 16 10000 6.2 290 20:54 23.06.2020
1008 Clear 35 1003 16 10000 6.2 290 20:36 23.06.2020
1009 Clear 35 1003 16 10000 6.2 290 20:36 23.06.2020
1010 Clear 35 1003 16 10000 6.2 290 20:18 23.06.2020
1011 Clear 37 1002 14 10000 6.2 280 19:41 23.06.2020
1012 Clear 37 1002 14 10000 6.2 280 19:23 23.06.2020
1013 Clear 39 1002 12 10000 5.7 290 18:39 23.06.2020
1014 Clear 42 1002 9 10000 7.7 320 18:19 23.06.2020
1015 Clear 42 1002 9 10000 7.7 320 18:19 23.06.2020
1016 Clear 42 1002 9 10000 7.7 320 17:43 23.06.2020
1017 Clear 42 1002 9 10000 7.7 320 17:25 23.06.2020
1018 Clear 43 1002 9 10000 9.8 310 16:57 23.06.2020
1019 Clear 43 1002 9 10000 9.8 310 16:38 23.06.2020
1020 Clear 43 1002 9 10000 9.8 310 16:20 23.06.2020
1021 Clear 43 1002 10 10000 7.7 330 15:57 23.06.2020
1022 Clear 43 1002 10 10000 7.7 330 15:39 23.06.2020
1023 Clear 43 1002 10 10000 7.7 330 15:18 23.06.2020
1024 Clear 43 1002 11 10000 8.2 330 14:43 23.06.2020
1025 Clear 43 1002 11 10000 8.2 330 14:20 23.06.2020
1026 Clear 43 1003 12 10000 9.3 320 13:58 23.06.2020
1027 Clear 43 1003 12 10000 9.3 320 13:40 23.06.2020
1028 Clear 43 1003 12 10000 9.3 320 13:22 23.06.2020
1029 Clear 42 1003 12 10000 9.3 330 12:45 23.06.2020
1030 Clear 42 1003 12 10000 9.3 330 12:23 23.06.2020
1031 Clear 42 1004 14 10000 7.2 330 11:59 23.06.2020
1032 Clear 42 1004 14 10000 7.2 330 11:40 23.06.2020
1033 Clear 42 1004 14 10000 7.2 330 11:20 23.06.2020
1034 Clear 41 1004 14 10000 8.2 320 10:58 23.06.2020
1035 Clear 41 1004 14 10000 8.2 320 10:39 23.06.2020
1036 Clear 41 1004 14 10000 8.2 320 10:21 23.06.2020
1037 Clear 39 1004 16 10000 8.7 320 09:55 23.06.2020
1038 Clear 39 1004 16 10000 8.7 320 09:36 23.06.2020
1039 Clear 39 1004 16 10000 8.7 320 09:18 23.06.2020
1040 Clear 36 1005 19 10000 6.2 320 08:42 23.06.2020
1041 Clear 36 1005 19 10000 6.2 320 08:22 23.06.2020
1042 Clear 33 1005 24 10000 5.1 320 07:44 23.06.2020
1043 Clear 33 1005 24 10000 5.1 320 07:24 23.06.2020
1044 Clear 29 1004 30 10000 4.6 310 06:51 23.06.2020
1045 Clear 29 1004 30 10000 4.6 310 06:31 23.06.2020
1046 Clear 25 1004 41 10000 1.5 320 05:48 23.06.2020
1047 Clear 25 1004 36 10000 2.6 310 04:41 23.06.2020
1048 Clear 26 1003 29 10000 3.6 310 03:20 23.06.2020
1049 Clear 25 1003 33 10000 3.6 320 02:46 23.06.2020
1050 Clear 25 1003 33 10000 3.6 320 02:27 23.06.2020
1051 Clear 27 1003 30 10000 3.1 300 01:44 23.06.2020
1052 Clear 27 1003 30 10000 3.1 300 01:21 23.06.2020
1053 Clear 27 1003 30 10000 2.6 310 00:38 23.06.2020
1054 Clear 27 1003 30 10000 2.6 310 00:18 23.06.2020
1055 Clear 27 1003 28 10000 2.6 300 23:39 22.06.2020
1056 Clear 27 1003 28 10000 2.6 300 23:19 22.06.2020
1057 Clear 27 1003 28 10000 2.6 300 23:19 22.06.2020
1058 Clear 29 1003 26 10000 2.1 310 22:58 22.06.2020
1059 Clear 29 1003 26 10000 2.1 310 22:40 22.06.2020
1060 Clear 29 1003 26 10000 2.1 310 22:20 22.06.2020
1061 Clear 32 1003 22 10000 1.5 320 21:58 22.06.2020
1062 Clear 32 1003 22 10000 1.5 320 21:40 22.06.2020
1063 Clear 32 1003 22 10000 1.5 320 21:21 22.06.2020
1064 Clear 34 1002 14 0 4.54 350 20:55 22.06.2020
1065 Clear 36 1003 18 10000 4.6 270 20:36 22.06.2020
1066 Clear 36 1003 18 10000 4.6 270 20:18 22.06.2020
1067 Clear 36 1003 18 10000 4.6 270 19:43 22.06.2020
1068 Clear 36 1003 18 10000 4.6 270 19:19 22.06.2020
1069 Clear 38 1003 16 10000 5.1 280 18:56 22.06.2020
1070 Clear 38 1003 16 10000 5.1 280 18:36 22.06.2020
1071 Clear 38 1003 16 10000 5.1 280 18:18 22.06.2020
1072 Clear 39 1003 15 10000 7.7 270 17:55 22.06.2020
1073 Clear 39 1003 15 10000 7.7 270 17:36 22.06.2020
1074 Clear 39 1003 15 10000 7.7 270 17:18 22.06.2020
1075 Clear 40 1003 13 10000 7.7 280 16:41 22.06.2020
1076 Clear 40 1003 13 10000 7.7 280 16:18 22.06.2020
1077 Clear 40 1003 13 10000 9.8 310 15:55 22.06.2020
1078 Clear 40 1003 13 10000 9.8 310 15:37 22.06.2020
1079 Clear 40 1003 13 10000 9.8 310 15:19 22.06.2020
1080 Clear 41 1003 13 10000 9.3 290 14:39 22.06.2020
1081 Clear 41 1003 13 10000 9.3 290 14:20 22.06.2020
1082 Clear 40 1004 14 10000 9.3 290 13:56 22.06.2020
1083 Clear 40 1004 14 10000 9.3 290 13:37 22.06.2020
1084 Clear 40 1004 14 10000 9.3 290 13:19 22.06.2020
1085 Clear 40 1004 15 10000 6.7 300 12:42 22.06.2020
1086 Clear 40 1004 15 10000 6.7 300 12:23 22.06.2020
1087 Clear 38 1005 19 10000 6.2 300 11:57 22.06.2020
1088 Clear 38 1005 19 10000 6.2 300 11:37 22.06.2020
1089 Clear 38 1005 19 10000 6.2 300 11:18 22.06.2020
1090 Clear 37 1005 22 10000 7.7 300 10:54 22.06.2020
1091 Clear 37 1005 22 10000 7.7 300 10:36 22.06.2020
1092 Clear 37 1005 22 10000 7.7 300 10:18 22.06.2020
1093 Clear 35 1006 28 10000 5.1 280 09:41 22.06.2020
1094 Clear 35 1006 28 10000 5.1 280 09:20 22.06.2020
1095 Clear 34 1006 30 10000 4.6 300 08:59 22.06.2020
1096 Clear 34 1006 30 10000 4.6 300 08:39 22.06.2020
1097 Clear 34 1006 30 10000 4.6 300 08:39 22.06.2020
1098 Clear 34 1006 30 10000 4.6 300 08:39 22.06.2020
1099 Clear 34 1006 30 10000 4.6 300 08:20 22.06.2020
1100 Clear 35 1005 21 0 5.8 311 07:52 22.06.2020
1101 Clear 29 1005 35 10000 3.6 280 07:33 22.06.2020
1102 Clear 29 1005 35 10000 3.6 280 06:45 22.06.2020
1103 Clear 29 1005 35 10000 3.6 280 06:26 22.06.2020
1104 Clear 27 1005 34 10000 2.6 290 05:58 22.06.2020
1105 Clear 27 1005 34 10000 2.6 290 05:30 22.06.2020
1106 Clear 28 1004 34 10000 3.6 250 02:55 22.06.2020
1107 Clear 29 1004 32 10000 3.6 260 01:25 22.06.2020
1108 Clear 27 1004 34 10000 2.6 240 00:41 22.06.2020
1109 Clear 27 1004 34 10000 2.1 230 23:59 21.06.2020
1110 Clear 27 1004 34 10000 2.1 230 23:39 21.06.2020
1111 Clear 27 1004 34 10000 2.1 230 23:21 21.06.2020
1112 Clear 31 1004 23 0 3.18 297 22:57 21.06.2020
1113 Clear 28 1004 32 10000 0.5 0 22:38 21.06.2020
1114 Clear 28 1004 32 10000 0.5 0 22:19 21.06.2020
1115 Clear 28 1004 32 10000 0.5 0 21:58 21.06.2020
1116 Clear 28 1004 32 10000 0.5 0 21:40 21.06.2020
1117 Clear 28 1004 32 10000 0.5 0 21:21 21.06.2020
1118 Clear 28 1004 32 10000 0.5 0 21:21 21.06.2020
1119 Clear 32 1003 21 0 4.27 313 20:59 21.06.2020
1120 Clear 32 1003 21 0 4.27 313 20:38 21.06.2020
1121 Clear 33 1003 20 0 4.22 316 20:19 21.06.2020
1122 Clear 33 1003 20 0 4.22 316 19:57 21.06.2020
1123 Clear 33 1003 20 0 4.22 316 19:38 21.06.2020
1124 Clear 33 1002 19 0 4.72 318 19:19 21.06.2020
1125 Clear 33 1002 19 0 4.72 318 18:54 21.06.2020
1126 Clouds 37 1002 18 10000 6.7 270 18:36 21.06.2020
1127 Clouds 37 1002 18 10000 6.7 270 18:36 21.06.2020
1128 Clouds 37 1002 18 10000 6.7 270 18:18 21.06.2020
1129 Clouds 37 1002 18 10000 6.7 270 17:40 21.06.2020
1130 Clouds 37 1002 18 10000 6.7 270 17:20 21.06.2020
1131 Clouds 37 1002 20 10000 7.2 260 16:56 21.06.2020
1132 Clouds 37 1002 20 10000 7.2 260 16:56 21.06.2020
1133 Clouds 37 1002 20 10000 7.2 260 16:38 21.06.2020
1134 Clouds 37 1002 20 10000 7.2 260 16:19 21.06.2020
1135 Clouds 38 1003 21 10000 7.7 270 15:39 21.06.2020
1136 Clouds 38 1003 21 10000 7.7 270 15:21 21.06.2020
1137 Clouds 37 1003 22 10000 6.7 260 14:55 21.06.2020
1138 Clouds 37 1003 22 10000 6.7 260 14:36 21.06.2020
1139 Clouds 37 1003 22 10000 6.7 260 14:18 21.06.2020
1140 Clear 39 1002 14 0 8.03 285 13:42 21.06.2020
1141 Clouds 35 1004 30 10000 4.1 240 13:23 21.06.2020
1142 Clouds 35 1004 30 10000 4.1 240 12:58 21.06.2020
1143 Clouds 35 1004 30 10000 4.1 240 12:58 21.06.2020
1144 Clouds 35 1004 30 10000 4.1 240 12:39 21.06.2020
1145 Clouds 35 1004 30 10000 4.1 240 12:21 21.06.2020
1146 Clear 35 1004 28 10000 4.6 270 11:42 21.06.2020
1147 Clear 35 1004 28 10000 4.6 270 11:24 21.06.2020
1148 Clear 34 1005 34 10000 5.1 290 10:58 21.06.2020
1149 Clear 34 1005 34 10000 5.1 290 10:39 21.06.2020
1150 Clear 34 1005 34 10000 5.1 290 10:21 21.06.2020
1151 Clear 33 1004 36 10000 6.2 300 09:44 21.06.2020
1152 Clear 33 1004 36 10000 6.2 300 09:24 21.06.2020
1153 Clear 31 1004 40 10000 6.7 300 08:59 21.06.2020
1154 Clear 31 1004 40 10000 6.7 300 08:41 21.06.2020
1155 Clear 31 1004 40 10000 6.7 300 08:20 21.06.2020
1156 Clear 31 1004 38 10000 6.7 290 07:59 21.06.2020
1157 Clear 31 1004 38 10000 6.7 290 07:39 21.06.2020
1158 Clear 31 1004 38 10000 6.7 290 07:19 21.06.2020
1159 Clear 29 1004 37 10000 4.1 280 06:46 21.06.2020
1160 Clear 28 1003 34 10000 2.1 290 05:57 21.06.2020
1161 Clear 26 1002 41 10000 2.1 280 04:48 21.06.2020
1162 Clear 25 1002 41 10000 1.5 260 03:20 21.06.2020
1163 Clear 27 1002 42 10000 2.6 290 02:46 21.06.2020
1164 Clear 29 1002 37 10000 3.1 290 01:48 21.06.2020
1165 Clear 29 1002 37 10000 3.1 290 01:20 21.06.2020
1166 Clear 29 1002 37 10000 3.6 270 00:54 21.06.2020
1167 Clear 29 1002 37 10000 3.6 270 00:36 21.06.2020
1168 Clear 29 1002 37 10000 3.6 270 00:18 21.06.2020
1169 Clear 31 1002 31 10000 3.1 280 23:41 20.06.2020
1170 Clear 31 1002 31 10000 3.1 280 23:21 20.06.2020
1171 Clear 31 1002 29 10000 3.1 280 22:55 20.06.2020
1172 Clear 31 1002 29 10000 3.1 280 22:36 20.06.2020
1173 Clear 31 1002 29 10000 3.1 280 22:18 20.06.2020
1174 Clear 32 1002 27 10000 3.1 270 21:55 20.06.2020
1175 Clear 32 1002 27 10000 3.1 270 21:37 20.06.2020
1176 Clear 32 1002 27 10000 3.1 270 21:18 20.06.2020
1177 Clear 33 1001 26 10000 3.6 270 20:54 20.06.2020
1178 Clear 33 1001 26 10000 3.6 270 20:36 20.06.2020
1179 Clear 33 1001 26 10000 3.6 270 20:18 20.06.2020
1180 Clear 34 1001 24 10000 2.6 270 19:42 20.06.2020
1181 Clear 34 1001 24 10000 2.6 270 19:22 20.06.2020
1182 Clear 33 1000 19 0 5.77 307 18:43 20.06.2020
1183 Clear 37 1000 22 10000 5.7 280 18:21 20.06.2020
1184 Clear 37 1000 22 10000 5.7 280 17:59 20.06.2020
1185 Clear 37 1000 22 10000 5.7 280 17:40 20.06.2020
1186 Clear 37 1000 22 10000 5.7 280 17:21 20.06.2020
1187 Clear 38 1000 18 10000 4.6 290 16:58 20.06.2020
1188 Clear 38 1000 18 10000 4.6 290 16:38 20.06.2020
1189 Clear 38 1000 18 10000 4.6 290 16:18 20.06.2020
1190 Clouds 38 1000 18 10000 3.1 0 15:42 20.06.2020
1191 Clouds 38 1000 18 10000 3.1 0 15:18 20.06.2020
1192 Clouds 38 1001 19 10000 2.1 100 14:55 20.06.2020
1193 Clouds 38 1001 19 10000 2.1 100 14:36 20.06.2020
1194 Clouds 38 1001 19 10000 2.1 100 14:18 20.06.2020
1195 Clear 38 1001 19 10000 3.6 230 13:41 20.06.2020
1196 Clear 38 1001 19 10000 3.6 230 13:19 20.06.2020
1197 Clear 37 1002 22 10000 4.1 230 12:43 20.06.2020
1198 Clear 37 1002 22 10000 4.1 230 12:22 20.06.2020
1199 Clear 37 1002 20 10000 2.6 200 11:58 20.06.2020
1200 Clear 37 1002 20 10000 2.6 200 11:38 20.06.2020
1201 Clear 37 1002 20 10000 2.6 200 11:20 20.06.2020
1202 Clear 35 1002 26 10000 3.6 230 10:57 20.06.2020
1203 Clear 35 1002 26 10000 3.6 230 10:38 20.06.2020
1204 Clear 35 1002 26 10000 3.6 230 10:18 20.06.2020
1205 Clear 35 1002 26 10000 1.5 0 09:40 20.06.2020
1206 Clear 35 1002 26 10000 1.5 0 09:22 20.06.2020
1207 Clear 35 1002 13 0 1.99 315 08:56 20.06.2020
1208 Clear 30 1002 28 10000 4.1 270 08:38 20.06.2020
1209 Clear 30 1002 28 10000 4.1 270 08:20 20.06.2020
1210 Clear 30 1002 28 10000 4.1 270 07:44 20.06.2020
1211 Clear 30 1002 28 10000 4.1 270 07:25 20.06.2020
1212 Clear 30 1002 28 9000 2.6 260 06:24 20.06.2020
1213 Clear 25 1001 33 10000 2.1 10 05:59 20.06.2020
1214 Clear 25 1001 33 10000 2.1 10 05:40 20.06.2020
1215 Clear 26 1000 31 10000 1.5 10 03:21 20.06.2020
1216 Clear 27 1001 30 10000 3.6 340 01:52 20.06.2020
1217 Clear 27 1001 30 10000 3.6 340 01:33 20.06.2020
1218 Clear 26 1001 29 10000 2.6 330 00:22 20.06.2020
1219 Clear 27 1001 28 10000 3.6 330 23:58 19.06.2020
1220 Clear 27 1001 28 10000 3.6 330 23:39 19.06.2020
1221 Clear 27 1001 28 10000 3.6 330 23:19 19.06.2020
1222 Clear 27 1001 30 10000 2.6 320 22:42 19.06.2020
1223 Clear 27 1001 30 10000 2.6 320 22:24 19.06.2020
1224 Clear 28 1001 28 10000 3.6 310 21:59 19.06.2020
1225 Clear 28 1001 28 10000 3.6 310 21:40 19.06.2020
1226 Clear 28 1001 28 10000 3.6 310 21:19 19.06.2020
1227 Clear 28 1001 28 10000 3.6 320 20:59 19.06.2020
1228 Clear 30 1001 23 10000 2.1 300 20:40 19.06.2020
1229 Clear 30 1001 23 10000 2.1 300 20:21 19.06.2020
1230 Clear 35 1000 17 10000 3.6 280 19:59 19.06.2020
1231 Clear 35 1000 17 10000 3.6 280 19:41 19.06.2020
1232 Clear 35 1000 17 10000 3.6 280 19:23 19.06.2020
1233 Clear 36 1000 19 10000 3.1 280 18:58 19.06.2020
1234 Clear 36 1000 19 10000 3.1 280 18:38 19.06.2020
1235 Clear 36 1000 19 10000 3.1 280 18:20 19.06.2020
1236 Clear 38 1000 19 10000 4.1 280 17:42 19.06.2020
1237 Clear 38 1000 19 10000 4.1 280 17:23 19.06.2020
1238 Clear 38 1000 19 10000 4.6 270 16:57 19.06.2020
1239 Clear 38 1000 19 10000 4.6 270 16:38 19.06.2020
1240 Clear 38 1000 19 10000 4.6 270 16:20 19.06.2020
1241 Clear 38 1000 18 10000 5.1 270 15:44 19.06.2020
1242 Clear 38 1000 18 10000 5.1 270 15:25 19.06.2020
1243 Clear 39 1001 18 10000 6.2 270 14:57 19.06.2020
1244 Clear 39 1001 18 10000 6.2 270 14:39 19.06.2020
1245 Clear 39 1001 18 10000 6.2 270 14:21 19.06.2020
1246 Clear 39 1001 18 10000 6.2 270 14:21 19.06.2020
1247 Clear 38 1001 18 10000 7.2 280 13:58 19.06.2020
1248 Clear 38 1001 18 10000 7.2 280 13:39 19.06.2020
1249 Clear 38 1001 18 10000 7.2 280 13:21 19.06.2020
1250 Clear 38 1002 19 10000 7.7 280 12:44 19.06.2020
1251 Clear 38 1002 19 10000 7.7 280 12:20 19.06.2020
1252 Clear 37 1002 23 10000 7.2 300 11:41 19.06.2020
1253 Clear 35 1002 28 10000 7.7 290 11:19 19.06.2020
1254 Clear 35 1002 28 10000 7.7 290 10:59 19.06.2020
1255 Clear 35 1002 28 10000 7.7 290 10:41 19.06.2020
1256 Clear 35 1002 28 10000 7.7 290 10:21 19.06.2020
1257 Clear 33 1002 31 10000 8.7 300 09:45 19.06.2020
1258 Clear 33 1002 31 10000 8.7 300 09:25 19.06.2020
1259 Clear 32 1002 31 10000 9.3 300 08:59 19.06.2020
1260 Clear 32 1002 31 10000 9.3 300 08:39 19.06.2020
1261 Clear 32 1002 31 10000 9.3 300 08:20 19.06.2020
1262 Clear 31 1002 33 10000 9.8 300 07:41 19.06.2020
1263 Clear 31 1002 33 10000 9.8 300 07:21 19.06.2020
1264 Clear 30 1002 33 10000 8.7 300 06:47 19.06.2020
1265 Clear 30 1002 33 10000 8.7 300 06:21 19.06.2020
1266 Clear 28 1001 39 10000 5.1 290 05:29 19.06.2020
1267 Clear 27 1000 30 10000 3.6 310 03:45 19.06.2020
1268 Clear 29 1000 30 10000 2.6 320 02:20 19.06.2020
1269 Clear 30 1000 27 10000 4.1 310 00:44 19.06.2020
1270 Clear 30 1000 27 10000 4.1 310 00:22 19.06.2020
1271 Clear 33 1000 21 10000 6.2 290 23:57 18.06.2020
1272 Clear 33 1000 21 10000 6.2 290 23:39 18.06.2020
1273 Clear 33 1000 21 10000 6.2 290 23:20 18.06.2020
1274 Clear 32 1000 18 10000 4.1 260 22:41 18.06.2020
1275 Clear 32 1000 18 10000 4.1 260 22:20 18.06.2020
1276 Clear 31 1000 18 10000 1.5 250 21:57 18.06.2020
1277 Clear 31 1000 18 10000 1.5 250 21:38 18.06.2020
1278 Clear 31 1000 18 10000 1.5 250 21:19 18.06.2020
1279 Clear 32 999 17 10000 2.1 290 20:41 18.06.2020
1280 Clear 32 999 17 10000 2.1 290 20:22 18.06.2020
1281 Clear 34 999 14 10000 2.1 280 19:58 18.06.2020
1282 Clear 34 999 14 10000 2.1 280 19:40 18.06.2020
1283 Clear 34 999 14 10000 2.1 280 19:20 18.06.2020
1284 Clear 39 999 12 10000 5.1 290 18:41 18.06.2020
1285 Clear 39 999 12 10000 5.1 290 18:23 18.06.2020
1286 Clear 41 999 12 10000 6.7 280 17:55 18.06.2020
1287 Clear 41 999 12 10000 6.7 280 17:37 18.06.2020
1288 Clear 41 999 12 10000 6.7 280 17:19 18.06.2020
1289 Clear 42 999 11 10000 7.7 290 16:44 18.06.2020
1290 Clear 42 999 11 10000 7.7 290 16:25 18.06.2020
1291 Clear 42 999 12 10000 7.2 280 15:59 18.06.2020
1292 Clear 42 999 12 10000 7.2 280 15:40 18.06.2020
1293 Clear 42 999 12 10000 7.2 280 15:20 18.06.2020
1294 Clear 42 999 12 10000 7.7 290 14:57 18.06.2020
1295 Clear 42 999 12 10000 7.7 290 14:57 18.06.2020
1296 Clear 42 999 12 10000 7.7 290 14:39 18.06.2020
1297 Clear 42 999 12 10000 7.7 290 14:20 18.06.2020
1298 Clear 41 1000 12 10000 7.2 280 13:48 18.06.2020
1299 Clear 41 1000 12 10000 7.2 280 13:29 18.06.2020
1300 Clear 41 1000 13 10000 6.7 290 12:58 18.06.2020
1301 Clear 41 1000 13 10000 6.7 290 12:40 18.06.2020
1302 Clear 41 1000 13 10000 6.7 290 12:20 18.06.2020
1303 Clear 40 1001 14 10000 8.7 280 11:59 18.06.2020
1304 Clear 40 1001 14 10000 8.7 280 11:40 18.06.2020
1305 Clear 40 1001 14 10000 8.7 280 11:19 18.06.2020
1306 Clear 39 1001 20 10000 7.7 290 10:41 18.06.2020
1307 Clear 39 1001 20 10000 7.7 290 10:19 18.06.2020
1308 Clear 37 1001 22 10000 9.3 290 09:54 18.06.2020
1309 Clear 37 1001 22 10000 9.3 290 09:36 18.06.2020
1310 Clear 37 1001 22 10000 9.3 290 09:18 18.06.2020
1311 Clear 36 1001 25 10000 7.7 300 08:39 18.06.2020
1312 Clear 36 1001 25 10000 7.7 300 08:20 18.06.2020
1313 Clear 33 1001 31 10000 8.7 300 07:46 18.06.2020
1314 Clear 33 1001 31 10000 8.7 300 07:26 18.06.2020
1315 Clear 30 1001 37 10000 6.2 300 06:54 18.06.2020
1316 Clear 29 1001 30 10000 5.1 300 05:40 18.06.2020
1317 Clear 27 1000 32 10000 4.6 310 04:21 18.06.2020
1318 Clear 28 1000 30 10000 2.1 270 02:37 18.06.2020
1319 Clear 28 1000 28 10000 2.6 270 01:28 18.06.2020
1320 Clear 29 1000 25 10000 2.6 270 00:54 18.06.2020
1321 Clear 29 1000 25 10000 2.6 270 00:32 18.06.2020
1322 Clear 31 1000 23 10000 2.1 250 23:57 17.06.2020
1323 Clear 31 1000 23 10000 2.1 250 23:38 17.06.2020
1324 Clear 31 1000 23 10000 2.1 250 23:20 17.06.2020
1325 Clear 30 1001 23 10000 1.5 240 22:57 17.06.2020
1326 Clear 30 1001 23 10000 1.5 240 22:38 17.06.2020
1327 Clear 30 1001 23 10000 1.5 240 22:38 17.06.2020
1328 Clear 30 1001 23 10000 1.5 240 22:19 17.06.2020
1329 Clear 32 1001 21 10000 1.5 270 21:42 17.06.2020
1330 Clear 32 1001 21 10000 1.5 270 21:23 17.06.2020
1331 Clear 32 1000 22 10000 2.6 300 21:00 17.06.2020
1332 Clear 32 1000 22 10000 2.6 300 20:38 17.06.2020
1333 Clear 32 1000 22 10000 2.6 300 20:19 17.06.2020
1334 Clear 33 1000 21 10000 3.6 310 19:46 17.06.2020
1335 Clear 33 1000 21 10000 3.6 310 19:23 17.06.2020
1336 Clear 39 1000 16 10000 4.6 300 18:59 17.06.2020
1337 Clear 39 1000 16 10000 4.6 300 18:40 17.06.2020
1338 Clear 39 1000 16 10000 4.6 300 18:22 17.06.2020
1339 Clear 40 1000 13 10000 6.2 280 17:44 17.06.2020
1340 Clear 40 1000 13 10000 6.2 280 17:22 17.06.2020
1341 Clear 40 1000 13 10000 6.2 280 17:22 17.06.2020
1342 Clear 39 1000 9 0 8.25 310 16:57 17.06.2020
1343 Clear 41 1001 14 10000 8.2 280 16:38 17.06.2020
1344 Clear 41 1001 14 10000 8.2 280 16:20 17.06.2020
1345 Clear 41 1001 14 10000 8.2 280 15:56 17.06.2020
1346 Clear 41 1001 14 10000 8.2 280 15:38 17.06.2020
1347 Clear 41 1001 14 10000 8.2 280 15:18 17.06.2020
1348 Clear 41 1001 14 10000 7.7 290 14:57 17.06.2020
1349 Clear 41 1001 16 10000 6.7 280 14:38 17.06.2020
1350 Clear 41 1001 16 10000 6.7 280 14:19 17.06.2020
1351 Clear 40 1002 17 10000 7.7 300 13:42 17.06.2020
1352 Clear 40 1002 17 10000 7.7 300 13:22 17.06.2020
1353 Clear 40 1003 17 10000 7.2 290 12:59 17.06.2020
1354 Clear 40 1003 17 10000 7.2 290 12:40 17.06.2020
1355 Clear 40 1003 17 10000 7.2 290 12:21 17.06.2020
1356 Clear 39 1003 18 10000 7.2 280 11:44 17.06.2020
1357 Clear 39 1003 18 10000 7.2 280 11:26 17.06.2020
1358 Clear 37 1004 27 10000 6.7 290 10:58 17.06.2020
1359 Clear 37 1004 27 10000 6.7 290 10:38 17.06.2020
1360 Clear 37 1004 27 10000 6.7 290 10:19 17.06.2020
1361 Clear 37 1004 27 10000 6.7 290 10:19 17.06.2020
1362 Clear 36 1004 25 10000 6.7 310 09:55 17.06.2020
1363 Clear 36 1004 25 10000 6.7 310 09:37 17.06.2020
1364 Clear 36 1004 25 10000 6.7 310 09:18 17.06.2020
1365 Clear 36 1004 25 10000 6.7 310 09:18 17.06.2020
1366 Clear 34 1004 26 10000 7.2 310 08:42 17.06.2020
1367 Clear 34 1004 26 10000 7.2 310 08:19 17.06.2020
1368 Clear 32 1004 27 10000 7.2 310 07:44 17.06.2020
1369 Clear 32 1004 27 10000 7.2 310 07:23 17.06.2020
1370 Clear 29 1004 30 10000 6.7 310 06:59 17.06.2020
1371 Clear 29 1004 30 10000 6.7 310 06:40 17.06.2020
1372 Clear 29 1004 30 10000 6.7 310 06:22 17.06.2020
1373 Clear 26 1004 50 10000 3.6 310 05:48 17.06.2020
1374 Clear 24 1003 38 10000 2.6 310 04:38 17.06.2020
1375 Clear 26 1002 34 10000 3.1 320 02:21 17.06.2020
1376 Clear 29 1002 28 10000 1.5 320 00:53 17.06.2020
1377 Clear 29 1002 28 10000 1.5 320 00:30 17.06.2020
1378 Clear 28 1003 30 10000 3.1 330 23:59 16.06.2020
1379 Clear 28 1003 30 10000 3.1 330 23:41 16.06.2020
1380 Clear 28 1003 30 10000 3.1 330 23:22 16.06.2020
1381 Clear 30 1003 23 10000 3.1 310 22:57 16.06.2020
1382 Clear 30 1003 23 10000 3.1 310 22:38 16.06.2020
1383 Clear 30 1003 23 10000 3.1 310 22:19 16.06.2020
1384 Clear 30 1003 23 10000 3.1 310 22:19 16.06.2020
1385 Clear 33 1003 19 10000 4.6 300 21:57 16.06.2020
1386 Clear 33 1003 19 10000 4.6 300 21:39 16.06.2020
1387 Clear 33 1003 19 10000 4.6 300 21:20 16.06.2020
1388 Clear 35 1002 17 10000 4.6 290 20:43 16.06.2020
1389 Clear 35 1002 17 10000 4.6 290 20:22 16.06.2020
1390 Clear 37 1002 16 10000 4.1 290 19:58 16.06.2020
1391 Clear 37 1002 16 10000 4.1 290 19:40 16.06.2020
1392 Clear 37 1002 16 10000 4.1 290 19:22 16.06.2020
1393 Clear 39 1001 14 10000 5.7 290 18:58 16.06.2020
1394 Clear 39 1001 14 10000 5.7 290 18:39 16.06.2020
1395 Clear 39 1001 14 10000 5.7 290 18:20 16.06.2020
1396 Clear 41 1001 13 10000 6.7 290 17:56 16.06.2020
1397 Clear 41 1001 13 10000 6.7 290 17:37 16.06.2020
1398 Clear 41 1001 13 10000 6.7 290 17:19 16.06.2020
1399 Clear 42 1001 12 10000 7.7 300 16:55 16.06.2020
1400 Clear 42 1001 12 10000 7.7 300 16:37 16.06.2020
1401 Clear 42 1001 12 10000 7.7 300 16:18 16.06.2020
1402 Clear 43 1001 12 10000 8.2 280 15:56 16.06.2020
1403 Clear 43 1001 12 10000 8.2 280 15:37 16.06.2020
1404 Clear 43 1001 12 10000 8.2 280 15:19 16.06.2020
1405 Clear 43 1001 13 10000 7.7 290 14:43 16.06.2020
1406 Clear 43 1001 13 10000 7.7 290 14:25 16.06.2020
1407 Clear 43 1002 13 10000 9.3 290 13:55 16.06.2020
1408 Clear 43 1002 13 10000 9.3 290 13:37 16.06.2020
1409 Clear 42 1002 16 10000 8.2 280 13:18 16.06.2020
1410 Clear 42 1002 16 10000 8.2 280 12:41 16.06.2020
1411 Clear 42 1002 16 10000 8.2 280 12:21 16.06.2020
1412 Clear 41 1002 16 10000 7.7 280 11:55 16.06.2020
1413 Clear 41 1002 16 10000 7.7 280 11:37 16.06.2020
1414 Clear 41 1002 16 10000 7.7 280 11:19 16.06.2020
1415 Clear 39 1002 20 10000 6.7 290 10:43 16.06.2020
1416 Clear 39 1002 20 10000 6.7 290 10:21 16.06.2020
1417 Clear 37 1002 22 10000 7.7 290 09:58 16.06.2020
1418 Clear 37 1002 22 10000 7.7 290 09:40 16.06.2020
1419 Clear 37 1002 22 10000 7.7 290 09:21 16.06.2020
1420 Clear 35 1002 23 10000 4.6 250 08:45 16.06.2020
1421 Clear 35 1002 23 10000 4.6 250 08:26 16.06.2020
1422 Clear 36 1001 19 10000 3.1 220 07:50 16.06.2020
1423 Clear 36 1001 19 10000 3.1 220 07:27 16.06.2020
1424 Clear 33 1001 29 10000 0.5 0 06:54 16.06.2020
1425 Clear 33 1001 29 10000 0.5 0 06:27 16.06.2020
1426 Clear 27 1001 36 10000 2.6 60 05:39 16.06.2020
1427 Clear 27 1001 34 10000 2.1 60 04:40 16.06.2020
1428 Clear 31 1000 23 10000 2.1 150 02:59 16.06.2020
1429 Clear 33 1000 24 10000 2.6 90 02:00 16.06.2020
1430 Clear 33 1000 24 10000 2.6 90 01:30 16.06.2020
1431 Clear 32 1000 24 10000 2.6 80 00:45 16.06.2020
1432 Clear 32 1000 24 10000 2.6 80 00:21 16.06.2020
1433 Clear 36 1000 18 10000 3.1 100 23:43 15.06.2020
1434 Clear 36 1000 18 10000 3.1 100 23:23 15.06.2020
1435 Clear 37 1001 18 10000 4.1 90 22:56 15.06.2020
1436 Clear 37 1001 18 10000 4.1 90 22:38 15.06.2020
1437 Clear 37 1001 18 10000 4.1 90 22:18 15.06.2020
1438 Clear 38 1001 17 10000 2.6 80 21:56 15.06.2020
1439 Clear 38 1001 17 10000 2.6 80 21:37 15.06.2020
1440 Clouds 38 1001 17 10000 2.6 80 21:19 15.06.2020
1441 Clouds 38 1001 17 10000 2.6 80 21:19 15.06.2020
1442 Clouds 35 1001 28 10000 3.1 100 20:56 15.06.2020
1443 Clouds 35 1001 28 10000 3.1 100 20:37 15.06.2020
1444 Clouds 35 1001 28 10000 3.1 100 20:19 15.06.2020
1445 Clouds 37 1001 19 10000 2.1 100 19:55 15.06.2020
1446 Clouds 37 1001 19 10000 2.1 100 19:37 15.06.2020
1447 Clouds 40 1001 15 10000 3.1 90 19:19 15.06.2020
1448 Clouds 40 1001 15 10000 3.1 90 18:55 15.06.2020
1449 Clouds 40 1001 15 10000 3.1 90 18:37 15.06.2020
1450 Clouds 40 1001 15 10000 3.1 90 18:18 15.06.2020
1451 Clouds 43 1001 13 10000 4.1 130 17:42 15.06.2020
1452 Clouds 43 1001 13 10000 4.1 130 17:21 15.06.2020
1453 Clouds 43 1001 13 10000 4.1 130 17:21 15.06.2020
1454 Clouds 43 1002 11 10000 4.6 130 16:58 15.06.2020
1455 Clouds 43 1002 11 10000 4.6 130 16:40 15.06.2020
1456 Clouds 43 1002 11 10000 4.6 130 16:19 15.06.2020
1457 Clouds 44 1002 11 10000 5.1 170 15:56 15.06.2020
1458 Clouds 44 1002 11 10000 5.1 170 15:36 15.06.2020
1459 Clouds 43 1003 11 10000 3.6 170 15:18 15.06.2020
1460 Clouds 43 1003 11 10000 3.6 170 14:42 15.06.2020
1461 Clouds 43 1003 11 10000 3.6 170 14:20 15.06.2020
1462 Clouds 43 1003 12 10000 3.6 120 13:59 15.06.2020
1463 Clouds 43 1003 12 10000 3.6 120 13:39 15.06.2020
1464 Clouds 43 1003 12 10000 3.6 120 13:20 15.06.2020
1465 Clouds 43 1004 12 10000 5.1 130 12:55 15.06.2020
1466 Clouds 43 1004 12 10000 5.1 130 12:36 15.06.2020
1467 Clouds 42 1005 13 10000 4.6 60 12:18 15.06.2020
1468 Clouds 42 1005 13 10000 4.6 60 11:43 15.06.2020
1469 Clouds 42 1005 13 10000 4.6 60 11:24 15.06.2020
1470 Clear 41 1006 14 10000 4.1 80 10:44 15.06.2020
1471 Clear 41 1006 14 10000 4.1 80 10:22 15.06.2020
1472 Clear 39 1006 16 10000 3.6 20 09:48 15.06.2020
1473 Clear 39 1006 16 10000 3.6 20 09:27 15.06.2020
1474 Clear 37 1006 19 10000 4.6 30 08:58 15.06.2020
1475 Clear 37 1006 19 10000 4.6 30 08:39 15.06.2020
1476 Clear 37 1006 19 10000 4.6 30 08:20 15.06.2020
1477 Clear 33 1007 26 9000 4.1 340 07:45 15.06.2020
1478 Clear 33 1007 26 9000 4.1 340 07:26 15.06.2020
1479 Clear 34 1007 28 7000 2.1 350 06:48 15.06.2020
1480 Clear 32 1006 31 9000 2.1 320 06:25 15.06.2020
1481 Clear 26 1006 36 10000 0.5 0 05:46 15.06.2020
1482 Clear 26 1006 36 10000 0.5 0 05:25 15.06.2020
1483 Clear 27 1006 34 10000 2.6 180 04:20 15.06.2020
1484 Clear 28 1005 30 10000 1 90 03:41 15.06.2020
1485 Clear 30 1005 28 10000 4.39 80 02:53 15.06.2020
1486 Clear 32 1005 25 10000 3.1 40 01:57 15.06.2020
1487 Clear 32 1005 25 10000 3.1 40 01:34 15.06.2020
1488 Clear 32 1005 25 10000 3.1 20 00:58 15.06.2020
1489 Clear 32 1005 25 10000 3.1 20 00:39 15.06.2020
1490 Clear 32 1005 25 10000 3.1 20 00:20 15.06.2020
1491 Clear 31 1005 29 7000 2.6 10 23:46 14.06.2020
1492 Clear 31 1005 29 7000 2.6 10 23:25 14.06.2020
1493 Clear 31 1006 29 6000 3.6 350 22:58 14.06.2020
1494 Clear 28 1006 30 6000 1.5 10 22:39 14.06.2020
1495 Clear 28 1006 30 6000 1.5 10 22:20 14.06.2020
1496 Clear 28 1006 30 6000 1.5 10 22:20 14.06.2020
1497 Clear 31 1006 35 6000 2.1 80 21:57 14.06.2020
1498 Clear 31 1006 35 6000 2.1 80 21:38 14.06.2020
1499 Clouds 31 1006 35 6000 2.1 80 21:19 14.06.2020
1500 Clouds 34 1006 24 7000 2.1 50 20:58 14.06.2020
1501 Clouds 34 1006 24 7000 2.1 50 20:38 14.06.2020
1502 Clouds 34 1006 24 7000 2.1 50 20:20 14.06.2020
1503 Clouds 35 1006 19 10000 2.6 310 19:59 14.06.2020
1504 Clouds 35 1006 19 10000 2.6 310 19:38 14.06.2020
1505 Clouds 35 1006 19 10000 2.6 310 19:19 14.06.2020
1506 Clouds 35 1006 19 10000 2.6 310 19:19 14.06.2020
1507 Clouds 38 1005 16 10000 1.5 350 18:57 14.06.2020
1508 Clouds 38 1005 16 10000 1.5 350 18:38 14.06.2020
1509 Clouds 38 1005 16 10000 1.5 350 18:20 14.06.2020
1510 Clear 40 1004 15 10000 2.6 350 17:58 14.06.2020
1511 Clear 40 1004 15 10000 2.6 350 17:38 14.06.2020
1512 Clear 40 1004 15 10000 2.6 350 17:19 14.06.2020
1513 Clear 40 1004 13 10000 2.6 310 16:41 14.06.2020
1514 Clear 40 1004 13 10000 2.6 310 16:22 14.06.2020
1515 Clear 40 1005 14 10000 3.6 290 15:59 14.06.2020
1516 Clear 40 1005 14 10000 3.6 290 15:40 14.06.2020
1517 Clear 40 1005 14 10000 3.6 290 15:19 14.06.2020
1518 Clear 40 1005 13 10000 3.1 210 14:59 14.06.2020
1519 Clear 40 1005 13 10000 3.1 210 14:40 14.06.2020
1520 Clear 40 1005 13 10000 3.1 210 14:21 14.06.2020
1521 Clear 40 1006 12 10000 3.6 200 13:56 14.06.2020
1522 Clear 40 1006 12 10000 3.6 200 13:38 14.06.2020
1523 Clear 40 1006 12 10000 3.6 200 13:19 14.06.2020
1524 Clear 39 1006 15 10000 2.6 150 12:55 14.06.2020
1525 Clear 39 1006 15 10000 2.6 150 12:37 14.06.2020
1526 Clear 39 1006 14 10000 2.6 0 12:18 14.06.2020
1527 Clear 39 1006 14 10000 2.6 0 11:56 14.06.2020
1528 Clear 39 1006 14 10000 2.6 0 11:37 14.06.2020
1529 Clear 38 1007 13 10000 4.1 210 11:18 14.06.2020
1530 Clear 38 1007 13 10000 4.1 210 10:41 14.06.2020
1531 Clear 38 1007 13 10000 4.1 210 10:19 14.06.2020
1532 Clear 37 1007 17 10000 2.6 60 09:45 14.06.2020
1533 Clear 37 1007 17 10000 2.6 60 09:25 14.06.2020
1534 Clear 36 1007 16 10000 3.6 80 08:54 14.06.2020
1535 Clear 36 1007 16 10000 3.6 80 08:36 14.06.2020
1536 Clear 33 1007 22 10000 2.6 90 08:18 14.06.2020
1537 Clear 33 1007 22 10000 2.6 90 07:44 14.06.2020
1538 Clear 33 1007 22 10000 2.6 90 07:26 14.06.2020
1539 Clear 31 1006 22 10000 1.5 60 06:26 14.06.2020
1540 Clear 27 1006 28 10000 2.1 70 05:40 14.06.2020
1541 Clear 24 1005 31 10000 2.1 40 04:53 14.06.2020
1542 Clear 24 1005 31 10000 2.1 40 04:28 14.06.2020
1543 Clear 23 1005 33 10000 1 360 02:54 14.06.2020
1544 Clear 23 1005 33 10000 1 360 02:23 14.06.2020
1545 Clear 24 1005 33 10000 1.5 340 01:36 14.06.2020
1546 Clear 26 1005 29 10000 0.5 320 00:55 14.06.2020
1547 Clear 26 1005 29 10000 0.5 320 00:36 14.06.2020
1548 Clear 26 1005 27 10000 1.5 10 00:18 14.06.2020
1549 Clear 26 1005 27 10000 1.5 10 23:41 13.06.2020
1550 Clear 26 1005 27 10000 1.5 10 23:23 13.06.2020
1551 Clear 29 1005 19 0 3.28 22 22:56 13.06.2020
1552 Clear 29 1005 19 0 3.28 22 22:37 13.06.2020
1553 Clear 30 1005 18 0 3.49 8 22:18 13.06.2020
1554 Clear 30 1005 18 0 3.49 8 21:43 13.06.2020
1555 Clear 32 1005 18 10000 4.1 280 21:25 13.06.2020
1556 Clear 32 1005 18 10000 4.1 280 21:00 13.06.2020
1557 Clear 32 1005 18 10000 4.1 280 20:41 13.06.2020
1558 Clear 32 1005 18 10000 4.1 280 20:19 13.06.2020
1559 Clear 33 1005 18 10000 4.6 280 19:42 13.06.2020
1560 Clear 33 1005 18 10000 4.6 280 19:22 13.06.2020
1561 Clear 35 1004 14 10000 5.7 290 18:59 13.06.2020
1562 Clear 35 1004 14 10000 5.7 290 18:41 13.06.2020
1563 Clear 35 1004 14 10000 5.7 290 18:21 13.06.2020
1564 Clear 36 1004 15 10000 6.7 270 17:59 13.06.2020
1565 Clear 36 1004 15 10000 6.7 270 17:41 13.06.2020
1566 Clear 36 1004 15 10000 6.7 270 17:22 13.06.2020
1567 Clear 37 1004 12 10000 6.7 270 16:56 13.06.2020
1568 Clear 37 1004 12 10000 6.7 270 16:38 13.06.2020
1569 Clear 37 1004 12 10000 6.7 270 16:19 13.06.2020
1570 Clear 38 1004 14 10000 5.7 250 15:44 13.06.2020
1571 Clear 38 1004 14 10000 5.7 250 15:26 13.06.2020
1572 Clear 38 1004 15 10000 6.2 260 14:58 13.06.2020
1573 Clear 38 1004 15 10000 6.2 260 14:39 13.06.2020
1574 Clear 38 1004 15 10000 6.2 260 14:20 13.06.2020
1575 Clear 38 1004 17 10000 5.7 300 13:44 13.06.2020
1576 Clear 38 1004 17 10000 5.7 300 13:26 13.06.2020
1577 Clear 37 1005 19 10000 5.7 300 12:45 13.06.2020
1578 Clear 37 1005 19 10000 5.7 300 12:27 13.06.2020
1579 Clear 37 1005 18 10000 5.7 300 11:59 13.06.2020
1580 Clear 37 1005 18 10000 5.7 300 11:40 13.06.2020
1581 Clear 37 1005 18 10000 5.7 300 11:19 13.06.2020
1582 Clear 36 1006 18 10000 5.1 300 10:57 13.06.2020
1583 Clear 36 1006 18 10000 5.1 300 10:38 13.06.2020
1584 Clear 36 1006 18 10000 5.1 300 10:19 13.06.2020
1585 Clear 34 1006 21 10000 5.7 310 09:45 13.06.2020
1586 Clear 34 1006 21 10000 5.7 310 09:27 13.06.2020
1587 Clear 31 1006 23 10000 5.1 300 08:55 13.06.2020
1588 Clear 31 1006 23 10000 5.1 300 08:37 13.06.2020
1589 Clear 31 1006 23 10000 5.1 300 08:19 13.06.2020
1590 Clear 29 1005 26 10000 6.2 310 07:42 13.06.2020
1591 Clear 29 1005 26 10000 6.2 310 07:22 13.06.2020
1592 Clear 26 1005 47 10000 7.2 300 06:38 13.06.2020
1593 Clear 26 1005 47 10000 7.2 300 06:19 13.06.2020
1594 Clear 25 1005 41 10000 3.6 280 05:27 13.06.2020
1595 Clear 21 1004 37 10000 2.6 310 03:57 13.06.2020
1596 Clear 22 1004 33 10000 2.6 320 02:55 13.06.2020
1597 Clear 22 1004 33 10000 2.6 320 02:55 13.06.2020
1598 Clear 22 1004 33 10000 2.6 320 02:36 13.06.2020
1599 Clear 24 1004 31 10000 2.1 300 01:47 13.06.2020
1600 Clear 24 1004 31 10000 2.1 300 01:22 13.06.2020
1601 Clear 25 1004 29 10000 1.5 310 00:45 13.06.2020
1602 Clear 25 1004 29 10000 1.5 310 00:26 13.06.2020
1603 Clear 26 1004 31 10000 2.6 320 23:55 12.06.2020
1604 Clear 26 1004 31 10000 2.6 320 23:37 12.06.2020
1605 Clear 28 1004 28 10000 2.6 330 23:18 12.06.2020
1606 Clear 28 1004 28 10000 2.6 330 22:41 12.06.2020
1607 Clear 28 1004 28 10000 2.6 330 22:19 12.06.2020
1608 Clear 29 1004 25 10000 3.6 320 21:50 12.06.2020
1609 Clear 29 1004 25 10000 3.6 320 21:27 12.06.2020
1610 Clear 29 1004 26 10000 4.1 310 20:59 12.06.2020
1611 Clear 29 1004 26 10000 4.1 310 20:41 12.06.2020
1612 Clear 29 1004 26 10000 4.1 310 20:22 12.06.2020
1613 Clear 32 1004 24 10000 3.6 310 19:57 12.06.2020
1614 Clear 32 1004 24 10000 3.6 310 19:57 12.06.2020
1615 Clear 32 1004 24 10000 3.6 310 19:39 12.06.2020
1616 Clear 32 1004 24 10000 3.6 310 19:19 12.06.2020
1617 Clear 35 1003 20 10000 4.6 310 18:39 12.06.2020
1618 Clear 34 1003 14 0 6.21 327 18:19 12.06.2020
1619 Clear 37 1003 19 10000 4.6 290 17:58 12.06.2020
1620 Clear 37 1003 19 10000 4.6 290 17:39 12.06.2020
1621 Clear 37 1003 19 10000 4.6 290 17:19 12.06.2020
1622 Clear 38 1003 17 10000 6.7 290 16:44 12.06.2020
1623 Clear 38 1003 17 10000 6.7 290 16:20 12.06.2020
1624 Clear 37 1003 12 0 7.89 311 15:49 12.06.2020
1625 Clear 39 1003 17 10000 7.2 270 15:26 12.06.2020
1626 Clear 39 1003 17 10000 7.2 270 14:58 12.06.2020
1627 Clear 39 1003 17 10000 7.2 270 14:39 12.06.2020
1628 Clear 39 1003 17 10000 7.2 270 14:21 12.06.2020
1629 Clear 38 1004 19 10000 5.1 260 13:42 12.06.2020
1630 Clear 38 1004 19 10000 5.1 260 13:21 12.06.2020
1631 Clear 38 1004 18 10000 6.2 280 12:41 12.06.2020
1632 Clear 38 1004 18 10000 6.2 280 12:41 12.06.2020
1633 Clear 38 1004 18 10000 6.2 280 12:20 12.06.2020
1634 Clear 37 1005 18 10000 6.7 300 11:58 12.06.2020
1635 Clear 37 1005 18 10000 6.7 300 11:40 12.06.2020
1636 Clear 37 1005 18 10000 6.7 300 11:21 12.06.2020
1637 Clear 36 1005 19 10000 7.2 320 10:46 12.06.2020
1638 Clear 36 1005 19 10000 7.2 320 10:25 12.06.2020
1639 Clear 35 1005 20 10000 8.7 310 09:47 12.06.2020
1640 Clear 35 1005 20 10000 8.7 310 09:22 12.06.2020
1641 Clear 33 1005 22 10000 10.3 310 08:46 12.06.2020
1642 Clear 33 1005 22 10000 10.3 310 08:25 12.06.2020
1643 Clear 31 1005 23 10000 9.8 310 07:56 12.06.2020
1644 Clear 31 1005 23 10000 9.8 310 07:38 12.06.2020
1645 Clear 31 1005 23 10000 9.8 310 07:19 12.06.2020
1646 Clear 29 1004 25 10000 9.3 310 06:31 12.06.2020
1647 Clear 28 1004 24 10000 7.7 300 05:57 12.06.2020
1648 Clear 28 1004 24 10000 7.7 300 05:38 12.06.2020
1649 Clear 28 1004 24 10000 7.7 300 05:19 12.06.2020
1650 Clear 25 1003 36 10000 4.1 310 03:33 12.06.2020
1651 Clear 27 1002 30 10000 3.6 330 01:58 12.06.2020
1652 Clear 27 1002 30 10000 3.6 330 01:32 12.06.2020
1653 Clear 29 1002 28 10000 2.6 320 00:55 12.06.2020
1654 Clear 29 1002 28 10000 2.6 320 00:37 12.06.2020
1655 Clear 29 1002 28 10000 2.6 320 00:18 12.06.2020
1656 Clear 30 1002 25 10000 2.1 320 23:41 11.06.2020
1657 Clear 30 1002 25 10000 2.1 320 23:22 11.06.2020
1658 Clear 31 1002 22 10000 2.6 330 22:59 11.06.2020
1659 Clear 31 1002 22 10000 2.6 330 22:39 11.06.2020
1660 Clear 31 1002 22 10000 2.6 330 22:20 11.06.2020
1661 Clear 31 1002 20 10000 3.6 310 21:57 11.06.2020
1662 Clear 31 1002 20 10000 3.6 310 21:38 11.06.2020
1663 Clear 31 1002 20 10000 3.6 310 21:20 11.06.2020
1664 Clear 36 1002 16 10000 4.6 280 20:55 11.06.2020
1665 Clear 36 1002 16 10000 4.6 280 20:37 11.06.2020
1666 Clear 36 1002 16 10000 4.6 280 20:19 11.06.2020
1667 Clear 36 1001 18 10000 4.1 260 19:41 11.06.2020
1668 Clear 36 1001 18 10000 4.1 260 19:22 11.06.2020
1669 Clear 38 1001 16 10000 5.1 260 18:43 11.06.2020
1670 Clear 38 1001 16 10000 5.1 260 18:25 11.06.2020
1671 Clear 40 1000 15 10000 5.7 240 17:57 11.06.2020
1672 Clear 40 1000 15 10000 5.7 240 17:39 11.06.2020
1673 Clear 40 1000 15 10000 5.7 240 17:20 11.06.2020
1674 Clear 41 1000 14 10000 6.2 240 16:58 11.06.2020
1675 Clear 41 1000 14 10000 6.2 240 16:40 11.06.2020
1676 Clear 41 1000 14 10000 6.2 240 16:22 11.06.2020
1677 Clear 41 1001 14 10000 8.2 260 15:56 11.06.2020
1678 Clear 41 1001 14 10000 8.2 260 15:38 11.06.2020
1679 Clear 41 1001 14 10000 8.2 260 15:19 11.06.2020
1680 Clear 42 1001 15 10000 8.2 250 14:42 11.06.2020
1681 Clear 42 1001 15 10000 8.2 250 14:21 11.06.2020
1682 Clear 42 1001 15 10000 6.7 250 13:56 11.06.2020
1683 Clear 42 1001 15 10000 6.7 250 13:38 11.06.2020
1684 Clear 42 1001 15 10000 6.7 250 13:19 11.06.2020
1685 Clear 44 1001 15 10000 5.1 220 12:55 11.06.2020
1686 Clear 44 1001 15 10000 5.1 220 12:37 11.06.2020
1687 Clear 44 1001 15 10000 5.1 220 12:18 11.06.2020
1688 Clear 42 1002 15 10000 4.1 210 11:56 11.06.2020
1689 Clear 42 1002 15 10000 4.1 210 11:37 11.06.2020
1690 Clear 42 1002 15 10000 4.1 210 11:18 11.06.2020
1691 Clear 41 1002 18 10000 4.1 200 10:43 11.06.2020
1692 Clear 41 1002 18 10000 4.1 200 10:20 11.06.2020
1693 Clear 41 1002 18 10000 4.1 200 10:20 11.06.2020
1694 Clear 40 1003 17 10000 3.6 240 09:59 11.06.2020
1695 Clear 40 1003 17 10000 3.6 240 09:40 11.06.2020
1696 Clear 40 1003 17 10000 3.6 240 09:22 11.06.2020
1697 Clear 39 1003 17 10000 3.1 270 08:43 11.06.2020
1698 Clear 39 1003 17 10000 3.1 270 08:19 11.06.2020
1699 Clear 36 1003 20 9000 3.1 280 07:42 11.06.2020
1700 Clear 36 1003 20 9000 3.1 280 07:24 11.06.2020
1701 Clear 33 1003 22 10000 3.6 260 06:38 11.06.2020
1702 Clear 28 1002 28 10000 0.5 0 06:20 11.06.2020
1703 Clear 27 1001 30 6000 1.5 130 04:52 11.06.2020
1704 Clear 31 1001 25 10000 1 0 03:26 11.06.2020
1705 Clear 30 1001 30 6000 2.1 80 02:49 11.06.2020
1706 Clear 29 1001 32 8000 1.5 50 01:58 11.06.2020
1707 Clear 29 1001 32 8000 1.5 50 01:39 11.06.2020
1708 Clear 29 1001 32 8000 1.5 50 01:19 11.06.2020
1709 Clear 30 1002 28 9000 5.39 69 00:43 11.06.2020
1710 Clear 30 1002 28 9000 4.76 55 00:24 11.06.2020
1711 Clear 31 1002 25 10000 1.5 130 23:43 10.06.2020
1712 Clear 31 1002 25 10000 1.5 130 23:24 10.06.2020
1713 Clear 33 1002 26 10000 1.5 110 22:56 10.06.2020
1714 Clear 33 1002 26 10000 1.5 110 22:37 10.06.2020
1715 Clear 33 1002 26 10000 1.5 110 22:18 10.06.2020
1716 Clear 32 1003 27 9000 1 20 21:55 10.06.2020
1717 Clear 32 1003 27 9000 1 20 21:37 10.06.2020
1718 Clear 32 1003 27 9000 1 20 21:18 10.06.2020
1719 Clear 36 1002 9 0 3.2 12 20:56 10.06.2020
1720 Clear 37 1003 16 10000 1.5 280 20:37 10.06.2020
1721 Clouds 37 1003 16 10000 1.5 280 20:19 10.06.2020
1722 Clouds 37 1003 16 10000 1.5 280 19:40 10.06.2020
1723 Clouds 42 1003 11 10000 2.6 270 19:19 10.06.2020
1724 Clouds 42 1003 11 10000 2.6 270 18:57 10.06.2020
1725 Clouds 42 1003 11 10000 2.6 270 18:39 10.06.2020
1726 Clouds 44 1002 11 10000 2.1 290 18:19 10.06.2020
1727 Clouds 44 1002 11 10000 2.1 290 17:55 10.06.2020
1728 Clouds 44 1002 11 10000 2.1 290 17:36 10.06.2020
1729 Clouds 44 1002 11 10000 2.1 290 17:18 10.06.2020
1730 Clouds 45 1002 9 10000 2.1 250 16:56 10.06.2020
1731 Clouds 45 1002 9 10000 2.1 250 16:38 10.06.2020
1732 Clouds 45 1002 9 10000 2.1 250 16:18 10.06.2020
1733 Clouds 45 1002 9 10000 2.6 0 15:40 10.06.2020
1734 Clouds 45 1002 9 10000 2.6 0 15:21 10.06.2020
1735 Clouds 45 1003 10 10000 4.1 200 14:56 10.06.2020
1736 Clouds 45 1003 10 10000 4.1 200 14:37 10.06.2020
1737 Clouds 45 1003 10 10000 4.1 200 14:19 10.06.2020
1738 Clouds 45 1003 10 10000 3.6 230 13:40 10.06.2020
1739 Clouds 45 1003 10 10000 3.6 230 13:21 10.06.2020
1740 Clouds 45 1004 9 10000 2.6 0 12:43 10.06.2020
1741 Clear 45 1004 9 10000 2.6 0 12:20 10.06.2020
1742 Clear 44 1004 10 10000 2.1 320 11:58 10.06.2020
1743 Clear 44 1004 10 10000 2.1 320 11:40 10.06.2020
1744 Clear 44 1004 10 10000 2.1 320 11:19 10.06.2020
1745 Clear 42 1005 15 10000 2.6 290 10:57 10.06.2020
1746 Clear 42 1005 15 10000 2.6 290 10:39 10.06.2020
1747 Clear 40 1005 17 10000 3.1 260 10:20 10.06.2020
1748 Clear 40 1005 17 10000 3.1 260 09:41 10.06.2020
1749 Clear 40 1005 17 10000 3.1 260 09:22 10.06.2020
1750 Clear 38 1005 22 10000 3.1 260 08:44 10.06.2020
1751 Clear 38 1005 22 10000 3.1 260 08:24 10.06.2020
1752 Clear 37 1004 20 9000 2.6 270 07:57 10.06.2020
1753 Clear 37 1004 20 9000 2.6 270 07:38 10.06.2020
1754 Clear 37 1004 20 9000 2.6 270 07:19 10.06.2020
1755 Clear 32 1004 31 9000 1.5 240 06:44 10.06.2020
1756 Clear 32 1004 31 9000 1.5 240 06:22 10.06.2020
1757 Clear 27 1004 32 10000 1 0 05:55 10.06.2020
1758 Clear 27 1004 32 10000 1 0 05:23 10.06.2020
1759 Clear 26 1004 34 10000 0.5 70 04:34 10.06.2020
1760 Clear 29 1003 28 10000 2.6 270 02:55 10.06.2020
1761 Clear 27 1003 32 10000 0.5 0 01:59 10.06.2020
1762 Clear 27 1003 32 10000 0.5 0 01:35 10.06.2020
1763 Clear 30 1003 27 10000 1 160 00:39 10.06.2020
1764 Clear 30 1003 27 10000 1 160 00:21 10.06.2020
1765 Clear 29 1003 30 10000 0.5 190 23:56 09.06.2020
1766 Clear 29 1003 30 10000 0.5 190 23:37 09.06.2020
1767 Clear 29 1003 30 10000 0.5 190 23:19 09.06.2020
1768 Clear 34 1003 21 10000 1 160 22:55 09.06.2020
1769 Clear 34 1003 21 10000 1 160 22:37 09.06.2020
1770 Clear 34 1003 21 10000 1 160 22:18 09.06.2020
1771 Clear 31 1003 22 10000 1.5 130 21:55 09.06.2020
1772 Clear 31 1003 22 10000 1.5 130 21:37 09.06.2020
1773 Clear 31 1003 22 10000 1.5 130 21:19 09.06.2020
1774 Clear 36 1003 20 10000 2.1 130 20:56 09.06.2020
1775 Clear 36 1003 20 10000 2.1 130 20:37 09.06.2020
1776 Clear 36 1003 20 10000 2.1 130 20:18 09.06.2020
1777 Clear 37 1002 27 10000 1.5 60 19:55 09.06.2020
1778 Clear 37 1002 27 10000 1.5 60 19:36 09.06.2020
1779 Clear 37 1002 27 10000 1.5 60 19:18 09.06.2020
1780 Clear 41 1002 13 10000 2.1 350 18:44 09.06.2020
1781 Clear 41 1002 13 10000 2.1 350 18:25 09.06.2020
1782 Clear 43 1002 11 10000 2.6 360 17:57 09.06.2020
1783 Clear 43 1002 11 10000 2.6 360 17:39 09.06.2020
1784 Clear 43 1002 11 10000 2.6 360 17:21 09.06.2020
1785 Clear 44 1002 10 10000 1.5 240 16:55 09.06.2020
1786 Clear 44 1002 10 10000 1.5 240 16:36 09.06.2020
1787 Clear 44 1002 10 10000 1.5 240 16:18 09.06.2020
1788 Clear 45 1003 9 10000 1.5 0 15:40 09.06.2020
1789 Clear 45 1003 9 10000 1.5 0 15:21 09.06.2020
1790 Clear 44 1003 10 10000 2.6 0 14:57 09.06.2020
1791 Clear 44 1003 10 10000 2.6 0 14:37 09.06.2020
1792 Clear 44 1003 10 10000 2.6 0 14:18 09.06.2020
1793 Clear 44 1004 10 10000 2.1 270 13:46 09.06.2020
1794 Clear 44 1004 10 10000 2.1 270 13:22 09.06.2020
1795 Clear 43 1004 12 10000 2.1 220 12:59 09.06.2020
1796 Clear 43 1004 12 10000 2.1 220 12:41 09.06.2020
1797 Clear 43 1004 12 10000 2.1 220 12:19 09.06.2020
1798 Clear 42 1004 11 10000 3.1 230 11:56 09.06.2020
1799 Clear 42 1004 11 10000 3.1 230 11:37 09.06.2020
1800 Clear 42 1004 11 10000 3.1 230 11:19 09.06.2020
1801 Clear 42 1004 11 10000 3.1 230 11:19 09.06.2020
1802 Clear 41 1004 13 10000 1.5 0 10:45 09.06.2020
1803 Clear 41 1004 13 10000 1.5 0 10:27 09.06.2020
1804 Clear 40 1004 16 10000 1 0 09:57 09.06.2020
1805 Clear 40 1004 16 10000 1 0 09:38 09.06.2020
1806 Clear 40 1004 16 10000 1 0 09:18 09.06.2020
1807 Clear 37 1004 18 10000 1 0 08:39 09.06.2020
1808 Clear 37 1004 18 10000 1 0 08:39 09.06.2020
1809 Clear 37 1004 18 10000 1 0 08:39 09.06.2020
1810 Clear 37 1004 18 10000 1 0 08:20 09.06.2020
1811 Clear 34 1004 21 10000 1 0 07:42 09.06.2020
1812 Clear 34 1004 21 10000 1 0 07:22 09.06.2020
1813 Clear 30 1004 30 9000 2.6 230 06:55 09.06.2020
1814 Clear 30 1004 30 9000 2.6 230 06:36 09.06.2020
1815 Clear 25 1003 33 6000 1.5 320 05:48 09.06.2020
1816 Clear 26 1002 36 7000 1.5 290 03:55 09.06.2020
1817 Clear 26 1001 39 9000 2.1 310 02:22 09.06.2020
1818 Clear 28 1001 34 9000 1.5 350 01:37 09.06.2020
1819 Clear 26 1001 39 10000 2.6 340 01:18 09.06.2020
1820 Clear 26 1001 39 10000 2.6 340 00:42 09.06.2020
1821 Clear 29 1002 30 10000 1.5 220 00:19 09.06.2020
1822 Clear 29 1002 30 10000 1.5 220 23:42 08.06.2020
1823 Clear 29 1002 30 10000 1.5 220 23:21 08.06.2020
1824 Clear 31 1002 33 10000 1 0 22:59 08.06.2020
1825 Clear 31 1002 33 10000 1 0 22:38 08.06.2020
1826 Clear 31 1002 33 10000 1 0 22:20 08.06.2020
1827 Clear 32 1002 25 10000 1.5 180 21:56 08.06.2020
1828 Clear 32 1002 25 10000 1.5 180 21:37 08.06.2020
1829 Clear 32 1002 25 10000 1.5 180 21:19 08.06.2020
1830 Clear 34 1001 20 10000 1.5 170 20:55 08.06.2020
1831 Clear 34 1001 20 10000 1.5 170 20:55 08.06.2020
1832 Clear 34 1001 20 10000 1.5 170 20:36 08.06.2020
1833 Clear 34 1001 20 10000 1.5 170 20:18 08.06.2020
1834 Clear 37 1001 16 10000 3.28 333 19:43 08.06.2020
1835 Clear 37 1001 16 10000 3.28 333 19:43 08.06.2020
1836 Clear 36 1001 16 10000 1 80 19:21 08.06.2020
1837 Clear 39 1001 14 10000 1 60 18:44 08.06.2020
1838 Clear 39 1001 14 10000 1 60 18:21 08.06.2020
1839 Clear 41 1001 12 10000 2.6 350 17:58 08.06.2020
1840 Clear 41 1001 12 10000 2.6 350 17:40 08.06.2020
1841 Clear 41 1001 12 10000 2.6 350 17:22 08.06.2020
1842 Clear 42 1001 12 10000 4.1 360 16:58 08.06.2020
1843 Clear 42 1001 12 10000 4.1 360 16:58 08.06.2020
1844 Clear 42 1001 12 10000 4.1 360 16:39 08.06.2020
1845 Clear 42 1001 12 10000 4.1 360 16:21 08.06.2020
1846 Clear 43 1001 11 10000 4.6 340 15:43 08.06.2020
1847 Clear 43 1001 11 10000 4.6 340 15:22 08.06.2020
1848 Clear 43 1001 12 10000 5.1 320 14:58 08.06.2020
1849 Clear 43 1001 12 10000 5.1 320 14:39 08.06.2020
1850 Clear 43 1001 12 10000 5.1 320 14:19 08.06.2020
1851 Clear 42 1001 11 10000 3.6 0 13:43 08.06.2020
1852 Clear 42 1001 11 10000 3.6 0 13:24 08.06.2020
1853 Clear 42 1002 11 10000 5.7 300 12:43 08.06.2020
1854 Clear 42 1002 11 10000 5.7 300 12:20 08.06.2020
1855 Clear 41 1002 12 10000 5.7 290 11:59 08.06.2020
1856 Clear 41 1002 12 10000 5.7 290 11:40 08.06.2020
1857 Clear 41 1002 12 10000 5.7 290 11:22 08.06.2020
1858 Clear 39 1002 16 10000 5.1 270 10:58 08.06.2020
1859 Clear 39 1002 16 10000 5.1 270 10:38 08.06.2020
1860 Clear 39 1002 16 10000 5.1 270 10:38 08.06.2020
1861 Clear 39 1002 16 10000 5.1 270 10:20 08.06.2020
1862 Clear 37 1002 18 10000 4.6 310 09:57 08.06.2020
1863 Clear 37 1002 18 10000 4.6 310 09:57 08.06.2020
1864 Clear 37 1002 18 10000 4.6 310 09:39 08.06.2020
1865 Clear 37 1002 18 10000 4.6 310 09:21 08.06.2020
1866 Clear 34 1002 20 10000 4.1 300 08:46 08.06.2020
1867 Clear 34 1002 20 10000 4.1 300 08:22 08.06.2020
1868 Clear 31 1002 23 10000 4.1 300 07:46 08.06.2020
1869 Clear 31 1002 23 10000 4.1 300 07:22 08.06.2020
1870 Clear 28 1002 24 10000 3.6 290 06:50 08.06.2020
1871 Clear 32 1001 15 0 4.85 317 06:28 08.06.2020
1872 Clear 32 1001 15 0 4.85 317 05:47 08.06.2020
1873 Clear 29 1001 15 0 4.68 338 04:29 08.06.2020
1874 Clear 30 1000 13 0 4.95 348 02:32 08.06.2020
1875 Clear 31 1000 12 0 4.97 348 01:49 08.06.2020
1876 Clear 26 1002 21 10000 2.6 300 01:30 08.06.2020
1877 Clear 26 1002 21 10000 2.6 300 00:30 08.06.2020
1878 Clear 28 1003 18 10000 3.1 330 23:42 07.06.2020
1879 Clear 28 1003 18 10000 3.1 330 23:20 07.06.2020
1880 Clear 28 1003 21 10000 3.1 310 22:59 07.06.2020
1881 Clear 28 1003 21 10000 3.1 310 22:39 07.06.2020
1882 Clear 28 1003 21 10000 3.1 310 22:19 07.06.2020
1883 Clear 33 1004 16 10000 3.1 290 21:59 07.06.2020
1884 Clear 33 1004 16 10000 3.1 290 21:38 07.06.2020
1885 Clear 33 1004 16 10000 3.1 290 21:38 07.06.2020
1886 Clear 33 1004 16 10000 3.1 290 21:20 07.06.2020
1887 Clear 33 1004 16 10000 3.1 290 21:20 07.06.2020
1888 Clear 34 1003 16 10000 3.1 280 20:56 07.06.2020
1889 Clear 34 1003 16 10000 3.1 280 20:37 07.06.2020
1890 Clear 34 1003 16 10000 3.1 280 20:18 07.06.2020
1891 Clear 33 1003 17 10000 2.6 280 19:55 07.06.2020
1892 Clear 33 1003 17 10000 2.6 280 19:37 07.06.2020
1893 Clear 35 1003 15 10000 3.1 320 19:18 07.06.2020
1894 Clear 35 1003 15 10000 3.1 320 18:42 07.06.2020
1895 Clear 35 1003 15 10000 3.1 320 18:23 07.06.2020
1896 Clear 40 1003 10 10000 4.6 330 17:59 07.06.2020
1897 Clear 40 1003 10 10000 4.6 330 17:40 07.06.2020
1898 Clear 40 1003 10 10000 4.6 330 17:22 07.06.2020
1899 Clear 41 1003 9 10000 6.7 330 16:44 07.06.2020
1900 Clear 41 1003 9 10000 6.7 330 16:22 07.06.2020
1901 Clear 41 1003 10 10000 7.2 340 15:45 07.06.2020
1902 Clear 41 1003 10 10000 7.2 340 15:24 07.06.2020
1903 Clear 42 1004 9 10000 7.2 340 15:00 07.06.2020
1904 Clear 42 1004 9 10000 7.2 340 14:38 07.06.2020
1905 Clear 42 1004 9 10000 7.2 340 14:19 07.06.2020
1906 Clear 41 1005 11 10000 6.2 340 13:45 07.06.2020
1907 Clear 41 1005 11 10000 6.2 340 13:45 07.06.2020
1908 Clear 41 1005 11 10000 6.2 340 13:20 07.06.2020
1909 Clear 41 1005 12 10000 8.7 330 12:44 07.06.2020
1910 Clear 41 1005 12 10000 8.7 330 12:26 07.06.2020
1911 Clear 41 1005 12 10000 8.7 330 12:26 07.06.2020
1912 Clear 40 1006 12 10000 6.2 340 11:56 07.06.2020
1913 Clear 40 1006 12 10000 6.2 340 11:56 07.06.2020
1914 Clear 40 1006 12 10000 6.2 340 11:38 07.06.2020
1915 Clear 40 1006 12 10000 6.2 340 11:20 07.06.2020
1916 Clear 38 1006 16 10000 4.6 340 10:58 07.06.2020
1917 Clear 38 1006 16 10000 4.6 340 10:58 07.06.2020
1918 Clear 38 1006 16 10000 4.6 340 10:39 07.06.2020
1919 Clear 38 1006 16 10000 4.6 340 10:19 07.06.2020
1920 Clear 37 1007 18 10000 5.1 340 09:56 07.06.2020
1921 Clear 37 1007 18 10000 5.1 340 09:38 07.06.2020
1922 Clear 37 1007 18 10000 5.1 340 09:19 07.06.2020
1923 Clear 34 1007 20 10000 4.6 340 08:45 07.06.2020
1924 Clear 34 1007 20 10000 4.6 340 08:23 07.06.2020
1925 Clear 31 1007 19 10000 5.1 330 07:47 07.06.2020
1926 Clear 31 1007 19 10000 5.1 330 07:28 07.06.2020
1927 Clear 29 1006 20 10000 4.1 310 06:38 07.06.2020
1928 Clear 24 1006 25 10000 3.6 300 05:36 07.06.2020
1929 Clear 23 1006 27 10000 2.1 330 04:20 07.06.2020
1930 Clear 23 1006 27 10000 2.1 330 04:20 07.06.2020
1931 Clear 26 1006 24 10000 2.6 270 02:31 07.06.2020
1932 Clear 26 1006 24 10000 2.6 270 02:31 07.06.2020
1933 Clear 27 1006 24 10000 3.6 230 01:44 07.06.2020
1934 Clear 27 1006 24 10000 3.6 230 01:24 07.06.2020
1935 Clear 27 1006 30 10000 2.6 350 00:41 07.06.2020
1936 Clear 27 1006 30 10000 2.6 350 00:18 07.06.2020
1937 Clear 27 1006 30 10000 2.6 350 00:18 07.06.2020
1938 Clear 26 1007 29 10000 2.1 290 23:56 06.06.2020
1939 Clear 26 1007 29 10000 2.1 290 23:36 06.06.2020
1940 Clear 26 1007 29 10000 2.1 290 23:18 06.06.2020
1941 Clear 31 1007 22 10000 1.5 300 22:55 06.06.2020
1942 Clear 31 1007 22 10000 1.5 300 22:37 06.06.2020
1943 Clear 31 1007 22 10000 1.5 300 22:18 06.06.2020
1944 Clear 31 1007 22 10000 1.5 300 22:18 06.06.2020
1945 Clear 31 1007 23 10000 3.1 300 21:43 06.06.2020
1946 Clear 31 1007 23 10000 3.1 300 21:22 06.06.2020
1947 Clear 32 1007 22 9000 2.6 310 20:55 06.06.2020
1948 Clear 32 1007 22 9000 2.6 310 20:36 06.06.2020
1949 Clear 32 1007 22 9000 2.6 310 20:18 06.06.2020
1950 Clear 35 1007 19 10000 2.6 300 19:56 06.06.2020
1951 Clear 35 1007 19 10000 2.6 300 19:36 06.06.2020
1952 Clear 35 1007 19 10000 2.6 300 19:18 06.06.2020
1953 Clear 37 1007 17 10000 3.6 340 18:42 06.06.2020
1954 Clear 37 1007 17 10000 3.6 340 18:23 06.06.2020
1955 Clear 37 1007 17 10000 3.6 340 18:23 06.06.2020
1956 Clear 40 1006 13 10000 6.2 350 17:44 06.06.2020
1957 Clear 40 1006 13 10000 6.2 350 17:21 06.06.2020
1958 Clear 40 1007 13 10000 6.2 350 16:58 06.06.2020
1959 Clear 40 1007 13 10000 6.2 350 16:39 06.06.2020
1960 Clear 40 1007 13 10000 6.2 350 16:21 06.06.2020
1961 Clear 41 1007 13 10000 6.7 360 15:55 06.06.2020
1962 Clear 41 1007 13 10000 6.7 360 15:36 06.06.2020
1963 Clear 41 1007 13 10000 6.7 360 15:18 06.06.2020
1964 Clear 41 1008 13 10000 6.7 350 14:39 06.06.2020
1965 Clear 41 1008 13 10000 6.7 350 14:20 06.06.2020
1966 Clear 40 1009 14 10000 6.2 340 13:54 06.06.2020
1967 Clear 40 1009 14 10000 6.2 340 13:36 06.06.2020
1968 Clear 41 1009 13 10000 7.2 350 13:18 06.06.2020
1969 Clear 41 1009 13 10000 7.2 350 12:41 06.06.2020
1970 Clear 41 1009 13 10000 7.2 350 12:22 06.06.2020
1971 Clouds 40 1010 15 10000 6.7 340 11:58 06.06.2020
1972 Clouds 40 1010 15 10000 6.7 340 11:58 06.06.2020
1973 Clouds 40 1010 15 10000 6.7 340 11:38 06.06.2020
1974 Clouds 40 1010 15 10000 6.7 340 11:19 06.06.2020
1975 Clouds 39 1010 14 10000 8.7 10 10:57 06.06.2020
1976 Clouds 39 1010 14 10000 8.7 10 10:39 06.06.2020
1977 Clouds 39 1010 14 10000 8.7 10 10:20 06.06.2020
1978 Clouds 38 1010 16 10000 5.1 350 09:45 06.06.2020
1979 Clouds 38 1010 16 10000 5.1 350 09:27 06.06.2020
1980 Clouds 36 1011 16 10000 5.7 350 08:56 06.06.2020
1981 Clouds 36 1011 16 10000 5.7 350 08:38 06.06.2020
1982 Clouds 36 1011 16 10000 5.7 350 08:18 06.06.2020
1983 Clouds 35 1010 16 10000 5.1 360 07:44 06.06.2020
1984 Clouds 33 1011 19 10000 4.1 340 07:20 06.06.2020
1985 Clouds 31 1010 20 0 4.6 340 06:46 06.06.2020
1986 Clouds 31 1010 20 0 4.6 340 06:27 06.06.2020
1987 Clouds 29 1010 21 10000 6.7 350 05:50 06.06.2020
1988 Clouds 29 1010 21 10000 6.7 350 05:25 06.06.2020
1989 Clear 29 1010 20 10000 6.7 350 04:38 06.06.2020
1990 Clouds 27 1010 26 10000 3.6 330 02:36 06.06.2020
1991 Clouds 28 1010 26 10000 5.1 340 01:41 06.06.2020
1992 Clouds 28 1010 26 10000 5.1 340 01:18 06.06.2020
1993 Clouds 28 1010 26 10000 3.6 320 00:41 06.06.2020
1994 Clouds 28 1010 26 10000 3.6 320 00:22 06.06.2020
1995 Clouds 28 1010 28 10000 3.6 320 23:40 05.06.2020
1996 Clouds 28 1010 28 10000 3.6 320 23:21 05.06.2020
1997 Clouds 31 1010 23 10000 4.6 330 22:58 05.06.2020
1998 Clouds 31 1010 23 10000 4.6 330 22:40 05.06.2020
1999 Clouds 31 1010 23 10000 4.6 330 22:22 05.06.2020
2000 Clouds 33 1010 21 10000 5.1 330 21:57 05.06.2020
2001 Clouds 33 1010 21 10000 5.1 330 21:39 05.06.2020
2002 Clear 33 1010 21 10000 5.1 330 21:19 05.06.2020
2003 Clear 33 1010 22 10000 4.6 340 20:55 05.06.2020
2004 Clear 33 1010 22 10000 4.6 340 20:37 05.06.2020
2005 Clouds 33 1010 22 10000 4.6 340 20:18 05.06.2020
2006 Clouds 34 1009 21 10000 3.1 340 19:39 05.06.2020
2007 Clouds 34 1009 21 10000 3.1 340 19:21 05.06.2020
2008 Clouds 37 1009 18 10000 2.6 330 18:40 05.06.2020
2009 Clouds 37 1009 18 10000 2.6 330 18:21 05.06.2020
2010 Clouds 39 1009 15 10000 6.2 340 17:59 05.06.2020
2011 Clouds 39 1009 15 10000 6.2 340 17:41 05.06.2020
2012 Clouds 39 1009 15 10000 6.2 340 17:21 05.06.2020
2013 Clouds 40 1009 14 10000 7.2 350 16:58 05.06.2020
2014 Clouds 40 1009 14 10000 7.2 350 16:37 05.06.2020
2015 Clouds 40 1009 14 10000 7.2 350 16:19 05.06.2020
2016 Clouds 40 1009 14 10000 7.7 350 15:40 05.06.2020
2017 Clear 40 1009 14 10000 7.7 350 15:21 05.06.2020
2018 Clear 41 1010 15 10000 6.7 340 14:58 05.06.2020
2019 Clear 41 1010 15 10000 6.7 340 14:39 05.06.2020
2020 Clear 41 1010 15 10000 6.7 340 14:39 05.06.2020
2021 Clear 41 1010 15 10000 6.7 340 14:21 05.06.2020
2022 Clear 40 1010 15 10000 7.7 350 13:47 05.06.2020
2023 Clear 40 1010 15 10000 7.7 350 13:28 05.06.2020
2024 Clear 40 1011 14 10000 6.7 360 12:57 05.06.2020
2025 Clear 40 1011 14 10000 6.7 360 12:38 05.06.2020
2026 Clear 40 1011 14 10000 6.7 360 12:19 05.06.2020
2027 Clear 39 1011 14 10000 6.2 350 11:43 05.06.2020
2028 Clear 39 1011 14 10000 6.2 350 11:24 05.06.2020
2029 Clear 38 1012 16 10000 6.7 340 10:59 05.06.2020
2030 Clear 38 1012 16 10000 6.7 340 10:41 05.06.2020
2031 Clear 38 1012 16 10000 6.7 340 10:20 05.06.2020
2032 Clear 36 1012 18 10000 5.7 350 09:57 05.06.2020
2033 Clear 36 1012 18 10000 5.7 350 09:39 05.06.2020
2034 Clear 36 1012 18 10000 5.7 350 09:20 05.06.2020
2035 Clear 34 1012 21 10000 4.1 340 08:58 05.06.2020
2036 Clear 34 1012 21 10000 4.1 340 08:40 05.06.2020
2037 Clear 34 1012 21 10000 4.1 340 08:18 05.06.2020
2038 Clear 32 1012 22 10000 4.6 360 07:50 05.06.2020
2039 Clear 32 1012 22 10000 4.6 360 07:31 05.06.2020
2040 Clear 30 1012 23 10000 4.1 10 06:49 05.06.2020
2041 Clear 24 1011 33 10000 2.1 340 05:23 05.06.2020
2042 Clear 24 1011 33 10000 2.1 330 04:28 05.06.2020
2043 Clear 23 1011 35 10000 3.1 340 03:32 05.06.2020
2044 Clear 26 1011 27 10000 4.6 330 02:30 05.06.2020
2045 Clear 24 1011 29 10000 3.6 320 01:59 05.06.2020
2046 Clear 24 1011 29 10000 3.6 320 01:33 05.06.2020
2047 Clear 27 1011 26 10000 4.1 320 00:46 05.06.2020
2048 Clear 27 1011 26 10000 4.1 320 00:22 05.06.2020
2049 Clear 28 1011 24 10000 4.6 320 23:58 04.06.2020
2050 Clear 28 1011 24 10000 4.6 320 23:40 04.06.2020
2051 Clear 28 1011 24 10000 4.6 320 23:21 04.06.2020
2052 Clear 26 1011 27 10000 3.1 310 22:42 04.06.2020
2053 Clear 26 1011 27 10000 3.1 310 22:21 04.06.2020
2054 Clear 28 1011 28 10000 1.5 320 21:58 04.06.2020
2055 Clear 28 1011 28 10000 1.5 320 21:39 04.06.2020
2056 Clear 28 1011 28 10000 1.5 320 21:20 04.06.2020
2057 Clear 31 1010 25 10000 2.1 340 20:57 04.06.2020
2058 Clear 31 1010 25 10000 2.1 340 20:39 04.06.2020
2059 Clear 31 1010 25 10000 2.1 340 20:39 04.06.2020
2060 Clear 31 1010 25 10000 2.1 340 20:20 04.06.2020
2061 Clear 31 1010 22 10000 2.1 300 19:55 04.06.2020
2062 Clear 31 1010 22 10000 2.1 300 19:37 04.06.2020
2063 Clear 35 1009 19 10000 3.6 260 19:18 04.06.2020
2064 Clear 35 1009 19 10000 3.6 260 18:39 04.06.2020
2065 Clear 35 1009 19 10000 3.6 260 18:20 04.06.2020
2066 Clear 37 1009 16 10000 6.2 250 17:58 04.06.2020
2067 Clear 37 1009 16 10000 6.2 250 17:40 04.06.2020
2068 Clear 37 1009 16 10000 6.2 250 17:19 04.06.2020
2069 Clear 39 1009 14 10000 5.1 270 16:41 04.06.2020
2070 Clear 39 1009 14 10000 5.1 270 16:20 04.06.2020
2071 Clear 38 1009 14 10000 3.6 250 15:46 04.06.2020
2072 Clear 38 1009 14 10000 3.6 250 15:27 04.06.2020
2073 Clear 39 1009 12 10000 5.1 280 14:56 04.06.2020
2074 Clear 39 1009 12 10000 5.1 280 14:38 04.06.2020
2075 Clear 39 1009 12 10000 5.1 280 14:19 04.06.2020
2076 Clear 39 1010 15 10000 4.6 320 13:42 04.06.2020
2077 Clear 39 1010 15 10000 4.6 320 13:21 04.06.2020
2078 Clear 38 1010 15 10000 4.6 300 12:59 04.06.2020
2079 Clear 38 1010 15 10000 4.6 300 12:41 04.06.2020
2080 Clear 38 1010 15 10000 4.6 300 12:23 04.06.2020
2081 Clear 37 1010 16 10000 4.6 300 11:58 04.06.2020
2082 Clear 37 1010 16 10000 4.6 300 11:38 04.06.2020
2083 Clear 37 1010 16 10000 4.6 300 11:20 04.06.2020
2084 Clear 37 1011 13 10000 4.1 350 10:56 04.06.2020
2085 Clear 37 1011 13 10000 4.1 350 10:37 04.06.2020
2086 Clear 37 1011 13 10000 4.1 350 10:18 04.06.2020
2087 Clear 35 1010 17 10000 3.6 350 09:42 04.06.2020
2088 Clear 35 1010 17 10000 3.6 350 09:23 04.06.2020
2089 Clear 34 1010 20 10000 3.6 360 08:44 04.06.2020
2090 Clear 34 1010 20 10000 3.6 360 08:26 04.06.2020
2091 Clear 31 1009 23 10000 4.1 360 07:47 04.06.2020
2092 Clear 31 1009 23 10000 4.1 360 07:27 04.06.2020
2093 Clear 28 1009 28 10000 3.1 340 06:44 04.06.2020
2094 Clear 26 1009 31 10000 3.6 340 06:25 04.06.2020
2095 Clear 26 1009 31 10000 3.6 340 05:35 04.06.2020
2096 Clear 26 1009 31 10000 4.6 350 04:33 04.06.2020
2097 Clear 22 1008 40 10000 2.6 340 03:24 04.06.2020
2098 Clear 26 1008 29 10000 4.1 330 01:56 04.06.2020
2099 Clear 28 1008 24 10000 4.6 330 01:19 04.06.2020
2100 Clear 28 1008 24 10000 4.6 330 00:40 04.06.2020
2101 Clear 28 1008 28 10000 4.6 330 23:44 03.06.2020
2102 Clear 28 1008 28 10000 4.6 330 23:21 03.06.2020
2103 Clear 28 1008 28 10000 3.6 330 22:59 03.06.2020
2104 Clear 28 1008 28 10000 3.6 330 22:39 03.06.2020
2105 Clear 28 1008 28 10000 3.6 330 22:19 03.06.2020
2106 Clear 28 1008 28 10000 3.6 330 22:19 03.06.2020
2107 Clear 28 1008 28 10000 3.1 330 21:57 03.06.2020
2108 Clear 28 1008 28 10000 3.1 330 21:39 03.06.2020
2109 Clear 28 1008 28 10000 3.1 330 21:20 03.06.2020
2110 Clear 30 1007 27 10000 3.6 330 20:55 03.06.2020
2111 Clear 30 1007 27 10000 3.6 330 20:37 03.06.2020
2112 Clear 30 1007 27 10000 3.6 330 20:19 03.06.2020
2113 Clear 31 1006 27 10000 3.1 340 19:55 03.06.2020
2114 Clear 31 1006 27 10000 3.1 340 19:36 03.06.2020
2115 Clear 31 1006 27 10000 3.1 340 19:18 03.06.2020
2116 Clear 34 1006 24 10000 5.1 320 18:41 03.06.2020
2117 Clear 34 1006 24 10000 5.1 320 18:22 03.06.2020
2118 Clear 37 1005 18 10000 5.7 290 17:57 03.06.2020
2119 Clear 37 1005 18 10000 5.7 290 17:37 03.06.2020
2120 Clear 37 1005 18 10000 5.7 290 17:18 03.06.2020
2121 Clear 38 1005 17 10000 6.2 280 16:42 03.06.2020
2122 Clear 38 1005 17 10000 6.2 280 16:21 03.06.2020
2123 Clear 38 1005 16 10000 6.7 250 15:58 03.06.2020
2124 Clear 38 1005 16 10000 6.7 250 15:40 03.06.2020
2125 Clear 38 1005 16 10000 6.7 250 15:20 03.06.2020
2126 Clear 39 1005 16 10000 5.1 260 14:47 03.06.2020
2127 Clear 39 1005 16 10000 5.1 260 14:25 03.06.2020
2128 Clear 39 1005 16 10000 5.1 260 13:56 03.06.2020
2129 Clear 39 1005 16 10000 5.1 260 13:38 03.06.2020
2130 Clear 39 1005 16 10000 5.1 260 13:18 03.06.2020
2131 Clear 38 1005 18 10000 5.7 240 12:42 03.06.2020
2132 Clear 38 1005 18 10000 5.7 240 12:21 03.06.2020
2133 Clear 38 1006 16 10000 4.1 250 11:45 03.06.2020
2134 Clear 38 1006 16 10000 4.1 250 11:27 03.06.2020
2135 Clear 37 1006 18 10000 4.6 250 10:57 03.06.2020
2136 Clear 37 1006 18 10000 4.6 250 10:57 03.06.2020
2137 Clear 37 1006 18 10000 4.6 250 10:38 03.06.2020
2138 Clear 37 1006 18 10000 4.6 250 10:20 03.06.2020
2139 Clear 36 1005 20 10000 5.1 260 09:43 03.06.2020
2140 Clear 36 1005 20 10000 5.1 260 09:20 03.06.2020
2141 Clear 37 1005 17 10000 2.6 70 08:48 03.06.2020
2142 Clear 37 1005 17 10000 2.6 70 08:25 03.06.2020
2143 Clear 37 1005 17 10000 2.6 80 07:59 03.06.2020
2144 Clear 35 1004 19 10000 2.1 80 07:41 03.06.2020
2145 Clear 31 1004 27 10000 2.1 80 07:19 03.06.2020
2146 Clear 31 1004 27 10000 2.1 80 06:49 03.06.2020
2147 Clear 31 1004 27 10000 2.1 80 06:30 03.06.2020
2148 Clear 25 1004 31 10000 1 120 05:46 03.06.2020
2149 Clear 23 1003 38 10000 1.5 20 04:44 03.06.2020
2150 Clear 23 1003 35 10000 4.78 69 03:50 03.06.2020
2151 Clear 25 1003 31 10000 1 60 02:46 03.06.2020
2152 Clear 25 1003 31 10000 0.5 0 01:48 03.06.2020
2153 Clear 27 1004 28 10000 1.5 350 00:41 03.06.2020
2154 Clear 27 1004 28 10000 1.5 350 00:23 03.06.2020
2155 Clear 28 1004 26 10000 2.1 320 23:51 02.06.2020
2156 Clear 28 1004 26 10000 2.1 320 23:27 02.06.2020
2157 Clear 32 1004 18 10000 4.1 290 22:56 02.06.2020
2158 Clear 32 1004 18 10000 4.1 290 22:37 02.06.2020
2159 Clear 32 1004 18 10000 4.1 290 22:18 02.06.2020
2160 Clear 33 1004 18 10000 4.6 280 21:56 02.06.2020
2161 Clear 33 1004 18 10000 4.6 280 21:37 02.06.2020
2162 Clear 33 1004 18 10000 4.6 280 21:19 02.06.2020
2163 Clear 34 1003 17 10000 4.1 280 20:55 02.06.2020
2164 Clear 34 1003 17 10000 4.1 280 20:36 02.06.2020
2165 Clear 34 1003 17 10000 4.1 280 20:18 02.06.2020
2166 Clear 35 1003 17 10000 2.6 270 19:42 02.06.2020
2167 Clear 35 1003 17 10000 2.6 270 19:23 02.06.2020
2168 Clear 37 1002 14 10000 4.6 260 18:57 02.06.2020
2169 Clear 37 1002 14 10000 4.6 260 18:38 02.06.2020
2170 Clear 37 1002 14 10000 4.6 260 18:19 02.06.2020
2171 Clear 40 1001 12 10000 5.1 260 17:43 02.06.2020
2172 Clear 40 1001 12 10000 5.1 260 17:23 02.06.2020
2173 Clear 41 1001 11 10000 6.7 260 16:59 02.06.2020
2174 Clear 41 1001 11 10000 6.7 260 16:40 02.06.2020
2175 Clear 41 1001 11 10000 6.7 260 16:21 02.06.2020
2176 Clear 41 1001 12 10000 6.7 230 15:57 02.06.2020
2177 Clear 41 1001 12 10000 6.7 230 15:37 02.06.2020
2178 Clear 41 1001 12 10000 6.7 230 15:18 02.06.2020
2179 Clear 42 1001 13 10000 4.6 270 14:42 02.06.2020
2180 Clear 42 1001 13 10000 4.6 270 14:23 02.06.2020
2181 Clear 41 1001 13 10000 6.7 280 13:54 02.06.2020
2182 Clear 41 1001 13 10000 6.7 280 13:36 02.06.2020
2183 Clear 41 1001 13 10000 6.7 280 13:18 02.06.2020
2184 Clear 40 1001 12 10000 8.2 260 12:40 02.06.2020
2185 Clear 40 1001 12 10000 8.2 260 12:21 02.06.2020
2186 Clouds 40 1001 15 10000 7.7 260 11:59 02.06.2020
2187 Clouds 40 1001 15 10000 7.7 260 11:39 02.06.2020
2188 Clouds 40 1001 15 10000 7.7 260 11:20 02.06.2020
2189 Clear 38 1000 21 10000 6.2 280 10:50 02.06.2020
2190 Clear 38 1000 21 10000 6.2 280 10:28 02.06.2020
2191 Clear 42 1001 7 0 4.81 237 09:59 02.06.2020
2192 Clear 42 1001 7 0 4.81 237 09:40 02.06.2020
2193 Clear 40 1001 8 0 2.63 239 09:20 02.06.2020
2194 Clear 40 1001 8 0 2.63 239 08:51 02.06.2020
2195 Clouds 36 999 15 10000 3.1 60 08:23 02.06.2020
2196 Clouds 36 999 15 10000 3.1 60 07:53 02.06.2020
2197 Clouds 36 999 15 10000 3.1 60 07:30 02.06.2020
2198 Clouds 31 1000 23 10000 2.6 30 06:51 02.06.2020
2199 Clouds 31 1000 23 10000 2.6 30 06:31 02.06.2020
2200 Clouds 26 1000 26 10000 2.6 330 05:27 02.06.2020
2201 Clouds 30 1000 20 10000 2.6 20 03:29 02.06.2020
2202 Clouds 32 1000 17 10000 4.6 30 02:30 02.06.2020
2203 Clouds 31 1001 20 10000 4.1 360 01:34 02.06.2020
2204 Clear 28 1002 26 10000 2.6 340 00:26 02.06.2020
2205 Clear 29 1002 26 10000 2.6 330 23:59 01.06.2020
2206 Clear 29 1002 26 10000 2.6 330 23:38 01.06.2020
2207 Clear 29 1002 26 10000 2.6 330 23:18 01.06.2020
2208 Clear 31 1003 22 10000 3.1 330 22:56 01.06.2020
2209 Clear 31 1003 22 10000 3.1 330 22:37 01.06.2020
2210 Clear 31 1003 22 10000 3.1 330 22:18 01.06.2020
2211 Clear 32 1003 22 10000 3.6 340 21:41 01.06.2020
2212 Clear 32 1003 22 10000 3.6 340 21:20 01.06.2020
2213 Clouds 32 1003 22 10000 3.1 340 20:58 01.06.2020
2214 Clear 34 1003 10 0 4.98 9 20:40 01.06.2020
2215 Clouds 34 1003 17 10000 2.6 330 20:19 01.06.2020
2216 Clouds 34 1003 17 10000 2.6 330 19:57 01.06.2020
2217 Clouds 34 1003 17 10000 2.6 330 19:39 01.06.2020
2218 Clouds 37 1002 17 10000 2.6 360 19:19 01.06.2020
2219 Clouds 37 1002 17 10000 2.6 360 18:56 01.06.2020
2220 Clouds 37 1002 17 10000 2.6 360 18:56 01.06.2020
2221 Clouds 37 1002 17 10000 2.6 360 18:38 01.06.2020
2222 Clouds 37 1002 17 10000 2.6 360 18:18 01.06.2020
2223 Clouds 40 1003 13 10000 3.6 350 17:41 01.06.2020
2224 Clouds 40 1003 13 10000 3.6 350 17:20 01.06.2020
2225 Clouds 41 1003 11 10000 3.1 20 16:48 01.06.2020
2226 Clouds 41 1003 11 10000 3.1 20 16:26 01.06.2020
2227 Clouds 42 1004 11 10000 4.1 40 15:59 01.06.2020
2228 Clouds 42 1004 11 10000 4.1 40 15:40 01.06.2020
2229 Clouds 42 1004 11 10000 4.1 40 15:21 01.06.2020
2230 Clouds 41 1005 12 10000 3.1 10 14:59 01.06.2020
2231 Clouds 41 1005 12 10000 3.1 10 14:59 01.06.2020
2232 Clouds 41 1005 12 10000 3.1 10 14:41 01.06.2020
2233 Clouds 41 1005 12 10000 3.1 10 14:21 01.06.2020
2234 Clouds 41 1005 12 10000 3.1 10 14:21 01.06.2020
2235 Clear 41 1005 12 10000 5.7 360 13:56 01.06.2020
2236 Clear 41 1005 12 10000 5.7 360 13:38 01.06.2020
2237 Clear 41 1005 12 10000 5.7 360 13:19 01.06.2020
2238 Clouds 41 1006 12 10000 6.2 350 12:57 01.06.2020
2239 Clouds 41 1006 12 10000 6.2 350 12:38 01.06.2020
2240 Clouds 41 1006 12 10000 6.2 350 12:20 01.06.2020
2241 Clear 40 1007 12 10000 6.7 360 11:40 01.06.2020
2242 Clear 40 1007 12 10000 6.7 360 11:22 01.06.2020
2243 Clear 39 1007 12 10000 7.7 20 10:57 01.06.2020
2244 Clear 39 1007 12 10000 7.7 20 10:38 01.06.2020
2245 Clear 39 1007 12 10000 7.7 20 10:19 01.06.2020
2246 Clear 38 1007 12 10000 7.2 10 09:55 01.06.2020
2247 Clouds 35 1008 15 10000 5.1 10 09:37 01.06.2020
2248 Clouds 35 1008 15 10000 5.1 10 09:37 01.06.2020
2249 Clouds 35 1008 15 10000 5.1 10 09:19 01.06.2020
2250 Clouds 35 1008 15 10000 5.1 10 08:42 01.06.2020
2251 Clouds 35 1008 15 10000 5.1 10 08:23 01.06.2020
2252 Clouds 32 1008 17 10000 5.7 360 07:44 01.06.2020
2253 Clouds 32 1008 17 10000 5.7 360 07:26 01.06.2020
2254 Clouds 27 1008 28 10000 2.6 350 06:52 01.06.2020
2255 Clouds 27 1008 28 10000 2.6 350 06:20 01.06.2020
2256 Clouds 23 1008 31 10000 3.1 320 05:50 01.06.2020
2257 Clear 21 1008 32 10000 3.6 330 04:23 01.06.2020
2258 Clear 23 1008 28 10000 3.6 330 03:45 01.06.2020
2259 Clear 23 1008 28 10000 3.6 330 03:18 01.06.2020
2260 Clear 24 1008 27 10000 3.1 320 01:47 01.06.2020
2261 Clear 25 1008 23 10000 3.1 310 01:29 01.06.2020
2262 Clear 25 1008 25 10000 3.1 340 00:57 01.06.2020
2263 Clear 25 1008 25 10000 3.1 340 00:39 01.06.2020
2264 Clear 25 1008 25 10000 3.1 340 00:20 01.06.2020
2265 Clear 26 1008 22 10000 2.6 320 23:55 31.05.2020
2266 Clear 26 1008 22 10000 2.6 320 23:55 31.05.2020
2267 Clear 26 1008 22 10000 2.6 320 23:36 31.05.2020
2268 Clear 26 1008 22 10000 2.6 320 23:18 31.05.2020
2269 Clear 28 1009 21 10000 2.6 320 22:42 31.05.2020
2270 Clear 28 1009 21 10000 2.6 320 22:24 31.05.2020
2271 Clear 29 1009 18 10000 3.1 300 21:58 31.05.2020
2272 Clear 29 1009 18 10000 3.1 300 21:39 31.05.2020
2273 Clear 29 1009 18 10000 3.1 300 21:21 31.05.2020
2274 Clear 30 1009 19 9000 3.1 300 20:48 31.05.2020
2275 Clear 30 1009 19 9000 3.1 300 20:26 31.05.2020
2276 Clear 33 1008 18 10000 2.1 330 19:59 31.05.2020
2277 Clear 33 1008 18 10000 2.1 330 19:40 31.05.2020
2278 Clear 33 1008 18 10000 2.1 330 19:22 31.05.2020
2279 Clear 34 1008 16 10000 3.1 330 18:59 31.05.2020
2280 Clear 34 1008 16 10000 3.1 330 18:41 31.05.2020
2281 Clear 34 1008 16 10000 3.1 330 18:22 31.05.2020
2282 Clear 37 1007 13 10000 5.1 340 17:43 31.05.2020
2283 Clear 37 1007 13 10000 5.1 340 17:24 31.05.2020
2284 Clear 37 1007 13 10000 5.7 340 16:43 31.05.2020
2285 Clear 37 1007 13 10000 5.7 340 16:23 31.05.2020
2286 Clear 38 1008 13 10000 6.7 340 15:59 31.05.2020
2287 Clear 38 1008 13 10000 6.7 340 15:38 31.05.2020
2288 Clear 38 1008 13 10000 6.7 340 15:20 31.05.2020
2289 Clear 38 1009 12 10000 7.2 330 14:45 31.05.2020
2290 Clear 38 1009 12 10000 7.2 330 14:20 31.05.2020
2291 Clear 37 1009 13 10000 7.2 340 13:56 31.05.2020
2292 Clear 37 1009 13 10000 7.2 340 13:37 31.05.2020
2293 Clear 37 1009 13 10000 7.2 340 13:19 31.05.2020
2294 Clear 37 1010 13 10000 5.7 340 12:55 31.05.2020
2295 Clear 37 1010 13 10000 5.7 340 12:37 31.05.2020
2296 Clear 37 1010 13 10000 5.7 340 12:18 31.05.2020
2297 Clear 36 1011 13 10000 5.1 340 11:47 31.05.2020
2298 Clear 36 1011 13 10000 5.1 340 11:23 31.05.2020
2299 Clear 34 1011 14 10000 5.1 330 10:55 31.05.2020
2300 Clear 34 1011 14 10000 5.1 330 10:37 31.05.2020
2301 Clear 34 1011 14 10000 5.1 330 10:18 31.05.2020
2302 Clear 33 1012 16 10000 4.6 340 09:42 31.05.2020
2303 Clear 33 1012 16 10000 4.6 340 09:22 31.05.2020
2304 Clear 33 1012 17 10000 4.6 330 08:57 31.05.2020
2305 Clear 31 1012 19 10000 4.6 340 08:37 31.05.2020
2306 Clear 31 1012 19 10000 4.6 340 08:19 31.05.2020
2307 Clear 29 1012 20 10000 5.1 340 07:40 31.05.2020
2308 Clear 29 1012 20 10000 5.1 340 07:20 31.05.2020
2309 Clear 26 1011 24 10000 6.2 350 06:50 31.05.2020
2310 Clear 26 1011 24 10000 6.2 350 06:31 31.05.2020
2311 Clear 24 1012 27 10000 4.1 340 05:41 31.05.2020
2312 Clear 21 1011 30 10000 3.6 320 04:25 31.05.2020
2313 Clear 22 1011 26 10000 4.1 320 03:48 31.05.2020
2314 Clear 24 1011 25 10000 4.6 330 02:59 31.05.2020
2315 Clouds 25 1011 29 10000 4.6 320 01:48 31.05.2020
2316 Clouds 25 1011 29 10000 4.1 310 01:00 31.05.2020
2317 Clouds 25 1011 29 10000 4.1 310 00:30 31.05.2020
2318 Clouds 27 1012 26 10000 5.7 290 23:55 30.05.2020
2319 Clouds 27 1012 26 10000 5.7 290 23:36 30.05.2020
2320 Clouds 27 1012 26 10000 5.7 290 23:18 30.05.2020
2321 Clouds 28 1012 21 10000 5.7 290 22:41 30.05.2020
2322 Clouds 28 1012 21 10000 5.7 290 22:22 30.05.2020
2323 Clouds 29 1011 16 10000 5.1 300 21:56 30.05.2020
2324 Clouds 29 1011 16 10000 5.1 300 21:37 30.05.2020
2325 Clear 29 1011 16 10000 5.1 300 21:18 30.05.2020
2326 Clear 30 1011 15 10000 5.7 300 20:56 30.05.2020
2327 Clear 30 1011 15 10000 5.7 300 20:37 30.05.2020
2328 Clouds 30 1011 15 10000 5.7 300 20:19 30.05.2020
2329 Clouds 31 1010 15 10000 5.1 290 19:42 30.05.2020
2330 Clouds 31 1010 15 10000 5.1 290 19:21 30.05.2020
2331 Clouds 33 1010 14 10000 5.7 300 18:45 30.05.2020
2332 Clear 33 1010 14 10000 5.7 300 18:24 30.05.2020
2333 Clouds 34 1010 13 10000 7.2 300 17:55 30.05.2020
2334 Clouds 34 1010 13 10000 7.2 300 17:37 30.05.2020
2335 Clouds 34 1010 13 10000 7.2 300 17:18 30.05.2020
2336 Clear 35 1010 13 10000 7.2 320 16:41 30.05.2020
2337 Clear 35 1010 13 10000 7.2 320 16:22 30.05.2020
2338 Clear 36 1010 11 10000 8.7 310 15:48 30.05.2020
2339 Clear 36 1010 11 10000 8.7 310 15:29 30.05.2020
2340 Clear 36 1011 13 10000 9.8 300 14:48 30.05.2020
2341 Clear 36 1011 13 10000 9.8 300 14:30 30.05.2020
2342 Clouds 35 1011 14 10000 7.7 330 13:58 30.05.2020
2343 Clouds 35 1011 14 10000 7.7 330 13:40 30.05.2020
2344 Clouds 35 1011 14 10000 7.7 330 13:18 30.05.2020
2345 Clouds 35 1012 14 10000 7.7 330 12:39 30.05.2020
2346 Clear 35 1012 14 10000 7.7 330 12:20 30.05.2020
2347 Clear 34 1012 15 10000 6.7 330 11:54 30.05.2020
2348 Clear 34 1012 15 10000 6.7 330 11:36 30.05.2020
2349 Clear 34 1012 15 10000 6.7 330 11:18 30.05.2020
2350 Clear 33 1012 14 10000 7.2 330 10:38 30.05.2020
2351 Clear 33 1012 14 10000 7.2 330 10:20 30.05.2020
2352 Clear 33 1012 14 10000 7.2 330 10:20 30.05.2020
2353 Clear 31 1012 19 10000 7.2 340 09:45 30.05.2020
2354 Clear 31 1012 19 10000 7.2 340 09:27 30.05.2020
2355 Clear 30 1011 20 10000 8.7 330 08:46 30.05.2020
2356 Clear 30 1011 20 10000 8.7 330 08:27 30.05.2020
2357 Clear 27 1011 28 10000 7.7 330 07:43 30.05.2020
2358 Clear 27 1011 28 10000 7.7 330 07:20 30.05.2020
2359 Clear 25 1011 29 10000 4.6 330 06:31 30.05.2020
2360 Clear 23 1010 33 10000 3.6 310 05:52 30.05.2020
2361 Clear 23 1010 33 10000 3.6 310 05:20 30.05.2020
2362 Clear 24 1009 31 10000 5.1 330 03:35 30.05.2020
2363 Clear 25 1009 29 10000 6.2 330 02:29 30.05.2020
2364 Clear 26 1009 27 10000 6.7 320 01:40 30.05.2020
2365 Clear 27 1009 28 10000 7.2 320 00:37 30.05.2020
2366 Clear 27 1009 28 10000 7.2 320 00:18 30.05.2020
2367 Clear 28 1009 28 10000 7.2 310 23:41 29.05.2020
2368 Clear 28 1009 28 10000 7.2 310 23:20 29.05.2020
2369 Clear 29 1009 30 10000 8.7 300 22:56 29.05.2020
2370 Clear 29 1009 30 10000 8.7 300 22:38 29.05.2020
2371 Clear 29 1009 30 10000 8.7 300 22:19 29.05.2020
2372 Clear 30 1008 27 10000 8.2 290 21:41 29.05.2020
2373 Clear 30 1008 27 10000 8.2 290 21:21 29.05.2020
2374 Clear 32 1008 25 10000 7.7 280 20:59 29.05.2020
2375 Clear 32 1008 25 10000 7.7 280 20:40 29.05.2020
2376 Clouds 32 1008 25 10000 7.7 280 20:19 29.05.2020
2377 Clouds 32 1008 17 0 10.6 321 19:44 29.05.2020
2378 Clouds 35 1007 20 10000 6.7 290 19:26 29.05.2020
2379 Clouds 35 1007 20 10000 6.7 290 18:55 29.05.2020
2380 Clouds 35 1007 20 10000 6.7 290 18:37 29.05.2020
2381 Clouds 35 1007 20 10000 6.7 290 18:18 29.05.2020
2382 Clouds 34 1006 17 0 10.16 307 17:40 29.05.2020
2383 Clouds 38 1006 16 10000 9.3 290 17:21 29.05.2020
2384 Clouds 38 1006 16 10000 9.3 290 16:58 29.05.2020
2385 Clouds 38 1006 16 10000 9.3 290 16:40 29.05.2020
2386 Clouds 38 1006 16 10000 9.3 290 16:21 29.05.2020
2387 Clouds 38 1006 16 10000 9.3 290 15:54 29.05.2020
2388 Clouds 38 1006 16 10000 9.3 290 15:36 29.05.2020
2389 Clear 38 1006 16 10000 9.3 290 15:18 29.05.2020
2390 Clear 39 1007 15 10000 8.2 290 14:39 29.05.2020
2391 Clouds 39 1007 15 10000 8.2 290 14:20 29.05.2020
2392 Clouds 38 1007 17 10000 8.7 280 13:43 29.05.2020
2393 Clouds 38 1007 17 10000 8.7 280 13:24 29.05.2020
2394 Clouds 37 1007 17 10000 7.7 300 12:58 29.05.2020
2395 Clouds 37 1007 17 10000 7.7 300 12:39 29.05.2020
2396 Clouds 37 1007 17 10000 7.7 300 12:21 29.05.2020
2397 Clouds 36 1007 18 10000 8.7 300 11:44 29.05.2020
2398 Clouds 36 1007 18 10000 8.7 300 11:25 29.05.2020
2399 Clouds 34 1008 20 10000 10.3 290 10:56 29.05.2020
2400 Clouds 34 1008 20 10000 10.3 290 10:36 29.05.2020
2401 Clouds 34 1008 20 10000 10.3 290 10:18 29.05.2020
2402 Clouds 33 1008 19 10000 9.3 300 09:42 29.05.2020
2403 Clouds 33 1008 19 10000 9.3 300 09:19 29.05.2020
2404 Clouds 32 1008 18 10000 8.2 300 08:48 29.05.2020
2405 Clouds 32 1008 18 10000 8.2 300 08:26 29.05.2020
2406 Clouds 31 1007 19 10000 10.3 310 07:58 29.05.2020
2407 Clouds 31 1007 19 10000 10.3 310 07:37 29.05.2020
2408 Clouds 31 1007 19 10000 10.3 310 07:18 29.05.2020
2409 Clouds 34 1006 20 0 7.12 332 06:46 29.05.2020
2410 Clouds 28 1006 32 10000 6.2 300 06:26 29.05.2020
2411 Clouds 28 1006 32 10000 6.2 300 05:46 29.05.2020
2412 Clear 29 1005 28 10000 3.6 330 02:36 29.05.2020
2413 Clear 32 1004 24 10000 5.7 320 01:29 29.05.2020
2414 Clear 31 1004 25 10000 3.6 310 00:54 29.05.2020
2415 Clear 31 1004 25 10000 3.6 310 00:34 29.05.2020
2416 Clear 33 1004 24 10000 2.1 240 23:59 28.05.2020
2417 Clear 33 1004 24 10000 2.1 240 23:39 28.05.2020
2418 Clear 33 1004 24 10000 2.1 240 23:18 28.05.2020
2419 Clear 34 1004 21 10000 1.5 230 22:42 28.05.2020
2420 Clouds 34 1004 21 10000 1.5 230 22:24 28.05.2020
2421 Clouds 34 1004 21 10000 3.1 140 21:57 28.05.2020
2422 Clouds 34 1004 21 10000 3.1 140 21:38 28.05.2020
2423 Clear 34 1004 21 10000 3.1 140 21:19 28.05.2020
2424 Clear 36 1004 19 10000 2.6 120 20:57 28.05.2020
2425 Clear 36 1004 19 10000 2.6 120 20:57 28.05.2020
2426 Clear 36 1004 19 10000 2.6 120 20:38 28.05.2020
2427 Clouds 36 1004 19 10000 2.6 120 20:18 28.05.2020
2428 Clouds 37 1004 19 10000 3.6 110 19:54 28.05.2020
2429 Clouds 37 1004 19 10000 3.6 110 19:54 28.05.2020
2430 Clouds 37 1004 19 10000 3.6 110 19:36 28.05.2020
2431 Clouds 37 1004 19 10000 3.6 110 19:18 28.05.2020
2432 Clouds 39 1004 15 10000 3.6 110 18:41 28.05.2020
2433 Clear 39 1004 15 10000 3.6 110 18:22 28.05.2020
2434 Clear 43 1004 10 10000 4.6 130 17:43 28.05.2020
2435 Clear 43 1004 10 10000 4.6 130 17:22 28.05.2020
2436 Clear 44 1004 10 10000 5.1 140 16:58 28.05.2020
2437 Clear 44 1004 10 10000 5.1 140 16:58 28.05.2020
2438 Clear 44 1004 10 10000 5.1 140 16:38 28.05.2020
2439 Clear 44 1004 10 10000 5.1 140 16:20 28.05.2020
2440 Clear 45 1004 10 10000 5.7 180 15:42 28.05.2020
2441 Clear 45 1004 10 10000 5.7 180 15:24 28.05.2020
2442 Clear 44 1005 11 10000 4.6 190 14:57 28.05.2020
2443 Clear 44 1005 11 10000 4.6 190 14:38 28.05.2020
2444 Clouds 44 1005 11 10000 4.6 190 14:20 28.05.2020
2445 Clouds 44 1006 11 10000 2.1 200 13:40 28.05.2020
2446 Clouds 44 1006 11 10000 2.1 200 13:21 28.05.2020
2447 Clouds 43 1006 12 10000 3.1 0 12:42 28.05.2020
2448 Clouds 43 1006 12 10000 3.1 0 12:19 28.05.2020
2449 Clouds 42 1007 13 10000 1.5 0 11:44 28.05.2020
2450 Clouds 42 1007 13 10000 1.5 0 11:26 28.05.2020
2451 Clouds 41 1008 12 10000 2.6 70 10:57 28.05.2020
2452 Clouds 41 1008 12 10000 2.6 70 10:57 28.05.2020
2453 Clouds 41 1008 12 10000 2.6 70 10:39 28.05.2020
2454 Clouds 41 1008 12 10000 2.6 70 10:21 28.05.2020
2455 Clouds 39 1008 13 10000 1.5 50 09:39 28.05.2020
2456 Clouds 39 1008 13 10000 1.5 50 09:21 28.05.2020
2457 Clouds 37 1008 16 10000 4.1 30 08:51 28.05.2020
2458 Clouds 37 1008 16 10000 4.1 30 08:31 28.05.2020
2459 Clouds 31 1008 27 10000 2.6 340 07:54 28.05.2020
2460 Clouds 31 1008 27 10000 2.6 340 07:36 28.05.2020
2461 Clouds 31 1008 27 10000 2.6 340 07:18 28.05.2020
2462 Clouds 32 1009 21 10000 1 0 06:39 28.05.2020
2463 Clouds 32 1009 21 10000 1 0 06:20 28.05.2020
2464 Clouds 26 1008 31 10000 1.5 320 05:37 28.05.2020
2465 Clear 27 1008 26 10000 1.5 20 04:34 28.05.2020
2466 Clear 26 1008 26 10000 2.6 10 03:51 28.05.2020
2467 Clear 25 1009 31 10000 2.6 340 02:49 28.05.2020
2468 Clouds 26 1009 24 10000 2.6 310 01:56 28.05.2020
2469 Clear 26 1009 24 10000 2.6 310 01:27 28.05.2020
2470 Clear 29 1010 25 10000 6.2 260 00:46 28.05.2020
2471 Clear 29 1010 25 10000 6.2 260 00:19 28.05.2020
2472 Clear 26 1009 29 10000 2.6 320 23:54 27.05.2020
2473 Clear 26 1009 29 10000 2.6 320 23:36 27.05.2020
2474 Clear 26 1009 29 10000 2.6 320 23:18 27.05.2020
2475 Clear 28 1009 28 9000 2.1 340 22:41 27.05.2020
2476 Clear 28 1009 28 9000 2.1 340 22:22 27.05.2020
2477 Clear 28 1010 26 9000 2.6 300 21:55 27.05.2020
2478 Clear 28 1010 26 9000 2.6 300 21:37 27.05.2020
2479 Clear 28 1010 26 9000 2.6 300 21:18 27.05.2020
2480 Clear 30 1010 23 10000 0.5 310 20:54 27.05.2020
2481 Clear 30 1010 23 10000 0.5 310 20:36 27.05.2020
2482 Clouds 30 1010 23 10000 0.5 310 20:18 27.05.2020
2483 Clouds 32 1009 22 10000 1.5 360 19:41 27.05.2020
2484 Clouds 32 1009 22 10000 1.5 360 19:19 27.05.2020
2485 Clouds 35 1009 19 10000 2.1 360 18:43 27.05.2020
2486 Clouds 35 1009 19 10000 2.1 360 18:20 27.05.2020
2487 Clouds 36 1009 9 0 3.9 16 17:57 27.05.2020
2488 Clouds 36 1009 9 0 3.9 16 17:38 27.05.2020
2489 Clear 39 1009 8 0 4.17 8 17:19 27.05.2020
2490 Clear 39 1009 8 0 4.17 8 16:55 27.05.2020
2491 Clear 39 1009 8 0 4.17 8 16:37 27.05.2020
2492 Clear 40 1009 7 0 4.46 357 16:18 27.05.2020
2493 Clear 40 1009 7 0 4.46 357 16:18 27.05.2020
2494 Clear 40 1009 7 0 4.46 357 15:46 27.05.2020
2495 Clear 39 1011 14 10000 4.6 350 15:21 27.05.2020
2496 Clear 39 1011 14 10000 4.6 350 14:45 27.05.2020
2497 Clear 39 1011 14 10000 4.6 350 14:22 27.05.2020
2498 Clear 39 1011 14 10000 4.6 350 14:22 27.05.2020
2499 Clear 39 1011 14 10000 4.6 350 14:22 27.05.2020
2500 Clear 39 1012 14 10000 6.2 340 13:58 27.05.2020
2501 Clear 39 1012 14 10000 6.2 340 13:39 27.05.2020
2502 Clear 39 1012 14 10000 6.2 340 13:20 27.05.2020
2503 Clear 39 1012 16 10000 5.1 340 12:42 27.05.2020
2504 Clear 39 1012 16 10000 5.1 340 12:23 27.05.2020
2505 Clear 37 1013 17 10000 4.6 340 11:55 27.05.2020
2506 Clear 37 1013 17 10000 4.6 340 11:36 27.05.2020
2507 Clear 37 1013 17 10000 4.6 340 11:36 27.05.2020
2508 Clear 37 1013 17 10000 4.6 340 11:18 27.05.2020
2509 Clear 36 1013 18 10000 5.1 330 10:42 27.05.2020
2510 Clear 36 1013 18 10000 5.1 330 10:23 27.05.2020
2511 Clear 35 1014 20 10000 5.1 330 09:56 27.05.2020
2512 Clear 34 1014 20 10000 5.7 340 09:38 27.05.2020
2513 Clear 34 1014 20 10000 5.7 340 09:20 27.05.2020
2514 Clear 32 1014 25 10000 5.1 330 08:42 27.05.2020
2515 Clear 32 1014 25 10000 5.1 330 08:24 27.05.2020
2516 Clear 29 1014 30 10000 4.6 340 07:53 27.05.2020
2517 Clear 29 1014 30 10000 4.6 340 07:34 27.05.2020
2518 Clear 26 1014 34 10000 3.1 320 06:55 27.05.2020
2519 Clear 26 1014 34 10000 3.1 320 06:30 27.05.2020
2520 Clear 22 1013 40 10000 2.6 330 05:50 27.05.2020
2521 Clear 22 1013 40 10000 2.6 330 05:28 27.05.2020
2522 Clear 22 1013 43 10000 3.6 320 03:39 27.05.2020
2523 Clear 23 1013 40 10000 3.6 330 02:30 27.05.2020
2524 Clear 23 1013 31 10000 3.1 310 01:34 27.05.2020
2525 Clear 25 1012 27 10000 3.6 310 00:58 27.05.2020
2526 Clear 25 1012 27 10000 3.6 310 00:40 27.05.2020
2527 Clear 25 1012 27 10000 3.6 310 00:18 27.05.2020
2528 Clear 27 1013 26 10000 3.6 290 23:41 26.05.2020
2529 Clear 27 1013 26 10000 3.6 290 23:23 26.05.2020
2530 Clear 28 1013 26 10000 3.1 270 22:58 26.05.2020
2531 Clear 28 1013 26 10000 3.1 270 22:38 26.05.2020
2532 Clear 28 1013 26 10000 3.1 270 22:19 26.05.2020
2533 Clear 29 1013 23 10000 3.6 280 21:56 26.05.2020
2534 Clear 29 1013 23 10000 3.6 280 21:38 26.05.2020
2535 Clear 29 1013 23 10000 3.6 280 21:19 26.05.2020
2536 Clear 29 1013 26 10000 2.1 260 20:42 26.05.2020
2537 Clear 29 1013 26 10000 2.1 260 20:20 26.05.2020
2538 Clear 31 1012 23 10000 1.5 320 19:55 26.05.2020
2539 Clear 31 1012 23 10000 1.5 320 19:37 26.05.2020
2540 Clear 31 1012 23 10000 1.5 320 19:18 26.05.2020
2541 Clear 33 1012 18 10000 3.1 300 18:41 26.05.2020
2542 Clear 33 1012 18 10000 3.1 300 18:21 26.05.2020
2543 Clear 35 1012 17 10000 6.2 290 17:43 26.05.2020
2544 Clear 35 1012 17 10000 6.2 290 17:24 26.05.2020
2545 Clear 35 1012 16 10000 6.7 290 16:59 26.05.2020
2546 Clear 35 1012 16 10000 6.7 290 16:41 26.05.2020
2547 Clear 35 1012 16 10000 6.7 290 16:19 26.05.2020
2548 Clear 35 1012 17 10000 7.2 290 15:43 26.05.2020
2549 Clear 35 1012 17 10000 7.2 290 15:21 26.05.2020
2550 Clear 34 1013 18 10000 6.2 290 14:56 26.05.2020
2551 Clear 34 1013 18 10000 6.2 290 14:38 26.05.2020
2552 Clear 34 1013 18 10000 6.2 290 14:20 26.05.2020
2553 Clear 34 1014 18 10000 7.2 300 13:41 26.05.2020
2554 Clear 34 1014 18 10000 7.2 300 13:23 26.05.2020
2555 Clear 33 1014 21 10000 7.7 290 12:57 26.05.2020
2556 Clear 33 1014 21 10000 7.7 290 12:39 26.05.2020
2557 Clear 33 1014 21 10000 7.7 290 12:19 26.05.2020
2558 Clear 33 1014 18 10000 8.7 290 11:41 26.05.2020
2559 Clear 33 1014 18 10000 8.7 290 11:21 26.05.2020
2560 Clear 32 1015 21 10000 8.2 290 10:58 26.05.2020
2561 Clear 32 1015 21 10000 8.2 290 10:38 26.05.2020
2562 Clear 32 1015 21 10000 8.2 290 10:18 26.05.2020
2563 Clear 31 1015 20 10000 7.7 290 09:39 26.05.2020
2564 Clear 31 1015 20 10000 7.7 290 09:19 26.05.2020
2565 Clear 29 1015 25 10000 6.2 310 08:42 26.05.2020
2566 Clear 29 1015 25 10000 6.2 310 08:22 26.05.2020
2567 Clear 26 1015 29 10000 5.1 310 07:44 26.05.2020
2568 Clear 26 1015 29 10000 5.1 310 07:24 26.05.2020
2569 Clear 24 1014 33 10000 4.1 320 06:54 26.05.2020
2570 Clear 24 1014 33 10000 4.1 320 06:36 26.05.2020
2571 Clear 20 1014 40 10000 3.6 320 05:48 26.05.2020
2572 Clear 20 1014 40 10000 3.6 320 05:28 26.05.2020
2573 Clear 18 1014 45 10000 3.6 310 04:50 26.05.2020
2574 Clear 18 1014 45 10000 3.6 310 04:31 26.05.2020
2575 Clear 19 1013 45 10000 3.1 330 03:55 26.05.2020
2576 Clear 21 1013 37 10000 3.6 300 02:44 26.05.2020
2577 Clear 21 1013 37 10000 3.1 330 01:48 26.05.2020
2578 Clear 21 1013 37 10000 3.1 330 01:21 26.05.2020
2579 Clear 23 1013 33 10000 4.6 330 00:37 26.05.2020
2580 Clear 23 1013 33 10000 4.6 330 00:18 26.05.2020
2581 Clear 22 1014 33 10000 4.6 310 23:55 25.05.2020
2582 Clear 22 1014 33 10000 4.6 310 23:36 25.05.2020
2583 Clear 22 1014 33 10000 4.6 310 23:18 25.05.2020
2584 Clear 22 1014 33 10000 4.6 310 23:18 25.05.2020
2585 Clear 21 1014 35 10000 4.1 310 22:54 25.05.2020
2586 Clear 22 1014 33 10000 3.6 300 22:36 25.05.2020
2587 Clear 22 1014 33 10000 3.6 300 22:18 25.05.2020
2588 Clear 25 1014 29 10000 4.1 300 21:54 25.05.2020
2589 Clear 25 1014 29 10000 4.1 300 21:36 25.05.2020
2590 Clear 25 1014 29 10000 4.1 300 21:18 25.05.2020
2591 Clear 26 1014 27 10000 4.6 300 20:41 25.05.2020
2592 Clear 26 1014 27 10000 4.6 300 20:21 25.05.2020
2593 Clear 27 1013 24 10000 4.6 300 19:59 25.05.2020
2594 Clear 27 1013 24 10000 4.6 300 19:39 25.05.2020
2595 Clear 27 1013 24 10000 4.6 300 19:18 25.05.2020
2596 Clear 28 1013 23 10000 7.2 310 18:45 25.05.2020
2597 Clear 28 1013 23 10000 7.2 310 18:22 25.05.2020
2598 Clear 29 1013 21 10000 7.2 320 17:59 25.05.2020
2599 Clear 29 1013 21 10000 7.2 320 17:40 25.05.2020
2600 Clear 29 1013 21 10000 7.2 320 17:22 25.05.2020
2601 Clear 30 1013 23 10000 5.7 340 16:56 25.05.2020
2602 Clear 30 1013 23 10000 5.7 340 16:38 25.05.2020
2603 Clear 30 1013 23 10000 5.7 340 16:19 25.05.2020
2604 Clear 30 1013 23 10000 5.7 310 15:42 25.05.2020
2605 Clear 30 1013 23 10000 5.7 310 15:19 25.05.2020
2606 Clear 30 1013 22 10000 5.7 260 14:56 25.05.2020
2607 Clear 30 1013 22 10000 5.7 260 14:38 25.05.2020
2608 Clear 30 1013 22 10000 5.7 260 14:18 25.05.2020
2609 Clear 29 1013 21 10000 5.7 280 13:39 25.05.2020
2610 Clear 29 1013 21 10000 5.7 280 13:20 25.05.2020
2611 Clear 29 1014 23 10000 5.1 300 12:57 25.05.2020
2612 Clear 29 1014 23 10000 5.1 300 12:57 25.05.2020
2613 Clear 29 1014 23 10000 5.1 300 12:37 25.05.2020
2614 Clear 29 1014 23 10000 5.1 300 12:19 25.05.2020
2615 Clear 27 1014 30 10000 4.1 290 11:39 25.05.2020
2616 Clear 27 1014 30 10000 4.1 290 11:20 25.05.2020
2617 Clear 26 1014 31 10000 4.6 280 10:56 25.05.2020
2618 Clear 26 1014 31 10000 4.6 280 10:56 25.05.2020
2619 Clear 26 1014 31 10000 4.6 280 10:37 25.05.2020
2620 Clear 26 1014 31 10000 4.6 280 10:18 25.05.2020
2621 Clear 25 1014 36 10000 6.2 310 09:54 25.05.2020
2622 Clear 25 1014 36 10000 6.2 310 09:36 25.05.2020
2623 Clear 25 1014 36 10000 6.2 310 09:18 25.05.2020
2624 Clear 25 1014 36 10000 6.2 310 09:18 25.05.2020
2625 Clear 24 1013 38 10000 5.7 290 08:39 25.05.2020
2626 Clouds 24 1013 38 10000 5.7 290 08:20 25.05.2020
2627 Clouds 22 1013 43 10000 4.6 300 07:48 25.05.2020
2628 Clouds 22 1013 43 10000 4.6 300 07:26 25.05.2020
2629 Clouds 21 1012 43 10000 4.1 290 06:57 25.05.2020
2630 Clouds 21 1012 43 10000 4.1 290 06:35 25.05.2020
2631 Clouds 20 1011 42 10000 3.6 280 05:24 25.05.2020
2632 Clouds 22 1009 37 10000 5.1 300 03:26 25.05.2020
2633 Clouds 23 1009 35 10000 5.7 300 02:47 25.05.2020
2634 Clouds 23 1009 35 10000 5.7 300 02:20 25.05.2020
2635 Clear 24 1009 33 10000 6.7 290 01:42 25.05.2020
2636 Clouds 24 1008 33 10000 6.7 290 00:47 25.05.2020
2637 Clouds 24 1008 33 10000 6.7 290 00:26 25.05.2020
2638 Clouds 25 1008 31 10000 7.7 290 23:58 24.05.2020
2639 Clouds 25 1008 31 10000 7.7 290 23:39 24.05.2020
2640 Clouds 25 1008 31 10000 7.7 290 23:39 24.05.2020
2641 Clouds 25 1008 31 10000 7.7 290 23:20 24.05.2020
2642 Clouds 26 1007 29 10000 9.8 300 22:55 24.05.2020
2643 Clouds 26 1007 29 10000 9.8 300 22:55 24.05.2020
2644 Clouds 26 1007 29 10000 9.8 300 22:37 24.05.2020
2645 Clouds 26 1007 29 10000 9.8 300 22:18 24.05.2020
2646 Clouds 29 1006 23 6000 10.3 280 21:54 24.05.2020
2647 Clouds 29 1006 23 6000 10.3 280 21:36 24.05.2020
2648 Clear 29 1006 23 6000 10.3 280 21:18 24.05.2020
2649 Clear 32 1005 21 10000 5.7 270 20:41 24.05.2020
2650 Clouds 32 1005 21 10000 5.7 270 20:19 24.05.2020
2651 Clouds 33 1003 24 10000 2.6 270 19:56 24.05.2020
2652 Clouds 33 1003 24 10000 2.6 270 19:37 24.05.2020
2653 Clouds 33 1003 24 10000 2.6 270 19:18 24.05.2020
2654 Clouds 34 1002 24 10000 3.6 270 18:42 24.05.2020
2655 Clouds 34 1002 24 10000 3.6 270 18:23 24.05.2020
2656 Clear 35 1001 21 10000 6.2 270 17:57 24.05.2020
2657 Clear 35 1001 21 10000 6.2 270 17:38 24.05.2020
2658 Clear 35 1001 21 10000 6.2 270 17:19 24.05.2020
2659 Clear 35 1001 21 10000 7.2 260 16:56 24.05.2020
2660 Clear 35 1001 21 10000 7.2 260 16:37 24.05.2020
2661 Clear 35 1001 21 10000 7.2 260 16:19 24.05.2020
2662 Clear 37 1001 20 10000 7.2 240 15:55 24.05.2020
2663 Clear 37 1001 20 10000 7.2 240 15:37 24.05.2020
2664 Clear 37 1001 20 10000 7.2 240 15:18 24.05.2020
2665 Clouds 37 1001 22 10000 5.7 250 14:42 24.05.2020
2666 Clouds 37 1001 22 10000 5.7 250 14:22 24.05.2020
2667 Clouds 37 1002 23 10000 5.7 280 13:56 24.05.2020
2668 Clouds 37 1002 23 10000 5.7 280 13:38 24.05.2020
2669 Clouds 37 1002 23 10000 5.7 280 13:20 24.05.2020
2670 Clouds 37 1002 22 10000 5.1 290 12:57 24.05.2020
2671 Clouds 37 1002 22 10000 5.1 290 12:38 24.05.2020
2672 Clouds 37 1002 22 10000 5.1 290 12:19 24.05.2020
2673 Clouds 38 1003 22 10000 4.6 310 11:56 24.05.2020
2674 Clouds 38 1003 22 10000 4.6 310 11:56 24.05.2020
2675 Clouds 38 1003 22 10000 4.6 310 11:37 24.05.2020
2676 Clouds 38 1003 22 10000 4.6 310 11:19 24.05.2020
2677 Clouds 37 1003 19 10000 4.1 260 10:43 24.05.2020
2678 Clouds 37 1003 19 10000 4.1 260 10:24 24.05.2020
2679 Clouds 36 1003 23 10000 1.5 0 09:59 24.05.2020
2680 Clouds 36 1003 23 10000 1.5 0 09:41 24.05.2020
2681 Clouds 36 1003 23 10000 1.5 0 09:18 24.05.2020
2682 Clouds 33 1003 29 10000 2.1 80 08:54 24.05.2020
2683 Clouds 33 1003 29 10000 2.1 80 08:36 24.05.2020
2684 Clouds 33 1003 29 10000 2.1 80 08:18 24.05.2020
2685 Clouds 30 1004 33 10000 2.1 110 07:41 24.05.2020
2686 Clouds 30 1004 33 10000 2.1 110 07:22 24.05.2020
2687 Clouds 30 1005 30 10000 1.5 140 06:47 24.05.2020
2688 Clouds 30 1005 30 10000 1.5 140 06:25 24.05.2020
2689 Clouds 28 1005 34 10000 4.1 290 04:52 24.05.2020
2690 Clouds 28 1005 32 10000 3.6 270 03:41 24.05.2020
2691 Clouds 27 1004 36 10000 2.6 10 02:31 24.05.2020
2692 Clouds 26 1005 39 10000 3.6 330 01:46 24.05.2020
2693 Clouds 26 1005 39 10000 2.1 350 00:39 24.05.2020
2694 Clouds 26 1005 39 10000 2.1 350 00:21 24.05.2020
2695 Clouds 26 1006 36 10000 2.6 320 23:44 23.05.2020
2696 Clouds 26 1006 36 10000 2.6 320 23:24 23.05.2020
2697 Clouds 28 1007 30 10000 2.6 320 22:58 23.05.2020
2698 Clouds 28 1007 30 10000 2.6 320 22:38 23.05.2020
2699 Clouds 28 1007 30 10000 2.6 320 22:20 23.05.2020
2700 Clouds 28 1007 32 10000 1.5 330 21:57 23.05.2020
2701 Clouds 28 1007 32 10000 1.5 330 21:38 23.05.2020
2702 Clear 28 1007 32 10000 1.5 330 21:20 23.05.2020
2703 Clear 28 1007 32 10000 1.5 330 21:20 23.05.2020
2704 Clear 28 1007 32 10000 1.5 330 21:19 23.05.2020
2705 Clear 28 1007 30 10000 3.1 320 20:58 23.05.2020
2706 Clear 30 1007 28 10000 3.1 340 20:38 23.05.2020
2707 Clear 30 1007 28 10000 3.1 340 20:19 23.05.2020
2708 Clear 32 1007 24 10000 5.7 300 19:42 23.05.2020
2709 Clear 32 1007 24 10000 5.7 300 19:20 23.05.2020
2710 Clear 32 1007 24 10000 5.7 300 19:20 23.05.2020
2711 Clear 34 1007 23 10000 6.2 290 18:59 23.05.2020
2712 Clear 34 1007 23 10000 6.2 290 18:40 23.05.2020
2713 Clear 34 1007 23 10000 6.2 290 18:22 23.05.2020
2714 Clear 36 1006 20 10000 6.2 280 17:56 23.05.2020
2715 Clear 36 1006 20 10000 6.2 280 17:38 23.05.2020
2716 Clear 36 1006 20 10000 6.2 280 17:19 23.05.2020
2717 Clouds 37 1006 16 10000 7.2 300 16:56 23.05.2020
2718 Clouds 37 1006 16 10000 7.2 300 16:38 23.05.2020
2719 Clouds 37 1006 16 10000 7.2 300 16:19 23.05.2020
2720 Clear 38 1007 15 10000 6.2 280 15:42 23.05.2020
2721 Clear 38 1007 15 10000 6.2 280 15:24 23.05.2020
2722 Clear 38 1007 15 10000 6.2 280 15:24 23.05.2020
2723 Clear 38 1007 15 10000 6.2 280 15:24 23.05.2020
2724 Clear 39 1006 15 10000 6.2 300 14:58 23.05.2020
2725 Clear 39 1006 15 10000 6.2 300 14:39 23.05.2020
2726 Clear 39 1006 15 10000 6.2 300 14:21 23.05.2020
2727 Clear 38 1007 17 10000 7.2 290 13:40 23.05.2020
2728 Clear 38 1007 17 10000 7.2 290 13:19 23.05.2020
2729 Clear 38 1007 17 10000 7.2 290 12:56 23.05.2020
2730 Clear 38 1007 16 10000 6.7 290 12:38 23.05.2020
2731 Clear 38 1007 16 10000 6.7 290 12:18 23.05.2020
2732 Clear 38 1008 14 10000 7.2 300 11:43 23.05.2020
2733 Clear 38 1008 14 10000 7.2 300 11:22 23.05.2020
2734 Clear 38 1008 12 10000 8.2 290 10:57 23.05.2020
2735 Clear 37 1008 13 10000 8.2 310 10:39 23.05.2020
2736 Clear 37 1008 13 10000 8.2 310 10:20 23.05.2020
2737 Clear 36 1009 12 10000 9.8 310 09:58 23.05.2020
2738 Clear 36 1009 12 10000 9.8 310 09:39 23.05.2020
2739 Clear 36 1009 12 10000 9.8 310 09:21 23.05.2020
2740 Clear 35 1008 16 10000 10.3 310 08:43 23.05.2020
2741 Clear 35 1008 16 10000 10.3 310 08:20 23.05.2020
2742 Clear 32 1008 21 10000 9.8 310 07:54 23.05.2020
2743 Clear 32 1008 21 10000 9.8 310 07:31 23.05.2020
2744 Clear 30 1007 23 10000 8.7 320 06:56 23.05.2020
2745 Clear 30 1007 23 10000 8.7 320 06:56 23.05.2020
2746 Clear 30 1007 23 10000 8.7 320 06:37 23.05.2020
2747 Clear 29 1006 30 10000 6.7 280 05:26 23.05.2020
2748 Clear 31 1004 23 10000 4.6 170 03:30 23.05.2020
2749 Clear 30 1004 23 10000 3.1 170 02:58 23.05.2020
2750 Clear 29 1004 28 10000 4.1 140 01:58 23.05.2020
2751 Clear 29 1004 28 10000 4.1 140 01:23 23.05.2020
2752 Clear 28 1004 30 10000 3.1 130 00:47 23.05.2020
2753 Clear 28 1004 30 10000 3.1 130 00:26 23.05.2020
2754 Clear 29 1005 28 10000 3.6 120 23:58 22.05.2020
2755 Clear 29 1005 28 10000 3.6 120 23:39 22.05.2020
2756 Clear 29 1005 28 10000 3.6 120 23:19 22.05.2020
2757 Clear 32 1005 19 10000 2.6 160 22:55 22.05.2020
2758 Clear 32 1005 19 10000 2.6 160 22:36 22.05.2020
2759 Clear 32 1005 19 10000 2.6 160 22:18 22.05.2020
2760 Clear 32 1005 19 10000 2.6 160 22:18 22.05.2020
2761 Clear 35 1005 20 10000 3.6 80 21:42 22.05.2020
2762 Clear 35 1005 20 10000 3.6 80 21:21 22.05.2020
2763 Clear 36 1005 16 10000 3.6 50 20:46 22.05.2020
2764 Clear 36 1005 16 10000 3.6 50 20:21 22.05.2020
2765 Clear 36 1005 20 10000 2.6 80 19:59 22.05.2020
2766 Clear 36 1005 20 10000 2.6 80 19:40 22.05.2020
2767 Clear 36 1005 20 10000 2.6 80 19:22 22.05.2020
2768 Clear 38 1004 17 10000 3.1 90 18:39 22.05.2020
2769 Clear 38 1004 17 10000 3.1 90 18:20 22.05.2020
2770 Clear 42 1004 11 10000 2.6 90 17:57 22.05.2020
2771 Clear 42 1004 11 10000 2.6 90 17:37 22.05.2020
2772 Clear 42 1004 11 10000 2.6 90 17:18 22.05.2020
2773 Clear 42 1004 11 10000 2.6 90 17:18 22.05.2020
2774 Clouds 43 1005 9 10000 3.1 120 16:43 22.05.2020
2775 Clouds 43 1005 9 10000 3.1 120 16:20 22.05.2020
2776 Clear 43 1005 10 10000 2.1 0 15:59 22.05.2020
2777 Clear 43 1005 10 10000 2.1 0 15:41 22.05.2020
2778 Clear 43 1005 10 10000 2.1 0 15:19 22.05.2020
2779 Clear 44 1006 9 10000 2.6 190 14:43 22.05.2020
2780 Clear 44 1006 9 10000 2.6 190 14:24 22.05.2020
2781 Clear 44 1006 10 10000 2.1 0 13:46 22.05.2020
2782 Clear 44 1006 10 10000 2.1 0 13:21 22.05.2020
2783 Clear 44 1007 8 10000 2.6 0 12:54 22.05.2020
2784 Clear 44 1007 8 10000 2.6 0 12:36 22.05.2020
2785 Clear 44 1007 8 10000 2.6 0 12:18 22.05.2020
2786 Clear 43 1007 9 10000 3.1 190 11:42 22.05.2020
2787 Clear 43 1007 9 10000 3.1 190 11:20 22.05.2020
2788 Clear 42 1008 9 10000 2.1 0 10:55 22.05.2020
2789 Clear 42 1008 9 10000 2.1 0 10:37 22.05.2020
2790 Clear 42 1008 9 10000 2.1 0 10:37 22.05.2020
2791 Clear 42 1008 9 10000 2.1 0 10:18 22.05.2020
2792 Clear 41 1008 11 10000 2.1 160 09:42 22.05.2020
2793 Clear 41 1008 11 10000 2.1 160 09:19 22.05.2020
2794 Clear 38 1008 16 10000 2.1 180 08:44 22.05.2020
2795 Clear 38 1008 16 10000 2.1 180 08:21 22.05.2020
2796 Clear 35 1008 20 10000 2.1 190 07:57 22.05.2020
2797 Clear 35 1008 20 10000 2.1 190 07:27 22.05.2020
2798 Clear 30 1007 27 10000 1.51 205 06:58 22.05.2020
2799 Clear 30 1007 27 10000 1.51 205 06:40 22.05.2020
2800 Clear 24 1007 38 10000 1.11 227 05:40 22.05.2020
2801 Clear 23 1006 38 10000 1.5 210 04:51 22.05.2020
2802 Clear 23 1006 38 10000 1.5 210 04:32 22.05.2020
2803 Clear 23 1006 38 10000 1.5 290 03:48 22.05.2020
2804 Clear 26 1005 36 10000 1.5 300 02:59 22.05.2020
2805 Clear 26 1005 34 10000 1 0 01:57 22.05.2020
2806 Clear 26 1005 34 10000 1 0 01:29 22.05.2020
2807 Clear 26 1005 39 10000 1.5 100 00:49 22.05.2020
2808 Clear 26 1005 39 10000 1.5 100 00:28 22.05.2020
2809 Clear 26 1005 34 10000 1.5 120 23:45 21.05.2020
2810 Clear 26 1005 34 10000 1.5 120 23:25 21.05.2020
2811 Clear 30 1006 28 10000 1.5 110 22:59 21.05.2020
2812 Clear 30 1006 28 10000 1.5 110 22:59 21.05.2020
2813 Clear 30 1006 28 10000 1.5 110 22:40 21.05.2020
2814 Clear 30 1006 28 10000 1.5 110 22:22 21.05.2020
2815 Clear 30 1006 25 10000 1 0 21:59 21.05.2020
2816 Clear 30 1006 25 10000 1 0 21:59 21.05.2020
2817 Clear 30 1006 25 10000 1 0 21:41 21.05.2020
2818 Clear 30 1006 25 10000 1 0 21:22 21.05.2020
2819 Clear 31 1005 20 10000 2.6 150 20:46 21.05.2020
2820 Clear 31 1005 20 10000 2.6 150 20:22 21.05.2020
2821 Clear 35 1005 17 10000 1.5 210 19:55 21.05.2020
2822 Clear 35 1005 17 10000 1.5 210 19:36 21.05.2020
2823 Clear 35 1005 17 10000 1.5 210 19:18 21.05.2020
2824 Clear 39 1004 16 10000 2.1 210 18:40 21.05.2020
2825 Clear 39 1004 16 10000 2.1 210 18:40 21.05.2020
2826 Clear 39 1004 16 10000 2.1 210 18:20 21.05.2020
2827 Clear 41 1004 12 10000 3.6 240 17:58 21.05.2020
2828 Clear 41 1004 12 10000 3.6 240 17:40 21.05.2020
2829 Clear 41 1004 12 10000 3.6 240 17:22 21.05.2020
2830 Clear 42 1004 14 10000 3.6 240 16:47 21.05.2020
2831 Clear 42 1004 14 10000 3.6 240 16:24 21.05.2020
2832 Clear 42 1004 13 10000 3.1 270 15:54 21.05.2020
2833 Clear 42 1004 13 10000 3.1 270 15:36 21.05.2020
2834 Clear 42 1004 13 10000 3.1 270 15:18 21.05.2020
2835 Clear 42 1005 12 10000 3.1 270 14:39 21.05.2020
2836 Clear 42 1005 12 10000 3.1 270 14:18 21.05.2020
2837 Clear 42 1005 13 10000 4.1 260 13:41 21.05.2020
2838 Clear 42 1005 13 10000 4.1 260 13:22 21.05.2020
2839 Clear 41 1005 13 10000 5.1 200 12:57 21.05.2020
2840 Clear 41 1005 13 10000 5.1 200 12:37 21.05.2020
2841 Clear 41 1005 13 10000 5.1 200 12:19 21.05.2020
2842 Clear 41 1006 12 10000 5.1 170 11:42 21.05.2020
2843 Clear 41 1006 12 10000 5.1 170 11:23 21.05.2020
2844 Clear 41 1006 12 10000 5.1 170 11:23 21.05.2020
2845 Clear 39 1006 16 10000 4.6 160 10:58 21.05.2020
2846 Clear 39 1006 16 10000 4.6 160 10:39 21.05.2020
2847 Clear 39 1006 16 10000 4.6 160 10:19 21.05.2020
2848 Clear 35 1006 24 10000 3.1 180 09:54 21.05.2020
2849 Clear 35 1006 24 10000 3.1 180 09:36 21.05.2020
2850 Clear 35 1006 24 10000 3.1 180 09:18 21.05.2020
2851 Clear 33 1006 27 10000 2.6 180 08:44 21.05.2020
2852 Clear 33 1006 27 10000 2.6 180 08:26 21.05.2020
2853 Clear 31 1005 31 10000 2.6 170 07:46 21.05.2020
2854 Clear 31 1005 31 10000 2.6 170 07:27 21.05.2020
2855 Clear 28 1005 34 10000 1.5 100 06:52 21.05.2020
2856 Clear 22 1004 46 10000 1 140 05:54 21.05.2020
2857 Clear 23 1004 40 7000 1 0 04:58 21.05.2020
2858 Clear 24 1003 47 10000 0.5 50 03:22 21.05.2020
2859 Clear 24 1003 47 10000 0.5 50 03:22 21.05.2020
2860 Clear 24 1003 47 10000 0.5 50 03:22 21.05.2020
2861 Clear 23 1003 43 10000 1 10 02:42 21.05.2020
2862 Clear 23 1003 43 10000 1 10 02:21 21.05.2020
2863 Clear 25 1003 38 10000 1 0 01:43 21.05.2020
2864 Clear 25 1003 38 10000 1 0 01:19 21.05.2020
2865 Clear 27 1003 32 10000 1.5 140 00:48 21.05.2020
2866 Clear 27 1003 32 10000 1.5 140 00:23 21.05.2020
2867 Clear 27 1003 34 10000 2.6 110 23:41 20.05.2020
2868 Clear 27 1003 34 10000 2.6 110 23:20 20.05.2020
2869 Clear 29 1003 30 10000 1 160 22:57 20.05.2020
2870 Clear 29 1003 30 10000 1 160 22:38 20.05.2020
2871 Clear 29 1003 30 10000 1 160 22:20 20.05.2020
2872 Clear 29 1003 28 10000 1.5 140 21:40 20.05.2020
2873 Clear 29 1003 28 10000 1.5 140 21:21 20.05.2020
2874 Clear 30 1002 25 10000 1.5 190 20:44 20.05.2020
2875 Clear 30 1002 25 10000 1.5 190 20:25 20.05.2020
2876 Clear 35 1002 17 10000 0.5 0 19:57 20.05.2020
2877 Clear 35 1002 17 10000 0.5 0 19:38 20.05.2020
2878 Clear 35 1002 17 10000 0.5 0 19:19 20.05.2020
2879 Clear 37 1002 16 10000 1 320 18:44 20.05.2020
2880 Clear 37 1002 16 10000 1 320 18:26 20.05.2020
2881 Clear 40 1002 13 10000 1.5 0 17:46 20.05.2020
2882 Clear 40 1002 13 10000 1.5 0 17:24 20.05.2020
2883 Clear 40 1002 13 10000 1.5 220 16:59 20.05.2020
2884 Clear 40 1002 13 10000 1.5 220 16:39 20.05.2020
2885 Clear 40 1002 13 10000 1.5 220 16:39 20.05.2020
2886 Clear 40 1002 13 10000 1.5 220 16:21 20.05.2020
2887 Clear 40 1002 13 10000 2.6 180 15:55 20.05.2020
2888 Clear 40 1002 13 10000 2.6 180 15:36 20.05.2020
2889 Clear 40 1002 13 10000 2.6 180 15:18 20.05.2020
2890 Clear 40 1002 14 10000 3.1 0 14:41 20.05.2020
2891 Clear 40 1002 14 10000 3.1 0 14:20 20.05.2020
2892 Clear 39 1003 16 10000 4.1 290 13:40 20.05.2020
2893 Clear 39 1003 16 10000 4.1 290 13:19 20.05.2020
2894 Clear 39 1003 17 10000 3.6 260 12:43 20.05.2020
2895 Clear 39 1003 17 10000 3.6 260 12:21 20.05.2020
2896 Clear 39 1003 17 10000 3.6 260 12:21 20.05.2020
2897 Clear 37 1003 20 10000 3.6 250 11:57 20.05.2020
2898 Clear 37 1003 20 10000 3.6 250 11:36 20.05.2020
2899 Clear 37 1003 20 10000 3.6 250 11:18 20.05.2020
2900 Clear 36 1004 23 10000 4.6 260 10:42 20.05.2020
2901 Clear 36 1004 23 10000 4.6 260 10:20 20.05.2020
2902 Clear 34 1004 28 10000 4.1 270 09:44 20.05.2020
2903 Clear 34 1004 28 10000 4.1 270 09:21 20.05.2020
2904 Clear 34 1004 28 10000 4.1 270 09:21 20.05.2020
2905 Clear 32 1004 29 10000 4.6 290 08:54 20.05.2020
2906 Clear 32 1004 29 10000 4.6 290 08:36 20.05.2020
2907 Clear 32 1004 29 10000 4.6 290 08:18 20.05.2020
2908 Clear 30 1004 30 10000 5.7 300 07:41 20.05.2020
2909 Clear 30 1004 30 10000 5.7 300 07:19 20.05.2020
2910 Clear 27 1003 36 10000 4.6 290 06:34 20.05.2020
2911 Clear 26 1003 36 10000 4.1 290 05:22 20.05.2020
2912 Clear 25 1003 38 10000 4.1 300 04:26 20.05.2020
2913 Clear 26 1002 34 10000 4.6 300 03:38 20.05.2020
2914 Clear 28 1002 32 10000 5.1 290 02:23 20.05.2020
2915 Clear 29 1003 26 10000 4.6 280 01:28 20.05.2020
2916 Clear 31 1001 20 0 5.85 322 00:44 20.05.2020
2917 Clear 31 1003 18 10000 5.1 280 00:23 20.05.2020
2918 Clear 31 1003 18 10000 5.1 280 23:41 19.05.2020
2919 Clear 31 1003 18 10000 5.1 280 23:19 19.05.2020
2920 Clear 32 1004 19 10000 5.1 270 22:56 19.05.2020
2921 Clear 32 1004 19 10000 5.1 270 22:38 19.05.2020
2922 Clear 32 1004 19 10000 5.1 270 22:18 19.05.2020
2923 Clear 33 1004 19 10000 5.1 270 21:56 19.05.2020
2924 Clear 33 1004 19 10000 5.1 270 21:37 19.05.2020
2925 Clear 33 1004 19 10000 5.1 270 21:19 19.05.2020
2926 Clear 34 1003 17 10000 4.1 260 20:57 19.05.2020
2927 Clear 34 1003 17 10000 4.1 260 20:38 19.05.2020
2928 Clouds 34 1003 17 10000 4.1 260 20:20 19.05.2020
2929 Clouds 35 1003 15 10000 4.1 260 19:40 19.05.2020
2930 Clouds 35 1003 15 10000 4.1 260 19:21 19.05.2020
2931 Clouds 38 1002 15 10000 5.1 270 18:58 19.05.2020
2932 Clouds 38 1002 15 10000 5.1 270 18:40 19.05.2020
2933 Clouds 38 1002 15 10000 5.1 270 18:20 19.05.2020
2934 Clouds 40 1002 12 10000 5.7 280 17:43 19.05.2020
2935 Clouds 40 1002 12 10000 5.7 280 17:21 19.05.2020
2936 Clouds 42 1002 14 10000 6.7 270 16:58 19.05.2020
2937 Clouds 42 1002 14 10000 6.7 270 16:38 19.05.2020
2938 Clouds 42 1002 14 10000 6.7 270 16:19 19.05.2020
2939 Clouds 43 1002 13 10000 6.2 280 15:46 19.05.2020
2940 Clouds 43 1002 13 10000 6.2 280 15:21 19.05.2020
2941 Clouds 42 1003 13 10000 5.7 300 14:57 19.05.2020
2942 Clouds 42 1003 13 10000 5.7 300 14:39 19.05.2020
2943 Clouds 42 1003 13 10000 5.7 300 14:20 19.05.2020
2944 Clouds 42 1003 14 10000 5.1 310 13:57 19.05.2020
2945 Clouds 42 1003 14 10000 5.1 310 13:39 19.05.2020
2946 Clear 42 1003 14 10000 5.1 310 13:20 19.05.2020
2947 Clear 41 1004 15 10000 4.1 330 12:56 19.05.2020
2948 Clear 41 1004 15 10000 4.1 330 12:37 19.05.2020
2949 Clear 41 1004 15 10000 4.1 330 12:19 19.05.2020
2950 Clear 41 1004 14 10000 4.1 270 11:43 19.05.2020
2951 Clear 41 1004 14 10000 4.1 270 11:43 19.05.2020
2952 Clear 41 1004 14 10000 4.1 270 11:23 19.05.2020
2953 Clear 40 1005 17 10000 3.6 270 10:59 19.05.2020
2954 Clear 40 1005 17 10000 3.6 270 10:40 19.05.2020
2955 Clear 40 1005 17 10000 3.6 270 10:22 19.05.2020
2956 Clear 39 1005 15 10000 2.1 250 09:47 19.05.2020
2957 Clear 39 1005 15 10000 2.1 250 09:25 19.05.2020
2958 Clear 39 1005 15 10000 2.1 260 08:48 19.05.2020
2959 Clear 37 1005 18 10000 3.1 240 08:26 19.05.2020
2960 Clear 36 1005 20 6000 0.5 0 07:59 19.05.2020
2961 Clear 36 1005 20 6000 0.5 0 07:41 19.05.2020
2962 Clear 36 1005 20 6000 0.5 0 07:23 19.05.2020
2963 Clear 31 1005 29 7000 1 0 06:41 19.05.2020
2964 Clear 31 1005 29 7000 1 0 06:41 19.05.2020
2965 Clear 31 1005 29 7000 1 0 06:19 19.05.2020
2966 Clear 24 1004 41 8000 1.5 320 05:39 19.05.2020
2967 Clear 24 1004 38 10000 1.5 110 04:54 19.05.2020
2968 Clear 27 1004 39 10000 2.1 170 02:59 19.05.2020
2969 Clear 25 1004 29 9000 1.5 260 01:21 19.05.2020
2970 Clear 26 1004 36 10000 1 0 00:41 19.05.2020
2971 Clear 26 1004 36 10000 1 0 00:19 19.05.2020
2972 Clear 27 1004 28 10000 0.5 70 23:40 18.05.2020
2973 Clear 27 1004 28 10000 0.5 70 23:20 18.05.2020
2974 Clear 28 1005 32 10000 1 0 22:59 18.05.2020
2975 Clear 28 1005 32 10000 1 0 22:59 18.05.2020
2976 Clear 28 1005 32 10000 1 0 22:39 18.05.2020
2977 Clear 28 1005 32 10000 1 0 22:20 18.05.2020
2978 Clear 31 1005 25 10000 1.5 130 21:43 18.05.2020
2979 Clear 31 1005 25 10000 1.5 130 21:22 18.05.2020
2980 Clear 31 1005 25 10000 1.5 150 20:58 18.05.2020
2981 Clear 33 1005 24 10000 1.5 140 20:39 18.05.2020
2982 Clear 35 1005 20 10000 1.5 130 20:20 18.05.2020
2983 Clear 35 1005 20 10000 1.5 130 19:56 18.05.2020
2984 Clear 35 1005 20 10000 1.5 130 19:38 18.05.2020
2985 Clear 37 1004 19 10000 1 0 19:18 18.05.2020
2986 Clear 37 1004 19 10000 1 0 18:45 18.05.2020
2987 Clear 37 1004 19 10000 1 0 18:22 18.05.2020
2988 Clear 41 1004 13 10000 3.6 280 17:40 18.05.2020
2989 Clear 41 1004 13 10000 3.6 280 17:18 18.05.2020
2990 Clear 41 1004 15 10000 4.1 280 16:57 18.05.2020
2991 Clear 41 1004 15 10000 4.1 280 16:38 18.05.2020
2992 Clear 41 1004 15 10000 4.1 280 16:18 18.05.2020
2993 Clear 42 1005 15 10000 2.6 0 15:57 18.05.2020
2994 Clear 42 1005 15 10000 2.6 0 15:37 18.05.2020
2995 Clear 42 1005 15 10000 2.6 0 15:19 18.05.2020
2996 Clear 42 1005 13 10000 4.6 230 14:43 18.05.2020
2997 Clear 42 1005 13 10000 4.6 230 14:25 18.05.2020
2998 Clear 42 1006 12 10000 3.1 250 13:58 18.05.2020
2999 Clear 42 1006 12 10000 3.1 250 13:39 18.05.2020
3000 Clear 42 1006 12 10000 3.1 250 13:20 18.05.2020
3001 Clear 41 1006 16 10000 4.1 270 12:56 18.05.2020
3002 Clear 41 1006 16 10000 4.1 270 12:38 18.05.2020
3003 Clear 41 1006 16 10000 4.1 270 12:19 18.05.2020
3004 Clear 39 1007 20 10000 3.1 260 11:47 18.05.2020
3005 Clear 39 1007 20 10000 3.1 260 11:27 18.05.2020
3006 Clear 38 1007 25 10000 3.1 260 10:58 18.05.2020
3007 Clear 38 1007 25 10000 3.1 260 10:40 18.05.2020
3008 Clear 38 1007 25 10000 3.1 260 10:22 18.05.2020
3009 Clear 36 1007 28 10000 2.6 230 09:44 18.05.2020
3010 Clear 36 1007 28 10000 2.6 230 09:25 18.05.2020
3011 Clear 34 1007 30 10000 2.1 260 08:45 18.05.2020
3012 Clear 34 1007 30 10000 2.1 260 08:27 18.05.2020
3013 Clear 32 1007 31 10000 1 0 07:55 18.05.2020
3014 Clear 32 1007 31 10000 1 0 07:27 18.05.2020
3015 Clear 30 1007 30 10000 2.6 280 06:54 18.05.2020
3016 Clear 30 1007 30 10000 2.6 280 06:34 18.05.2020
3017 Clear 25 1007 36 10000 2.6 270 05:49 18.05.2020
3018 Clear 25 1007 36 10000 2.6 270 05:25 18.05.2020
3019 Clear 24 1006 38 10000 0.5 230 03:34 18.05.2020
3020 Clear 26 1006 36 10000 1.5 180 02:30 18.05.2020
3021 Clear 28 1006 34 10000 2.1 250 01:22 18.05.2020
3022 Clear 26 1006 36 10000 1.5 140 00:27 18.05.2020
3023 Clear 27 1006 32 10000 2.66 347 23:58 17.05.2020
3024 Clear 27 1006 32 10000 2.66 347 23:39 17.05.2020
3025 Clear 27 1006 32 10000 2.82 333 23:20 17.05.2020
3026 Clear 29 1007 26 9000 2.82 333 22:56 17.05.2020
3027 Clear 29 1007 26 9000 2.82 333 22:37 17.05.2020
3028 Clear 29 1007 26 9000 2.82 333 22:37 17.05.2020
3029 Clear 29 1007 26 9000 2.82 333 22:37 17.05.2020
3030 Clear 29 1007 26 9000 2.49 327 22:19 17.05.2020
3031 Clear 30 1007 27 10000 2.49 327 21:56 17.05.2020
3032 Clear 30 1007 27 10000 2.49 327 21:38 17.05.2020
3033 Clear 30 1007 27 10000 2.64 329 21:18 17.05.2020
3034 Clear 32 1006 22 10000 2.1 310 20:42 17.05.2020
3035 Clear 32 1006 22 10000 2.1 310 20:22 17.05.2020
3036 Clear 36 1006 18 10000 2.1 230 19:58 17.05.2020
3037 Clear 36 1006 18 10000 2.1 230 19:39 17.05.2020
3038 Clear 36 1006 18 10000 2.1 230 19:21 17.05.2020
3039 Clear 37 1006 16 10000 2.1 260 18:54 17.05.2020
3040 Clear 37 1006 16 10000 2.1 260 18:36 17.05.2020
3041 Clear 37 1006 16 10000 2.1 260 18:18 17.05.2020
3042 Clear 40 1005 13 10000 3.1 340 17:40 17.05.2020
3043 Clear 40 1005 13 10000 3.1 340 17:21 17.05.2020
3044 Clear 41 1005 13 10000 3.1 320 16:40 17.05.2020
3045 Clear 41 1005 13 10000 3.1 320 16:21 17.05.2020
3046 Clear 42 1006 12 10000 3.6 270 15:59 17.05.2020
3047 Clear 42 1006 12 10000 3.6 270 15:40 17.05.2020
3048 Clear 42 1006 12 10000 3.6 270 15:22 17.05.2020
3049 Clear 42 1006 12 10000 2.6 320 14:56 17.05.2020
3050 Clear 42 1006 12 10000 2.6 320 14:37 17.05.2020
3051 Clear 42 1006 12 10000 2.6 320 14:19 17.05.2020
3052 Clear 42 1007 11 10000 3.6 300 13:41 17.05.2020
3053 Clear 42 1007 11 10000 3.6 300 13:20 17.05.2020
3054 Clear 23 1007 38 10000 1 190 04:53 17.05.2020
3055 Clear 26 1007 29 10000 1 240 03:19 17.05.2020
3056 Clear 24 1007 38 10000 1.5 260 02:22 17.05.2020
3057 Clear 24 1007 38 10000 1.5 260 01:49 17.05.2020
3058 Clear 26 1007 31 10000 1 0 00:43 17.05.2020
3059 Clear 26 1007 31 10000 1 0 00:24 17.05.2020
3060 Clear 25 1007 31 10000 1 180 23:42 16.05.2020
3061 Clear 25 1007 31 10000 1 180 23:21 16.05.2020
3062 Clear 29 1008 26 10000 1 170 22:59 16.05.2020
3063 Clear 29 1008 26 10000 1 170 22:41 16.05.2020
3064 Clear 29 1008 26 10000 1 170 22:21 16.05.2020
3065 Clear 29 1008 30 10000 1 180 21:55 16.05.2020
3066 Clear 29 1008 30 10000 1 180 21:37 16.05.2020
3067 Clear 29 1008 30 10000 1 180 21:19 16.05.2020
3068 Clear 31 1008 25 10000 1.5 150 20:55 16.05.2020
3069 Clear 31 1008 25 10000 1.5 150 20:36 16.05.2020
3070 Clear 31 1008 25 10000 1.5 150 20:18 16.05.2020
3071 Clear 33 1007 22 10000 2.6 190 19:40 16.05.2020
3072 Clear 33 1007 22 10000 2.6 190 19:22 16.05.2020
3073 Clear 35 1007 10 0 3.85 291 18:57 16.05.2020
3074 Clear 39 1007 12 10000 2.6 220 18:36 16.05.2020
3075 Clear 39 1007 12 10000 2.6 220 18:18 16.05.2020
3076 Clear 39 1007 12 10000 2.6 220 17:41 16.05.2020
3077 Clear 39 1007 12 10000 2.6 220 17:20 16.05.2020
3078 Clear 39 1007 12 10000 4.6 270 16:43 16.05.2020
3079 Clear 39 1007 12 10000 4.6 270 16:24 16.05.2020
3080 Clear 39 1006 8 0 5.49 310 15:59 16.05.2020
3081 Clear 39 1006 8 0 5.49 310 15:41 16.05.2020
3082 Clear 40 1007 11 10000 5.7 280 15:20 16.05.2020
3083 Clear 40 1007 11 10000 5.7 280 14:55 16.05.2020
3084 Clear 40 1007 11 10000 5.7 280 14:37 16.05.2020
3085 Clear 40 1007 11 10000 5.7 280 14:19 16.05.2020
3086 Clear 39 1008 15 10000 4.1 260 13:42 16.05.2020
3087 Clear 39 1008 15 10000 4.1 260 13:23 16.05.2020
3088 Clear 40 1007 8 0 2.49 307 12:57 16.05.2020
3089 Clear 40 1007 8 0 2.49 307 12:39 16.05.2020
3090 Clear 40 1008 8 0 2.4 308 12:18 16.05.2020
3091 Clear 40 1008 8 0 2.4 308 11:41 16.05.2020
3092 Clear 37 1009 19 10000 4.1 270 11:22 16.05.2020
3093 Clear 37 1009 19 10000 4.1 270 10:58 16.05.2020
3094 Clear 37 1009 19 10000 4.1 270 10:39 16.05.2020
3095 Clear 37 1009 19 10000 4.1 270 10:20 16.05.2020
3096 Clear 36 1009 20 10000 3.6 290 09:46 16.05.2020
3097 Clear 36 1009 20 10000 3.6 290 09:28 16.05.2020
3098 Clouds 32 1009 25 10000 2.6 290 08:46 16.05.2020
3099 Clouds 32 1009 25 10000 2.6 290 08:24 16.05.2020
3100 Clear 29 1009 30 10000 3.6 310 07:59 16.05.2020
3101 Clear 29 1009 30 10000 3.6 310 07:40 16.05.2020
3102 Clear 29 1009 30 10000 3.6 310 07:21 16.05.2020
3103 Clear 27 1009 30 10000 4.1 320 06:47 16.05.2020
3104 Clear 27 1009 30 10000 4.1 320 06:19 16.05.2020
3105 Clear 23 1008 33 10000 2.1 330 05:42 16.05.2020
3106 Clear 23 1008 33 10000 2.1 330 05:20 16.05.2020
3107 Clear 22 1007 35 10000 3.6 320 03:28 16.05.2020
3108 Clear 24 1007 33 10000 2.6 320 02:45 16.05.2020
3109 Clear 24 1007 33 10000 2.6 320 02:19 16.05.2020
3110 Clear 25 1007 29 10000 2.1 300 01:40 16.05.2020
3111 Clear 25 1007 31 10000 2.6 310 00:58 16.05.2020
3112 Clear 25 1007 31 10000 2.6 310 00:40 16.05.2020
3113 Clear 25 1007 31 10000 2.6 310 00:20 16.05.2020
3114 Clear 27 1007 26 10000 3.1 300 23:40 15.05.2020
3115 Clear 27 1007 26 10000 3.1 300 23:19 15.05.2020
3116 Clear 30 1008 23 10000 3.1 280 22:42 15.05.2020
3117 Clear 30 1008 23 10000 3.1 280 22:21 15.05.2020
3118 Clear 31 1007 22 10000 3.1 270 21:57 15.05.2020
3119 Clear 31 1007 22 10000 3.1 270 21:39 15.05.2020
3120 Clouds 31 1007 22 10000 3.1 270 21:21 15.05.2020
3121 Clouds 31 1007 22 10000 3.6 260 20:56 15.05.2020
3122 Clouds 31 1007 22 10000 3.6 260 20:37 15.05.2020
3123 Clouds 31 1007 22 10000 3.6 260 20:37 15.05.2020
3124 Clear 31 1007 22 10000 3.6 260 20:19 15.05.2020
3125 Clear 34 1007 18 10000 4.1 280 19:43 15.05.2020
3126 Clear 34 1007 18 10000 4.1 280 19:24 15.05.2020
3127 Clear 35 1006 19 10000 3.6 280 18:58 15.05.2020
3128 Clear 35 1006 19 10000 3.6 280 18:38 15.05.2020
3129 Clear 35 1006 19 10000 3.6 280 18:18 15.05.2020
3130 Clear 38 1006 15 10000 6.2 280 17:38 15.05.2020
3131 Clear 38 1006 15 10000 6.2 280 17:19 15.05.2020
3132 Clear 39 1006 14 10000 7.2 290 16:56 15.05.2020
3133 Clear 39 1006 14 10000 7.2 290 16:38 15.05.2020
3134 Clear 39 1006 14 10000 7.2 290 16:19 15.05.2020
3135 Clear 39 1006 15 10000 7.2 300 15:41 15.05.2020
3136 Clear 39 1006 15 10000 7.2 300 15:22 15.05.2020
3137 Clear 40 1007 13 10000 7.7 300 14:58 15.05.2020
3138 Clear 40 1007 13 10000 7.7 300 14:40 15.05.2020
3139 Clear 40 1007 13 10000 7.7 300 14:22 15.05.2020
3140 Clear 39 1007 15 10000 6.2 340 13:43 15.05.2020
3141 Clear 39 1007 15 10000 6.2 340 13:23 15.05.2020
3142 Clear 39 1008 15 10000 7.7 340 12:59 15.05.2020
3143 Clear 39 1008 15 10000 7.7 340 12:39 15.05.2020
3144 Clear 38 1008 16 10000 6.7 320 12:18 15.05.2020
3145 Clear 38 1008 16 10000 6.7 320 11:56 15.05.2020
3146 Clear 38 1008 16 10000 6.7 320 11:38 15.05.2020
3147 Clear 38 1008 16 10000 6.7 320 11:19 15.05.2020
3148 Clear 37 1009 18 10000 6.7 300 10:56 15.05.2020
3149 Clear 37 1009 18 10000 6.7 300 10:38 15.05.2020
3150 Clear 37 1009 18 10000 6.7 300 10:20 15.05.2020
3151 Clear 35 1009 21 10000 5.7 310 09:40 15.05.2020
3152 Clear 35 1009 21 10000 5.7 310 09:20 15.05.2020
3153 Clear 32 1009 25 10000 3.6 320 08:59 15.05.2020
3154 Clear 32 1009 25 10000 3.6 320 08:38 15.05.2020
3155 Clouds 32 1009 25 10000 3.6 320 08:19 15.05.2020
3156 Clouds 29 1009 30 10000 4.6 310 07:46 15.05.2020
3157 Clouds 29 1009 30 10000 4.6 310 07:28 15.05.2020
3158 Clouds 26 1009 34 10000 4.1 310 06:58 15.05.2020
3159 Clouds 22 1008 40 10000 2.6 310 05:56 15.05.2020
3160 Clouds 24 1007 38 10000 3.6 270 04:38 15.05.2020
3161 Clear 23 1007 38 10000 3.1 320 03:49 15.05.2020
3162 Clouds 22 1007 37 10000 2.6 310 02:49 15.05.2020
3163 Clouds 25 1007 33 10000 1.5 300 01:36 15.05.2020
3164 Clouds 23 1007 38 10000 3.6 310 00:58 15.05.2020
3165 Clouds 23 1007 38 10000 3.6 310 00:39 15.05.2020
3166 Clouds 23 1007 38 10000 3.6 310 00:21 15.05.2020
3167 Clouds 26 1008 31 10000 2.1 320 23:41 14.05.2020
3168 Clouds 26 1008 31 10000 2.1 320 23:41 14.05.2020
3169 Clear 26 1008 31 10000 2.1 320 23:18 14.05.2020
3170 Clear 27 1008 28 10000 2.6 310 22:42 14.05.2020
3171 Clear 27 1008 28 10000 2.6 310 22:23 14.05.2020
3172 Clear 27 1008 26 10000 2.6 300 21:58 14.05.2020
3173 Clear 27 1008 26 10000 2.6 300 21:40 14.05.2020
3174 Clouds 27 1008 26 10000 2.6 300 21:20 14.05.2020
3175 Clouds 27 1008 26 10000 2.6 300 21:20 14.05.2020
3176 Clouds 31 1007 22 10000 2.6 280 20:57 14.05.2020
3177 Clouds 31 1007 22 10000 2.6 280 20:38 14.05.2020
3178 Clouds 31 1007 22 10000 2.6 280 20:19 14.05.2020
3179 Clouds 32 1007 22 10000 3.1 320 19:56 14.05.2020
3180 Clouds 32 1007 22 10000 3.1 320 19:37 14.05.2020
3181 Clouds 32 1007 22 10000 3.1 320 19:19 14.05.2020
3182 Clouds 36 1007 18 10000 2.6 280 18:56 14.05.2020
3183 Clouds 36 1007 18 10000 2.6 280 18:37 14.05.2020
3184 Clouds 36 1007 18 10000 2.6 280 18:18 14.05.2020
3185 Clouds 38 1006 16 10000 7.2 300 17:55 14.05.2020
3186 Clouds 38 1006 16 10000 7.2 300 17:36 14.05.2020
3187 Clouds 38 1006 16 10000 7.2 300 17:18 14.05.2020
3188 Clouds 38 1006 16 10000 6.7 270 16:39 14.05.2020
3189 Clouds 38 1006 16 10000 6.7 270 16:21 14.05.2020
3190 Clouds 39 1006 13 10000 7.7 300 15:58 14.05.2020
3191 Clouds 39 1006 13 10000 7.7 300 15:40 14.05.2020
3192 Clouds 39 1006 13 10000 7.7 300 15:20 14.05.2020
3193 Clouds 38 1007 17 10000 4.6 300 14:56 14.05.2020
3194 Clouds 38 1007 17 10000 4.6 300 14:38 14.05.2020
3195 Clouds 38 1007 17 10000 4.6 300 14:19 14.05.2020
3196 Clouds 38 1007 17 10000 4.6 300 14:19 14.05.2020
3197 Clouds 38 1007 17 10000 4.1 290 13:55 14.05.2020
3198 Clouds 38 1007 17 10000 4.1 290 13:37 14.05.2020
3199 Clouds 38 1007 17 10000 4.1 290 13:18 14.05.2020
3200 Clouds 38 1008 18 10000 3.1 300 12:57 14.05.2020
3201 Clouds 38 1008 18 10000 3.1 300 12:37 14.05.2020
3202 Clouds 38 1008 18 10000 3.1 300 12:18 14.05.2020
3203 Clouds 37 1008 19 10000 3.1 350 11:55 14.05.2020
3204 Clouds 37 1008 19 10000 3.1 350 11:37 14.05.2020
3205 Clouds 37 1008 19 10000 3.1 350 11:19 14.05.2020
3206 Clouds 36 1009 19 10000 3.6 300 10:41 14.05.2020
3207 Clouds 36 1009 19 10000 3.6 300 10:41 14.05.2020
3208 Clouds 36 1009 19 10000 3.6 300 10:22 14.05.2020
3209 Clouds 34 1009 21 10000 3.6 340 09:45 14.05.2020
3210 Clouds 34 1009 21 10000 3.6 340 09:25 14.05.2020
3211 Clouds 32 1010 24 10000 3.6 350 08:59 14.05.2020
3212 Clouds 32 1010 24 10000 3.6 350 08:37 14.05.2020
3213 Clouds 32 1010 24 10000 3.6 350 08:18 14.05.2020
3214 Clouds 29 1009 32 10000 3.1 350 07:44 14.05.2020
3215 Clouds 29 1009 32 10000 3.1 350 07:21 14.05.2020
3216 Clouds 26 1009 36 10000 3.6 260 06:43 14.05.2020
3217 Clouds 26 1009 36 10000 3.6 260 06:24 14.05.2020
3218 Clouds 22 1009 40 10000 2.6 300 05:42 14.05.2020
3219 Clouds 22 1008 43 10000 2.1 310 04:45 14.05.2020
3220 Clouds 23 1008 38 10000 1.5 290 03:39 14.05.2020
3221 Clear 23 1008 38 10000 1.5 290 03:19 14.05.2020
3222 Clear 23 1008 40 10000 2.1 330 02:35 14.05.2020
3223 Clear 24 1008 36 10000 1.5 300 01:49 14.05.2020
3224 Clear 24 1008 33 10000 2.1 300 00:53 14.05.2020
3225 Clear 24 1008 33 10000 2.1 300 00:27 14.05.2020
3226 Clear 25 1009 36 10000 3.1 340 23:45 13.05.2020
3227 Clear 25 1009 36 10000 3.1 340 23:24 13.05.2020
3228 Clear 28 1009 28 10000 3.1 280 22:59 13.05.2020
3229 Clear 28 1009 28 10000 3.1 280 22:41 13.05.2020
3230 Clear 28 1009 28 10000 3.1 280 22:22 13.05.2020
3231 Clear 26 1009 27 10000 3.1 300 21:58 13.05.2020
3232 Clear 26 1009 27 10000 3.1 300 21:58 13.05.2020
3233 Clear 26 1009 27 10000 3.1 300 21:39 13.05.2020
3234 Clear 26 1009 27 10000 3.1 300 21:19 13.05.2020
3235 Clear 28 1009 24 10000 2.6 290 20:55 13.05.2020
3236 Clear 28 1009 24 10000 2.6 290 20:37 13.05.2020
3237 Clear 28 1009 24 10000 2.6 290 20:37 13.05.2020
3238 Clear 28 1009 24 10000 2.6 290 20:19 13.05.2020
3239 Clear 29 1009 21 10000 2.6 300 19:41 13.05.2020
3240 Clear 29 1009 21 10000 2.6 300 19:23 13.05.2020
3241 Clear 32 1009 17 10000 2.6 320 18:44 13.05.2020
3242 Clear 32 1009 17 10000 2.6 320 18:22 13.05.2020
3243 Clear 35 1009 14 10000 5.7 340 17:58 13.05.2020
3244 Clear 35 1009 14 10000 5.7 340 17:38 13.05.2020
3245 Clear 35 1009 14 10000 5.7 340 17:18 13.05.2020
3246 Clear 36 1009 13 10000 7.7 320 16:41 13.05.2020
3247 Clear 36 1009 13 10000 7.7 320 16:20 13.05.2020
3248 Clear 37 1009 11 10000 7.2 340 15:57 13.05.2020
3249 Clear 37 1009 11 10000 7.2 340 15:39 13.05.2020
3250 Clear 37 1009 11 10000 7.2 340 15:18 13.05.2020
3251 Clear 37 1010 11 10000 8.7 310 14:55 13.05.2020
3252 Clear 37 1010 11 10000 8.7 310 14:37 13.05.2020
3253 Clear 37 1010 11 10000 8.7 310 14:19 13.05.2020
3254 Clear 36 1011 14 10000 7.2 300 13:43 13.05.2020
3255 Clear 36 1011 14 10000 7.2 300 13:23 13.05.2020
3256 Clear 36 1011 14 10000 7.7 310 12:59 13.05.2020
3257 Clear 36 1011 14 10000 7.7 310 12:41 13.05.2020
3258 Clear 36 1011 14 10000 7.7 310 12:21 13.05.2020
3259 Clear 35 1012 15 10000 8.7 310 11:56 13.05.2020
3260 Clear 35 1012 15 10000 8.7 310 11:38 13.05.2020
3261 Clear 35 1012 15 10000 8.7 310 11:20 13.05.2020
3262 Clear 33 1012 17 10000 6.2 340 10:58 13.05.2020
3263 Clear 33 1012 17 10000 6.2 340 10:38 13.05.2020
3264 Clear 33 1012 17 10000 6.2 340 10:19 13.05.2020
3265 Clear 32 1013 18 10000 5.7 310 09:47 13.05.2020
3266 Clear 32 1013 18 10000 5.7 310 09:24 13.05.2020
3267 Clear 30 1013 22 10000 4.6 330 08:59 13.05.2020
3268 Clear 30 1013 22 10000 4.6 330 08:39 13.05.2020
3269 Clear 30 1013 22 10000 4.6 330 08:20 13.05.2020
3270 Clear 27 1013 24 10000 4.1 320 07:52 13.05.2020
3271 Clear 27 1013 24 10000 4.1 320 07:33 13.05.2020
3272 Clear 24 1013 27 10000 3.1 310 06:55 13.05.2020
3273 Clear 24 1013 27 10000 3.1 310 06:35 13.05.2020
3274 Clear 19 1012 34 10000 2.6 310 05:48 13.05.2020
3275 Clear 18 1012 39 10000 1.5 300 04:20 13.05.2020
3276 Clear 19 1012 37 10000 2.6 320 02:38 13.05.2020
3277 Clear 21 1012 32 10000 2.6 320 01:47 13.05.2020
3278 Clear 21 1012 30 10000 2.6 310 00:59 13.05.2020
3279 Clear 21 1012 30 10000 2.6 310 00:28 13.05.2020
3280 Clear 24 1012 27 10000 3.1 270 23:59 12.05.2020
3281 Clear 24 1012 27 10000 3.1 270 23:59 12.05.2020
3282 Clear 24 1012 27 10000 3.1 270 23:39 12.05.2020
3283 Clear 24 1012 27 10000 3.1 270 23:20 12.05.2020
3284 Clear 23 1012 28 10000 3.6 320 22:42 12.05.2020
3285 Clear 23 1012 28 10000 3.6 320 22:23 12.05.2020
3286 Clear 23 1012 28 10000 3.6 320 22:23 12.05.2020
3287 Clear 23 1013 25 10000 3.1 300 21:59 12.05.2020
3288 Clear 23 1013 25 10000 3.1 300 21:40 12.05.2020
3289 Clear 23 1013 25 10000 3.1 300 21:22 12.05.2020
3290 Clear 27 1013 19 10000 3.6 290 20:59 12.05.2020
3291 Clear 27 1013 19 10000 3.6 290 20:59 12.05.2020
3292 Clear 27 1013 19 10000 3.6 290 20:41 12.05.2020
3293 Clear 27 1013 19 10000 3.6 290 20:23 12.05.2020
3294 Clear 27 1012 19 10000 2.6 280 19:59 12.05.2020
3295 Clear 27 1012 19 10000 2.6 280 19:41 12.05.2020
3296 Clear 27 1012 19 10000 2.6 280 19:22 12.05.2020
3297 Clear 30 1012 17 10000 3.6 330 18:58 12.05.2020
3298 Clear 30 1012 17 10000 3.6 330 18:39 12.05.2020
3299 Clear 30 1012 17 10000 3.6 330 18:21 12.05.2020
3300 Clear 33 1012 14 10000 6.7 310 17:44 12.05.2020
3301 Clear 33 1012 14 10000 6.7 310 17:25 12.05.2020
3302 Clear 34 1012 13 10000 9.8 300 16:58 12.05.2020
3303 Clear 34 1012 13 10000 9.8 300 16:40 12.05.2020
3304 Clear 34 1012 13 10000 9.8 300 16:19 12.05.2020
3305 Clear 34 1012 14 10000 9.3 290 15:54 12.05.2020
3306 Clear 34 1012 14 10000 9.3 290 15:36 12.05.2020
3307 Clear 34 1012 14 10000 9.3 290 15:18 12.05.2020
3308 Clear 34 1012 12 10000 9.3 280 14:54 12.05.2020
3309 Clear 34 1012 12 10000 9.3 280 14:36 12.05.2020
3310 Clear 34 1012 12 10000 9.3 280 14:18 12.05.2020
3311 Clear 33 1013 14 10000 8.2 300 13:54 12.05.2020
3312 Clear 33 1013 14 10000 8.2 300 13:36 12.05.2020
3313 Clear 33 1013 14 10000 8.2 300 13:18 12.05.2020
3314 Clear 33 1014 15 10000 7.2 280 12:54 12.05.2020
3315 Clear 33 1014 15 10000 7.2 280 12:36 12.05.2020
3316 Clear 33 1014 15 10000 7.2 280 12:18 12.05.2020
3317 Clear 32 1014 15 10000 7.2 310 11:55 12.05.2020
3318 Clear 32 1014 15 10000 7.2 310 11:36 12.05.2020
3319 Clear 32 1014 15 10000 7.2 310 11:18 12.05.2020
3320 Clear 32 1015 18 10000 7.2 310 10:54 12.05.2020
3321 Clear 32 1015 18 10000 7.2 310 10:36 12.05.2020
3322 Clear 32 1015 18 10000 7.2 310 10:18 12.05.2020
3323 Clear 30 1015 22 10000 6.7 300 09:40 12.05.2020
3324 Clear 30 1015 22 10000 6.7 300 09:21 12.05.2020
3325 Clear 29 1015 23 10000 4.6 300 08:59 12.05.2020
3326 Clear 29 1015 23 10000 4.6 300 08:38 12.05.2020
3327 Clear 29 1015 23 10000 4.6 300 08:19 12.05.2020
3328 Clear 29 1015 23 10000 4.6 300 08:19 12.05.2020
3329 Clear 25 1015 31 10000 4.6 300 07:42 12.05.2020
3330 Clear 25 1015 31 10000 4.6 300 07:24 12.05.2020
3331 Clear 22 1014 43 10000 4.6 300 06:50 12.05.2020
3332 Clear 22 1014 43 10000 4.6 300 06:29 12.05.2020
3333 Clear 21 1014 49 10000 4.1 290 05:59 12.05.2020
3334 Clear 21 1014 49 10000 4.1 290 05:41 12.05.2020
3335 Clear 23 1013 21 0 4.29 322 03:43 12.05.2020
3336 Clear 21 1013 37 10000 2.1 290 02:53 12.05.2020
3337 Clear 21 1013 37 10000 2.1 290 02:25 12.05.2020
3338 Clear 21 1013 37 10000 2.6 310 01:27 12.05.2020
3339 Clear 21 1013 37 10000 3.1 320 00:37 12.05.2020
3340 Clear 21 1013 37 10000 3.1 320 00:18 12.05.2020
3341 Clear 24 1013 31 10000 4.6 320 23:42 11.05.2020
3342 Clear 24 1013 31 10000 4.6 320 23:22 11.05.2020
3343 Clear 25 1014 25 10000 4.1 310 22:59 11.05.2020
3344 Clear 25 1014 25 10000 4.1 310 22:59 11.05.2020
3345 Clear 25 1014 25 10000 4.1 310 22:41 11.05.2020
3346 Clear 25 1014 25 10000 4.1 310 22:21 11.05.2020
3347 -273 0 0 0 0 0 21:59 11.05.2020
3348 Clear 27 1014 22 10000 6.2 300 21:40 11.05.2020
3349 Clear 27 1014 22 10000 6.2 300 21:20 11.05.2020
3350 Clear 27 1013 19 10000 3.6 290 20:59 11.05.2020
3351 Clear 27 1013 19 10000 3.6 290 20:40 11.05.2020
3352 Clear 27 1013 19 10000 3.6 290 20:21 11.05.2020
3353 Clear 29 1013 18 10000 3.6 290 19:58 11.05.2020
3354 Clear 29 1013 18 10000 3.6 290 19:40 11.05.2020
3355 Clear 29 1013 18 10000 3.6 290 19:21 11.05.2020
3356 Clear 30 1012 20 10000 4.6 320 18:56 11.05.2020
3357 Clear 30 1012 20 10000 4.6 320 18:37 11.05.2020
3358 Clear 30 1012 20 10000 4.6 320 18:18 11.05.2020
3359 Clear 32 1012 19 10000 7.2 310 17:55 11.05.2020
3360 Clear 32 1012 19 10000 7.2 310 17:36 11.05.2020
3361 Clear 32 1012 19 10000 7.2 310 17:18 11.05.2020
3362 Clear 33 1012 18 10000 7.2 310 16:42 11.05.2020
3363 Clear 33 1012 18 10000 7.2 310 16:22 11.05.2020
3364 Clear 33 1012 18 10000 7.2 310 16:22 11.05.2020
3365 Clear 34 1012 18 10000 6.2 270 15:58 11.05.2020
3366 Clear 34 1012 18 10000 6.2 270 15:39 11.05.2020
3367 Clear 34 1012 18 10000 6.2 270 15:19 11.05.2020
3368 Clear 33 1012 18 10000 5.1 310 14:55 11.05.2020
3369 Clear 33 1012 18 10000 5.1 310 14:37 11.05.2020
3370 Clear 33 1012 18 10000 5.1 310 14:19 11.05.2020
3371 Clear 33 1013 17 10000 7.7 300 13:42 11.05.2020
3372 Clear 33 1013 17 10000 7.7 300 13:22 11.05.2020
3373 Clear 33 1013 18 10000 5.7 290 12:58 11.05.2020
3374 Clear 33 1013 18 10000 5.7 290 12:40 11.05.2020
3375 Clear 33 1013 18 10000 5.7 290 12:22 11.05.2020
3376 Clear 32 1014 21 10000 5.7 250 11:57 11.05.2020
3377 Clear 32 1014 21 10000 5.7 250 11:38 11.05.2020
3378 Clear 32 1014 21 10000 5.7 250 11:38 11.05.2020
3379 Clear 32 1014 21 10000 5.7 250 11:20 11.05.2020
3380 Clear 32 1014 21 10000 5.7 250 10:56 11.05.2020
3381 Clear 32 1014 21 10000 5.7 250 10:38 11.05.2020
3382 Clear 32 1014 21 10000 5.7 250 10:20 11.05.2020
3383 Clear 31 1015 22 10000 4.6 280 09:56 11.05.2020
3384 Clear 31 1015 22 10000 4.6 280 09:37 11.05.2020
3385 Clear 31 1015 22 10000 4.6 280 09:18 11.05.2020
3386 Clear 29 1015 25 10000 3.6 290 08:42 11.05.2020
3387 Clear 29 1015 25 10000 3.6 290 08:24 11.05.2020
3388 Clear 26 1015 36 10000 4.6 310 07:56 11.05.2020
3389 Clear 26 1015 36 10000 4.6 310 07:38 11.05.2020
3390 Clear 26 1015 36 10000 4.6 310 07:20 11.05.2020
3391 Clear 26 1015 36 10000 4.6 310 07:20 11.05.2020
3392 Clear 24 1014 33 10000 3.6 310 06:34 11.05.2020
3393 Clear 18 1014 48 10000 1 290 05:53 11.05.2020
3394 Clear 18 1014 48 10000 1 290 05:22 11.05.2020
3395 Clear 19 1013 48 10000 2.1 180 03:56 11.05.2020
3396 Clear 20 1013 42 10000 0.5 0 02:36 11.05.2020
3397 Clear 20 1013 42 10000 1 240 01:59 11.05.2020
3398 Clear 19 1013 52 10000 1.5 310 01:18 11.05.2020
3399 Clear 20 1013 40 10000 0.5 220 00:40 11.05.2020
3400 Clear 20 1013 40 10000 0.5 220 00:18 11.05.2020
3401 Clear 20 1013 45 10000 0.5 270 23:39 10.05.2020
3402 Clear 20 1013 45 10000 0.5 270 23:20 10.05.2020
3403 Clear 21 1013 40 10000 1 0 22:54 10.05.2020
3404 Clear 21 1013 40 10000 1 0 22:36 10.05.2020
3405 Clear 21 1013 40 10000 1 0 22:18 10.05.2020
3406 Clear 23 1013 33 10000 1 210 21:42 10.05.2020
3407 Clear 23 1013 33 10000 1 210 21:18 10.05.2020
3408 Clear 25 1013 31 10000 3.26 352 20:43 10.05.2020
3409 Clear 25 1013 31 10000 3.4 351 20:24 10.05.2020
3410 Clear 26 1012 31 10000 2.1 340 19:58 10.05.2020
3411 Clear 26 1012 31 10000 2.1 340 19:39 10.05.2020
3412 Clear 26 1012 31 10000 2.1 340 19:39 10.05.2020
3413 Clear 26 1012 31 10000 2.1 340 19:21 10.05.2020
3414 Clear 26 1012 31 10000 2.1 340 19:21 10.05.2020
3415 Clear 28 1012 26 10000 2.6 330 18:56 10.05.2020
3416 Clear 28 1012 26 10000 2.6 330 18:36 10.05.2020
3417 Clear 28 1012 26 10000 2.6 330 18:18 10.05.2020
3418 Clear 30 1012 23 10000 5.1 320 17:58 10.05.2020
3419 Clear 30 1012 23 10000 5.1 320 17:39 10.05.2020
3420 Clear 30 1012 23 10000 5.1 320 17:20 10.05.2020
3421 Clear 30 1012 23 10000 6.2 310 16:54 10.05.2020
3422 Clear 30 1012 23 10000 6.2 310 16:36 10.05.2020
3423 Clear 30 1012 23 10000 6.2 310 16:18 10.05.2020
3424 Clear 31 1011 20 10000 5.1 310 15:41 10.05.2020
3425 Clear 31 1011 20 10000 5.1 310 15:22 10.05.2020
3426 Clear 31 1012 22 10000 4.6 280 14:57 10.05.2020
3427 Clear 31 1012 22 10000 4.6 280 14:38 10.05.2020
3428 Clear 31 1012 22 10000 4.6 280 14:19 10.05.2020
3429 Clear 31 1012 20 10000 4.1 290 13:58 10.05.2020
3430 Clear 31 1012 20 10000 4.1 290 13:37 10.05.2020
3431 Clear 31 1012 20 10000 4.1 290 13:19 10.05.2020
3432 Clear 30 1013 25 10000 5.7 270 12:56 10.05.2020
3433 Clear 30 1013 25 10000 5.7 270 12:37 10.05.2020
3434 Clear 30 1013 25 10000 5.7 270 12:19 10.05.2020
3435 Clear 29 1013 30 10000 5.7 260 11:54 10.05.2020
3436 Clear 29 1013 30 10000 5.7 260 11:36 10.05.2020
3437 Clear 29 1013 30 10000 5.7 260 11:18 10.05.2020
3438 Clear 28 1013 34 10000 3.6 290 10:42 10.05.2020
3439 Clear 28 1013 34 10000 3.6 290 10:24 10.05.2020
3440 Clear 27 1013 39 10000 4.1 290 09:56 10.05.2020
3441 Clear 27 1013 39 10000 4.1 290 09:38 10.05.2020
3442 Clear 27 1013 39 10000 4.1 290 09:19 10.05.2020
3443 Clear 26 1013 39 10000 6.2 300 08:44 10.05.2020
3444 Clear 26 1013 39 10000 6.2 300 08:23 10.05.2020
3445 Clear 24 1012 47 10000 6.7 290 07:44 10.05.2020
3446 Clear 24 1012 47 10000 6.7 290 07:19 10.05.2020
3447 Clear 23 1012 49 10000 6.7 290 06:51 10.05.2020
3448 Clear 23 1012 49 10000 6.7 290 06:29 10.05.2020
3449 Clear 21 1011 52 10000 2.1 210 05:48 10.05.2020
3450 Clear 21 1010 52 6000 3.1 240 04:49 10.05.2020
3451 Clear 21 1010 52 6000 3.1 240 04:29 10.05.2020
3452 Dust 23 1009 43 4600 4.6 280 03:52 10.05.2020
3453 Dust 23 1009 43 4600 4.6 280 03:31 10.05.2020
3454 Dust 23 1008 46 4100 6.2 290 02:26 10.05.2020
3455 Dust 24 1008 41 4200 3.6 290 01:59 10.05.2020
3456 Dust 24 1008 41 4200 3.6 290 01:40 10.05.2020
3457 Dust 24 1008 41 4200 3.6 290 01:19 10.05.2020
3458 Clear 26 1007 36 8000 6.7 280 00:53 10.05.2020
3459 Clear 26 1007 36 8000 6.7 280 00:23 10.05.2020
3460 Dust 27 1006 32 4400 7.7 290 23:57 09.05.2020
3461 Dust 27 1006 32 4400 7.7 290 23:57 09.05.2020
3462 Dust 27 1006 32 4400 7.7 290 23:38 09.05.2020
3463 Dust 27 1006 32 4400 7.7 290 23:19 09.05.2020
3464 Dust 27 1006 32 4400 7.7 290 23:19 09.05.2020
3465 Dust 29 1005 28 1200 9.8 270 22:41 09.05.2020
3466 Dust 29 1005 28 1200 9.8 270 22:23 09.05.2020
3467 Clear 31 1003 19 10000 3.1 240 21:58 09.05.2020
3468 Clear 31 1003 19 10000 3.1 240 21:40 09.05.2020
3469 Clear 31 1003 19 10000 3.1 240 21:20 09.05.2020
3470 Clear 30 1002 25 10000 5.7 160 20:57 09.05.2020
3471 Clear 30 1002 25 10000 5.7 160 20:38 09.05.2020
3472 Clear 30 1002 25 10000 5.7 160 20:20 09.05.2020
3473 Clear 32 1001 11 0 6.5 155 19:55 09.05.2020
3474 Clear 33 1000 22 10000 9.8 130 19:37 09.05.2020
3475 Clear 33 1000 22 10000 9.8 130 19:18 09.05.2020
3476 Clear 33 1000 22 10000 9.8 130 18:42 09.05.2020
3477 Clear 33 1000 22 10000 9.8 130 18:23 09.05.2020
3478 Clear 36 999 18 4000 11.3 140 17:46 09.05.2020
3479 Clear 36 999 18 4000 11.3 140 17:23 09.05.2020
3480 Clear 38 999 15 4000 14.9 150 16:57 09.05.2020
3481 Clear 38 999 15 4000 14.9 150 16:38 09.05.2020
3482 Clear 38 999 15 4000 14.9 150 16:19 09.05.2020
3483 Clear 39 1000 15 6000 13.9 150 15:44 09.05.2020
3484 Clear 39 1000 15 6000 13.9 150 15:22 09.05.2020
3485 Clear 39 1001 14 9000 12.9 160 14:56 09.05.2020
3486 Clear 39 1001 14 9000 12.9 160 14:38 09.05.2020
3487 Clouds 39 1001 14 9000 12.9 160 14:18 09.05.2020
3488 Clouds 39 1001 14 9000 12.9 160 14:18 09.05.2020
3489 Clear 39 1002 15 7000 13.9 160 13:56 09.05.2020
3490 Clear 39 1002 15 7000 13.9 160 13:38 09.05.2020
3491 Clear 39 1002 15 7000 13.9 160 13:18 09.05.2020
3492 Clear 39 1003 14 9000 13.4 140 12:41 09.05.2020
3493 Clear 39 1003 14 9000 13.4 140 12:22 09.05.2020
3494 Clear 37 1004 17 5000 11.3 140 11:45 09.05.2020
3495 Clear 37 1004 17 5000 11.3 140 11:20 09.05.2020
3496 Clear 37 1005 17 10000 7.7 120 10:56 09.05.2020
3497 Clear 37 1005 17 10000 7.7 120 10:38 09.05.2020
3498 Clear 37 1005 17 10000 7.7 120 10:20 09.05.2020
3499 Clear 34 1006 21 10000 8.7 130 09:55 09.05.2020
3500 Clear 34 1006 21 10000 8.7 130 09:37 09.05.2020
3501 Clear 33 1006 22 10000 7.7 120 09:18 09.05.2020
3502 Clear 33 1006 22 10000 7.7 120 08:48 09.05.2020
3503 Clear 33 1006 22 10000 7.7 120 08:30 09.05.2020
3504 Clear 29 1006 28 10000 5.1 100 07:48 09.05.2020
3505 Clear 29 1006 28 10000 5.1 100 07:30 09.05.2020
3506 Clear 26 1007 34 5000 3.6 100 06:47 09.05.2020
3507 Clear 26 1007 34 5000 3.6 100 06:22 09.05.2020
3508 Clear 25 1006 33 10000 4.1 80 05:45 09.05.2020
3509 Clear 26 1007 31 10000 4.1 60 03:44 09.05.2020
3510 Clear 26 1007 31 10000 4.1 60 03:21 09.05.2020
3511 Clear 26 1008 39 10000 2.6 70 02:30 09.05.2020
3512 Clear 26 1008 34 10000 2.6 90 01:52 09.05.2020
3513 Clear 26 1008 34 10000 2.6 90 01:23 09.05.2020
3514 Clear 25 1009 38 10000 3.6 70 00:47 09.05.2020
3515 Clear 25 1009 38 10000 3.6 70 00:29 09.05.2020
3516 Clear 23 1010 46 10000 1 80 23:49 08.05.2020
3517 Clear 24 1010 36 10000 0.5 90 23:29 08.05.2020
3518 Clear 24 1010 36 10000 0.5 90 22:58 08.05.2020
3519 Clear 24 1010 36 10000 0.5 90 22:58 08.05.2020
3520 Clear 24 1010 36 10000 0.5 90 22:40 08.05.2020
3521 Clear 24 1010 36 10000 0.5 90 22:19 08.05.2020
3522 Clear 28 1010 23 0 5.05 54 21:58 08.05.2020
3523 Clear 28 1010 23 0 5.05 54 21:39 08.05.2020
3524 Clear 28 1010 28 10000 2.1 40 21:18 08.05.2020
3525 Clear 28 1010 28 10000 2.1 40 20:56 08.05.2020
3526 Clear 28 1010 28 10000 2.1 40 20:38 08.05.2020
3527 Clear 28 1010 28 10000 2.1 40 20:20 08.05.2020
3528 Clear 30 1010 25 10000 3.1 30 19:44 08.05.2020
3529 Clear 30 1010 25 10000 3.1 30 19:23 08.05.2020
3530 Clear 31 1010 22 10000 2.1 20 18:55 08.05.2020
3531 Clear 31 1010 22 10000 2.1 20 18:37 08.05.2020
3532 Clear 31 1010 22 10000 2.1 20 18:18 08.05.2020
3533 Clear 33 1010 19 10000 2.1 330 17:41 08.05.2020
3534 Clear 34 1010 18 10000 3.1 290 17:18 08.05.2020
3535 Clear 34 1010 18 10000 3.1 290 16:44 08.05.2020
3536 Clear 34 1010 18 10000 3.1 290 16:26 08.05.2020
3537 Clear 34 1010 17 10000 2.1 0 15:57 08.05.2020
3538 Clear 34 1010 17 10000 2.1 0 15:39 08.05.2020
3539 Clear 34 1010 17 10000 2.1 0 15:18 08.05.2020
3540 Clear 34 1011 18 10000 2.6 240 14:54 08.05.2020
3541 Clear 34 1011 18 10000 2.6 240 14:36 08.05.2020
3542 Clear 34 1011 18 10000 2.6 240 14:18 08.05.2020
3543 Clear 33 1012 19 10000 3.1 240 13:39 08.05.2020
3544 Clear 33 1012 19 10000 3.1 240 13:19 08.05.2020
3545 Clear 33 1013 19 10000 3.1 0 12:45 08.05.2020
3546 Clear 33 1013 19 10000 3.1 0 12:25 08.05.2020
3547 Clear 33 1014 21 10000 2.6 50 11:59 08.05.2020
3548 Clear 33 1014 21 10000 2.6 50 11:41 08.05.2020
3549 Clear 33 1014 21 10000 2.6 50 11:21 08.05.2020
3550 Clear 31 1014 22 10000 2.1 60 10:57 08.05.2020
3551 Clear 31 1014 22 10000 2.1 60 10:39 08.05.2020
3552 Clear 31 1014 23 10000 2.6 110 10:18 08.05.2020
3553 Clear 31 1014 23 10000 2.6 110 10:18 08.05.2020
3554 Clear 31 1014 23 10000 2.6 110 09:42 08.05.2020
3555 Clear 31 1014 23 10000 2.6 110 09:19 08.05.2020
3556 Clear 29 1014 26 8000 1.5 80 08:58 08.05.2020
3557 Clear 29 1014 26 8000 1.5 80 08:39 08.05.2020
3558 Clear 29 1014 26 8000 1.5 80 08:20 08.05.2020
3559 Clear 27 1014 34 6000 1 0 07:40 08.05.2020
3560 Clear 27 1014 34 6000 1 0 07:20 08.05.2020
3561 Clear 24 1014 41 8000 1 0 06:48 08.05.2020
3562 Clear 24 1014 41 8000 1 0 06:20 08.05.2020
3563 Clear 17 1014 51 9000 1.5 350 05:35 08.05.2020
3564 Clear 18 1013 48 10000 1 320 03:55 08.05.2020
3565 Clear 18 1013 45 10000 2.24 42 02:31 08.05.2020
3566 Clear 20 1013 42 10000 0.5 340 01:41 08.05.2020
3567 Clear 20 1013 42 10000 0.5 340 01:21 08.05.2020
3568 Clear 20 1013 40 10000 0.5 0 00:48 08.05.2020
3569 Clear 20 1013 40 10000 0.5 0 00:27 08.05.2020
3570 Clear 22 1014 35 10000 1 110 23:57 07.05.2020
3571 Clear 22 1014 35 10000 1 110 23:39 07.05.2020
3572 Clear 22 1014 35 10000 1 110 23:20 07.05.2020
3573 Clear 23 1014 35 10000 2.6 110 22:42 07.05.2020
3574 Clear 23 1014 35 10000 2.6 110 22:21 07.05.2020
3575 Clear 23 1013 33 10000 2.6 140 21:58 07.05.2020
3576 Clear 23 1013 33 10000 2.6 140 21:39 07.05.2020
3577 Clear 23 1013 33 10000 2.6 140 21:20 07.05.2020
3578 Clear 23 1013 33 10000 2.6 140 21:20 07.05.2020
3579 Clear 24 1013 31 10000 1 100 20:58 07.05.2020
3580 Clear 24 1013 31 10000 1 100 20:40 07.05.2020
3581 Clear 24 1013 31 10000 1 100 20:20 07.05.2020
3582 Clear 26 1012 27 10000 0.5 260 19:50 07.05.2020
3583 Clear 26 1012 27 10000 0.5 260 19:24 07.05.2020
3584 Clear 29 1012 23 10000 2.6 280 18:59 07.05.2020
3585 Clear 29 1012 23 10000 2.6 280 18:39 07.05.2020
3586 Clear 29 1012 23 10000 2.6 280 18:20 07.05.2020
3587 Clear 30 1012 20 10000 3.6 290 17:42 07.05.2020
3588 Clear 30 1012 20 10000 3.6 290 17:21 07.05.2020
3589 Clear 30 1012 20 10000 4.1 280 16:43 07.05.2020
3590 Clear 30 1012 20 10000 4.1 280 16:20 07.05.2020
3591 Clear 31 1012 20 10000 5.1 280 15:58 07.05.2020
3592 Clear 31 1012 20 10000 5.1 280 15:58 07.05.2020
3593 Clear 31 1012 20 10000 5.1 280 15:39 07.05.2020
3594 Clear 31 1012 20 10000 5.1 280 15:19 07.05.2020
3595 Clear 30 1012 22 10000 4.1 260 14:59 07.05.2020
3596 Clouds 30 1012 23 10000 5.1 250 14:41 07.05.2020
3597 Clouds 30 1012 23 10000 5.1 250 14:19 07.05.2020
3598 Clouds 30 1013 25 10000 4.6 270 13:42 07.05.2020
3599 Clouds 30 1013 25 10000 4.6 270 13:24 07.05.2020
3600 Clear 29 1013 28 10000 5.7 240 12:44 07.05.2020
3601 Clear 29 1013 28 10000 5.7 240 12:20 07.05.2020
3602 Clear 29 1014 28 10000 4.6 250 11:58 07.05.2020
3603 Clear 29 1014 28 10000 4.6 250 11:38 07.05.2020
3604 Clear 29 1014 28 10000 4.6 250 11:20 07.05.2020
3605 Clear 29 1014 30 10000 4.1 250 10:41 07.05.2020
3606 Clear 29 1014 30 10000 4.1 250 10:22 07.05.2020
3607 Clear 27 1014 36 10000 2.1 310 09:41 07.05.2020
3608 Clear 27 1014 36 10000 2.1 310 09:20 07.05.2020
3609 Clear 25 1014 38 10000 4.1 310 08:57 07.05.2020
3610 Clear 25 1014 38 10000 4.1 310 08:57 07.05.2020
3611 Clear 25 1014 38 10000 4.1 310 08:38 07.05.2020
3612 Clear 25 1014 38 10000 4.1 310 08:20 07.05.2020
3613 Clear 23 1014 43 10000 6.2 310 07:45 07.05.2020
3614 Clear 23 1014 43 10000 6.2 310 07:26 07.05.2020
3615 Clear 22 1013 43 10000 4.6 290 06:52 07.05.2020
3616 Clear 22 1013 43 10000 4.6 290 06:33 07.05.2020
3617 Clear 21 1013 46 10000 5.1 290 05:32 07.05.2020
3618 Clear 19 1011 45 10000 1.5 220 03:55 07.05.2020
3619 Clear 19 1011 45 10000 1.5 220 03:25 07.05.2020
3620 Clear 18 1011 48 10000 1.5 190 02:53 07.05.2020
3621 Clear 19 1011 45 10000 2.1 190 01:45 07.05.2020
3622 Clear 19 1011 45 10000 2.1 190 01:24 07.05.2020
3623 Clear 19 1011 42 10000 1 250 00:47 07.05.2020
3624 Clear 19 1011 42 10000 1 250 00:28 07.05.2020
3625 Clear 20 1011 40 10000 1.5 150 23:48 06.05.2020
3626 Clear 20 1011 40 10000 1.5 150 23:26 06.05.2020
3627 Clear 21 1011 37 10000 0.5 0 22:58 06.05.2020
3628 Clear 21 1011 37 10000 0.5 0 22:40 06.05.2020
3629 Clear 21 1011 37 10000 0.5 0 22:20 06.05.2020
3630 Clear 22 1010 37 10000 1 140 21:58 06.05.2020
3631 Clear 22 1010 37 10000 1 140 21:40 06.05.2020
3632 Clear 22 1010 37 10000 1 140 21:21 06.05.2020
3633 Clear 22 1010 35 10000 1.5 180 20:54 06.05.2020
3634 Clear 22 1010 35 10000 1.5 180 20:36 06.05.2020
3635 Clear 22 1010 35 10000 1.5 180 20:18 06.05.2020
3636 Clouds 25 1009 29 10000 2.1 220 19:55 06.05.2020
3637 Clouds 25 1009 29 10000 2.1 220 19:36 06.05.2020
3638 Clouds 25 1009 29 10000 2.1 220 19:18 06.05.2020
3639 Clear 27 1008 28 10000 3.1 230 18:54 06.05.2020
3640 Clear 27 1008 28 10000 3.1 230 18:36 06.05.2020
3641 Clear 27 1008 28 10000 3.1 230 18:18 06.05.2020
3642 Clouds 28 1008 24 10000 5.1 240 17:54 06.05.2020
3643 Clouds 28 1008 24 10000 5.1 240 17:36 06.05.2020
3644 Clouds 28 1008 24 10000 5.1 240 17:18 06.05.2020
3645 Clouds 29 1007 23 10000 6.2 260 16:54 06.05.2020
3646 Clouds 29 1007 23 10000 6.2 260 16:36 06.05.2020
3647 Clouds 29 1007 23 10000 6.2 260 16:18 06.05.2020
3648 Clouds 27 1007 24 10000 5.1 240 15:42 06.05.2020
3649 Clouds 27 1007 24 10000 5.1 240 15:22 06.05.2020
3650 Clouds 28 1007 23 10000 6.7 240 14:56 06.05.2020
3651 Clouds 28 1007 23 10000 6.7 240 14:38 06.05.2020
3652 Clouds 28 1007 23 10000 6.7 240 14:18 06.05.2020
3653 Clouds 28 1007 23 10000 6.7 240 14:18 06.05.2020
3654 Clouds 28 1008 21 10000 7.7 260 13:56 06.05.2020
3655 Clouds 28 1008 21 10000 7.7 260 13:37 06.05.2020
3656 Clouds 28 1008 21 10000 7.7 260 13:18 06.05.2020
3657 Clouds 27 1008 24 10000 8.7 240 12:42 06.05.2020
3658 Clouds 27 1008 24 10000 8.7 240 12:24 06.05.2020
3659 Clouds 26 1008 27 10000 8.7 200 11:41 06.05.2020
3660 Clouds 26 1008 27 10000 8.7 200 11:21 06.05.2020
3661 Clouds 25 1008 29 10000 8.7 230 10:58 06.05.2020
3662 Clouds 25 1008 29 10000 8.7 230 10:39 06.05.2020
3663 Clouds 25 1008 29 10000 8.7 230 10:19 06.05.2020
3664 Clouds 24 1008 31 10000 9.3 240 09:45 06.05.2020
3665 Clouds 24 1008 31 10000 9.3 240 09:26 06.05.2020
3666 Clouds 24 1007 38 10000 9.8 240 08:55 06.05.2020
3667 Clouds 24 1007 38 10000 9.8 240 08:36 06.05.2020
3668 Clouds 24 1007 38 10000 9.8 240 08:18 06.05.2020
3669 Clouds 23 1006 43 10000 6.2 260 07:40 06.05.2020
3670 Clouds 23 1006 43 10000 6.2 260 07:21 06.05.2020
3671 Clouds 22 1005 46 10000 6.7 300 06:58 06.05.2020
3672 Clouds 22 1005 46 10000 6.7 300 06:40 06.05.2020
3673 Clouds 22 1005 46 10000 6.7 300 06:19 06.05.2020
3674 Clouds 21 1004 52 10000 8.2 290 05:37 06.05.2020
3675 Clouds 21 1003 52 10000 10.8 290 04:49 06.05.2020
3676 Clouds 22 1002 53 10000 14.4 290 03:49 06.05.2020
3677 Clouds 22 1002 53 10000 14.4 290 03:24 06.05.2020
3678 Dust 23 1001 43 2000 13.4 290 02:38 06.05.2020
3679 Clouds 29 999 28 10000 6.7 140 02:20 06.05.2020
3680 Clouds 29 999 28 10000 6.7 140 01:41 06.05.2020
3681 Clouds 29 999 30 10000 7.7 140 00:56 06.05.2020
3682 Clouds 29 999 30 10000 7.7 140 00:31 06.05.2020
3683 Clouds 30 1000 27 10000 7.7 110 23:58 05.05.2020
3684 Clouds 30 1000 27 10000 7.7 110 23:39 05.05.2020
3685 Clouds 30 1000 27 10000 7.7 110 23:19 05.05.2020
3686 Clouds 30 1000 27 10000 7.7 110 23:19 05.05.2020
3687 Clouds 31 1001 25 10000 3.6 80 22:42 05.05.2020
3688 Clouds 31 1001 25 10000 3.6 80 22:20 05.05.2020
3689 Clouds 31 1001 23 10000 2.6 50 21:59 05.05.2020
3690 Clouds 31 1001 23 10000 2.6 50 21:41 05.05.2020
3691 Clouds 31 1001 23 10000 2.6 50 21:21 05.05.2020
3692 Clouds 30 1003 28 10000 2.1 30 20:59 05.05.2020
3693 Clouds 30 1003 28 10000 2.1 30 20:39 05.05.2020
3694 Clouds 30 1003 28 10000 2.1 30 20:19 05.05.2020
3695 Clouds 30 1003 27 10000 2.1 50 19:57 05.05.2020
3696 Clouds 30 1003 27 10000 2.1 50 19:37 05.05.2020
3697 Clouds 30 1003 27 10000 2.1 50 19:18 05.05.2020
3698 Clouds 34 1002 21 10000 1.5 260 18:55 05.05.2020
3699 Clouds 34 1002 21 10000 1.5 260 18:37 05.05.2020
3700 Clouds 34 1002 21 10000 1.5 260 18:37 05.05.2020
3701 Clouds 34 1002 21 10000 1.5 260 18:19 05.05.2020
3702 Clouds 36 1003 16 10000 3.1 260 17:43 05.05.2020
3703 Clouds 36 1003 16 10000 3.1 260 17:25 05.05.2020
3704 Clouds 37 1003 17 10000 3.1 250 16:58 05.05.2020
3705 Clouds 37 1003 17 10000 3.1 250 16:37 05.05.2020
3706 Clouds 37 1003 17 10000 3.1 250 16:18 05.05.2020
3707 Clouds 38 1003 15 10000 6.7 270 15:56 05.05.2020
3708 Clouds 38 1003 15 10000 6.7 270 15:38 05.05.2020
3709 Clouds 38 1003 15 10000 6.7 270 15:19 05.05.2020
3710 Clouds 39 1002 13 7000 8.2 260 14:54 05.05.2020
3711 Clouds 39 1002 13 7000 8.2 260 14:36 05.05.2020
3712 Clouds 39 1002 13 7000 8.2 260 14:18 05.05.2020
3713 Clouds 40 1002 12 5000 8.2 220 13:54 05.05.2020
3714 Clouds 40 1002 12 5000 8.2 220 13:36 05.05.2020
3715 Dust 40 1002 15 2500 9.8 150 13:18 05.05.2020
3716 Dust 40 1002 15 2500 9.8 150 12:40 05.05.2020
3717 Dust 40 1002 15 2500 9.8 150 12:22 05.05.2020
3718 Dust 38 1003 16 3300 9.8 160 11:59 05.05.2020
3719 Dust 38 1003 16 3300 9.8 160 11:40 05.05.2020
3720 Dust 38 1003 16 3300 9.8 160 11:19 05.05.2020
3721 Clear 36 1004 14 5000 12.9 160 10:54 05.05.2020
3722 Clear 36 1004 14 5000 12.9 160 10:36 05.05.2020
3723 Rain 36 1004 14 5000 12.9 160 10:18 05.05.2020
3724 Clouds 36 1004 14 6000 8.2 130 09:44 05.05.2020
3725 Clouds 36 1004 14 6000 8.2 130 09:25 05.05.2020
3726 Clouds 30 1005 25 10000 7.7 120 08:56 05.05.2020
3727 Clouds 30 1005 25 10000 7.7 120 08:37 05.05.2020
3728 Clouds 30 1005 25 10000 7.7 120 08:18 05.05.2020
3729 Clouds 28 1005 24 10000 6.7 130 07:43 05.05.2020
3730 Clouds 28 1005 24 10000 6.7 130 07:20 05.05.2020
3731 Clouds 27 1005 26 10000 6.7 130 06:51 05.05.2020
3732 Clouds 27 1005 26 10000 6.7 130 06:30 05.05.2020
3733 Clouds 26 1006 27 10000 5.1 140 05:51 05.05.2020
3734 Clouds 25 1005 27 10000 6.7 130 04:54 05.05.2020
3735 Clouds 29 1006 20 10000 7.7 140 02:37 05.05.2020
3736 Clouds 30 1006 20 10000 7.2 140 00:56 05.05.2020
3737 Clouds 30 1006 20 10000 7.2 140 00:31 05.05.2020
3738 Clouds 30 1006 20 10000 7.7 140 23:48 04.05.2020
3739 Clouds 30 1006 20 10000 7.7 140 23:26 04.05.2020
3740 Clouds 31 1005 19 10000 9.3 130 22:59 04.05.2020
3741 Clouds 31 1005 19 10000 9.3 130 22:41 04.05.2020
3742 Clouds 31 1005 19 10000 9.3 130 22:22 04.05.2020
3743 Clouds 31 1005 19 10000 9.3 130 22:22 04.05.2020
3744 Clouds 31 1005 19 10000 9.3 130 22:22 04.05.2020
3745 Clouds 32 1006 12 0 3.86 156 21:57 04.05.2020
3746 Clouds 33 1006 18 10000 8.7 120 21:37 04.05.2020
3747 Clouds 33 1006 18 10000 8.7 120 21:19 04.05.2020
3748 Clouds 33 1006 18 10000 8.7 120 21:19 04.05.2020
3749 Clouds 33 1006 18 10000 8.7 120 20:41 04.05.2020
3750 Clouds 33 1006 18 10000 8.7 120 20:41 04.05.2020
3751 Clouds 33 1006 18 10000 8.7 120 20:41 04.05.2020
3752 Clouds 33 1006 18 10000 8.7 120 20:41 04.05.2020
3753 Clouds 33 1006 18 10000 8.7 120 20:20 04.05.2020
3754 Clouds 33 1006 18 10000 6.7 120 19:56 04.05.2020
3755 Clouds 33 1006 18 10000 6.7 120 19:37 04.05.2020
3756 Clouds 34 1006 17 10000 8.2 120 19:18 04.05.2020
3757 Clouds 34 1005 15 10000 8.2 130 18:39 04.05.2020
3758 Clouds 34 1005 15 10000 8.2 130 18:20 04.05.2020
3759 Clouds 34 1005 15 10000 8.2 130 18:20 04.05.2020
3760 Clouds 37 1005 12 10000 9.3 140 17:56 04.05.2020
3761 Clouds 37 1005 12 10000 9.3 140 17:38 04.05.2020
3762 Clouds 37 1005 12 10000 9.3 140 17:20 04.05.2020
3763 Clouds 38 1006 12 10000 10.8 140 16:56 04.05.2020
3764 Clouds 38 1006 12 10000 10.8 140 16:37 04.05.2020
3765 Clouds 38 1006 12 10000 10.8 140 16:19 04.05.2020
3766 Clouds 38 1006 12 10000 10.8 140 16:19 04.05.2020
3767 Clouds 39 1007 11 10000 10.3 150 15:40 04.05.2020
3768 Clouds 39 1007 11 10000 10.3 150 15:22 04.05.2020
3769 Clouds 38 1007 13 10000 10.3 150 14:49 04.05.2020
3770 Clouds 38 1007 13 10000 10.3 150 14:22 04.05.2020
3771 Clouds 38 1007 13 10000 10.3 150 14:22 04.05.2020
3772 Clouds 38 1007 13 10000 10.3 150 14:22 04.05.2020
3773 Clouds 39 1009 11 10000 8.7 160 13:21 04.05.2020
3774 Clouds 39 1009 11 10000 8.7 160 13:21 04.05.2020
3775 Clouds 38 1010 13 10000 6.7 150 12:44 04.05.2020
3776 Clouds 38 1010 13 10000 6.7 150 12:44 04.05.2020
3777 Clouds 38 1010 13 10000 6.7 150 12:44 04.05.2020
3778 Clouds 38 1010 13 10000 6.7 150 12:44 04.05.2020
3779 Clouds 36 1010 14 10000 7.2 180 11:27 04.05.2020
3780 Clouds 36 1010 14 10000 7.2 180 11:27 04.05.2020
3781 Clouds 36 1010 14 10000 7.2 180 11:27 04.05.2020
3782 Clouds 36 1010 14 10000 7.2 180 11:27 04.05.2020
3783 Clouds 36 1010 14 10000 7.2 180 11:27 04.05.2020
3784 Clouds 31 1011 25 10000 7.2 160 09:28 04.05.2020
3785 Clouds 31 1011 25 10000 7.2 160 09:28 04.05.2020
3786 Clouds 27 1011 30 10000 5.1 150 07:54 04.05.2020
3787 Clouds 27 1011 30 10000 5.1 150 07:34 04.05.2020
3788 Clouds 21 1009 46 10000 3.6 110 05:52 04.05.2020
3789 Clouds 20 1009 42 10000 3.6 120 04:52 04.05.2020
3790 Clouds 21 1009 40 9000 3.6 120 02:56 04.05.2020
3791 Clouds 23 1009 33 10000 2.1 110 01:44 04.05.2020
3792 Clouds 26 1009 29 10000 3.1 80 00:18 04.05.2020
3793 Clouds 26 1009 29 10000 2.6 60 23:44 03.05.2020
3794 Clouds 26 1009 29 10000 2.6 60 23:23 03.05.2020
3795 Clouds 26 1010 29 10000 2.6 60 22:44 03.05.2020
3796 Clouds 26 1010 29 10000 2.6 60 22:44 03.05.2020
3797 Clouds 26 1010 29 10000 2.6 60 22:44 03.05.2020
3798 Clouds 26 1010 29 10000 2.6 60 22:25 03.05.2020
3799 Clouds 24 1011 33 10000 2.1 30 21:56 03.05.2020
3800 Clouds 24 1011 33 10000 2.1 30 21:38 03.05.2020
3801 Clouds 24 1011 33 10000 2.1 30 21:20 03.05.2020
3802 Clouds 26 1010 29 10000 1.5 340 20:42 03.05.2020
3803 Clear 26 1010 29 10000 1.5 340 20:21 03.05.2020
3804 Clear 26 1010 24 10000 2.6 300 19:50 03.05.2020
3805 Clear 26 1010 24 10000 2.6 300 19:50 03.05.2020
3806 Clear 26 1010 24 10000 2.6 300 19:49 03.05.2020
3807 Clear 26 1010 24 10000 2.6 300 19:31 03.05.2020
3808 Clear 29 1009 16 0 2.44 341 18:58 03.05.2020
3809 Clear 32 1009 19 10000 3.6 290 18:38 03.05.2020
3810 Clear 32 1009 19 10000 3.6 290 18:38 03.05.2020
3811 Clear 32 1009 19 10000 3.6 290 18:38 03.05.2020
3812 Clear 32 1009 19 10000 3.6 290 18:38 03.05.2020
3813 Clear 32 1009 19 10000 3.6 290 18:38 03.05.2020
3814 Clear 32 1009 19 10000 3.6 290 18:19 03.05.2020
3815 Clear 32 1009 19 10000 3.6 290 17:41 03.05.2020
3816 Clear 32 1009 19 10000 3.6 290 17:21 03.05.2020
3817 Clear 32 1009 18 10000 2.1 0 16:46 03.05.2020
3818 Clear 32 1009 18 10000 2.1 0 16:21 03.05.2020
3819 Clear 33 1008 18 10000 3.1 260 15:59 03.05.2020
3820 Clear 33 1008 18 10000 3.1 260 15:40 03.05.2020
3821 Clear 33 1008 18 10000 3.1 260 15:20 03.05.2020
3822 Clear 33 1009 17 10000 2.6 180 14:58 03.05.2020
3823 Clear 33 1009 17 10000 2.6 180 14:40 03.05.2020
3824 Clear 33 1009 17 10000 2.6 180 14:21 03.05.2020
3825 Clear 32 1009 19 10000 3.6 260 13:54 03.05.2020
3826 Clear 32 1009 19 10000 3.6 260 13:21 03.05.2020
3827 Clear 32 1009 19 10000 3.6 260 13:21 03.05.2020
3828 Clear 32 1009 19 10000 3.6 260 13:21 03.05.2020
3829 Clear 32 1009 19 10000 3.6 260 13:21 03.05.2020
3830 Clear 32 1009 19 10000 3.6 260 13:21 03.05.2020
3831 Clear 32 1010 21 10000 3.6 210 12:45 03.05.2020
3832 Clear 32 1010 21 10000 3.6 210 12:18 03.05.2020
3833 Clouds 31 1010 22 10000 2.6 0 11:56 03.05.2020
3834 Clouds 31 1010 22 10000 2.6 0 11:37 03.05.2020
3835 Clouds 31 1010 22 10000 2.6 0 11:19 03.05.2020
3836 Clouds 31 1010 22 10000 2.6 0 11:19 03.05.2020
3837 Clear 31 1010 22 10000 1.5 0 10:46 03.05.2020
3838 Clear 31 1010 22 10000 1.5 0 10:46 03.05.2020
3839 Clear 31 1010 22 10000 1.5 0 10:46 03.05.2020
3840 Clear 31 1010 22 10000 1.5 0 10:46 03.05.2020
3841 Clear 31 1010 22 10000 2.1 0 09:58 03.05.2020
3842 Clear 31 1010 22 10000 2.1 0 09:58 03.05.2020
3843 Clear 30 1010 25 10000 3.1 350 09:36 03.05.2020
3844 Clear 29 1010 28 10000 4.6 360 08:56 03.05.2020
3845 Clear 29 1010 28 10000 4.6 360 08:56 03.05.2020
3846 Clear 29 1010 28 10000 4.6 360 08:56 03.05.2020
3847 Clear 29 1010 28 10000 4.6 360 08:26 03.05.2020
3848 Clear 29 1010 28 10000 4.6 360 08:26 03.05.2020
3849 Clear 29 1010 28 10000 4.6 360 08:26 03.05.2020
3850 Clear 26 1009 39 10000 1.5 350 07:40 03.05.2020
3851 Clear 26 1009 39 10000 1.5 350 07:40 03.05.2020
3852 Clear 23 1009 43 10000 1.5 320 06:20 03.05.2020
3853 Clear 19 1008 48 10000 2.6 310 05:47 03.05.2020
3854 Clear 19 1008 48 10000 2.6 300 04:56 03.05.2020
3855 Clear 19 1008 48 10000 2.6 300 04:26 03.05.2020
3856 Clear 19 1007 45 10000 2.1 350 02:59 03.05.2020
3857 Clouds 19 1007 45 10000 2.1 350 02:24 03.05.2020
3858 Clouds 20 1007 45 10000 2.6 340 01:45 03.05.2020
3859 Clouds 20 1007 45 10000 2.6 340 01:27 03.05.2020
3860 Clouds 20 1007 40 10000 1.5 320 00:55 03.05.2020
3861 Clouds 20 1007 40 10000 1.5 320 00:37 03.05.2020
3862 Clouds 20 1007 40 10000 1.5 320 00:37 03.05.2020
3863 Clouds 20 1007 40 10000 1.5 320 00:18 03.05.2020
3864 Clouds 22 1007 35 10000 0.5 320 23:43 02.05.2020
3865 Clouds 22 1007 35 10000 0.5 320 23:24 02.05.2020
3866 Clouds 24 1007 33 10000 3.32 323 22:43 02.05.2020
3867 Clear 24 1007 33 10000 3.52 310 22:24 02.05.2020
3868 Clear 24 1007 33 10000 3.52 310 22:24 02.05.2020
3869 Clear 23 1007 33 10000 0.5 0 21:56 02.05.2020
3870 Clear 23 1007 35 10000 1 330 21:38 02.05.2020
3871 Clear 25 1007 29 10000 2.6 300 21:19 02.05.2020
3872 Clear 25 1007 29 10000 2.6 300 20:57 02.05.2020
3873 Clear 25 1007 29 10000 2.6 300 20:37 02.05.2020
3874 Clear 25 1007 29 10000 2.6 300 20:19 02.05.2020
3875 Clear 27 1006 26 10000 3.6 260 19:57 02.05.2020
3876 Clear 27 1006 26 10000 3.6 260 19:38 02.05.2020
3877 Clear 27 1006 26 10000 3.6 260 19:18 02.05.2020
3878 Clear 29 1006 23 10000 5.1 250 18:41 02.05.2020
3879 Clear 29 1006 23 10000 5.1 250 18:23 02.05.2020
3880 Clear 31 1005 18 10000 6.7 250 17:58 02.05.2020
3881 Clear 31 1005 18 10000 6.7 250 17:39 02.05.2020
3882 Clear 31 1005 18 10000 6.7 250 17:20 02.05.2020
3883 Clear 32 1005 19 10000 6.2 260 16:58 02.05.2020
3884 Clear 32 1005 19 10000 6.2 260 16:39 02.05.2020
3885 Clear 32 1005 19 10000 6.2 260 16:21 02.05.2020
3886 Clouds 32 1005 22 10000 7.2 250 15:43 02.05.2020
3887 Clouds 32 1005 22 10000 7.2 250 15:20 02.05.2020
3888 Clouds 32 1006 25 10000 6.7 270 14:58 02.05.2020
3889 Clouds 32 1006 25 10000 6.7 270 14:39 02.05.2020
3890 Clouds 32 1006 25 10000 6.7 270 14:20 02.05.2020
3891 Clear 32 1006 24 10000 4.1 250 13:40 02.05.2020
3892 Clear 32 1006 24 10000 4.1 250 13:22 02.05.2020
3893 Clear 32 1006 25 10000 3.6 260 12:44 02.05.2020
3894 Clear 32 1006 25 10000 3.6 260 12:25 02.05.2020
3895 Clear 31 1007 29 10000 4.1 290 11:59 02.05.2020
3896 Clear 31 1007 29 10000 4.1 290 11:41 02.05.2020
3897 Clear 31 1007 29 10000 4.1 290 11:22 02.05.2020
3898 Clear 29 1008 35 10000 4.1 300 10:58 02.05.2020
3899 Clear 29 1008 35 10000 4.1 300 10:38 02.05.2020
3900 Clear 29 1008 35 10000 4.1 300 10:20 02.05.2020
3901 Clear 29 1008 35 10000 4.1 300 10:20 02.05.2020
3902 Clear 28 1008 39 10000 5.7 290 09:57 02.05.2020
3903 Clear 28 1008 39 10000 5.7 290 09:38 02.05.2020
3904 Clear 28 1008 39 10000 5.7 290 09:20 02.05.2020
3905 Clear 28 1008 39 10000 5.7 290 09:20 02.05.2020
3906 Clear 26 1008 47 10000 5.7 310 08:49 02.05.2020
3907 Clear 26 1008 47 10000 5.7 310 08:30 02.05.2020
3908 Clouds 23 1008 53 10000 6.7 290 07:48 02.05.2020
3909 Clouds 23 1008 53 10000 6.7 290 07:29 02.05.2020
3910 Clouds 21 1007 56 10000 4.1 270 06:52 02.05.2020
3911 Clouds 18 1006 55 10000 1 110 05:30 02.05.2020
3912 Clouds 19 1006 55 10000 3.03 358 04:59 02.05.2020
3913 Clouds 19 1006 55 10000 2.86 343 04:25 02.05.2020
3914 Clouds 20 1006 52 10000 1.5 210 03:18 02.05.2020
3915 Clouds 20 1005 52 10000 1.5 170 02:37 02.05.2020
3916 Clouds 21 1006 46 10000 1.5 260 01:51 02.05.2020
3917 Clouds 24 1006 41 10000 2.1 280 00:58 02.05.2020
3918 Clouds 24 1006 41 10000 2.1 280 00:36 02.05.2020
3919 Clouds 24 1006 41 10000 2.1 280 00:18 02.05.2020
3920 Clouds 27 1006 30 10000 4.1 200 23:39 01.05.2020
3921 Clouds 27 1006 30 10000 4.1 200 23:20 01.05.2020
3922 Clouds 27 1005 30 10000 5.1 170 22:57 01.05.2020
3923 Clouds 27 1005 30 10000 5.1 170 22:38 01.05.2020
3924 Clouds 27 1005 30 10000 5.1 170 22:18 01.05.2020
3925 Clouds 28 1005 30 10000 4.1 240 21:57 01.05.2020
3926 Clouds 28 1005 28 10000 3.6 150 21:38 01.05.2020
3927 Clouds 28 1005 28 10000 3.6 150 21:38 01.05.2020
3928 Clear 28 1005 28 10000 3.6 150 21:18 01.05.2020
3929 Clear 28 1005 28 10000 3.6 150 21:18 01.05.2020
3930 Clouds 29 1005 25 10000 5.7 150 20:56 01.05.2020
3931 Clouds 29 1005 25 10000 5.7 150 20:37 01.05.2020
3932 Clouds 29 1005 25 10000 5.7 150 20:18 01.05.2020
3933 Clouds 29 1005 26 10000 4.6 140 19:42 01.05.2020
3934 Clouds 29 1005 26 10000 4.6 140 19:42 01.05.2020
3935 Clouds 29 1005 26 10000 4.6 140 19:22 01.05.2020
3936 Clouds 31 1005 25 10000 4.1 130 18:58 01.05.2020
3937 Clouds 31 1005 25 10000 4.1 130 18:39 01.05.2020
3938 Clouds 31 1005 25 10000 4.1 130 18:20 01.05.2020
3939 Clouds 33 1005 21 10000 7.7 150 17:57 01.05.2020
3940 Clouds 33 1005 21 10000 7.7 150 17:38 01.05.2020
3941 Clouds 33 1005 21 10000 7.7 150 17:20 01.05.2020
3942 Clouds 35 1005 19 10000 5.7 150 16:55 01.05.2020
3943 Clouds 35 1005 19 10000 5.7 150 16:55 01.05.2020
3944 Clouds 35 1005 19 10000 5.7 150 16:37 01.05.2020
3945 Clouds 35 1005 19 10000 5.7 150 16:19 01.05.2020
3946 Clouds 35 1006 20 10000 5.7 150 15:55 01.05.2020
3947 Clouds 35 1006 20 10000 5.7 150 15:36 01.05.2020
3948 Clouds 35 1006 20 10000 5.7 150 15:18 01.05.2020
3949 Clouds 34 1007 20 10000 5.1 170 14:41 01.05.2020
3950 Clouds 34 1007 20 10000 5.1 170 14:23 01.05.2020
3951 Clouds 34 1008 20 10000 6.2 170 13:41 01.05.2020
3952 Clouds 34 1008 20 10000 6.2 170 13:23 01.05.2020
3953 Clouds 34 1009 20 10000 5.1 140 12:58 01.05.2020
3954 Clouds 34 1009 20 10000 5.1 140 12:40 01.05.2020
3955 Clouds 34 1009 20 10000 5.1 140 12:20 01.05.2020
3956 Clouds 33 1010 19 10000 4.6 170 11:59 01.05.2020
3957 Clouds 33 1010 19 10000 4.6 170 11:40 01.05.2020
3958 Clouds 33 1010 19 10000 4.6 170 11:19 01.05.2020
3959 Clouds 32 1010 22 10000 3.6 150 10:41 01.05.2020
3960 Clouds 32 1010 22 10000 3.6 150 10:41 01.05.2020
3961 Clouds 32 1010 22 10000 3.6 150 10:20 01.05.2020
3962 Clouds 31 1010 22 10000 3.6 170 09:59 01.05.2020
3963 Clouds 31 1010 22 10000 3.6 170 09:41 01.05.2020
3964 Clouds 31 1010 22 10000 3.6 170 09:18 01.05.2020
3965 Clouds 31 1010 22 10000 3.6 170 09:18 01.05.2020
3966 Clouds 29 1011 30 10000 4.1 150 08:43 01.05.2020
3967 Clear 29 1011 30 10000 4.1 150 08:25 01.05.2020
3968 Clear 28 1010 32 10000 3.1 100 07:55 01.05.2020
3969 Clear 28 1010 32 10000 3.1 100 07:37 01.05.2020
3970 Clear 24 1010 41 8000 1 130 06:58 01.05.2020
3971 Clear 26 1010 30 0 2.85 80 05:48 01.05.2020
3972 Clear 18 1009 55 10000 0.5 200 05:20 01.05.2020
3973 Clear 19 1009 48 10000 1.5 160 03:43 01.05.2020
3974 Clear 20 1009 45 10000 0.5 0 02:52 01.05.2020
3975 Clear 20 1009 45 10000 0.5 0 02:34 01.05.2020
3976 Clouds 24 1009 28 0 3.32 38 01:47 01.05.2020
3977 Clouds 22 1010 40 10000 2.75 31 01:26 01.05.2020
3978 Clouds 22 1010 40 10000 2.75 31 00:40 01.05.2020
3979 Clouds 22 1010 40 10000 3 27 00:20 01.05.2020
3980 Clouds 23 1010 43 10000 0.5 0 23:57 30.04.2020
3981 Clouds 23 1010 43 10000 0.5 0 23:38 30.04.2020
3982 Clouds 23 1010 43 10000 0.5 0 23:38 30.04.2020
3983 Clouds 23 1010 43 10000 0.5 0 23:20 30.04.2020
3984 Clouds 23 1010 46 10000 1.5 350 22:55 30.04.2020
3985 Clouds 23 1010 46 10000 1.5 350 22:37 30.04.2020
3986 Clouds 23 1010 46 10000 1.5 350 22:18 30.04.2020
3987 Clouds 24 1010 41 10000 2.1 350 21:41 30.04.2020
3988 Clouds 24 1010 41 10000 2.1 350 21:21 30.04.2020
3989 Clouds 25 1010 38 10000 3.1 340 20:58 30.04.2020
3990 Clouds 25 1010 38 10000 3.1 340 20:39 30.04.2020
3991 Clear 25 1010 38 10000 3.1 340 20:18 30.04.2020
3992 Clear 25 1010 38 10000 3.1 340 20:18 30.04.2020
3993 Clear 25 1010 38 10000 3.1 340 20:18 30.04.2020
3994 Clear 27 1010 30 10000 2.6 300 19:46 30.04.2020
3995 Clear 27 1010 30 10000 2.6 300 19:26 30.04.2020
3996 Clear 27 1010 30 10000 2.6 300 19:26 30.04.2020
3997 Clear 28 1009 19 0 3.56 309 18:57 30.04.2020
3998 Clear 28 1009 19 0 3.56 309 18:39 30.04.2020
3999 Clouds 31 1008 25 10000 3.1 320 18:21 30.04.2020
4000 Clouds 31 1008 25 10000 3.1 320 17:57 30.04.2020
4001 Clouds 31 1008 25 10000 3.1 320 17:39 30.04.2020
4002 Clouds 31 1008 25 10000 3.1 320 17:39 30.04.2020
4003 Clear 31 1008 25 10000 3.1 320 17:20 30.04.2020
4004 Clouds 31 1008 25 10000 2.1 0 16:56 30.04.2020
4005 Clouds 31 1008 25 10000 2.1 0 16:38 30.04.2020
4006 Clouds 31 1008 25 10000 2.1 0 16:18 30.04.2020
4007 Clouds 32 1008 25 10000 2.6 0 15:45 30.04.2020
4008 Clouds 32 1008 25 10000 2.6 0 15:24 30.04.2020
4009 Clouds 31 1009 27 10000 2.6 340 14:56 30.04.2020
4010 Clouds 31 1009 27 10000 2.6 340 14:38 30.04.2020
4011 Clear 32 1008 14 0 6.13 308 14:18 30.04.2020
4012 Clear 32 1008 14 0 6.13 308 13:54 30.04.2020
4013 Clear 32 1008 14 0 6.13 308 13:36 30.04.2020
4014 Clear 32 1008 14 0 6.13 308 13:36 30.04.2020
4015 Clear 32 1009 14 0 5.63 310 13:18 30.04.2020
4016 Clear 32 1009 14 0 5.63 310 12:41 30.04.2020
4017 Clear 29 1010 32 10000 3.6 280 12:19 30.04.2020
4018 Clear 29 1010 32 10000 3.6 280 11:57 30.04.2020
4019 Clear 29 1010 32 10000 3.6 280 11:36 30.04.2020
4020 Clear 29 1010 32 10000 3.6 280 11:18 30.04.2020
4021 Clear 31 1010 18 0 4.03 310 10:41 30.04.2020
4022 Clear 28 1011 34 10000 4.1 280 10:21 30.04.2020
4023 Clear 28 1011 34 10000 4.1 280 09:57 30.04.2020
4024 Clear 28 1011 34 10000 4.1 280 09:39 30.04.2020
4025 Clear 28 1011 34 10000 4.1 280 09:20 30.04.2020
4026 Clear 27 1010 34 10000 2.6 230 08:47 30.04.2020
4027 Clear 27 1010 34 10000 2.6 230 08:26 30.04.2020
4028 Clear 26 1010 39 10000 1 0 07:48 30.04.2020
4029 Clear 24 1010 47 10000 2.1 80 07:26 30.04.2020
4030 Clouds 21 1010 52 10000 0.5 0 06:59 30.04.2020
4031 Clouds 21 1010 52 10000 0.5 0 06:59 30.04.2020
4032 Clouds 21 1010 52 10000 0.5 0 06:32 30.04.2020
4033 Clouds 17 1010 63 10000 1.5 330 05:47 30.04.2020
4034 Clear 16 1010 67 10000 2.1 360 04:46 30.04.2020
4035 Clear 16 1010 67 10000 2.1 360 04:24 30.04.2020
4036 Clear 17 1010 63 10000 2.6 310 02:50 30.04.2020
4037 Clouds 17 1010 63 10000 2.6 310 02:28 30.04.2020
4038 Clouds 19 1010 59 10000 2.6 340 01:37 30.04.2020
4039 Clouds 18 1011 63 10000 4.6 340 00:53 30.04.2020
4040 Clouds 18 1011 63 10000 4.6 340 00:24 30.04.2020
4041 Clouds 19 1010 68 10000 1.5 70 23:58 29.04.2020
4042 Clouds 19 1010 68 10000 1.5 70 23:40 29.04.2020
4043 Clouds 19 1010 68 10000 1.5 70 23:22 29.04.2020
4044 Clouds 20 1010 56 10000 2.1 140 22:58 29.04.2020
4045 Clouds 20 1010 56 10000 2.1 140 22:38 29.04.2020
4046 Clouds 20 1010 56 10000 2.1 140 22:18 29.04.2020
4047 Clouds 19 1009 63 10000 3.1 110 21:38 29.04.2020
4048 Clouds 19 1009 63 10000 3.1 110 21:20 29.04.2020
4049 Clouds 20 1009 56 10000 3.1 110 20:58 29.04.2020
4050 Clouds 20 1009 56 10000 3.1 110 20:58 29.04.2020
4051 Clouds 20 1009 56 10000 3.1 110 20:39 29.04.2020
4052 Clouds 20 1009 56 10000 3.1 110 20:19 29.04.2020
4053 Clouds 21 1009 52 10000 3.6 110 19:54 29.04.2020
4054 Clouds 21 1009 52 10000 3.6 110 19:36 29.04.2020
4055 Clouds 21 1009 52 10000 3.6 110 19:18 29.04.2020
4056 Clouds 23 1008 46 10000 5.7 130 18:41 29.04.2020
4057 Clouds 23 1008 46 10000 5.7 130 18:20 29.04.2020
4058 Clouds 25 1008 44 10000 7.2 140 17:55 29.04.2020
4059 Clouds 25 1008 44 10000 7.2 140 17:55 29.04.2020
4060 Clouds 25 1008 44 10000 7.2 140 17:37 29.04.2020
4061 Clouds 27 1008 42 10000 9.8 140 17:18 29.04.2020
4062 Clouds 27 1008 42 10000 9.8 140 16:37 29.04.2020
4063 Clouds 27 1008 42 10000 9.8 140 16:18 29.04.2020
4064 Clouds 26 1008 39 10000 10.3 150 15:56 29.04.2020
4065 Rain 28 1008 28 10000 5.7 190 15:37 29.04.2020
4066 Rain 28 1008 28 10000 5.7 190 15:19 29.04.2020
4067 Rain 28 1008 28 10000 5.7 190 14:45 29.04.2020
4068 Rain 28 1008 28 10000 5.7 190 14:26 29.04.2020
4069 Clouds 28 1009 28 10000 6.7 220 13:58 29.04.2020
4070 Clouds 28 1009 28 10000 6.7 220 13:39 29.04.2020
4071 Clouds 28 1009 28 10000 6.7 220 13:19 29.04.2020
4072 Clouds 31 1008 17 0 4.77 222 12:56 29.04.2020
4073 Clouds 29 1009 30 10000 6.7 170 12:37 29.04.2020
4074 Clouds 29 1009 30 10000 6.7 170 12:18 29.04.2020
4075 Clouds 29 1009 30 10000 6.7 170 11:39 29.04.2020
4076 Clouds 29 1009 30 10000 6.7 170 11:39 29.04.2020
4077 Clouds 29 1009 30 10000 6.7 170 11:20 29.04.2020
4078 Clouds 28 1009 32 10000 7.7 170 10:55 29.04.2020
4079 Clouds 28 1009 32 10000 7.7 170 10:37 29.04.2020
4080 Clouds 26 1008 36 10000 5.7 140 10:18 29.04.2020
4081 Clouds 26 1008 36 10000 5.7 140 09:41 29.04.2020
4082 Clouds 26 1008 36 10000 5.7 140 09:41 29.04.2020
4083 Clouds 26 1008 36 10000 5.7 140 09:21 29.04.2020
4084 Clouds 25 1008 38 10000 5.7 110 08:44 29.04.2020
4085 Clouds 25 1008 38 10000 5.7 110 08:26 29.04.2020
4086 Clouds 23 1008 43 10000 2.1 70 07:56 29.04.2020
4087 Clouds 23 1008 43 10000 2.1 70 07:37 29.04.2020
4088 Clouds 23 1008 43 10000 2.1 70 07:18 29.04.2020
4089 Clouds 21 1007 46 10000 2.1 100 06:45 29.04.2020
4090 Clouds 21 1007 46 10000 2.1 100 06:26 29.04.2020
4091 Clouds 19 1007 48 10000 4.1 110 05:20 29.04.2020
4092 Clouds 17 1007 48 10000 2.1 150 04:20 29.04.2020
4093 Clouds 19 1007 45 10000 4.1 140 03:54 29.04.2020
4094 Clouds 20 1006 42 10000 1 0 02:32 29.04.2020
4095 Clouds 22 1007 37 10000 2.6 90 01:44 29.04.2020
4096 Clouds 22 1007 37 10000 2.6 90 01:20 29.04.2020
4097 Clouds 23 1007 33 10000 3.1 50 00:39 29.04.2020
4098 Clouds 23 1007 33 10000 3.1 50 00:18 29.04.2020
4099 Clouds 24 1007 31 10000 2.1 40 23:47 28.04.2020
4100 Clouds 24 1007 31 10000 2.1 40 23:23 28.04.2020
4101 Clouds 25 1007 29 10000 3.1 40 22:40 28.04.2020
4102 Clouds 25 1007 29 10000 3.1 40 22:22 28.04.2020
4103 Clouds 26 1007 27 10000 3.6 60 21:59 28.04.2020
4104 Clouds 26 1007 27 10000 3.6 60 21:41 28.04.2020
4105 Clear 26 1007 27 10000 3.6 60 21:23 28.04.2020
4106 Clear 28 1007 24 10000 5.7 70 20:59 28.04.2020
4107 Clear 28 1007 24 10000 5.7 70 20:59 28.04.2020
4108 Clear 28 1007 24 10000 5.7 70 20:40 28.04.2020
4109 Clouds 28 1007 24 10000 5.7 70 20:21 28.04.2020
4110 Clouds 28 1007 24 10000 6.2 80 19:58 28.04.2020
4111 Clouds 28 1007 24 10000 6.2 80 19:40 28.04.2020
4112 Clouds 28 1007 24 10000 6.2 80 19:21 28.04.2020
4113 Clouds 29 1007 25 10000 6.7 90 18:57 28.04.2020
4114 Clouds 29 1007 25 10000 6.7 90 18:38 28.04.2020
4115 Clouds 29 1007 25 10000 6.7 90 18:19 28.04.2020
4116 Clouds 30 1007 23 10000 7.2 100 17:38 28.04.2020
4117 Clouds 30 1007 23 10000 7.2 100 17:20 28.04.2020
4118 Clouds 32 1006 12 0 5.63 92 16:58 28.04.2020
4119 Clouds 32 1006 12 0 5.63 92 16:40 28.04.2020
4120 Clouds 32 1007 22 10000 7.2 100 16:22 28.04.2020
4121 Clouds 32 1007 22 10000 7.2 100 15:56 28.04.2020
4122 Clouds 32 1007 22 10000 7.2 100 15:38 28.04.2020
4123 Clouds 32 1007 22 10000 7.2 100 15:20 28.04.2020
4124 Clouds 31 1008 20 10000 7.7 100 14:56 28.04.2020
4125 Clouds 31 1008 20 10000 7.7 100 14:56 28.04.2020
4126 Clouds 31 1008 20 10000 7.7 100 14:38 28.04.2020
4127 Clouds 31 1008 20 10000 7.7 100 14:19 28.04.2020
4128 Clouds 31 1008 20 10000 8.7 100 13:56 28.04.2020
4129 Clouds 31 1008 20 10000 8.7 100 13:37 28.04.2020
4130 Clouds 31 1008 20 10000 8.7 100 13:19 28.04.2020
4131 Clouds 31 1009 20 10000 7.2 110 12:43 28.04.2020
4132 Clouds 31 1009 20 10000 7.2 110 12:23 28.04.2020
4133 Clouds 30 1010 23 10000 6.7 100 11:43 28.04.2020
4134 Clouds 30 1010 23 10000 6.7 100 11:24 28.04.2020
4135 Clouds 29 1011 21 10000 5.7 80 10:59 28.04.2020
4136 Clouds 29 1011 21 10000 5.7 80 10:38 28.04.2020
4137 Clouds 29 1011 21 10000 5.7 80 10:19 28.04.2020
4138 Clouds 29 1011 23 10000 6.7 70 09:55 28.04.2020
4139 Clouds 29 1011 23 10000 6.7 70 09:37 28.04.2020
4140 Clouds 29 1011 23 10000 6.7 70 09:19 28.04.2020
4141 Clouds 26 1012 27 10000 5.1 50 08:45 28.04.2020
4142 Clouds 26 1012 27 10000 5.1 50 08:26 28.04.2020
4143 Clouds 25 1012 29 10000 2.6 30 07:44 28.04.2020
4144 Clouds 25 1012 29 10000 2.6 30 07:44 28.04.2020
4145 Clouds 25 1012 29 10000 2.6 30 07:19 28.04.2020
4146 Clouds 25 1011 25 10000 3.1 0 06:44 28.04.2020
4147 Clouds 23 1010 31 10000 3.1 70 05:57 28.04.2020
4148 Clouds 23 1010 31 10000 3.1 70 05:38 28.04.2020
4149 Clouds 23 1009 28 10000 3.6 80 04:39 28.04.2020
4150 Clouds 22 1009 26 10000 3.1 90 02:59 28.04.2020
4151 Clouds 22 1009 26 10000 3.1 90 02:25 28.04.2020
4152 Clouds 22 1009 28 10000 3.1 80 01:23 28.04.2020
4153 Clouds 22 1010 30 10000 3.1 90 00:49 28.04.2020
4154 Clouds 22 1010 30 10000 3.1 90 00:20 28.04.2020
4155 Clouds 21 1010 35 10000 2.6 60 23:43 27.04.2020
4156 Clouds 21 1010 35 10000 2.6 60 23:22 27.04.2020
4157 Clouds 21 1011 35 10000 3.1 110 22:55 27.04.2020
4158 Clouds 21 1011 35 10000 3.1 110 22:55 27.04.2020
4159 Clouds 21 1011 35 10000 3.1 110 22:37 27.04.2020
4160 Clouds 21 1011 35 10000 3.1 110 22:18 27.04.2020
4161 Clouds 22 1011 30 10000 2.6 100 21:54 27.04.2020
4162 Clouds 22 1011 30 10000 2.6 100 21:36 27.04.2020
4163 Clear 22 1011 30 10000 2.6 100 21:18 27.04.2020
4164 Clear 24 1011 29 10000 1.5 40 20:42 27.04.2020
4165 Clouds 24 1011 29 10000 1.5 40 20:21 27.04.2020
4166 Clouds 24 1011 27 10000 2.6 360 19:57 27.04.2020
4167 Clouds 24 1011 27 10000 2.6 360 19:38 27.04.2020
4168 Clouds 24 1011 27 10000 2.6 360 19:19 27.04.2020
4169 Clouds 26 1011 22 10000 2.1 360 18:56 27.04.2020
4170 Clouds 26 1011 22 10000 2.1 360 18:37 27.04.2020
4171 Clear 26 1011 22 10000 2.1 360 18:18 27.04.2020
4172 Clouds 28 1010 18 10000 3.1 330 17:43 27.04.2020
4173 Clouds 28 1010 18 10000 3.1 330 17:21 27.04.2020
4174 Clouds 29 1011 18 10000 3.1 240 16:56 27.04.2020
4175 Clouds 29 1011 18 10000 3.1 240 16:38 27.04.2020
4176 Clouds 29 1011 18 10000 3.1 240 16:20 27.04.2020
4177 Clouds 29 1011 17 10000 3.1 270 15:56 27.04.2020
4178 Clouds 29 1011 17 10000 3.1 270 15:37 27.04.2020
4179 Clouds 29 1011 21 10000 2.1 240 15:18 27.04.2020
4180 Clouds 29 1011 21 10000 2.1 240 14:41 27.04.2020
4181 Clouds 29 1011 21 10000 2.1 240 14:20 27.04.2020
4182 Clouds 28 1012 24 10000 4.1 310 13:58 27.04.2020
4183 Clouds 28 1012 24 10000 4.1 310 13:39 27.04.2020
4184 Clouds 28 1012 24 10000 4.1 310 13:19 27.04.2020
4185 Clouds 28 1012 26 10000 2.6 0 12:43 27.04.2020
4186 Clouds 28 1012 26 10000 2.6 0 12:23 27.04.2020
4187 Clouds 28 1012 26 10000 1 0 11:59 27.04.2020
4188 Clouds 28 1012 26 10000 1 0 11:40 27.04.2020
4189 Clouds 28 1012 26 10000 1 0 11:19 27.04.2020
4190 Clouds 27 1013 30 10000 3.1 280 10:54 27.04.2020
4191 Clouds 27 1013 30 10000 3.1 280 10:36 27.04.2020
4192 Clear 26 1013 34 10000 3.1 300 10:18 27.04.2020
4193 Clear 26 1013 34 10000 3.1 300 09:42 27.04.2020
4194 Clouds 26 1013 34 10000 3.1 300 09:18 27.04.2020
4195 Clouds 24 1013 44 10000 3.1 300 08:53 27.04.2020
4196 Clouds 24 1013 44 10000 3.1 300 08:33 27.04.2020
4197 Clouds 22 1012 53 10000 4.1 320 07:55 27.04.2020
4198 Clouds 22 1012 53 10000 4.1 320 07:36 27.04.2020
4199 Clouds 22 1012 53 10000 4.1 320 07:18 27.04.2020
4200 Clouds 20 1012 49 10000 4.1 290 06:39 27.04.2020
4201 Clouds 20 1012 49 10000 4.1 290 06:19 27.04.2020
4202 Clouds 16 1011 63 10000 1.5 300 05:48 27.04.2020
4203 Clouds 17 1011 55 10000 2.6 260 04:40 27.04.2020
4204 Clouds 16 1010 59 10000 1 290 03:49 27.04.2020
4205 Clear 17 1010 55 10000 1.5 210 02:40 27.04.2020
4206 Clear 18 1010 48 10000 1.5 200 01:22 27.04.2020
4207 Clear 18 1010 48 10000 0.5 260 00:46 27.04.2020
4208 Clear 18 1010 48 10000 0.5 260 00:19 27.04.2020
4209 Clear 19 1010 45 10000 1.5 200 23:55 26.04.2020
4210 Clear 19 1010 45 10000 1.5 200 23:37 26.04.2020
4211 Clear 19 1010 45 10000 1.5 200 23:18 26.04.2020
4212 Clear 20 1010 40 10000 1.5 270 22:55 26.04.2020
4213 Clear 20 1010 40 10000 1.5 270 22:37 26.04.2020
4214 Clear 20 1010 40 10000 1.5 270 22:18 26.04.2020
4215 Clear 20 1009 42 10000 2.1 310 21:56 26.04.2020
4216 Clear 20 1009 42 10000 2.1 310 21:37 26.04.2020
4217 Clear 20 1009 42 10000 2.1 310 21:18 26.04.2020
4218 Clouds 22 1009 37 10000 2.1 320 20:39 26.04.2020
4219 Clouds 22 1009 37 10000 2.1 320 20:20 26.04.2020
4220 Clouds 23 1008 35 10000 3.1 320 19:59 26.04.2020
4221 Clouds 23 1008 35 10000 3.1 320 19:38 26.04.2020
4222 Clouds 23 1008 35 10000 3.1 320 19:19 26.04.2020
4223 Clouds 24 1007 33 10000 4.1 320 18:45 26.04.2020
4224 Clouds 24 1007 33 10000 4.1 320 18:25 26.04.2020
4225 Clouds 26 1007 29 10000 6.2 290 17:58 26.04.2020
4226 Clouds 26 1007 29 10000 6.2 290 17:39 26.04.2020
4227 Clouds 26 1007 29 10000 6.2 290 17:21 26.04.2020
4228 Clouds 27 1006 24 10000 5.7 250 16:42 26.04.2020
4229 Clouds 27 1006 24 10000 5.7 250 16:24 26.04.2020
4230 Clouds 27 1006 24 10000 6.2 250 15:59 26.04.2020
4231 Clouds 27 1006 24 10000 6.2 250 15:41 26.04.2020
4232 Clouds 27 1006 24 10000 6.2 250 15:21 26.04.2020
4233 Clouds 28 1006 26 10000 6.7 250 14:57 26.04.2020
4234 Clouds 28 1006 26 10000 6.7 250 14:38 26.04.2020
4235 Clouds 28 1006 26 10000 6.7 250 14:18 26.04.2020
4236 Clear 27 1006 28 10000 6.2 250 13:55 26.04.2020
4237 Clouds 27 1007 32 10000 5.7 250 13:37 26.04.2020
4238 Clouds 27 1007 32 10000 5.7 250 13:18 26.04.2020
4239 Clouds 26 1007 34 10000 7.2 280 12:40 26.04.2020
4240 Clouds 26 1007 34 10000 7.2 280 12:21 26.04.2020
4241 Clouds 25 1007 38 10000 7.7 290 11:59 26.04.2020
4242 Clouds 25 1007 38 10000 7.7 290 11:40 26.04.2020
4243 Clouds 25 1007 38 10000 7.7 290 11:22 26.04.2020
4244 Clouds 25 1008 38 10000 8.2 290 10:56 26.04.2020
4245 Clouds 25 1008 38 10000 8.2 290 10:56 26.04.2020
4246 Clouds 25 1008 38 10000 8.2 290 10:38 26.04.2020
4247 Clouds 25 1008 38 10000 8.2 290 10:20 26.04.2020
4248 Clouds 24 1008 41 10000 9.3 290 09:41 26.04.2020
4249 Clouds 24 1008 41 10000 9.3 290 09:22 26.04.2020
4250 Clouds 22 1008 49 10000 10.3 300 08:59 26.04.2020
4251 Clouds 22 1008 49 10000 10.3 300 08:40 26.04.2020
4252 Clouds 22 1008 49 10000 10.3 300 08:20 26.04.2020
4253 Clouds 21 1007 60 10000 8.2 290 07:47 26.04.2020
4254 Clouds 21 1007 60 10000 8.2 290 07:21 26.04.2020
4255 Clouds 20 1006 64 10000 6.7 290 06:45 26.04.2020
4256 Clouds 19 1005 59 10000 5.7 300 05:59 26.04.2020
4257 Clouds 19 1005 59 10000 5.7 300 05:41 26.04.2020
4258 Clouds 19 1005 59 10000 5.7 300 05:22 26.04.2020
4259 Clouds 18 1005 63 10000 5.7 310 04:23 26.04.2020
4260 Clouds 20 1004 56 10000 6.7 310 02:53 26.04.2020
4261 Clouds 20 1004 56 10000 6.7 310 02:32 26.04.2020
4262 Clear 20 1003 49 10000 3.6 310 01:51 26.04.2020
4263 Clear 20 1003 49 10000 3.6 310 01:27 26.04.2020
4264 Clear 23 1003 43 10000 4.6 350 00:40 26.04.2020
4265 Clear 23 1003 43 10000 4.6 350 00:19 26.04.2020
4266 Clear 24 1002 38 10000 4.6 350 23:39 25.04.2020
4267 Clear 24 1002 38 10000 4.6 350 23:21 25.04.2020
4268 Clear 25 1002 38 10000 4.6 350 22:58 25.04.2020
4269 Clear 25 1002 38 10000 4.6 350 22:40 25.04.2020
4270 Clear 25 1002 38 10000 4.6 350 22:19 25.04.2020
4271 Clear 25 1002 38 10000 3.6 330 21:54 25.04.2020
4272 Clear 25 1002 38 10000 3.6 330 21:36 25.04.2020
4273 Clouds 25 1002 38 10000 3.6 330 21:18 25.04.2020
4274 Clouds 26 1001 34 10000 5.1 330 20:42 25.04.2020
4275 Clouds 26 1001 34 10000 5.1 330 20:22 25.04.2020
4276 Clouds 27 1001 34 10000 6.7 310 19:55 25.04.2020
4277 Clouds 27 1001 34 10000 6.7 310 19:37 25.04.2020
4278 Clouds 27 1001 34 10000 6.7 310 19:19 25.04.2020
4279 Clouds 30 1000 23 10000 5.7 280 18:41 25.04.2020
4280 Clouds 30 1000 23 10000 5.7 280 18:21 25.04.2020
4281 Clouds 31 999 22 10000 6.2 260 17:58 25.04.2020
4282 Clouds 31 999 22 10000 6.2 260 17:39 25.04.2020
4283 Clouds 31 999 22 10000 6.2 260 17:20 25.04.2020
4284 Clouds 34 999 20 9000 7.7 270 16:57 25.04.2020
4285 Clouds 34 999 20 9000 7.7 270 16:38 25.04.2020
4286 Clouds 34 999 20 9000 7.7 270 16:19 25.04.2020
4287 Clouds 35 999 16 7000 7.7 250 15:42 25.04.2020
4288 Clear 35 999 16 7000 7.7 250 15:21 25.04.2020
4289 Clear 35 999 14 5000 9.3 230 14:58 25.04.2020
4290 Clear 35 999 14 5000 9.3 230 14:39 25.04.2020
4291 Clear 35 999 14 5000 9.3 230 14:20 25.04.2020
4292 Dust 35 999 14 3200 8.2 230 13:55 25.04.2020
4293 Dust 35 999 14 3200 8.2 230 13:37 25.04.2020
4294 Dust 35 999 14 3200 8.2 230 13:18 25.04.2020
4295 Clear 33 1000 21 6000 4.6 180 12:54 25.04.2020
4296 Clear 33 1000 21 6000 4.6 180 12:36 25.04.2020
4297 Clear 33 1000 21 6000 4.6 180 12:18 25.04.2020
4298 Clear 32 1000 24 10000 6.2 160 11:41 25.04.2020
4299 Clear 32 1000 24 10000 6.2 160 11:23 25.04.2020
4300 Clear 31 1001 25 10000 6.7 160 10:55 25.04.2020
4301 Clear 31 1001 25 10000 6.7 160 10:37 25.04.2020
4302 Clear 31 1001 25 10000 6.7 160 10:18 25.04.2020
4303 Clear 30 1001 25 10000 6.2 150 09:41 25.04.2020
4304 Clear 30 1001 25 10000 6.2 150 09:21 25.04.2020
4305 Clear 28 1002 28 10000 6.7 180 08:55 25.04.2020
4306 Clear 28 1002 28 10000 6.7 180 08:36 25.04.2020
4307 Clear 28 1002 28 10000 6.7 180 08:18 25.04.2020
4308 Clear 26 1002 34 10000 6.2 180 07:42 25.04.2020
4309 Clear 26 1002 34 10000 6.2 180 07:19 25.04.2020
4310 Clear 25 1002 36 10000 4.6 190 06:42 25.04.2020
4311 Clouds 23 1001 40 10000 5.1 150 05:44 25.04.2020
4312 Clouds 23 1001 40 10000 5.1 150 05:26 25.04.2020
4313 Clouds 23 1000 40 10000 5.7 120 04:20 25.04.2020
4314 Clouds 26 1001 34 10000 5.1 80 02:38 25.04.2020
4315 Clouds 26 1001 34 10000 5.1 80 02:18 25.04.2020
4316 Clouds 26 1001 31 10000 6.7 90 01:45 25.04.2020
4317 Clouds 26 1001 31 10000 6.7 90 01:19 25.04.2020
4318 Clouds 26 1002 34 10000 5.1 90 00:46 25.04.2020
4319 Clouds 26 1002 34 10000 5.1 90 00:28 25.04.2020
4320 Clouds 24 1003 38 10000 3.6 110 23:42 24.04.2020
4321 Clouds 24 1003 38 10000 3.6 110 23:21 24.04.2020
4322 Clouds 27 1004 34 10000 4.1 80 22:41 24.04.2020
4323 Clouds 27 1004 34 10000 4.1 80 22:21 24.04.2020
4324 Clouds 26 1005 34 10000 4.6 100 21:59 24.04.2020
4325 Clouds 26 1005 34 10000 4.6 100 21:59 24.04.2020
4326 Clouds 26 1005 34 10000 4.6 100 21:41 24.04.2020
4327 Clouds 26 1005 34 10000 4.6 100 21:23 24.04.2020
4328 Clouds 27 1006 30 10000 2.6 100 20:59 24.04.2020
4329 Clouds 27 1006 30 10000 2.6 100 20:59 24.04.2020
4330 Clouds 27 1006 30 10000 2.6 100 20:40 24.04.2020
4331 Clouds 27 1006 30 10000 2.6 100 20:19 24.04.2020
4332 Clouds 27 1006 30 10000 2.1 30 19:57 24.04.2020
4333 Clouds 27 1006 30 10000 2.1 30 19:38 24.04.2020
4334 Clouds 27 1006 30 10000 2.1 30 19:20 24.04.2020
4335 Clouds 28 1006 30 10000 2.1 330 18:40 24.04.2020
4336 Clouds 28 1006 30 10000 2.1 330 18:22 24.04.2020
4337 Clouds 30 1006 23 10000 1.5 240 17:44 24.04.2020
4338 Clouds 30 1006 23 10000 1.5 240 17:25 24.04.2020
4339 Clouds 31 1006 23 10000 2.6 260 16:59 24.04.2020
4340 Clouds 31 1006 23 10000 2.6 260 16:41 24.04.2020
4341 Clouds 31 1006 23 10000 2.6 260 16:22 24.04.2020
4342 Clouds 31 1006 22 10000 3.1 280 15:59 24.04.2020
4343 Clouds 31 1006 22 10000 3.1 280 15:39 24.04.2020
4344 Clouds 31 1006 22 10000 3.1 280 15:19 24.04.2020
4345 Clouds 32 1006 19 10000 4.6 250 14:40 24.04.2020
4346 Clouds 32 1006 19 10000 4.6 250 14:22 24.04.2020
4347 Clouds 31 1007 22 10000 4.1 240 13:58 24.04.2020
4348 Clouds 31 1007 22 10000 4.1 240 13:39 24.04.2020
4349 Clouds 31 1007 22 10000 4.1 240 13:20 24.04.2020
4350 Clouds 31 1007 25 10000 4.1 270 12:45 24.04.2020
4351 Clouds 31 1007 25 10000 4.1 270 12:25 24.04.2020
4352 Clouds 30 1008 28 10000 5.1 290 11:59 24.04.2020
4353 Clouds 30 1008 28 10000 5.1 290 11:40 24.04.2020
4354 Clouds 30 1008 28 10000 5.1 290 11:21 24.04.2020
4355 Clouds 29 1008 32 10000 5.7 290 10:56 24.04.2020
4356 Clouds 29 1008 32 10000 5.7 290 10:38 24.04.2020
4357 Clouds 29 1008 32 10000 5.7 290 10:19 24.04.2020
4358 Clouds 27 1009 42 10000 5.7 280 09:47 24.04.2020
4359 Clouds 27 1009 42 10000 5.7 280 09:24 24.04.2020
4360 Clouds 24 1008 47 10000 5.7 280 08:58 24.04.2020
4361 Clouds 24 1008 47 10000 5.7 280 08:40 24.04.2020
4362 Clouds 24 1008 47 10000 5.7 280 08:18 24.04.2020
4363 Clouds 23 1008 46 10000 5.1 280 07:47 24.04.2020
4364 Clouds 23 1008 46 10000 5.1 280 07:27 24.04.2020
4365 Clouds 22 1007 43 10000 5.7 280 06:59 24.04.2020
4366 Clouds 22 1007 43 10000 5.7 280 06:40 24.04.2020
4367 Clouds 22 1006 40 10000 4.1 270 05:49 24.04.2020
4368 Clouds 23 1005 38 10000 4.6 270 04:48 24.04.2020
4369 Clouds 21 1004 49 10000 1.5 140 03:28 24.04.2020
4370 Clouds 23 1003 40 10000 3.6 250 02:47 24.04.2020
4371 Clouds 23 1003 40 10000 3.6 250 02:20 24.04.2020
4372 Clouds 24 1003 31 10000 4.6 210 01:37 24.04.2020
4373 Clouds 24 1003 31 10000 3.6 210 00:46 24.04.2020
4374 Clouds 24 1003 31 10000 3.6 210 00:18 24.04.2020
4375 Clouds 27 1003 28 10000 3.1 220 23:45 23.04.2020
4376 Clouds 27 1003 28 10000 3.1 220 23:27 23.04.2020
4377 Clouds 28 1003 34 9000 3.6 180 22:57 23.04.2020
4378 Clouds 28 1003 34 9000 3.6 180 22:38 23.04.2020
4379 Clouds 28 1003 34 9000 3.6 180 22:19 23.04.2020
4380 Clouds 29 1003 30 8000 1 0 21:57 23.04.2020
4381 Clouds 29 1003 30 8000 1 0 21:57 23.04.2020
4382 Clouds 29 1003 30 8000 1 0 21:38 23.04.2020
4383 Clouds 29 1003 30 8000 1 0 21:38 23.04.2020
4384 Clouds 29 1003 30 8000 1 0 21:20 23.04.2020
4385 Clouds 26 1003 34 9000 2.1 50 20:56 23.04.2020
4386 Clouds 26 1003 34 9000 2.1 50 20:37 23.04.2020
4387 Clouds 26 1003 34 9000 2.1 50 20:18 23.04.2020
4388 Clouds 30 1002 28 10000 1 40 19:55 23.04.2020
4389 Clouds 30 1002 28 10000 1 40 19:37 23.04.2020
4390 Clouds 30 1002 28 10000 1 40 19:19 23.04.2020
4391 Clouds 31 1002 25 10000 3.1 350 18:40 23.04.2020
4392 Clear 31 1002 25 10000 3.1 350 18:22 23.04.2020
4393 Clear 35 1002 19 10000 3.1 340 17:57 23.04.2020
4394 Clear 35 1002 19 10000 3.1 340 17:39 23.04.2020
4395 Clear 35 1002 19 10000 3.1 340 17:21 23.04.2020
4396 Clear 36 1002 15 10000 3.1 280 16:44 23.04.2020
4397 Clear 36 1002 15 10000 3.1 280 16:21 23.04.2020
4398 -273 0 0 0 0 0 15:59 23.04.2020
4399 Clear 36 1002 19 10000 4.1 250 15:40 23.04.2020
4400 Clouds 36 1002 19 10000 4.1 250 15:22 23.04.2020
4401 Clouds 36 1002 19 10000 3.1 240 14:54 23.04.2020
4402 Clouds 36 1002 19 10000 3.1 240 14:36 23.04.2020
4403 Clouds 36 1002 19 10000 3.1 240 14:18 23.04.2020
4404 Clouds 35 1003 23 10000 4.6 130 13:40 23.04.2020
4405 Clouds 35 1003 23 10000 4.6 130 13:22 23.04.2020
4406 Clouds 34 1004 28 10000 6.2 160 12:58 23.04.2020
4407 Clouds 34 1004 28 10000 6.2 160 12:38 23.04.2020
4408 Clear 34 1004 28 10000 6.2 160 12:20 23.04.2020
4409 Clouds 33 1005 29 10000 6.7 170 11:47 23.04.2020
4410 Clouds 33 1005 29 10000 6.7 170 11:27 23.04.2020
4411 Clear 32 1005 33 10000 8.2 150 10:59 23.04.2020
4412 Clear 32 1005 33 10000 8.2 150 10:40 23.04.2020
4413 Clear 32 1005 33 10000 8.2 150 10:20 23.04.2020
4414 Clear 31 1005 35 10000 7.7 130 09:40 23.04.2020
4415 Rain 31 1005 35 10000 7.7 130 09:19 23.04.2020
4416 Clouds 29 1005 37 10000 7.7 130 08:51 23.04.2020
4417 Clouds 29 1005 37 10000 7.7 130 08:32 23.04.2020
4418 Clouds 26 1006 47 10000 4.1 110 07:58 23.04.2020
4419 Clouds 26 1006 47 10000 4.1 110 07:39 23.04.2020
4420 Clouds 26 1006 47 10000 4.1 110 07:21 23.04.2020
4421 Rain 24 1005 50 10000 5.1 120 06:45 23.04.2020
4422 Rain 24 1005 50 10000 4.6 110 05:54 23.04.2020
4423 Rain 24 1005 50 10000 4.6 110 05:54 23.04.2020
4424 Rain 23 1005 56 10000 5.7 100 05:21 23.04.2020
4425 Rain 23 1006 60 10000 7.7 90 03:48 23.04.2020
4426 Clouds 24 1008 53 10000 5.1 20 02:23 23.04.2020
4427 Clouds 24 1006 53 10000 5.7 50 01:40 23.04.2020
4428 Rain 23 1009 60 10000 8.7 340 00:56 23.04.2020
4429 Rain 23 1009 60 10000 8.7 340 00:29 23.04.2020
4430 -273 0 0 0 0 0 23:59 22.04.2020
4431 Clouds 27 1005 39 10000 7.2 140 23:41 22.04.2020
4432 Clouds 27 1005 39 10000 7.2 140 23:22 22.04.2020
4433 Clouds 27 1006 39 10000 7.7 140 22:41 22.04.2020
4434 Clouds 27 1006 39 10000 7.7 140 22:20 22.04.2020
4435 Clouds 27 1006 39 10000 5.7 140 21:59 22.04.2020
4436 Clouds 27 1006 39 10000 5.7 140 21:59 22.04.2020
4437 Clouds 27 1006 39 10000 5.7 140 21:41 22.04.2020
4438 Clouds 27 1006 39 10000 5.7 140 21:22 22.04.2020
4439 Clouds 28 1006 34 10000 5.1 140 20:59 22.04.2020
4440 Clouds 28 1006 34 10000 5.1 140 20:59 22.04.2020
4441 Clouds 28 1006 34 10000 5.1 140 20:41 22.04.2020
4442 Clouds 28 1006 34 10000 5.1 140 20:19 22.04.2020
4443 Clouds 29 1006 32 10000 5.1 140 19:57 22.04.2020
4444 Clouds 29 1006 32 10000 5.1 140 19:38 22.04.2020
4445 Clouds 29 1006 32 10000 5.1 140 19:18 22.04.2020
4446 Clouds 30 1006 30 10000 4.6 140 18:57 22.04.2020
4447 Clouds 30 1006 30 10000 4.6 140 18:57 22.04.2020
4448 Clouds 30 1006 30 10000 4.6 140 18:57 22.04.2020
4449 Clouds 30 1006 30 10000 4.6 140 18:38 22.04.2020
4450 Clouds 30 1006 30 10000 4.6 140 18:20 22.04.2020
4451 Clouds 34 1005 21 10000 7.2 140 17:43 22.04.2020
4452 Clouds 34 1005 21 10000 7.2 140 17:25 22.04.2020
4453 Clouds 34 1005 21 10000 7.2 140 16:58 22.04.2020
4454 Clouds 35 1006 19 10000 6.7 140 16:39 22.04.2020
4455 Clouds 35 1006 19 10000 6.7 140 16:20 22.04.2020
4456 Clouds 34 1006 15 0 3.17 208 15:41 22.04.2020
4457 Clouds 35 1007 20 10000 5.1 170 15:22 22.04.2020
4458 Clouds 35 1007 20 10000 5.1 170 14:58 22.04.2020
4459 Clouds 35 1007 20 10000 5.1 170 14:38 22.04.2020
4460 Clear 35 1007 20 10000 5.1 170 14:19 22.04.2020
4461 Clear 35 1008 21 10000 4.1 190 13:45 22.04.2020
4462 Clear 35 1008 21 10000 4.1 190 13:21 22.04.2020
4463 Clear 34 1009 21 10000 2.6 0 12:57 22.04.2020
4464 Clear 34 1009 21 10000 2.6 0 12:39 22.04.2020
4465 Clear 34 1009 21 10000 2.6 0 12:21 22.04.2020
4466 Clear 33 1010 29 10000 2.6 0 11:40 22.04.2020
4467 Clear 33 1010 29 10000 2.6 0 11:20 22.04.2020
4468 Clear 34 1009 16 0 2.87 194 10:59 22.04.2020
4469 Clear 29 1011 37 10000 2.1 130 10:39 22.04.2020
4470 Clear 29 1011 37 10000 2.1 130 10:20 22.04.2020
4471 Clear 29 1011 37 10000 2.1 130 09:39 22.04.2020
4472 Clouds 29 1011 37 10000 2.1 130 09:21 22.04.2020
4473 Clouds 27 1011 44 10000 3.1 120 08:57 22.04.2020
4474 Clouds 27 1011 44 10000 3.1 120 08:38 22.04.2020
4475 Clouds 27 1011 44 10000 3.1 120 08:20 22.04.2020
4476 Clouds 24 1011 50 10000 3.6 130 07:53 22.04.2020
4477 Clouds 24 1011 50 10000 3.6 130 07:28 22.04.2020
4478 Clouds 24 1011 50 10000 3.6 130 07:28 22.04.2020
4479 Clouds 21 1010 60 10000 3.1 110 06:53 22.04.2020
4480 Clouds 21 1010 60 10000 3.1 110 06:53 22.04.2020
4481 Clouds 21 1010 60 10000 3.1 110 06:18 22.04.2020
4482 Clouds 20 1010 64 10000 3.6 120 05:37 22.04.2020
4483 Clouds 21 1009 60 10000 4.1 110 04:20 22.04.2020
4484 Clouds 22 1009 56 10000 4.1 170 02:50 22.04.2020
4485 Clouds 24 1009 50 10000 6.2 110 01:52 22.04.2020
4486 Clouds 24 1009 50 10000 6.2 110 01:25 22.04.2020
4487 Clouds 25 1010 47 10000 6.7 110 00:54 22.04.2020
4488 Clouds 25 1010 47 10000 6.7 110 00:36 22.04.2020
4489 Clear 25 1010 47 10000 6.7 110 00:18 22.04.2020
4490 Clear 26 1011 39 10000 5.7 100 23:41 21.04.2020
4491 Clear 26 1011 39 10000 5.7 100 23:19 21.04.2020
4492 Clear 24 1010 38 10000 3.6 110 22:40 21.04.2020
4493 Clear 24 1010 38 10000 3.6 110 22:22 21.04.2020
4494 Clear 26 1011 34 10000 2.1 120 21:59 21.04.2020
4495 Clear 26 1011 34 10000 2.1 120 21:41 21.04.2020
4496 Clouds 26 1011 34 10000 2.1 120 21:22 21.04.2020
4497 Clouds 27 1011 32 10000 1.5 130 20:56 21.04.2020
4498 Clear 27 1011 32 10000 1.5 130 20:38 21.04.2020
4499 Clear 27 1011 32 10000 1.5 130 20:20 21.04.2020
4500 Clear 28 1010 30 10000 1 60 19:41 21.04.2020
4501 Clouds 28 1010 30 10000 1 60 19:20 21.04.2020
4502 Clear 30 1010 28 10000 2.1 340 18:57 21.04.2020
4503 Clear 30 1010 28 10000 2.1 340 18:38 21.04.2020
4504 Clouds 33 1010 22 10000 3.6 320 18:19 21.04.2020
4505 Clouds 33 1010 22 10000 3.6 320 17:55 21.04.2020
4506 Clouds 33 1010 22 10000 3.6 320 17:37 21.04.2020
4507 Clouds 33 1010 22 10000 3.6 320 17:37 21.04.2020
4508 Clouds 33 1010 22 10000 3.6 320 17:18 21.04.2020
4509 Clouds 33 1009 21 10000 4.1 330 16:39 21.04.2020
4510 Clouds 33 1009 21 10000 4.1 330 16:19 21.04.2020
4511 Clouds 33 1009 21 10000 4.1 330 16:19 21.04.2020
4512 Clouds 33 1009 21 10000 4.1 330 16:19 21.04.2020
4513 Clouds 33 1009 21 10000 3.1 340 15:57 21.04.2020
4514 Clouds 35 1009 17 10000 1.5 0 15:39 21.04.2020
4515 Clouds 35 1009 17 10000 1.5 0 15:21 21.04.2020
4516 Clouds 35 1010 17 10000 1 0 14:57 21.04.2020
4517 Clouds 35 1010 17 10000 1 0 14:39 21.04.2020
4518 Clouds 35 1010 17 10000 1 0 14:21 21.04.2020
4519 Clouds 35 1010 17 10000 3.6 360 13:41 21.04.2020
4520 Clouds 35 1010 17 10000 3.6 360 13:22 21.04.2020
4521 Clouds 35 1011 16 10000 2.1 0 12:57 21.04.2020
4522 Clouds 35 1011 16 10000 2.1 0 12:37 21.04.2020
4523 Clouds 35 1011 16 10000 2.1 0 12:18 21.04.2020
4524 Clear 34 1011 18 10000 1.5 60 11:55 21.04.2020
4525 Clear 34 1011 18 10000 1.5 60 11:36 21.04.2020
4526 Clear 34 1012 20 10000 1.5 0 11:18 21.04.2020
4527 Clear 34 1012 20 10000 1.5 0 11:18 21.04.2020
4528 Clear 34 1012 20 10000 1.5 0 10:56 21.04.2020
4529 Clear 34 1012 20 10000 1.5 0 10:38 21.04.2020
4530 Clear 34 1012 20 10000 1.5 0 10:19 21.04.2020
4531 Clear 32 1012 22 10000 2.1 130 09:37 21.04.2020
4532 Clouds 30 1012 28 9000 1 0 09:19 21.04.2020
4533 Clouds 30 1012 28 9000 1 0 08:57 21.04.2020
4534 Clouds 30 1012 28 9000 1 0 08:38 21.04.2020
4535 Clouds 30 1012 28 9000 1 0 08:19 21.04.2020
4536 Clouds 27 1012 34 3000 0.5 0 07:43 21.04.2020
4537 Clouds 27 1012 34 3000 0.5 0 07:22 21.04.2020
4538 Smoke 22 1012 46 1600 1.5 320 06:47 21.04.2020
4539 Smoke 22 1012 46 1600 1.5 320 06:20 21.04.2020
4540 Clouds 18 1011 52 3400 1.5 280 05:48 21.04.2020
4541 Clouds 20 1010 49 10000 1 350 04:19 21.04.2020
4542 Clouds 20 1010 49 10000 1 350 03:42 21.04.2020
4543 Clear 21 1010 46 10000 2.1 230 01:46 21.04.2020
4544 Clear 21 1010 40 8000 1 0 00:58 21.04.2020
4545 Clear 21 1010 40 8000 1 0 00:33 21.04.2020
4546 Clear 22 1011 43 9000 1.89 42 23:44 20.04.2020
4547 Clear 22 1011 43 9000 1.89 42 23:25 20.04.2020
4548 Clear 23 1011 35 10000 1.5 320 22:58 20.04.2020
4549 Clear 23 1011 35 10000 1.5 320 22:38 20.04.2020
4550 Clear 26 1011 34 10000 1.5 50 22:20 20.04.2020
4551 Clear 26 1011 34 10000 1.5 50 21:57 20.04.2020
4552 Clear 26 1011 34 10000 1.5 50 21:38 20.04.2020
4553 Clouds 26 1011 34 10000 1.5 50 21:19 20.04.2020
4554 Clouds 26 1011 34 10000 2.1 20 20:58 20.04.2020
4555 Clouds 26 1011 34 10000 2.1 20 20:38 20.04.2020
4556 Clouds 26 1011 34 10000 2.1 20 20:18 20.04.2020
4557 Clouds 26 1011 34 10000 2.1 20 20:18 20.04.2020
4558 Clouds 27 1010 32 10000 1.5 340 19:57 20.04.2020
4559 Clouds 27 1010 32 10000 1.5 340 19:38 20.04.2020
4560 Clouds 28 1010 28 10000 2.6 330 19:19 20.04.2020
4561 Clouds 28 1010 28 10000 2.6 330 18:42 20.04.2020
4562 Clouds 28 1010 28 10000 2.6 330 18:23 20.04.2020
4563 Clouds 32 1010 21 10000 2.6 360 17:56 20.04.2020
4564 Clouds 32 1010 21 10000 2.6 360 17:38 20.04.2020
4565 Clouds 32 1010 21 10000 2.6 360 17:19 20.04.2020
4566 Clouds 32 1010 22 10000 3.1 350 16:58 20.04.2020
4567 Clouds 32 1010 22 10000 3.1 350 16:39 20.04.2020
4568 Clouds 32 1010 22 10000 3.1 350 16:18 20.04.2020
4569 Clouds 33 1010 21 10000 3.1 330 15:43 20.04.2020
4570 Clouds 33 1010 21 10000 3.1 330 15:23 20.04.2020
4571 Clouds 33 1010 19 10000 4.6 330 14:58 20.04.2020
4572 Clouds 33 1010 19 10000 4.6 330 14:40 20.04.2020
4573 Clouds 33 1010 19 10000 4.6 330 14:19 20.04.2020
4574 Clouds 33 1011 19 10000 5.7 330 13:54 20.04.2020
4575 Clouds 33 1011 19 10000 5.7 330 13:54 20.04.2020
4576 Clouds 33 1011 19 10000 5.7 330 13:54 20.04.2020
4577 Clouds 33 1011 19 10000 5.7 330 13:36 20.04.2020
4578 Clouds 33 1011 19 10000 5.7 330 13:18 20.04.2020
4579 Clouds 32 1012 25 10000 4.6 340 12:42 20.04.2020
4580 Clouds 32 1012 25 10000 4.6 340 12:21 20.04.2020
4581 Clear 33 1012 24 10000 3.6 340 11:42 20.04.2020
4582 Clear 33 1012 24 10000 3.6 340 11:22 20.04.2020
4583 Clear 32 1013 27 10000 4.1 310 10:57 20.04.2020
4584 Clear 32 1013 27 10000 4.1 310 10:39 20.04.2020
4585 Clear 32 1013 27 10000 4.1 310 10:39 20.04.2020
4586 Clear 32 1013 27 10000 4.1 310 10:20 20.04.2020
4587 Clear 29 1013 32 10000 4.1 300 09:58 20.04.2020
4588 Clear 29 1013 32 10000 4.1 300 09:39 20.04.2020
4589 Clear 29 1013 32 10000 4.1 300 09:21 20.04.2020
4590 Clear 28 1013 37 10000 4.6 290 08:42 20.04.2020
4591 Clear 28 1013 37 10000 4.6 290 08:23 20.04.2020
4592 Clear 25 1013 41 10000 4.1 280 07:53 20.04.2020
4593 Clear 25 1013 41 10000 4.1 280 07:29 20.04.2020
4594 Clear 25 1013 41 10000 4.1 280 07:29 20.04.2020
4595 Clear 22 1012 46 10000 2.6 270 06:58 20.04.2020
4596 Clear 22 1012 46 10000 2.6 270 06:37 20.04.2020
4597 Clear 18 1012 59 10000 2.1 280 05:44 20.04.2020
4598 Clear 18 1011 59 10000 2.6 240 04:28 20.04.2020
4599 Clear 18 1011 55 10000 1 280 02:47 20.04.2020
4600 Clear 18 1011 55 10000 1 280 02:19 20.04.2020
4601 Clear 18 1011 55 10000 1 290 01:28 20.04.2020
4602 Clear 20 1011 49 10000 1.5 290 00:42 20.04.2020
4603 Clear 22 1012 46 10000 2.6 320 23:59 19.04.2020
4604 Clear 22 1012 46 10000 2.6 320 23:59 19.04.2020
4605 Clear 22 1012 46 10000 2.6 320 23:39 19.04.2020
4606 Clear 22 1012 46 10000 2.6 320 23:21 19.04.2020
4607 Clear 21 1012 49 10000 1 0 22:55 19.04.2020
4608 Clear 21 1012 49 10000 1 0 22:36 19.04.2020
4609 Clear 21 1012 49 10000 1 0 22:18 19.04.2020
4610 Clear 21 1012 43 8000 0.5 0 21:42 19.04.2020
4611 Clear 21 1012 43 8000 0.5 0 21:23 19.04.2020
4612 Clear 24 1011 38 10000 0.5 300 20:56 19.04.2020
4613 Clear 24 1011 38 10000 0.5 300 20:38 19.04.2020
4614 Clear 24 1011 38 10000 0.5 300 20:20 19.04.2020
4615 Clear 26 1011 36 10000 1.5 350 19:55 19.04.2020
4616 Clear 26 1011 36 10000 1.5 350 19:37 19.04.2020
4617 Clear 26 1011 36 10000 1.5 350 19:19 19.04.2020
4618 Clear 28 1011 30 10000 3.1 10 18:54 19.04.2020
4619 Clear 28 1011 30 10000 3.1 10 18:36 19.04.2020
4620 Clear 30 1010 27 10000 3.1 360 18:18 19.04.2020
4621 Clear 30 1010 27 10000 3.1 360 17:54 19.04.2020
4622 Clear 30 1010 27 10000 3.1 360 17:36 19.04.2020
4623 Clear 31 1011 25 10000 4.1 340 17:18 19.04.2020
4624 Clear 31 1011 25 10000 4.1 340 16:39 19.04.2020
4625 Clear 31 1011 25 10000 4.1 340 16:39 19.04.2020
4626 Clear 31 1011 25 10000 4.1 340 16:21 19.04.2020
4627 Clear 31 1011 27 10000 4.1 310 15:57 19.04.2020
4628 Clear 31 1011 27 10000 4.1 310 15:39 19.04.2020
4629 Clear 31 1011 27 10000 4.1 310 15:18 19.04.2020
4630 Clear 31 1011 27 10000 3.6 340 14:39 19.04.2020
4631 Clear 31 1011 27 10000 3.6 340 14:20 19.04.2020
4632 Clear 30 1012 30 10000 3.1 330 13:56 19.04.2020
4633 Clear 30 1012 30 10000 3.1 330 13:36 19.04.2020
4634 Clear 30 1012 30 10000 3.1 330 13:18 19.04.2020
4635 Clear 29 1013 30 10000 1 0 12:44 19.04.2020
4636 Clear 29 1013 30 10000 1 0 12:24 19.04.2020
4637 Clear 28 1014 32 10000 3.1 280 11:54 19.04.2020
4638 Clear 28 1014 32 10000 3.1 280 11:36 19.04.2020
4639 Clear 27 1015 34 10000 2.1 0 11:18 19.04.2020
4640 Clear 27 1015 34 10000 2.1 0 10:41 19.04.2020
4641 Clear 27 1015 34 10000 2.1 0 10:21 19.04.2020
4642 Clear 27 1015 34 10000 2.1 0 10:21 19.04.2020
4643 Clear 25 1015 38 10000 2.1 0 09:57 19.04.2020
4644 Clear 25 1015 38 10000 2.1 0 09:38 19.04.2020
4645 Clear 25 1015 38 10000 2.1 0 09:18 19.04.2020
4646 Clear 24 1015 41 10000 1 0 08:40 19.04.2020
4647 Clear 24 1015 41 10000 1 0 08:21 19.04.2020
4648 Clear 21 1015 52 10000 0.5 0 07:48 19.04.2020
4649 Clear 21 1015 52 10000 0.5 0 07:25 19.04.2020
4650 Clear 19 1014 55 10000 2.19 206 06:57 19.04.2020
4651 Clear 19 1014 55 10000 1.93 199 06:23 19.04.2020
4652 Clear 15 1014 67 10000 2.03 184 05:34 19.04.2020
4653 Clear 15 1014 62 10000 1.5 120 03:40 19.04.2020
4654 Clear 16 1013 67 10000 1 0 02:23 19.04.2020
4655 Clear 16 1013 63 10000 1.5 150 01:58 19.04.2020
4656 Clear 17 1014 59 10000 1 160 01:22 19.04.2020
4657 Clear 17 1014 63 10000 2.1 140 00:41 19.04.2020
4658 Clear 17 1014 63 10000 2.1 140 00:19 19.04.2020
4659 Clear 17 1014 59 10000 3.1 150 23:43 18.04.2020
4660 Clear 17 1014 59 10000 3.1 150 23:19 18.04.2020
4661 Clear 18 1014 55 10000 3.1 130 22:44 18.04.2020
4662 Clear 18 1014 55 10000 3.1 130 22:24 18.04.2020
4663 Clear 20 1014 49 10000 2.6 170 21:59 18.04.2020
4664 Clear 20 1014 49 10000 2.6 170 21:41 18.04.2020
4665 Clouds 20 1014 49 10000 2.6 170 21:22 18.04.2020
4666 Clouds 21 1014 46 10000 4.1 170 20:58 18.04.2020
4667 Clouds 21 1014 46 10000 4.1 170 20:40 18.04.2020
4668 Clouds 21 1014 46 10000 4.1 170 20:20 18.04.2020
4669 Clouds 22 1013 43 10000 4.1 160 19:42 18.04.2020
4670 Clouds 22 1013 43 10000 4.1 160 19:24 18.04.2020
4671 Clouds 24 1012 41 10000 5.7 160 18:40 18.04.2020
4672 Clouds 24 1012 41 10000 5.7 160 18:20 18.04.2020
4673 Clouds 26 1011 36 10000 7.2 170 17:59 18.04.2020
4674 Clouds 26 1011 36 10000 7.2 170 17:40 18.04.2020
4675 Clouds 26 1011 36 10000 7.2 170 17:20 18.04.2020
4676 Clouds 28 1011 30 10000 7.2 190 16:43 18.04.2020
4677 Clouds 28 1011 30 10000 7.2 190 16:23 18.04.2020
4678 Clouds 29 1011 28 10000 7.7 200 15:58 18.04.2020
4679 Clouds 29 1011 28 10000 7.7 200 15:38 18.04.2020
4680 Clouds 29 1011 28 10000 7.7 200 15:20 18.04.2020
4681 Clouds 28 1011 30 10000 8.7 160 14:44 18.04.2020
4682 Clouds 28 1011 30 10000 8.7 160 14:25 18.04.2020
4683 Clouds 30 1011 20 10000 6.2 120 13:54 18.04.2020
4684 Clouds 30 1011 20 10000 6.2 120 13:36 18.04.2020
4685 Clouds 30 1011 20 10000 6.2 120 13:18 18.04.2020
4686 Clouds 30 1011 23 10000 2.6 170 12:41 18.04.2020
4687 Clouds 30 1011 23 10000 2.6 170 12:22 18.04.2020
4688 Clouds 30 1011 23 10000 2.6 250 11:43 18.04.2020
4689 Clouds 30 1011 23 10000 2.6 250 11:23 18.04.2020
4690 Clouds 29 1011 30 10000 4.1 290 10:57 18.04.2020
4691 Clouds 29 1011 30 10000 4.1 290 10:37 18.04.2020
4692 Clouds 29 1011 30 10000 4.1 290 10:18 18.04.2020
4693 Clouds 27 1012 34 10000 4.1 300 09:42 18.04.2020
4694 Clouds 27 1012 34 10000 4.1 300 09:23 18.04.2020
4695 Clouds 25 1011 38 10000 5.1 310 08:44 18.04.2020
4696 Clouds 25 1011 38 10000 5.1 310 08:26 18.04.2020
4697 Clouds 23 1011 40 10000 5.1 310 07:58 18.04.2020
4698 Clouds 23 1011 40 10000 5.1 310 07:36 18.04.2020
4699 Clouds 21 1011 49 10000 2.6 320 06:59 18.04.2020
4700 Clouds 21 1011 49 10000 2.6 320 06:29 18.04.2020
4701 Clouds 21 1011 43 10000 4.1 210 05:36 18.04.2020
4702 Clouds 20 1010 45 10000 5.1 210 04:47 18.04.2020
4703 Clouds 20 1010 45 10000 5.1 210 04:25 18.04.2020
4704 Clouds 24 1009 31 10000 3.1 10 02:48 18.04.2020
4705 Clouds 24 1009 31 10000 3.1 10 02:23 18.04.2020
4706 Clouds 24 1009 31 10000 2.6 20 01:53 18.04.2020
4707 Clouds 24 1009 31 10000 2.6 20 01:34 18.04.2020
4708 Clouds 25 1009 27 10000 3.6 360 00:44 18.04.2020
4709 Clouds 25 1009 27 10000 3.6 360 00:22 18.04.2020
4710 Clouds 24 1009 33 10000 3.6 340 23:55 17.04.2020
4711 Clouds 24 1009 33 10000 3.6 340 23:37 17.04.2020
4712 Clouds 24 1009 33 10000 3.6 340 23:18 17.04.2020
4713 Clouds 27 1009 26 10000 3.1 20 22:56 17.04.2020
4714 Clouds 27 1009 26 10000 3.1 20 22:36 17.04.2020
4715 Clouds 27 1009 26 10000 3.1 20 22:18 17.04.2020
4716 Clouds 26 1010 29 10000 2.6 10 21:42 17.04.2020
4717 Clouds 26 1010 29 10000 2.6 10 21:21 17.04.2020
4718 Clouds 27 1010 26 10000 2.6 20 20:56 17.04.2020
4719 Clouds 27 1010 26 10000 2.6 20 20:38 17.04.2020
4720 Clouds 27 1010 26 10000 2.6 20 20:18 17.04.2020
4721 Clouds 27 1010 24 10000 3.1 350 19:57 17.04.2020
4722 Clouds 27 1010 24 10000 3.1 350 19:38 17.04.2020
4723 Clouds 27 1010 24 10000 3.1 350 19:20 17.04.2020
4724 Clouds 29 1009 21 10000 2.1 260 18:44 17.04.2020
4725 Clouds 29 1009 21 10000 2.1 260 18:23 17.04.2020
4726 Clouds 30 1009 20 10000 1.5 110 17:55 17.04.2020
4727 Clouds 30 1009 20 10000 1.5 110 17:36 17.04.2020
4728 Clouds 30 1009 20 10000 1.5 110 17:18 17.04.2020
4729 Clouds 31 1009 19 10000 2.1 90 16:41 17.04.2020
4730 Clouds 31 1009 19 10000 2.1 90 16:22 17.04.2020
4731 Clouds 32 1009 17 10000 3.6 80 15:41 17.04.2020
4732 Clouds 32 1009 17 10000 3.6 80 15:23 17.04.2020
4733 Clouds 32 1009 15 10000 4.6 130 14:55 17.04.2020
4734 Clouds 32 1009 15 10000 4.6 130 14:37 17.04.2020
4735 Clouds 32 1009 15 10000 4.6 130 14:19 17.04.2020
4736 Clouds 32 1009 15 10000 5.7 130 13:40 17.04.2020
4737 Clouds 32 1009 15 10000 5.7 130 13:21 17.04.2020
4738 Clouds 32 1010 18 10000 3.6 80 12:58 17.04.2020
4739 Clouds 32 1010 18 10000 3.6 80 12:40 17.04.2020
4740 Clouds 32 1010 18 10000 3.6 80 12:21 17.04.2020
4741 Clouds 31 1010 19 10000 4.6 50 11:40 17.04.2020
4742 Clouds 31 1010 19 10000 4.6 50 11:19 17.04.2020
4743 Clouds 30 1011 20 10000 4.6 30 10:44 17.04.2020
4744 Clouds 30 1011 20 10000 4.6 30 10:24 17.04.2020
4745 Clouds 29 1011 25 10000 4.1 40 09:59 17.04.2020
4746 Clear 29 1011 25 10000 4.1 40 09:40 17.04.2020
4747 Clouds 29 1011 25 10000 4.1 40 09:20 17.04.2020
4748 Clouds 26 1011 29 10000 2.6 360 08:49 17.04.2020
4749 Clouds 26 1011 29 10000 2.6 360 08:28 17.04.2020
4750 Clouds 24 1011 36 10000 2.6 30 07:59 17.04.2020
4751 Clouds 24 1011 36 10000 2.6 30 07:41 17.04.2020
4752 Clouds 21 1011 40 10000 1.5 350 07:20 17.04.2020
4753 Clouds 21 1011 40 10000 1.5 350 06:45 17.04.2020
4754 Clouds 21 1011 40 10000 1.5 350 06:20 17.04.2020
4755 Clouds 16 1010 51 10000 2.1 320 03:37 17.04.2020
4756 Clouds 19 1010 45 10000 1 350 03:18 17.04.2020
4757 Clouds 17 1010 51 10000 1 40 01:55 17.04.2020
4758 Clouds 17 1010 51 10000 1 40 01:23 17.04.2020
4759 Clouds 17 1010 45 10000 2.6 330 00:28 17.04.2020
4760 Clouds 19 1010 37 10000 2.1 320 23:56 16.04.2020
4761 Clouds 19 1010 37 10000 2.1 320 23:38 16.04.2020
4762 Clouds 19 1010 37 10000 2.1 320 23:19 16.04.2020
4763 Clouds 21 1010 32 10000 2.81 91 22:55 16.04.2020
4764 Clouds 21 1010 32 10000 2.81 91 22:36 16.04.2020
4765 Clouds 21 1010 32 10000 2.81 91 22:18 16.04.2020
4766 Clouds 23 1010 28 10000 1.5 70 21:41 16.04.2020
4767 Clouds 23 1010 28 10000 1.5 70 21:20 16.04.2020
4768 Clouds 25 1010 27 10000 2.1 30 20:57 16.04.2020
4769 Clouds 25 1010 27 10000 2.1 30 20:38 16.04.2020
4770 Clouds 25 1010 27 10000 2.1 30 20:19 16.04.2020
4771 Clouds 26 1010 24 10000 3.1 30 19:40 16.04.2020
4772 Clouds 26 1010 24 10000 3.1 30 19:20 16.04.2020
4773 Clouds 27 1009 22 10000 3.1 30 18:58 16.04.2020
4774 Clouds 27 1009 22 10000 3.1 30 18:39 16.04.2020
4775 Clouds 27 1009 22 10000 3.1 30 18:21 16.04.2020
4776 Clouds 29 1009 18 10000 3.1 350 17:56 16.04.2020
4777 Clouds 29 1009 18 10000 3.1 350 17:38 16.04.2020
4778 Clouds 29 1009 18 10000 3.1 350 17:18 16.04.2020
4779 Clouds 30 1009 17 10000 3.1 30 16:42 16.04.2020
4780 Clouds 30 1009 17 10000 3.1 30 16:20 16.04.2020
4781 Clouds 30 1010 19 10000 2.6 10 15:45 16.04.2020
4782 Clouds 30 1010 19 10000 2.6 10 15:20 16.04.2020
4783 Clouds 31 1010 15 10000 2.1 0 14:58 16.04.2020
4784 Clouds 31 1010 15 10000 2.1 0 14:39 16.04.2020
4785 Clouds 31 1010 15 10000 2.1 0 14:20 16.04.2020
4786 Clouds 31 1011 15 10000 2.1 300 13:57 16.04.2020
4787 Clouds 31 1011 15 10000 2.1 300 13:37 16.04.2020
4788 Clouds 31 1011 15 10000 2.1 300 13:19 16.04.2020
4789 Clouds 30 1012 19 10000 1.5 0 12:56 16.04.2020
4790 Clouds 30 1012 19 10000 1.5 0 12:38 16.04.2020
4791 Clouds 30 1012 19 10000 1.5 0 12:19 16.04.2020
4792 Clouds 30 1013 17 10000 2.6 0 11:55 16.04.2020
4793 Clouds 30 1013 17 10000 2.6 0 11:37 16.04.2020
4794 Clouds 30 1013 17 10000 2.6 0 11:18 16.04.2020
4795 Clouds 28 1014 21 10000 1.5 0 10:40 16.04.2020
4796 Clouds 28 1014 21 10000 1.5 0 10:19 16.04.2020
4797 Clouds 26 1014 24 10000 3.1 240 09:59 16.04.2020
4798 Clouds 26 1014 24 10000 3.1 240 09:38 16.04.2020
4799 Clear 26 1014 24 10000 3.1 240 09:19 16.04.2020
4800 Clear 24 1014 33 10000 3.6 230 08:43 16.04.2020
4801 Clear 24 1014 33 10000 3.6 230 08:23 16.04.2020
4802 Clear 21 1014 35 10000 3.6 240 07:46 16.04.2020
4803 Clear 21 1014 35 10000 3.6 240 07:28 16.04.2020
4804 Clear 18 1014 42 10000 3.6 240 06:58 16.04.2020
4805 Clear 18 1014 42 10000 3.6 240 06:39 16.04.2020
4806 Clear 18 1014 42 10000 3.6 240 06:21 16.04.2020
4807 Clear 14 1013 50 10000 1.5 230 04:44 16.04.2020
4808 Clear 13 1012 50 10000 1 200 03:25 16.04.2020
4809 Clear 16 1012 44 10000 0.5 0 02:57 16.04.2020
4810 Clear 16 1012 44 10000 0.5 0 02:33 16.04.2020
4811 Clear 20 1013 34 10000 2.1 20 01:22 16.04.2020
4812 Clear 18 1013 36 10000 2.6 350 00:39 16.04.2020
4813 Clear 18 1013 36 10000 2.6 350 00:18 16.04.2020
4814 Clear 19 1014 34 10000 2.1 340 23:43 15.04.2020
4815 Clear 19 1014 34 10000 2.1 340 23:24 15.04.2020
4816 Clear 20 1014 30 10000 2.6 360 22:59 15.04.2020
4817 Clear 20 1014 30 10000 2.6 360 22:38 15.04.2020
4818 Clear 20 1014 30 10000 2.6 360 22:20 15.04.2020
4819 Clear 20 1014 28 10000 3.1 320 21:54 15.04.2020
4820 Clear 20 1014 28 10000 3.1 320 21:36 15.04.2020
4821 Clear 20 1014 28 10000 3.1 320 21:18 15.04.2020
4822 Clear 23 1014 23 10000 4.6 320 20:41 15.04.2020
4823 Clear 23 1014 23 10000 4.6 320 20:22 15.04.2020
4824 Clear 24 1013 25 10000 3.1 300 19:59 15.04.2020
4825 Clear 24 1013 25 10000 3.1 300 19:40 15.04.2020
4826 Clear 25 1013 22 10000 2.6 330 19:20 15.04.2020
4827 Clear 25 1013 22 10000 2.6 330 18:41 15.04.2020
4828 Clear 25 1013 22 10000 2.6 330 18:22 15.04.2020
4829 Clear 29 1012 16 10000 5.1 320 17:58 15.04.2020
4830 Clear 29 1012 16 10000 5.1 320 17:58 15.04.2020
4831 Clear 29 1012 16 10000 5.1 320 17:38 15.04.2020
4832 Clear 29 1012 16 10000 5.1 320 17:20 15.04.2020
4833 Clear 30 1012 13 10000 6.2 320 16:56 15.04.2020
4834 Clear 30 1012 13 10000 6.2 320 16:37 15.04.2020
4835 Clear 30 1012 13 10000 6.2 320 16:19 15.04.2020
4836 Clear 30 1012 16 10000 7.2 320 15:56 15.04.2020
4837 Clear 30 1012 16 10000 7.2 320 15:37 15.04.2020
4838 Clear 30 1012 13 10000 7.2 320 15:19 15.04.2020
4839 Clear 30 1013 13 10000 7.2 320 14:55 15.04.2020
4840 Clear 30 1013 13 10000 7.2 320 14:37 15.04.2020
4841 Clear 30 1013 13 10000 7.2 320 14:19 15.04.2020
4842 Clear 30 1014 16 10000 7.7 330 13:55 15.04.2020
4843 Clear 30 1014 16 10000 7.7 330 13:36 15.04.2020
4844 Clear 30 1014 16 10000 7.7 330 13:18 15.04.2020
4845 Clear 30 1015 17 10000 7.7 340 12:42 15.04.2020
4846 Clear 30 1015 17 10000 7.7 340 12:23 15.04.2020
4847 Clear 29 1015 17 10000 8.2 340 11:58 15.04.2020
4848 Clear 29 1015 17 10000 8.2 340 11:39 15.04.2020
4849 Clear 29 1015 17 10000 8.2 340 11:21 15.04.2020
4850 Clear 28 1016 21 10000 6.2 330 10:39 15.04.2020
4851 Clear 28 1016 21 10000 6.2 330 10:21 15.04.2020
4852 Clear 25 1017 29 10000 4.6 320 09:57 15.04.2020
4853 Clear 25 1017 29 10000 4.6 320 09:39 15.04.2020
4854 Clouds 25 1017 29 10000 4.6 320 09:21 15.04.2020
4855 Clouds 23 1017 35 10000 4.1 340 08:55 15.04.2020
4856 Clouds 23 1017 35 10000 4.1 340 08:37 15.04.2020
4857 Clouds 23 1017 35 10000 4.1 340 08:19 15.04.2020
4858 Clouds 20 1016 42 10000 5.1 330 07:49 15.04.2020
4859 Clouds 20 1016 42 10000 5.1 330 07:30 15.04.2020
4860 Clouds 16 1016 48 10000 3.1 290 06:33 15.04.2020
4861 Clouds 15 1015 51 10000 2.6 270 05:50 15.04.2020
4862 Clouds 15 1015 54 10000 3.1 320 04:49 15.04.2020
4863 Clouds 15 1015 54 10000 3.1 320 04:26 15.04.2020
4864 Clouds 14 1015 54 10000 3.1 320 03:26 15.04.2020
4865 Clouds 16 1015 51 10000 4.1 330 02:52 15.04.2020
4866 Clouds 15 1016 51 10000 3.1 330 01:54 15.04.2020
4867 Clouds 15 1016 51 10000 3.1 330 01:25 15.04.2020
4868 Clouds 17 1016 42 10000 2.6 320 00:52 15.04.2020
4869 Clouds 17 1016 42 10000 2.6 320 00:31 15.04.2020
4870 Clouds 16 1016 44 10000 3.1 320 23:57 14.04.2020
4871 Clouds 16 1016 44 10000 3.1 320 23:39 14.04.2020
4872 Clouds 16 1016 44 10000 3.1 320 23:21 14.04.2020
4873 Clouds 18 1016 39 10000 2.6 320 22:58 14.04.2020
4874 Clouds 18 1016 39 10000 2.6 320 22:39 14.04.2020
4875 Clouds 18 1016 39 10000 2.6 320 22:21 14.04.2020
4876 Clouds 19 1016 37 10000 3.6 330 21:59 14.04.2020
4877 Clouds 19 1016 37 10000 3.6 330 21:40 14.04.2020
4878 Clouds 19 1016 37 10000 3.6 330 21:20 14.04.2020
4879 Clouds 19 1016 32 10000 3.6 320 21:00 14.04.2020
4880 Clouds 19 1016 32 10000 3.6 320 20:40 14.04.2020
4881 Clouds 19 1016 32 10000 3.6 320 20:21 14.04.2020
4882 Clouds 22 1015 22 0 4.23 329 19:57 14.04.2020
4883 Clouds 23 1015 25 10000 3.6 320 19:38 14.04.2020
4884 Clouds 23 1015 25 10000 3.6 320 19:20 14.04.2020
4885 Clouds 23 1015 25 10000 3.6 320 18:41 14.04.2020
4886 Clouds 23 1015 25 10000 3.6 320 18:22 14.04.2020
4887 Clouds 26 1015 21 10000 5.1 320 17:58 14.04.2020
4888 Clouds 26 1015 21 10000 5.1 320 17:39 14.04.2020
4889 Clouds 26 1015 21 10000 5.1 320 17:21 14.04.2020
4890 Clouds 27 1014 18 10000 6.2 330 16:58 14.04.2020
4891 Clouds 27 1014 18 10000 6.2 330 16:39 14.04.2020
4892 Clouds 27 1014 18 10000 6.2 330 16:21 14.04.2020
4893 Clouds 28 1014 18 10000 6.7 320 15:57 14.04.2020
4894 Clouds 28 1014 18 10000 6.7 320 15:38 14.04.2020
4895 Clouds 28 1014 18 10000 6.7 320 15:19 14.04.2020
4896 Clouds 28 1015 18 10000 8.7 300 14:57 14.04.2020
4897 Clouds 28 1015 18 10000 8.7 300 14:39 14.04.2020
4898 Clouds 28 1015 18 10000 8.7 300 14:21 14.04.2020
4899 Clouds 28 1015 18 10000 7.7 290 13:44 14.04.2020
4900 Clouds 28 1015 18 10000 7.7 290 13:24 14.04.2020
4901 Clouds 27 1016 22 10000 5.1 330 12:57 14.04.2020
4902 Clouds 27 1016 22 10000 5.1 330 12:39 14.04.2020
4903 Clouds 27 1016 22 10000 5.1 330 12:39 14.04.2020
4904 Clear 27 1016 22 10000 5.1 330 12:20 14.04.2020
4905 Clear 27 1017 19 10000 8.2 340 11:54 14.04.2020
4906 Clear 27 1017 19 10000 8.2 340 11:36 14.04.2020
4907 Clear 27 1017 19 10000 8.2 340 11:18 14.04.2020
4908 Clear 27 1016 16 0 5.95 337 10:40 14.04.2020
4909 Clear 25 1017 25 10000 5.7 330 10:21 14.04.2020
4910 Clear 25 1017 25 10000 5.7 330 09:42 14.04.2020
4911 Clear 23 1016 22 0 4.13 359 09:24 14.04.2020
4912 Clear 24 1017 31 10000 2.6 340 08:57 14.04.2020
4913 Clear 24 1017 31 10000 2.6 340 08:39 14.04.2020
4914 Clear 23 1016 22 0 4.13 359 08:21 14.04.2020
4915 Clear 21 1017 46 10000 2.1 340 07:52 14.04.2020
4916 Clear 21 1017 46 10000 2.1 340 07:28 14.04.2020
4917 Smoke 16 1017 63 5000 1.5 310 06:46 14.04.2020
4918 Smoke 13 1016 62 5000 1.5 300 05:54 14.04.2020
4919 Clear 15 1015 54 10000 2.1 300 03:52 14.04.2020
4920 Clear 15 1016 54 10000 2.1 300 02:44 14.04.2020
4921 Clear 16 1016 51 10000 2.6 360 01:38 14.04.2020
4922 Clear 16 1016 51 10000 2.6 360 01:18 14.04.2020
4923 Clear 19 1016 42 10000 2.1 10 00:32 14.04.2020
4924 Clear 20 1016 40 10000 2.1 40 23:59 13.04.2020
4925 Clear 20 1016 40 10000 2.1 40 23:39 13.04.2020
4926 Clear 20 1016 40 10000 2.1 40 23:21 13.04.2020
4927 Clear 21 1016 35 10000 3.6 30 22:56 13.04.2020
4928 Clear 21 1016 35 10000 3.6 30 22:37 13.04.2020
4929 Clear 21 1016 35 10000 3.6 30 22:19 13.04.2020
4930 Clear 21 1016 35 10000 3.1 10 21:54 13.04.2020
4931 Clear 21 1016 35 10000 3.1 10 21:36 13.04.2020
4932 Clear 21 1016 35 10000 3.1 10 21:18 13.04.2020
4933 Clear 22 1016 22 0 3.31 312 20:40 13.04.2020
4934 Clear 20 1016 32 10000 2.6 330 20:20 13.04.2020
4935 Clear 20 1016 32 10000 2.6 330 19:58 13.04.2020
4936 Clear 20 1016 32 10000 2.6 330 19:37 13.04.2020
4937 Clear 20 1016 32 10000 2.6 330 19:37 13.04.2020
4938 Clear 20 1016 32 10000 2.6 330 19:19 13.04.2020
4939 Clear 24 1015 23 10000 3.1 290 18:57 13.04.2020
4940 Clear 24 1015 23 10000 3.1 290 18:38 13.04.2020
4941 Clear 24 1015 23 10000 3.1 290 18:19 13.04.2020
4942 Clouds 26 1015 19 10000 6.2 290 17:57 13.04.2020
4943 Clouds 26 1015 19 10000 6.2 290 17:37 13.04.2020
4944 Clouds 26 1015 19 10000 6.2 290 17:19 13.04.2020
4945 Clouds 26 1015 19 10000 6.2 290 17:19 13.04.2020
4946 Clear 27 1015 19 10000 5.7 290 16:58 13.04.2020
4947 Clear 27 1015 19 10000 5.7 290 16:38 13.04.2020
4948 Clear 27 1015 19 10000 5.7 290 16:19 13.04.2020
4949 Clouds 27 1015 19 10000 7.7 320 15:56 13.04.2020
4950 Clouds 27 1015 19 10000 7.7 320 15:37 13.04.2020
4951 Clouds 27 1015 17 10000 7.7 320 15:18 13.04.2020
4952 Clouds 28 1015 18 10000 7.2 300 14:41 13.04.2020
4953 Clouds 28 1015 18 10000 7.2 300 14:22 13.04.2020
4954 Clouds 28 1015 23 10000 7.2 300 13:56 13.04.2020
4955 Clouds 28 1015 23 10000 7.2 300 13:38 13.04.2020
4956 Clouds 28 1015 23 10000 7.2 300 13:20 13.04.2020
4957 Clouds 27 1016 26 10000 4.1 320 12:59 13.04.2020
4958 Clouds 27 1016 26 10000 4.1 320 12:40 13.04.2020
4959 Clouds 27 1016 26 10000 4.1 320 12:20 13.04.2020
4960 Clouds 27 1016 24 10000 4.6 320 11:58 13.04.2020
4961 Clouds 27 1016 24 10000 4.6 320 11:40 13.04.2020
4962 Clouds 27 1016 24 10000 4.6 320 11:18 13.04.2020
4963 Clouds 26 1017 31 10000 4.1 330 10:55 13.04.2020
4964 Clouds 26 1017 31 10000 4.1 330 10:37 13.04.2020
4965 Clouds 26 1017 31 10000 4.1 330 10:18 13.04.2020
4966 Clear 24 1017 38 10000 2.6 350 09:44 13.04.2020
4967 Clear 24 1017 38 10000 2.6 350 09:25 13.04.2020
4968 Clear 22 1017 49 10000 3.1 310 08:46 13.04.2020
4969 Clear 22 1017 49 10000 3.1 310 08:46 13.04.2020
4970 Clear 22 1017 49 10000 3.1 310 08:27 13.04.2020
4971 Clear 20 1016 56 10000 3.1 310 07:58 13.04.2020
4972 Clear 20 1016 56 10000 3.1 310 07:38 13.04.2020
4973 Clear 17 1016 59 10000 1.5 300 07:19 13.04.2020
4974 Clear 17 1016 59 10000 1.5 300 06:46 13.04.2020
4975 Clear 14 1015 67 10000 3.1 310 05:53 13.04.2020
4976 Clear 14 1015 67 10000 3.1 310 05:27 13.04.2020
4977 Clear 15 1015 62 10000 2.1 330 04:50 13.04.2020
4978 Clear 15 1015 62 10000 2.1 330 04:20 13.04.2020
4979 Clear 15 1014 62 10000 2.1 320 03:43 13.04.2020
4980 Clear 16 1014 55 10000 1.5 310 02:41 13.04.2020
4981 Clear 17 1015 51 10000 2.6 330 01:48 13.04.2020
4982 Clear 17 1015 51 10000 2.6 330 01:30 13.04.2020
4983 Clouds 16 1015 55 10000 4.1 330 00:51 13.04.2020
4984 Clouds 16 1015 55 10000 4.1 330 00:30 13.04.2020
4985 Clouds 18 1015 55 10000 2.56 334 23:58 12.04.2020
4986 Clouds 18 1015 55 10000 2.56 334 23:39 12.04.2020
4987 Clouds 18 1015 55 10000 2.56 334 23:21 12.04.2020
4988 Clear 19 1015 52 10000 1.5 190 22:55 12.04.2020
4989 Clear 19 1015 52 10000 1.5 190 22:36 12.04.2020
4990 Clear 19 1015 52 10000 1.5 190 22:18 12.04.2020
4991 Clear 20 1015 45 10000 1 200 21:38 12.04.2020
4992 Clouds 20 1015 45 10000 1 200 21:20 12.04.2020
4993 Clouds 20 1014 40 10000 1 0 20:54 12.04.2020
4994 Clouds 20 1014 40 10000 1 0 20:36 12.04.2020
4995 Clouds 20 1014 40 10000 1 0 20:18 12.04.2020
4996 Clouds 22 1014 37 10000 1 290 19:41 12.04.2020
4997 Clouds 23 1013 35 10000 3.1 320 19:20 12.04.2020
4998 Clouds 23 1013 35 10000 3.1 320 18:59 12.04.2020
4999 Clouds 23 1013 35 10000 3.1 320 18:40 12.04.2020
5000 Clouds 25 1013 31 10000 2.1 330 18:19 12.04.2020
5001 Clouds 25 1013 31 10000 2.1 330 17:55 12.04.2020
5002 Clouds 25 1013 31 10000 2.1 330 17:37 12.04.2020
5003 Clouds 25 1013 31 10000 2.1 330 17:37 12.04.2020
5004 Clouds 25 1013 31 10000 2.1 330 17:18 12.04.2020
5005 Clouds 26 1013 29 10000 5.1 300 16:42 12.04.2020
5006 Clouds 26 1013 29 10000 5.1 300 16:22 12.04.2020
5007 Clouds 26 1013 31 10000 5.1 280 15:55 12.04.2020
5008 Clouds 26 1013 31 10000 5.1 280 15:37 12.04.2020
5009 Clouds 26 1013 31 10000 5.1 280 15:18 12.04.2020
5010 Clouds 26 1013 29 10000 5.1 260 14:39 12.04.2020
5011 Clouds 26 1013 29 10000 5.1 260 14:21 12.04.2020
5012 Clouds 26 1014 31 10000 5.1 240 13:57 12.04.2020
5013 Clouds 26 1014 31 10000 5.1 240 13:37 12.04.2020
5014 Clouds 26 1014 31 10000 5.1 240 13:37 12.04.2020
5015 Clouds 26 1014 31 10000 5.1 240 13:18 12.04.2020
5016 Clouds 26 1015 29 10000 5.7 240 12:45 12.04.2020
5017 Clouds 26 1015 29 10000 5.7 240 12:21 12.04.2020
5018 Clouds 25 1015 33 10000 5.1 240 11:58 12.04.2020
5019 Clouds 25 1015 33 10000 5.1 240 11:38 12.04.2020
5020 Clouds 25 1015 33 10000 5.1 240 11:19 12.04.2020
5021 Clouds 24 1016 36 10000 4.6 250 10:56 12.04.2020
5022 Clouds 24 1016 36 10000 4.6 250 10:38 12.04.2020
5023 Clouds 24 1016 36 10000 4.6 250 10:19 12.04.2020
5024 Clouds 24 1016 38 10000 4.1 260 09:56 12.04.2020
5025 Clouds 24 1016 38 10000 4.1 260 09:37 12.04.2020
5026 Clear 24 1016 38 10000 4.1 260 09:19 12.04.2020
5027 Clear 21 1015 49 10000 4.1 270 08:50 12.04.2020
5028 Clear 21 1015 49 10000 4.1 270 08:30 12.04.2020
5029 Clear 19 1015 55 10000 2.6 260 07:47 12.04.2020
5030 Clear 19 1015 55 10000 2.6 260 07:19 12.04.2020
5031 Clear 17 1014 55 10000 2.6 270 06:54 12.04.2020
5032 Clear 17 1014 55 10000 2.6 270 06:26 12.04.2020
5033 Clouds 14 1014 62 10000 1 0 05:42 12.04.2020
5034 Clear 14 1013 58 10000 2.6 280 04:26 12.04.2020
5035 Clouds 15 1012 58 10000 1 210 03:29 12.04.2020
5036 Clouds 16 1012 55 10000 1 210 02:48 12.04.2020
5037 Clouds 16 1012 55 10000 1 210 02:27 12.04.2020
5038 Clouds 17 1012 48 10000 1 0 01:22 12.04.2020
5039 Clouds 19 1012 45 10000 1 0 00:43 12.04.2020
5040 Clouds 19 1012 45 10000 1 0 00:21 12.04.2020
5041 Clouds 19 1012 45 10000 1 0 00:21 12.04.2020
5042 Clouds 18 1012 42 10000 1 0 23:47 11.04.2020
5043 Clouds 18 1012 42 10000 1 0 23:26 11.04.2020
5044 Clouds 19 1012 42 10000 1 0 22:59 11.04.2020
5045 Clouds 19 1012 42 10000 1 0 22:37 11.04.2020
5046 Clouds 19 1012 42 10000 1 0 22:18 11.04.2020
5047 Clouds 20 1012 40 10000 1 290 21:55 11.04.2020
5048 Clear 20 1012 40 10000 1 290 21:36 11.04.2020
5049 Clear 20 1012 40 10000 1 290 21:18 11.04.2020
5050 Clear 20 1012 34 10000 1 0 20:56 11.04.2020
5051 Clear 20 1012 34 10000 1 0 20:37 11.04.2020
5052 Clear 20 1012 34 10000 1 0 20:19 11.04.2020
5053 Clear 20 1012 34 10000 1 0 20:19 11.04.2020
5054 Clear 22 1011 33 10000 1.5 260 19:56 11.04.2020
5055 Clear 22 1011 33 10000 1.5 260 19:38 11.04.2020
5056 Clear 22 1011 33 10000 1.5 260 19:38 11.04.2020
5057 Clear 22 1011 33 10000 1.5 260 19:18 11.04.2020
5058 Clouds 23 1011 31 10000 3.1 260 18:55 11.04.2020
5059 Clouds 23 1011 31 10000 3.1 260 18:37 11.04.2020
5060 Clouds 25 1010 29 10000 4.6 260 18:18 11.04.2020
5061 Clouds 25 1010 29 10000 4.6 260 17:57 11.04.2020
5062 Clouds 25 1010 29 10000 4.6 260 17:37 11.04.2020
5063 Clouds 25 1010 29 10000 4.6 260 17:19 11.04.2020
5064 Clouds 25 1010 27 10000 5.7 260 16:42 11.04.2020
5065 Clouds 26 1010 29 10000 5.1 270 16:21 11.04.2020
5066 Clouds 26 1010 29 10000 5.1 270 15:42 11.04.2020
5067 Clouds 26 1010 29 10000 5.1 270 15:21 11.04.2020
5068 Clouds 26 1010 29 10000 5.1 270 14:59 11.04.2020
5069 Clouds 26 1010 29 10000 5.1 270 14:40 11.04.2020
5070 Clouds 26 1010 29 10000 5.1 270 14:22 11.04.2020
5071 Clouds 25 1011 31 10000 4.6 250 13:46 11.04.2020
5072 Clouds 25 1011 31 10000 4.6 250 13:26 11.04.2020
5073 Clouds 25 1011 31 10000 5.7 240 12:59 11.04.2020
5074 Clouds 25 1011 31 10000 5.7 240 12:38 11.04.2020
5075 Clouds 25 1011 31 10000 5.7 240 12:18 11.04.2020
5076 Clouds 25 1011 33 10000 5.7 250 11:54 11.04.2020
5077 Clouds 25 1011 33 10000 5.7 250 11:36 11.04.2020
5078 Clouds 25 1011 33 10000 5.7 250 11:18 11.04.2020
5079 Clear 24 1012 33 10000 5.7 230 10:41 11.04.2020
5080 Clear 24 1012 33 10000 5.7 230 10:21 11.04.2020
5081 Clear 23 1012 38 10000 4.1 240 09:57 11.04.2020
5082 Clear 23 1012 38 10000 4.1 240 09:39 11.04.2020
5083 Clear 23 1012 38 10000 4.1 240 09:20 11.04.2020
5084 Clear 21 1011 46 10000 3.1 230 08:45 11.04.2020
5085 Clear 21 1011 46 10000 3.1 230 08:27 11.04.2020
5086 Clear 19 1011 48 10000 3.6 250 07:49 11.04.2020
5087 Clear 19 1011 48 10000 3.6 250 07:28 11.04.2020
5088 Clear 18 1011 45 10000 2.6 250 06:48 11.04.2020
5089 Clear 18 1011 45 10000 2.6 250 06:18 11.04.2020
5090 Clear 15 1010 54 10000 1 220 05:24 11.04.2020
5091 Clouds 19 1008 45 10000 5.7 300 03:40 11.04.2020
5092 Clouds 18 1008 42 10000 4.6 230 01:55 11.04.2020
5093 Clouds 18 1008 42 10000 4.6 230 01:23 11.04.2020
5094 Clear 17 1008 42 10000 1 270 00:44 11.04.2020
5095 Clear 17 1008 42 10000 1 270 00:19 11.04.2020
5096 Clear 18 1008 39 10000 2.1 250 23:57 10.04.2020
5097 Clear 18 1008 39 10000 2.1 250 23:38 10.04.2020
5098 Clear 18 1008 39 10000 2.1 250 23:19 10.04.2020
5099 Clear 20 1008 34 10000 3.1 250 22:43 10.04.2020
5100 Clear 20 1008 34 10000 3.1 250 22:22 10.04.2020
5101 Clear 20 1008 34 10000 3.1 220 21:58 10.04.2020
5102 Clear 20 1008 34 10000 3.1 220 21:40 10.04.2020
5103 Clear 20 1008 34 10000 3.1 220 21:20 10.04.2020
5104 Clear 21 1008 32 10000 3.1 250 20:44 10.04.2020
5105 Clear 21 1008 32 10000 3.1 250 20:24 10.04.2020
5106 Clear 23 1007 27 10000 3.6 260 19:59 10.04.2020
5107 Clear 23 1007 27 10000 3.6 260 19:41 10.04.2020
5108 Clear 23 1007 27 10000 3.6 260 19:21 10.04.2020
5109 Clear 23 1007 27 10000 3.6 260 19:21 10.04.2020
5110 Clear 24 1006 25 10000 4.6 260 18:58 10.04.2020
5111 Clear 24 1006 25 10000 4.6 260 18:58 10.04.2020
5112 Clear 24 1006 25 10000 4.6 260 18:58 10.04.2020
5113 Clear 24 1006 25 10000 4.6 260 18:40 10.04.2020
5114 Clear 24 1006 25 10000 4.6 260 18:21 10.04.2020
5115 Clear 27 1005 26 10000 4.6 250 17:58 10.04.2020
5116 Clear 27 1005 26 10000 4.6 250 17:58 10.04.2020
5117 Clear 27 1005 26 10000 4.6 250 17:40 10.04.2020
5118 Clear 27 1005 26 10000 4.6 250 17:21 10.04.2020
5119 Clouds 27 1005 26 10000 4.6 260 16:57 10.04.2020
5120 Clouds 27 1005 26 10000 4.6 260 16:38 10.04.2020
5121 Clouds 27 1005 26 10000 4.6 260 16:20 10.04.2020
5122 Clouds 27 1005 26 10000 4.1 260 15:57 10.04.2020
5123 Clouds 27 1005 26 10000 4.1 260 15:38 10.04.2020
5124 Clouds 27 1005 26 10000 4.1 260 15:19 10.04.2020
5125 Clouds 27 1006 28 10000 3.6 270 14:58 10.04.2020
5126 Clouds 27 1006 28 10000 3.6 270 14:39 10.04.2020
5127 Clouds 27 1006 28 10000 3.6 270 14:19 10.04.2020
5128 Clouds 27 1006 28 10000 4.1 230 13:43 10.04.2020
5129 Clouds 27 1006 28 10000 4.1 230 13:22 10.04.2020
5130 Clear 27 1007 32 10000 4.1 260 12:45 10.04.2020
5131 Clear 27 1007 32 10000 4.1 260 12:24 10.04.2020
5132 Clear 25 1008 36 10000 4.6 260 11:59 10.04.2020
5133 Clear 25 1008 36 10000 4.6 260 11:40 10.04.2020
5134 Clear 25 1008 36 10000 4.6 260 11:22 10.04.2020
5135 Clear 28 1007 23 0 4.65 282 10:56 10.04.2020
5136 Clouds 24 1008 41 10000 6.2 260 10:37 10.04.2020
5137 Clouds 24 1008 41 10000 6.2 260 10:37 10.04.2020
5138 Clouds 24 1008 41 10000 6.2 260 10:18 10.04.2020
5139 Clouds 24 1008 41 10000 6.2 260 09:42 10.04.2020
5140 Clouds 24 1008 41 10000 6.2 260 09:20 10.04.2020
5141 Clear 22 1008 49 10000 4.6 270 08:47 10.04.2020
5142 Clear 22 1008 49 10000 4.6 270 08:26 10.04.2020
5143 Clear 19 1008 63 10000 3.6 260 07:49 10.04.2020
5144 Clear 19 1008 63 10000 3.6 260 07:28 10.04.2020
5145 Clear 18 1007 59 10000 3.1 260 06:59 10.04.2020
5146 Clear 18 1007 59 10000 3.1 260 06:30 10.04.2020
5147 Clear 15 1006 62 10000 1 0 05:59 10.04.2020
5148 Clear 15 1006 62 10000 1 0 05:22 10.04.2020
5149 Clear 15 1005 62 10000 3.1 300 04:42 10.04.2020
5150 Clear 16 1005 63 10000 3.1 300 03:32 10.04.2020
5151 Clear 16 1005 67 10000 3.1 320 02:50 10.04.2020
5152 Clear 16 1005 67 10000 3.1 320 02:31 10.04.2020
5153 Clear 18 1004 55 10000 3.6 300 01:43 10.04.2020
5154 Clear 18 1004 55 10000 3.6 300 01:25 10.04.2020
5155 Clear 19 1004 52 10000 2.6 330 00:45 10.04.2020
5156 Clear 19 1004 52 10000 2.6 330 00:20 10.04.2020
5157 Clear 19 1004 55 10000 3.1 310 23:41 09.04.2020
5158 Clear 19 1004 55 10000 3.1 310 23:23 09.04.2020
5159 Clear 20 1004 56 10000 3.1 290 22:56 09.04.2020
5160 Clear 20 1004 56 10000 3.1 290 22:38 09.04.2020
5161 Clear 20 1004 56 10000 3.1 290 22:20 09.04.2020
5162 Clear 21 1004 56 9000 1.5 290 21:38 09.04.2020
5163 Rain 21 1004 56 9000 1.5 290 21:20 09.04.2020
5164 Rain 22 1004 56 10000 2.1 320 20:47 09.04.2020
5165 Rain 22 1004 56 10000 2.1 320 20:23 09.04.2020
5166 Rain 25 1004 47 10000 3.6 290 19:59 09.04.2020
5167 Rain 25 1004 47 10000 3.6 290 19:38 09.04.2020
5168 Rain 25 1004 47 10000 3.6 290 19:20 09.04.2020
5169 Rain 26 1004 54 10000 3.1 280 18:42 09.04.2020
5170 Rain 26 1004 54 10000 3.1 280 18:21 09.04.2020
5171 Rain 28 1003 48 10000 2.6 300 17:57 09.04.2020
5172 Rain 28 1003 48 10000 2.6 300 17:38 09.04.2020
5173 Rain 28 1003 48 10000 2.6 300 17:18 09.04.2020
5174 Clouds 28 1003 51 10000 3.6 310 16:40 09.04.2020
5175 Clouds 28 1003 51 10000 3.6 310 16:20 09.04.2020
5176 Rain 29 1003 48 10000 4.1 320 15:56 09.04.2020
5177 Rain 29 1003 48 10000 4.1 320 15:37 09.04.2020
5178 Rain 29 1003 48 10000 4.1 320 15:19 09.04.2020
5179 Clouds 28 1004 51 10000 3.6 340 14:43 09.04.2020
5180 Clouds 28 1004 51 10000 3.6 340 14:21 09.04.2020
5181 Clouds 28 1004 48 10000 4.1 310 13:58 09.04.2020
5182 Clouds 28 1004 48 10000 4.1 310 13:40 09.04.2020
5183 Clouds 28 1004 48 10000 4.1 310 13:22 09.04.2020
5184 Rain 28 1005 48 9000 2.1 0 12:55 09.04.2020
5185 Rain 28 1005 48 9000 2.1 0 12:36 09.04.2020
5186 Rain 28 1005 48 9000 2.1 0 12:18 09.04.2020
5187 Rain 26 1006 54 9000 2.6 260 11:43 09.04.2020
5188 Rain 26 1006 54 9000 2.6 260 11:20 09.04.2020
5189 Clouds 28 1006 45 9000 1 0 10:58 09.04.2020
5190 Clouds 28 1006 45 9000 1 0 10:40 09.04.2020
5191 Clouds 28 1006 45 9000 1 0 10:21 09.04.2020
5192 Rain 27 1007 47 10000 0.5 0 09:56 09.04.2020
5193 Rain 27 1007 47 10000 0.5 0 09:56 09.04.2020
5194 Rain 27 1007 47 10000 0.5 0 09:38 09.04.2020
5195 Rain 27 1007 47 10000 0.5 0 09:20 09.04.2020
5196 Rain 25 1007 50 10000 1 0 08:44 09.04.2020
5197 Rain 25 1007 50 10000 1 0 08:23 09.04.2020
5198 Rain 22 1006 60 10000 1 340 07:57 09.04.2020
5199 Rain 22 1006 60 10000 1 340 07:28 09.04.2020
5200 Rain 22 1006 60 10000 1.5 330 06:57 09.04.2020
5201 Clouds 21 1006 60 10000 1.5 320 06:25 09.04.2020
5202 Clouds 20 1006 64 10000 1 10 05:43 09.04.2020
5203 Clouds 21 1006 60 10000 2.1 50 04:26 09.04.2020
5204 Rain 20 1006 60 10000 2.6 360 02:32 09.04.2020
5205 Rain 20 1006 64 10000 3.6 340 01:42 09.04.2020
5206 Rain 20 1006 64 10000 3.6 340 01:24 09.04.2020
5207 Rain 20 1007 60 10000 3.1 320 00:43 09.04.2020
5208 Rain 20 1007 60 10000 3.1 320 00:20 09.04.2020
5209 Rain 20 1007 60 10000 3.1 320 00:20 09.04.2020
5210 Rain 21 1008 56 10000 3.1 310 23:59 08.04.2020
5211 Rain 21 1008 56 10000 3.1 310 23:41 08.04.2020
5212 Rain 21 1008 56 10000 3.1 310 23:21 08.04.2020
5213 Rain 22 1008 53 10000 1 360 22:44 08.04.2020
5214 Rain 22 1008 53 10000 1 360 22:24 08.04.2020
5215 Rain 23 1008 46 10000 2.1 300 21:57 08.04.2020
5216 Rain 23 1008 46 10000 2.1 300 21:38 08.04.2020
5217 Rain 23 1008 46 10000 2.1 300 21:20 08.04.2020
5218 Rain 25 1008 41 10000 2.6 340 20:58 08.04.2020
5219 Rain 25 1008 41 10000 2.6 340 20:39 08.04.2020
5220 Rain 25 1008 41 10000 2.6 340 20:20 08.04.2020
5221 Rain 26 1008 39 10000 2.6 340 19:56 08.04.2020
5222 Rain 26 1008 39 10000 2.6 340 19:37 08.04.2020
5223 Rain 26 1008 39 10000 2.6 340 19:18 08.04.2020
5224 Clouds 28 1007 34 10000 2.6 360 18:42 08.04.2020
5225 Clouds 28 1007 34 10000 2.6 360 18:23 08.04.2020
5226 Rain 29 1007 35 10000 4.6 360 17:56 08.04.2020
5227 Rain 29 1007 35 10000 4.6 360 17:38 08.04.2020
5228 Rain 29 1007 35 10000 4.6 360 17:18 08.04.2020
5229 Rain 30 1007 35 10000 4.1 10 16:42 08.04.2020
5230 Rain 30 1007 35 10000 4.1 10 16:23 08.04.2020
5231 Clouds 30 1007 33 10000 4.6 340 15:55 08.04.2020
5232 Clouds 31 1008 31 10000 5.1 350 15:37 08.04.2020
5233 Clouds 31 1008 31 10000 5.1 350 15:18 08.04.2020
5234 Clouds 31 1008 31 10000 5.1 350 14:42 08.04.2020
5235 Clouds 31 1008 31 10000 5.1 350 14:24 08.04.2020
5236 Clouds 30 1008 35 10000 3.6 10 13:54 08.04.2020
5237 Clouds 30 1008 35 10000 3.6 10 13:54 08.04.2020
5238 Clouds 30 1008 35 10000 3.6 10 13:36 08.04.2020
5239 Clouds 30 1008 35 10000 3.6 10 13:18 08.04.2020
5240 Clouds 30 1009 33 10000 5.1 360 12:41 08.04.2020
5241 Clouds 30 1009 33 10000 5.1 360 12:18 08.04.2020
5242 Clouds 30 1009 33 10000 5.1 360 12:18 08.04.2020
5243 Clouds 29 1010 32 10000 4.1 40 11:56 08.04.2020
5244 Clouds 29 1010 32 10000 4.1 40 11:38 08.04.2020
5245 Clouds 29 1010 32 10000 4.1 40 11:19 08.04.2020
5246 Clouds 29 1010 32 10000 4.1 20 10:55 08.04.2020
5247 Clouds 28 1010 37 10000 4.6 10 10:37 08.04.2020
5248 Clouds 28 1010 37 10000 4.6 10 10:18 08.04.2020
5249 Clouds 28 1010 37 10000 4.6 10 10:18 08.04.2020
5250 Clouds 26 1011 41 10000 4.1 10 09:42 08.04.2020
5251 Clouds 26 1011 41 10000 4.1 10 09:20 08.04.2020
5252 Clouds 24 1010 50 10000 3.1 10 08:59 08.04.2020
5253 Clouds 24 1010 50 10000 3.1 10 08:59 08.04.2020
5254 Clouds 24 1010 50 10000 3.1 10 08:40 08.04.2020
5255 Clouds 24 1010 50 10000 3.1 10 08:21 08.04.2020
5256 Clouds 21 1010 60 10000 2.1 340 07:43 08.04.2020
5257 Clouds 21 1010 60 10000 2.1 340 07:22 08.04.2020
5258 Clouds 19 1009 59 10000 3.1 330 06:43 08.04.2020
5259 Clouds 18 1009 63 10000 3.1 320 05:49 08.04.2020
5260 Clouds 18 1009 59 10000 2.1 330 03:34 08.04.2020
5261 Clouds 19 1009 59 10000 1 340 02:41 08.04.2020
5262 Clouds 19 1009 59 10000 1 340 02:19 08.04.2020
5263 Clouds 19 1009 55 10000 2.1 350 01:30 08.04.2020
5264 Clouds 19 1009 59 10000 1.5 50 00:57 08.04.2020
5265 Clouds 19 1009 59 10000 1.5 50 00:39 08.04.2020
5266 Clouds 19 1009 59 10000 1.5 50 00:19 08.04.2020
5267 Clouds 20 1010 56 10000 1.5 330 23:39 07.04.2020
5268 Clouds 20 1010 56 10000 1.5 330 23:20 07.04.2020
5269 Clouds 21 1010 52 10000 1.5 40 22:56 07.04.2020
5270 Clouds 21 1010 52 10000 1.5 40 22:38 07.04.2020
5271 Clouds 20 1010 52 10000 1.5 40 22:19 07.04.2020
5272 Clouds 21 1010 49 10000 1.5 280 21:55 07.04.2020
5273 Clouds 21 1010 49 10000 1.5 280 21:37 07.04.2020
5274 Clouds 21 1010 49 10000 1.5 280 21:18 07.04.2020
5275 Clouds 21 1010 43 10000 3.1 260 20:55 07.04.2020
5276 Clouds 21 1010 43 10000 3.1 260 20:55 07.04.2020
5277 Clouds 22 1010 43 10000 3.1 260 20:36 07.04.2020
5278 Clouds 22 1010 43 10000 3.1 260 20:18 07.04.2020
5279 Clouds 23 1010 43 10000 2.1 270 19:55 07.04.2020
5280 Clouds 23 1010 43 10000 2.1 270 19:36 07.04.2020
5281 Clouds 24 1009 44 10000 1 320 19:18 07.04.2020
5282 Clouds 24 1009 44 10000 1 320 18:41 07.04.2020
5283 Clouds 24 1009 44 10000 1 320 18:21 07.04.2020
5284 Clouds 24 1009 44 10000 1 320 18:21 07.04.2020
5285 Clouds 25 1009 38 10000 2.6 330 17:56 07.04.2020
5286 Clouds 25 1009 38 10000 2.6 330 17:37 07.04.2020
5287 Clouds 25 1009 38 10000 2.6 330 17:19 07.04.2020
5288 Clouds 26 1009 34 10000 3.6 340 16:44 07.04.2020
5289 Clouds 26 1009 34 10000 3.6 340 16:26 07.04.2020
5290 Clouds 26 1009 34 10000 3.6 340 16:26 07.04.2020
5291 Clouds 27 1009 28 10000 5.7 330 15:46 07.04.2020
5292 Clouds 27 1009 28 10000 6.2 320 15:26 07.04.2020
5293 Clouds 27 1009 28 10000 6.2 320 14:56 07.04.2020
5294 Clouds 27 1009 28 10000 6.2 320 14:38 07.04.2020
5295 Clouds 27 1009 28 10000 6.2 320 14:19 07.04.2020
5296 Clouds 27 1010 32 10000 4.1 350 13:43 07.04.2020
5297 Clouds 27 1010 32 10000 4.1 350 13:20 07.04.2020
5298 Clouds 26 1011 36 10000 3.6 320 12:58 07.04.2020
5299 Clouds 26 1011 36 10000 3.6 320 12:39 07.04.2020
5300 Clouds 26 1011 36 10000 3.6 320 12:21 07.04.2020
5301 Clouds 26 1011 39 10000 5.7 310 11:58 07.04.2020
5302 Clouds 26 1011 39 10000 5.7 310 11:40 07.04.2020
5303 Clouds 26 1011 39 10000 5.7 310 11:20 07.04.2020
5304 Clouds 26 1012 36 10000 5.7 330 10:54 07.04.2020
5305 Clouds 26 1012 36 10000 5.7 330 10:36 07.04.2020
5306 Clouds 26 1012 36 10000 5.7 330 10:18 07.04.2020
5307 Clouds 24 1012 44 10000 5.1 330 09:40 07.04.2020
5308 Clouds 24 1012 44 10000 5.1 330 09:18 07.04.2020
5309 Clouds 21 1012 56 10000 5.7 320 08:40 07.04.2020
5310 Clouds 21 1012 56 10000 5.7 320 08:22 07.04.2020
5311 Clouds 20 1011 60 10000 4.6 310 07:55 07.04.2020
5312 Clouds 20 1011 60 10000 4.6 310 07:37 07.04.2020
5313 Clouds 20 1011 60 10000 4.6 310 07:18 07.04.2020
5314 Clouds 19 1011 63 10000 3.6 290 06:39 07.04.2020
5315 Clouds 19 1011 63 10000 3.6 290 06:18 07.04.2020
5316 Clouds 20 1010 52 10000 2.6 250 05:26 07.04.2020
5317 Clouds 21 1010 49 10000 3.1 80 04:31 07.04.2020
5318 Clouds 21 1010 52 10000 2.6 70 03:23 07.04.2020
5319 Clouds 21 1010 52 10000 1 0 02:47 07.04.2020
5320 Rain 21 1011 49 10000 1 360 01:43 07.04.2020
5321 Rain 21 1011 49 10000 1 360 01:23 07.04.2020
5322 Clouds 22 1011 49 10000 2.6 340 00:26 07.04.2020
5323 Clouds 22 1012 49 10000 2.6 320 23:44 06.04.2020
5324 Clouds 22 1012 49 10000 2.6 320 23:44 06.04.2020
5325 Clouds 22 1012 49 10000 2.6 320 23:23 06.04.2020
5326 Clouds 22 1012 46 10000 3.1 260 22:56 06.04.2020
5327 Clouds 22 1012 46 10000 3.1 260 22:37 06.04.2020
5328 Clouds 22 1012 46 10000 3.1 260 22:19 06.04.2020
5329 Clouds 23 1011 46 10000 3.6 150 21:56 06.04.2020
5330 Clouds 23 1011 46 10000 3.6 150 21:37 06.04.2020
5331 Clouds 23 1011 46 10000 3.6 150 21:18 06.04.2020
5332 Clouds 24 1009 44 10000 8.7 130 20:42 06.04.2020
5333 Clouds 24 1009 44 10000 8.7 130 20:23 06.04.2020
5334 Clouds 24 1009 44 10000 8.7 130 20:23 06.04.2020
5335 Clouds 25 1010 41 10000 6.7 120 19:59 06.04.2020
5336 Clouds 25 1010 41 10000 6.7 120 19:40 06.04.2020
5337 Clouds 25 1010 41 10000 6.7 120 19:22 06.04.2020
5338 Clouds 26 1009 41 10000 5.1 110 18:55 06.04.2020
5339 Clouds 26 1009 41 10000 5.1 110 18:37 06.04.2020
5340 Clouds 27 1008 39 10000 8.2 120 18:19 06.04.2020
5341 Clouds 27 1008 39 10000 8.2 120 17:42 06.04.2020
5342 Clouds 27 1008 39 10000 8.2 120 17:19 06.04.2020
5343 Clouds 27 1008 39 10000 8.2 120 17:19 06.04.2020
5344 Rain 28 1010 24 0 7.79 125 16:50 06.04.2020
5345 Clouds 30 1009 33 10000 8.2 140 16:31 06.04.2020
5346 Clouds 30 1009 33 10000 8.2 140 15:40 06.04.2020
5347 Clouds 30 1010 28 10000 7.7 130 13:46 06.04.2020
5348 Clouds 30 1010 28 10000 7.7 130 13:24 06.04.2020
5349 -273 0 0 0 0 0 12:58 06.04.2020
5350 -273 0 0 0 0 0 12:58 06.04.2020
5351 Clouds 29 1011 30 10000 8.7 110 12:56 06.04.2020
5352 Clouds 29 1011 30 10000 8.7 110 12:56 06.04.2020
5353 Clouds 29 1011 30 10000 8.7 110 12:56 06.04.2020
5354 Clouds 29 1011 30 10000 8.7 110 12:22 06.04.2020
5355 Clouds 29 1011 30 10000 8.7 110 12:21 06.04.2020
5356 Clouds 29 1013 28 10000 5.7 110 11:54 06.04.2020
5357 Clouds 29 1013 28 10000 5.7 110 11:32 06.04.2020
5358 Clouds 29 1013 28 10000 5.7 110 11:32 06.04.2020
5359 Clouds 29 1013 28 10000 5.7 110 11:32 06.04.2020
5360 Clouds 29 1013 28 10000 5.7 110 11:32 06.04.2020
5361 Clouds 29 1013 28 10000 5.7 110 11:32 06.04.2020
5362 Clouds 28 1014 28 10000 6.2 140 10:50 06.04.2020
5363 Clouds 28 1014 28 10000 6.2 140 10:50 06.04.2020
5364 Clouds 28 1014 28 10000 6.2 140 10:50 06.04.2020
5365 Clouds 28 1014 28 10000 6.2 140 10:21 06.04.2020
5366 Clouds 27 1015 28 10000 5.1 160 09:47 06.04.2020
5367 Clouds 27 1015 28 10000 5.1 160 09:47 06.04.2020
5368 Clouds 27 1015 28 10000 5.1 160 09:47 06.04.2020
5369 Clouds 27 1015 28 10000 5.1 160 09:47 06.04.2020
5370 Clouds 27 1015 28 10000 5.1 160 09:47 06.04.2020
5371 Clouds 27 1015 28 10000 5.1 160 09:21 06.04.2020
5372 Clouds 27 1015 28 10000 5.1 160 09:21 06.04.2020
5373 Clouds 25 1014 31 10000 5.7 140 08:54 06.04.2020
5374 Clouds 25 1014 31 10000 5.7 140 08:30 06.04.2020
5375 Clouds 22 1014 37 10000 3.1 140 07:30 06.04.2020
5376 Clouds 22 1014 37 10000 3.1 140 07:30 06.04.2020
5377 Clouds 22 1014 37 10000 3.1 140 07:30 06.04.2020
5378 Clouds 20 1014 45 10000 1.5 80 06:41 06.04.2020
5379 Clouds 20 1014 45 10000 1.5 80 06:22 06.04.2020
5380 Clouds 18 1013 52 10000 3.1 120 04:19 06.04.2020
5381 Clouds 20 1015 45 10000 2.6 210 02:57 06.04.2020
5382 Clouds 20 1015 45 10000 2.6 210 02:25 06.04.2020
5383 Clouds 22 1015 35 10000 2.6 100 01:26 06.04.2020
5384 Clouds 20 1015 49 10000 2.1 40 00:41 06.04.2020
5385 Clouds 20 1015 49 10000 2.1 40 00:23 06.04.2020
5386 Clouds 20 1016 45 10000 0.5 0 23:43 05.04.2020
5387 Clouds 20 1016 45 10000 0.5 0 23:25 05.04.2020
5388 Clouds 20 1016 45 10000 0.5 0 23:25 05.04.2020
5389 Clouds 20 1016 45 10000 0.5 0 23:25 05.04.2020
5390 Mist 20 1017 42 10000 1 310 22:55 05.04.2020
5391 Mist 20 1017 42 10000 1 310 22:55 05.04.2020
5392 Mist 20 1017 42 10000 1 310 22:37 05.04.2020
5393 Mist 20 1017 42 10000 1 310 22:18 05.04.2020
5394 Clouds 22 1018 37 10000 1 300 21:46 05.04.2020
5395 Clouds 22 1018 37 10000 1 300 21:24 05.04.2020
5396 Clouds 22 1018 37 10000 1 300 21:24 05.04.2020
5397 Clouds 22 1018 37 10000 1 300 21:24 05.04.2020
5398 Clouds 22 1018 37 10000 1.5 10 20:27 05.04.2020
5399 Clouds 23 1017 35 10000 2.1 360 20:00 05.04.2020
5400 Clouds 23 1017 35 10000 2.1 360 19:37 05.04.2020
5401 Clouds 23 1017 35 10000 2.1 360 19:19 05.04.2020
5402 Clouds 24 1017 31 10000 1 360 18:44 05.04.2020
5403 Clouds 24 1017 31 10000 1 360 18:44 05.04.2020
5404 Clouds 24 1017 31 10000 1 360 18:44 05.04.2020
5405 Clouds 24 1017 31 10000 1 360 18:44 05.04.2020
5406 Clouds 24 1017 31 10000 1 360 18:44 05.04.2020
5407 Clouds 26 1017 26 10000 2.6 340 17:52 05.04.2020
5408 Clouds 26 1017 26 10000 2.6 340 17:52 05.04.2020
5409 Clouds 26 1017 26 10000 2.6 340 17:52 05.04.2020
5410 Clouds 26 1017 26 10000 2.6 340 17:52 05.04.2020
5411 Clouds 26 1017 26 10000 2.6 340 17:52 05.04.2020
5412 Clouds 26 1017 26 10000 2.6 340 17:24 05.04.2020
5413 Clouds 26 1017 26 10000 2.6 340 17:24 05.04.2020
5414 Clouds 26 1018 17 0 2.53 345 16:47 05.04.2020
5415 Clouds 28 1018 24 10000 2.1 0 16:20 05.04.2020
5416 Clouds 28 1018 24 10000 2.1 0 15:51 05.04.2020
5417 Clouds 28 1018 24 10000 2.1 0 15:32 05.04.2020
5418 Clouds 28 1018 24 10000 2.1 0 15:32 05.04.2020
5419 Clear 27 1019 24 10000 2.1 340 14:49 05.04.2020
5420 Clear 27 1019 24 10000 2.1 340 14:49 05.04.2020
5421 Clouds 27 1019 24 10000 2.1 340 14:25 05.04.2020
5422 Clouds 27 1019 24 10000 2.1 340 14:25 05.04.2020
5423 Clouds 28 1019 26 10000 4.1 240 13:43 05.04.2020
5424 Clouds 27 1020 24 10000 2.6 300 12:48 05.04.2020
5425 Clear 26 1020 27 10000 2.1 350 11:41 05.04.2020
5426 Clear 26 1020 27 10000 2.1 350 11:20 05.04.2020
5427 Clear 26 1020 27 10000 2.1 350 11:20 05.04.2020
5428 Clear 25 1020 31 10000 2.6 330 10:49 05.04.2020
5429 Clear 25 1020 31 10000 2.6 330 10:24 05.04.2020
5430 Clear 22 1021 40 10000 2.1 0 09:57 05.04.2020
5431 Clear 22 1021 40 10000 2.1 0 09:31 05.04.2020
5432 Clear 22 1021 40 10000 2.1 0 09:02 05.04.2020
5433 Clear 22 1021 40 10000 2.1 0 09:02 05.04.2020
5434 Clear 18 1020 52 10000 4.1 360 07:31 05.04.2020
5435 Clear 13 1019 66 10000 2.1 330 04:36 05.04.2020
5436 Clear 12 1019 66 10000 2.6 300 03:31 05.04.2020
5437 Clouds 14 1019 54 10000 1 0 02:51 05.04.2020
5438 Clouds 13 1020 58 10000 3.6 320 01:48 05.04.2020
5439 Clouds 13 1020 58 10000 3.6 320 01:28 05.04.2020
5440 Clouds 15 1020 51 10000 2.1 310 00:44 05.04.2020
5441 Clouds 15 1020 51 10000 2.1 310 00:21 05.04.2020
5442 Clouds 16 1020 48 10000 2.6 320 23:55 04.04.2020
5443 Clouds 16 1020 48 10000 2.6 320 23:37 04.04.2020
5444 Clouds 16 1020 48 10000 2.6 320 23:18 04.04.2020
5445 Clouds 16 1020 44 10000 2.6 330 22:40 04.04.2020
5446 Clouds 16 1020 44 10000 2.6 330 22:21 04.04.2020
5447 Clouds 17 1020 42 10000 3.1 330 21:58 04.04.2020
5448 Clouds 17 1020 42 10000 3.1 330 21:40 04.04.2020
5449 Clouds 17 1020 42 10000 3.1 330 21:19 04.04.2020
5450 Clouds 18 1020 36 10000 3.1 300 20:59 04.04.2020
5451 Clouds 18 1020 36 10000 3.1 300 20:40 04.04.2020
5452 Clouds 18 1020 36 10000 3.1 300 20:21 04.04.2020
5453 Clouds 21 1019 32 10000 3.6 300 19:57 04.04.2020
5454 Clouds 21 1019 32 10000 3.6 300 19:37 04.04.2020
5455 Clouds 21 1019 32 10000 3.6 300 19:19 04.04.2020
5456 Clouds 22 1018 30 10000 4.6 320 18:56 04.04.2020
5457 Clouds 22 1018 30 10000 4.6 320 18:38 04.04.2020
5458 Clouds 22 1018 30 10000 4.6 320 18:19 04.04.2020
5459 Clouds 25 1018 27 10000 6.7 320 17:56 04.04.2020
5460 -273 0 0 0 0 0 17:38 04.04.2020
5461 Clouds 25 1018 27 10000 6.7 320 17:18 04.04.2020
5462 Clouds 26 1017 24 10000 6.7 310 16:42 04.04.2020
5463 Clouds 26 1017 24 10000 6.7 310 16:22 04.04.2020
5464 Clouds 27 1016 22 10000 6.2 300 15:55 04.04.2020
5465 Clouds 27 1016 22 10000 6.2 300 15:37 04.04.2020
5466 Clouds 27 1016 22 10000 6.2 300 15:18 04.04.2020
5467 Clouds 27 1017 28 10000 5.7 280 14:43 04.04.2020
5468 Clouds 27 1017 28 10000 5.7 280 14:23 04.04.2020
5469 Clouds 27 1017 32 10000 4.6 270 13:56 04.04.2020
5470 Clouds 27 1017 32 10000 4.6 270 13:38 04.04.2020
5471 Clouds 27 1017 32 10000 4.6 270 13:19 04.04.2020
5472 Clouds 26 1017 36 10000 5.1 320 12:45 04.04.2020
5473 Clouds 26 1017 36 10000 5.1 320 12:26 04.04.2020
5474 Clouds 26 1017 36 10000 7.7 300 11:59 04.04.2020
5475 Clouds 26 1017 36 10000 7.7 300 11:38 04.04.2020
5476 Clouds 26 1017 36 10000 7.7 300 11:20 04.04.2020
5477 Clouds 26 1017 36 10000 7.7 300 11:20 04.04.2020
5478 Clouds 24 1017 44 10000 7.2 300 10:56 04.04.2020
5479 Clouds 24 1017 44 10000 7.2 300 10:38 04.04.2020
5480 Clouds 24 1017 44 10000 7.2 300 10:19 04.04.2020
5481 Clouds 24 1017 44 10000 5.7 300 09:54 04.04.2020
5482 Clouds 24 1017 44 10000 5.7 300 09:36 04.04.2020
5483 Clouds 24 1017 44 10000 5.7 300 09:18 04.04.2020
5484 Clouds 21 1017 49 10000 4.6 290 08:41 04.04.2020
5485 Clouds 21 1017 49 10000 4.6 290 08:21 04.04.2020
5486 Clouds 18 1016 55 10000 3.6 270 07:46 04.04.2020
5487 Clouds 18 1016 55 10000 3.6 270 07:26 04.04.2020
5488 Clouds 16 1015 59 10000 2.1 200 06:56 04.04.2020
5489 Clouds 16 1015 59 10000 2.1 200 06:20 04.04.2020
5490 Clouds 14 1015 67 10000 2.6 170 05:43 04.04.2020
5491 Clouds 14 1015 67 10000 2.6 170 05:43 04.04.2020
5492 Clouds 14 1015 67 10000 2.6 170 05:24 04.04.2020
5493 Clouds 14 1015 67 10000 2.6 150 04:31 04.04.2020
5494 Clouds 15 1015 62 10000 2.1 160 03:53 04.04.2020
5495 Clear 15 1014 62 10000 2.1 150 02:54 04.04.2020
5496 Clear 15 1014 62 10000 2.1 150 02:34 04.04.2020
5497 Clear 16 1014 59 10000 3.6 150 01:57 04.04.2020
5498 Clear 16 1014 59 10000 3.6 150 01:25 04.04.2020
5499 Clear 17 1014 59 10000 3.1 140 00:50 04.04.2020
5500 Clear 17 1014 59 10000 3.1 140 00:30 04.04.2020
5501 Clear 17 1014 55 10000 2.6 150 23:41 03.04.2020
5502 Clear 17 1014 55 10000 2.6 150 23:21 03.04.2020
5503 Clear 19 1014 52 10000 2.6 170 22:59 03.04.2020
5504 Clear 19 1014 52 10000 2.6 170 22:40 03.04.2020
5505 Clear 19 1014 52 10000 2.6 170 22:19 03.04.2020
5506 Clear 20 1014 49 10000 1.5 230 21:45 03.04.2020
5507 Clear 20 1014 49 10000 1.5 230 21:27 03.04.2020
5508 Clouds 21 1014 46 10000 4.1 130 20:59 03.04.2020
5509 Clouds 21 1014 46 10000 4.1 130 20:40 03.04.2020
5510 Clouds 21 1014 46 10000 4.1 130 20:22 03.04.2020
5511 Clouds 23 1013 40 10000 4.6 110 19:58 03.04.2020
5512 Clouds 23 1013 40 10000 4.6 110 19:39 03.04.2020
5513 Clouds 23 1013 40 10000 4.6 110 19:21 03.04.2020
5514 Clouds 25 1013 33 10000 4.1 100 19:00 03.04.2020
5515 Clouds 25 1013 33 10000 4.1 100 18:41 03.04.2020
5516 Clouds 25 1013 33 10000 4.1 100 18:23 03.04.2020
5517 Clouds 26 1012 34 10000 4.6 100 17:58 03.04.2020
5518 Clouds 26 1012 34 10000 4.6 100 17:39 03.04.2020
5519 Clouds 26 1012 34 10000 4.6 100 17:19 03.04.2020
5520 Clouds 27 1013 30 10000 4.6 110 16:46 03.04.2020
5521 Clouds 27 1013 30 10000 4.6 110 16:22 03.04.2020
5522 Clouds 27 1013 30 10000 3.1 150 15:59 03.04.2020
5523 Clouds 27 1013 30 10000 3.1 150 15:40 03.04.2020
5524 Clouds 27 1013 30 10000 3.1 150 15:21 03.04.2020
5525 Clouds 27 1014 30 10000 3.1 220 14:56 03.04.2020
5526 Clouds 26 1014 24 0 2.53 245 14:38 03.04.2020
5527 Clouds 26 1015 31 10000 2.6 180 14:20 03.04.2020
5528 Clouds 26 1015 31 10000 2.6 180 13:45 03.04.2020
5529 Clouds 26 1015 31 10000 2.6 180 13:26 03.04.2020
5530 Clouds 26 1015 29 10000 3.1 150 12:56 03.04.2020
5531 Clouds 26 1015 29 10000 3.1 150 12:37 03.04.2020
5532 Clouds 26 1015 29 10000 3.1 150 12:18 03.04.2020
5533 Clouds 25 1016 31 10000 2.1 0 11:55 03.04.2020
5534 Clouds 25 1016 31 10000 2.1 0 11:37 03.04.2020
5535 Clouds 25 1016 31 10000 2.1 0 11:18 03.04.2020
5536 Clouds 25 1016 31 10000 2.1 0 11:18 03.04.2020
5537 Clouds 25 1016 31 10000 1.5 70 10:55 03.04.2020
5538 Clouds 25 1016 31 10000 1.5 70 10:36 03.04.2020
5539 Clouds 25 1016 31 10000 1.5 70 10:18 03.04.2020
5540 Clouds 24 1016 38 10000 1.5 0 09:54 03.04.2020
5541 Clouds 24 1016 38 10000 1.5 0 09:36 03.04.2020
5542 Clouds 24 1016 38 10000 1.5 0 09:18 03.04.2020
5543 Clouds 23 1015 43 10000 2.6 80 08:41 03.04.2020
5544 Clouds 23 1015 43 10000 2.6 80 08:22 03.04.2020
5545 Clouds 21 1015 46 10000 1 0 07:50 03.04.2020
5546 Clouds 21 1015 46 10000 1 0 07:32 03.04.2020
5547 Clouds 16 1014 59 10000 2.09 359 06:55 03.04.2020
5548 Clouds 16 1014 59 10000 2.09 359 06:25 03.04.2020
5549 Clouds 14 1014 67 10000 0.5 180 05:42 03.04.2020
5550 Clouds 15 1013 62 10000 2.1 220 03:47 03.04.2020
5551 Clouds 15 1013 62 10000 2.1 220 03:29 03.04.2020
5552 Clouds 15 1013 58 10000 1.5 270 02:29 03.04.2020
5553 Clouds 16 1013 63 10000 2.1 360 01:24 03.04.2020
5554 Clouds 16 1014 59 9000 2.1 350 00:43 03.04.2020
5555 Clouds 16 1014 59 9000 2.1 350 00:23 03.04.2020
5556 Clouds 19 1014 42 0 3.52 1 23:43 02.04.2020
5557 Clouds 19 1014 45 10000 1.5 310 23:24 02.04.2020
5558 Clouds 19 1014 45 10000 1.5 310 22:59 02.04.2020
5559 Clouds 19 1014 45 10000 1.5 310 22:41 02.04.2020
5560 Clouds 19 1014 45 10000 1.5 310 22:21 02.04.2020
5561 Clouds 19 1014 45 10000 2.1 320 21:57 02.04.2020
5562 Clouds 19 1014 45 10000 2.1 320 21:36 02.04.2020
5563 Clouds 19 1014 45 10000 2.1 320 21:18 02.04.2020
5564 Clouds 20 1014 42 10000 1.5 320 20:44 02.04.2020
5565 Clouds 20 1014 42 10000 1.5 320 20:44 02.04.2020
5566 Clouds 20 1014 42 10000 1.5 320 20:24 02.04.2020
5567 Clouds 20 1013 42 10000 2.6 320 19:56 02.04.2020
5568 Clouds 20 1013 42 10000 2.6 320 19:37 02.04.2020
5569 Clouds 20 1013 42 10000 2.6 320 19:19 02.04.2020
5570 Clouds 22 1013 37 10000 3.1 340 18:42 02.04.2020
5571 Clouds 22 1013 37 10000 3.1 340 18:21 02.04.2020
5572 Clouds 23 1012 31 10000 5.1 330 17:59 02.04.2020
5573 Clouds 23 1012 31 10000 5.1 330 17:59 02.04.2020
5574 Clouds 23 1012 31 10000 5.1 330 17:40 02.04.2020
5575 Clouds 23 1012 31 10000 5.1 330 17:22 02.04.2020
5576 Clouds 25 1012 29 10000 4.6 290 16:57 02.04.2020
5577 Clouds 25 1012 29 10000 4.6 290 16:39 02.04.2020
5578 Clouds 25 1012 29 10000 4.6 290 16:21 02.04.2020
5579 Clouds 25 1012 31 10000 4.6 280 15:56 02.04.2020
5580 Clouds 25 1012 31 10000 4.6 280 15:38 02.04.2020
5581 Clouds 25 1012 31 10000 4.6 280 15:38 02.04.2020
5582 Clouds 25 1012 31 10000 4.6 280 15:18 02.04.2020
5583 Clouds 25 1012 31 10000 4.6 280 15:18 02.04.2020
5584 Clouds 25 1012 31 10000 3.6 280 14:55 02.04.2020
5585 Clouds 25 1012 31 10000 3.6 280 14:37 02.04.2020
5586 Clouds 25 1012 31 10000 3.6 280 14:18 02.04.2020
5587 Clouds 25 1012 33 10000 4.6 310 13:40 02.04.2020
5588 Clouds 25 1012 33 10000 4.6 310 13:21 02.04.2020
5589 Clouds 24 1013 41 10000 4.1 0 12:59 02.04.2020
5590 Clouds 24 1013 41 10000 4.1 0 12:41 02.04.2020
5591 Clear 24 1013 41 10000 4.1 0 12:19 02.04.2020
5592 Clear 24 1013 41 10000 4.1 0 12:19 02.04.2020
5593 Clear 23 1014 43 10000 4.1 290 11:57 02.04.2020
5594 Clear 23 1014 43 10000 4.1 290 11:38 02.04.2020
5595 Clear 23 1014 43 10000 4.1 290 11:19 02.04.2020
5596 Clear 23 1014 43 10000 4.1 290 11:19 02.04.2020
5597 Clear 22 1014 43 10000 4.1 310 10:55 02.04.2020
5598 Clear 22 1014 43 10000 4.1 310 10:37 02.04.2020
5599 Clear 22 1014 43 10000 4.1 310 10:19 02.04.2020
5600 Clear 21 1014 46 10000 5.7 310 09:58 02.04.2020
5601 Clear 21 1014 46 10000 5.7 310 09:39 02.04.2020
5602 Clear 21 1014 46 10000 5.7 310 09:19 02.04.2020
5603 Clear 19 1013 55 10000 5.7 320 08:47 02.04.2020
5604 Clear 19 1013 55 10000 5.7 320 08:27 02.04.2020
5605 Clear 18 1013 59 10000 5.7 310 07:45 02.04.2020
5606 Clear 18 1013 59 10000 5.7 310 07:21 02.04.2020
5607 Clear 21 1013 42 0 5.21 332 06:59 02.04.2020
5608 Clear 16 1012 63 10000 4.6 290 06:22 02.04.2020
5609 Clear 16 1012 63 10000 4.6 290 05:45 02.04.2020
5610 Clear 16 1011 63 10000 3.6 300 04:46 02.04.2020
5611 Clear 18 1010 59 10000 2.1 270 01:54 02.04.2020
5612 Clear 18 1010 59 10000 2.5 293 00:51 02.04.2020
5613 Clear 18 1010 59 10000 2.5 293 00:31 02.04.2020
5614 Clear 18 1010 59 10000 0.5 90 23:59 01.04.2020
5615 Clear 18 1010 59 10000 0.5 90 23:37 01.04.2020
5616 Clear 18 1010 59 10000 0.5 90 23:18 01.04.2020
5617 Clear 19 1010 59 10000 2.1 70 22:41 01.04.2020
5618 Clear 19 1010 59 10000 2.1 70 22:22 01.04.2020
5619 Clear 21 1010 52 10000 3.6 170 21:58 01.04.2020
5620 Clear 21 1010 52 10000 3.6 170 21:58 01.04.2020
5621 Clear 21 1010 52 10000 3.6 170 21:39 01.04.2020
5622 Clear 21 1010 52 10000 3.6 170 21:19 01.04.2020
5623 Clear 22 1009 49 10000 5.1 120 20:55 01.04.2020
5624 Clear 22 1009 49 10000 5.1 120 20:37 01.04.2020
5625 Clear 22 1009 49 10000 5.1 120 20:18 01.04.2020
5626 Clear 24 1008 44 10000 6.2 100 19:55 01.04.2020
5627 Clear 24 1008 44 10000 6.2 100 19:37 01.04.2020
5628 Clear 24 1008 44 10000 6.2 100 19:19 01.04.2020
5629 Clear 25 1007 44 10000 4.6 110 18:41 01.04.2020
5630 Clear 25 1007 44 10000 4.6 110 18:21 01.04.2020
5631 Clouds 29 1006 21 10000 4.6 240 17:56 01.04.2020
5632 Clouds 29 1006 21 10000 4.6 240 17:37 01.04.2020
5633 Clouds 29 1006 21 10000 4.6 240 17:18 01.04.2020
5634 Clouds 30 1006 23 10000 2.1 220 16:56 01.04.2020
5635 Clouds 30 1006 23 10000 2.1 220 16:38 01.04.2020
5636 Clouds 30 1006 23 10000 2.1 220 16:20 01.04.2020
5637 Clear 31 1005 20 10000 7.7 260 15:42 01.04.2020
5638 Clear 31 1005 20 10000 7.7 260 15:22 01.04.2020
5639 Dust 31 1005 22 4100 8.2 140 14:59 01.04.2020
5640 Dust 31 1005 22 4100 8.2 140 14:40 01.04.2020
5641 Dust 31 1005 22 4100 8.2 140 14:21 01.04.2020
5642 Dust 30 1005 23 3600 9.3 150 13:59 01.04.2020
5643 Dust 30 1005 23 3600 9.3 150 13:39 01.04.2020
5644 Dust 30 1005 23 3600 9.3 150 13:20 01.04.2020
5645 Dust 29 1006 26 2200 11.3 160 12:57 01.04.2020
5646 Dust 29 1006 26 2200 11.3 160 12:37 01.04.2020
5647 Dust 29 1006 26 2200 11.8 160 12:19 01.04.2020
5648 Dust 28 1006 30 5000 13.9 150 11:56 01.04.2020
5649 Dust 28 1006 30 5000 13.9 150 11:37 01.04.2020
5650 Dust 28 1006 30 5000 13.9 150 11:37 01.04.2020
5651 Dust 28 1006 30 5000 13.9 150 11:37 01.04.2020
5652 Dust 28 1006 30 5000 13.9 150 11:18 01.04.2020
5653 Clouds 27 1007 32 10000 12.9 130 10:39 01.04.2020
5654 Clouds 27 1007 32 10000 12.9 130 10:21 01.04.2020
5655 Clouds 24 1007 36 10000 13.4 140 09:58 01.04.2020
5656 Clouds 24 1007 36 10000 13.4 140 09:40 01.04.2020
5657 Rain 24 1007 36 10000 13.4 140 09:19 01.04.2020
5658 Clouds 23 1008 38 10000 12.9 120 08:44 01.04.2020
5659 Clouds 23 1008 38 10000 12.9 120 08:19 01.04.2020
5660 Clouds 21 1008 43 10000 10.3 110 07:58 01.04.2020
5661 Clouds 21 1008 43 10000 10.3 110 07:40 01.04.2020
5662 Clouds 21 1008 43 10000 10.3 110 07:19 01.04.2020
5663 Clouds 20 1009 45 10000 9.8 120 06:41 01.04.2020
5664 Clouds 20 1009 45 10000 9.8 120 06:20 01.04.2020
5665 Clouds 19 1009 48 10000 9.8 120 05:24 01.04.2020
5666 Clouds 20 1011 49 10000 6.2 110 03:39 01.04.2020
5667 Clouds 20 1012 49 10000 6.7 110 02:59 01.04.2020
5668 Clouds 20 1012 49 10000 6.7 110 02:31 01.04.2020
5669 Clouds 21 1012 49 10000 6.7 110 01:49 01.04.2020
5670 Clouds 21 1012 49 10000 6.7 110 01:24 01.04.2020
5671 Clouds 21 1012 46 10000 7.7 110 00:47 01.04.2020
5672 Clouds 21 1012 46 10000 7.7 110 00:22 01.04.2020
5673 Clouds 22 1013 43 10000 5.7 110 23:55 31.03.2020
5674 Clouds 22 1013 43 10000 5.7 110 23:37 31.03.2020
5675 Clouds 22 1013 43 10000 5.7 110 23:19 31.03.2020
5676 Clouds 23 1013 38 10000 5.7 100 22:40 31.03.2020
5677 Clouds 23 1013 38 10000 5.7 100 22:21 31.03.2020
5678 Clouds 23 1013 38 10000 3.1 50 21:58 31.03.2020
5679 Clouds 23 1013 38 10000 3.1 50 21:39 31.03.2020
5680 Clouds 23 1013 38 10000 3.1 50 21:21 31.03.2020
5681 Clouds 23 1015 38 10000 2.6 20 20:57 31.03.2020
5682 Clouds 23 1015 38 10000 2.6 20 20:37 31.03.2020
5683 Clouds 23 1015 38 10000 2.6 20 20:19 31.03.2020
5684 Clouds 23 1014 38 10000 1.5 80 19:55 31.03.2020
5685 Clouds 23 1014 38 10000 1.5 80 19:37 31.03.2020
5686 Clouds 23 1014 38 10000 1.5 80 19:18 31.03.2020
5687 Clouds 24 1014 36 10000 2.1 110 18:43 31.03.2020
5688 Clouds 24 1014 36 10000 2.1 110 18:20 31.03.2020
5689 Clouds 25 1014 31 10000 1.5 130 17:57 31.03.2020
5690 Clouds 25 1014 31 10000 1.5 130 17:39 31.03.2020
5691 Clouds 25 1014 31 10000 1.5 130 17:21 31.03.2020
5692 Clouds 26 1014 27 10000 1 0 16:56 31.03.2020
5693 Clouds 26 1014 27 10000 1 0 16:36 31.03.2020
5694 Clouds 26 1014 26 10000 2.1 140 16:18 31.03.2020
5695 Clouds 26 1014 27 10000 2.1 230 15:54 31.03.2020
5696 Clouds 26 1014 27 10000 2.1 230 15:36 31.03.2020
5697 Clouds 26 1014 27 10000 2.1 230 15:18 31.03.2020
5698 Clouds 26 1014 29 10000 1.5 0 14:41 31.03.2020
5699 Clouds 26 1014 29 10000 1.5 0 14:22 31.03.2020
5700 Clouds 26 1014 27 10000 1.5 0 13:58 31.03.2020
5701 Clouds 26 1014 27 10000 1.5 0 13:39 31.03.2020
5702 Clouds 26 1015 29 10000 2.1 0 13:19 31.03.2020
5703 Clouds 26 1016 26 10000 2.6 160 12:44 31.03.2020
5704 Clouds 26 1016 26 10000 2.6 160 12:20 31.03.2020
5705 Clouds 25 1016 29 10000 2.6 150 11:56 31.03.2020
5706 Clouds 25 1016 29 10000 2.6 150 11:37 31.03.2020
5707 Clouds 25 1016 29 10000 2.6 150 11:18 31.03.2020
5708 Clouds 25 1016 31 10000 1.5 0 10:55 31.03.2020
5709 Clouds 25 1016 31 10000 1.5 0 10:55 31.03.2020
5710 Clouds 25 1016 31 10000 1.5 0 10:37 31.03.2020
5711 Clouds 25 1016 31 10000 1.5 0 10:37 31.03.2020
5712 Clouds 25 1016 31 10000 1.5 0 10:18 31.03.2020
5713 Clouds 23 1016 38 10000 1 0 09:43 31.03.2020
5714 Clouds 23 1016 38 10000 1 0 09:24 31.03.2020
5715 Clouds 20 1016 45 10000 1 0 08:58 31.03.2020
5716 Clouds 20 1016 45 10000 1 0 08:39 31.03.2020
5717 Clouds 20 1016 45 10000 1 0 08:19 31.03.2020
5718 Clouds 19 1016 48 10000 1.5 200 07:56 31.03.2020
5719 Clouds 19 1016 48 10000 1.5 200 07:38 31.03.2020
5720 Clouds 19 1016 48 10000 1.5 200 07:19 31.03.2020
5721 Clouds 15 1016 62 10000 2.1 120 06:47 31.03.2020
5722 Clouds 15 1016 62 10000 2.1 120 06:23 31.03.2020
5723 Clouds 15 1015 58 10000 2.1 140 05:40 31.03.2020
5724 Clouds 16 1014 59 10000 1.5 120 03:43 31.03.2020
5725 Clouds 16 1014 59 10000 1.5 130 02:25 31.03.2020
5726 Clear 16 1014 59 10000 1 0 01:46 31.03.2020
5727 Clear 16 1014 55 10000 2.6 140 00:52 31.03.2020
5728 Clear 16 1014 55 10000 2.6 140 00:25 31.03.2020
5729 Clear 16 1014 51 10000 1 0 23:59 30.03.2020
5730 Clear 16 1014 51 10000 1 0 23:38 30.03.2020
5731 Clear 16 1014 51 10000 1 0 23:18 30.03.2020
5732 Clear 16 1014 51 10000 1.06 101 22:56 30.03.2020
5733 Clear 16 1014 51 10000 1.06 101 22:37 30.03.2020
5734 Clear 16 1014 51 10000 1.06 101 22:18 30.03.2020
5735 Clear 17 1013 51 10000 1.5 350 21:55 30.03.2020
5736 Clear 17 1013 51 10000 1.5 350 21:36 30.03.2020
5737 Clouds 17 1013 51 10000 1.5 350 21:18 30.03.2020
5738 Clouds 17 1012 48 10000 1 60 20:42 30.03.2020
5739 Clouds 17 1012 48 10000 1 60 20:24 30.03.2020
5740 Clouds 19 1012 48 10000 1.5 60 19:59 30.03.2020
5741 Clouds 19 1012 48 10000 1.5 60 19:40 30.03.2020
5742 Clouds 19 1012 48 10000 1.5 60 19:21 30.03.2020
5743 Clouds 20 1012 37 10000 2.1 10 18:57 30.03.2020
5744 Clouds 20 1012 37 10000 2.1 10 18:38 30.03.2020
5745 Clouds 20 1012 37 10000 2.1 10 18:20 30.03.2020
5746 Clouds 22 1011 33 10000 3.1 330 17:57 30.03.2020
5747 Clouds 22 1011 33 10000 3.1 330 17:38 30.03.2020
5748 Clouds 22 1011 33 10000 3.1 330 17:38 30.03.2020
5749 Clouds 22 1011 33 10000 3.1 330 17:18 30.03.2020
5750 Clouds 23 1011 28 10000 4.6 270 16:55 30.03.2020
5751 Clouds 23 1011 28 10000 4.6 270 16:36 30.03.2020
5752 Clouds 23 1011 28 10000 4.6 270 16:18 30.03.2020
5753 Clouds 23 1011 28 10000 7.2 270 15:54 30.03.2020
5754 Clouds 23 1011 28 10000 7.2 270 15:36 30.03.2020
5755 Clouds 23 1011 28 10000 7.2 270 15:18 30.03.2020
5756 Clouds 24 1011 27 10000 8.2 250 14:39 30.03.2020
5757 Clouds 24 1011 27 10000 8.2 250 14:19 30.03.2020
5758 Clouds 24 1011 27 10000 8.2 240 13:59 30.03.2020
5759 Clouds 24 1011 27 10000 8.2 240 13:40 30.03.2020
5760 Clouds 24 1011 27 10000 8.2 240 13:20 30.03.2020
5761 Clouds 23 1011 31 10000 9.3 260 12:56 30.03.2020
5762 Clouds 23 1011 31 10000 9.3 260 12:37 30.03.2020
5763 Clouds 23 1011 31 10000 9.3 260 12:19 30.03.2020
5764 Clouds 22 1012 37 10000 8.2 250 11:55 30.03.2020
5765 Clouds 22 1012 37 10000 8.2 250 11:55 30.03.2020
5766 Clouds 22 1012 37 10000 8.2 250 11:55 30.03.2020
5767 Clouds 22 1012 37 10000 8.2 250 11:37 30.03.2020
5768 Clouds 22 1012 37 10000 8.2 250 11:18 30.03.2020
5769 Clear 21 1011 43 10000 6.7 250 10:39 30.03.2020
5770 Clear 21 1011 43 10000 6.7 250 10:21 30.03.2020
5771 Clear 21 1011 43 10000 6.7 250 10:21 30.03.2020
5772 Clear 20 1011 45 10000 8.2 270 09:55 30.03.2020
5773 Clear 20 1011 45 10000 8.2 270 09:37 30.03.2020
5774 Clouds 20 1011 45 10000 8.2 270 09:18 30.03.2020
5775 Clouds 18 1011 52 10000 8.7 240 08:40 30.03.2020
5776 Clouds 18 1011 52 10000 8.7 240 08:22 30.03.2020
5777 Clouds 17 1010 51 10000 6.7 230 07:49 30.03.2020
5778 Clouds 17 1010 51 10000 6.7 230 07:26 30.03.2020
5779 Clouds 14 1010 58 10000 4.1 210 06:54 30.03.2020
5780 Clouds 14 1010 58 10000 4.1 210 06:31 30.03.2020
5781 Clouds 13 1009 66 10000 3.1 190 05:52 30.03.2020
5782 Clouds 13 1009 66 10000 3.1 190 05:18 30.03.2020
5783 Clouds 13 1009 66 10000 3.1 150 04:22 30.03.2020
5784 Clouds 13 1009 66 10000 2.6 150 03:34 30.03.2020
5785 Clear 14 1009 67 10000 2.6 130 02:37 30.03.2020
5786 Clear 16 1009 46 0 1.11 109 01:35 30.03.2020
5787 Clear 13 1010 66 10000 2.1 130 00:47 30.03.2020
5788 Clear 13 1010 66 10000 2.1 130 00:21 30.03.2020
5789 Clear 15 1010 62 10000 2.1 140 23:41 29.03.2020
5790 Clear 15 1010 62 10000 2.1 140 23:23 29.03.2020
5791 Clear 16 1010 59 10000 1.5 130 22:57 29.03.2020
5792 Clear 16 1010 59 10000 1.5 130 22:38 29.03.2020
5793 Clear 16 1010 59 10000 1.5 130 22:19 29.03.2020
5794 Clear 17 1011 55 10000 1 60 21:55 29.03.2020
5795 Clear 17 1011 55 10000 1 60 21:36 29.03.2020
5796 Clear 17 1011 55 10000 1 60 21:36 29.03.2020
5797 Clear 17 1011 55 10000 1 60 21:18 29.03.2020
5798 Clear 19 1010 40 0 2.87 337 20:54 29.03.2020
5799 Clear 19 1010 40 0 2.87 337 20:36 29.03.2020
5800 Clear 19 1010 48 10000 2.1 30 20:18 29.03.2020
5801 Clear 19 1010 48 10000 2.1 30 19:42 29.03.2020
5802 Clear 19 1010 48 10000 2.1 30 19:24 29.03.2020
5803 Clear 19 1010 40 0 2.87 337 18:58 29.03.2020
5804 Clear 19 1010 40 0 2.87 337 18:40 29.03.2020
5805 Clouds 22 1009 37 10000 3.1 320 18:20 29.03.2020
5806 Clouds 22 1009 37 10000 3.1 320 18:20 29.03.2020
5807 Clouds 22 1009 37 10000 3.1 320 17:57 29.03.2020
5808 Clouds 22 1009 37 10000 3.1 320 17:39 29.03.2020
5809 Clouds 22 1009 37 10000 3.1 320 17:20 29.03.2020
5810 Clouds 22 1009 37 10000 4.1 290 16:58 29.03.2020
5811 Clouds 22 1009 37 10000 4.1 290 16:39 29.03.2020
5812 Clouds 22 1009 37 10000 4.1 290 16:20 29.03.2020
5813 Clear 23 1009 35 10000 4.6 280 15:56 29.03.2020
5814 Clear 23 1009 35 10000 4.6 280 15:37 29.03.2020
5815 Clouds 23 1009 35 10000 4.6 280 15:19 29.03.2020
5816 Clouds 23 1009 38 10000 4.6 300 14:55 29.03.2020
5817 Clouds 23 1009 38 10000 4.6 300 14:36 29.03.2020
5818 Clouds 23 1009 38 10000 4.6 300 14:18 29.03.2020
5819 Clouds 22 1010 40 10000 5.1 290 13:41 29.03.2020
5820 Clouds 22 1010 40 10000 5.1 290 13:21 29.03.2020
5821 Clouds 22 1010 40 10000 5.1 290 13:21 29.03.2020
5822 Clouds 22 1010 43 10000 6.2 300 12:58 29.03.2020
5823 Clouds 22 1010 43 10000 6.2 300 12:39 29.03.2020
5824 Clouds 22 1010 43 10000 6.2 300 12:19 29.03.2020
5825 Clouds 21 1011 52 10000 4.1 320 11:57 29.03.2020
5826 Clouds 21 1011 52 10000 4.1 320 11:57 29.03.2020
5827 Clouds 21 1011 52 10000 4.1 320 11:37 29.03.2020
5828 Clouds 21 1011 52 10000 4.1 320 11:19 29.03.2020
5829 Clouds 19 1011 55 10000 6.2 320 10:39 29.03.2020
5830 Clouds 19 1011 55 10000 6.2 320 10:20 29.03.2020
5831 Clouds 18 1012 63 10000 6.2 320 09:55 29.03.2020
5832 Clouds 18 1012 63 10000 6.2 320 09:37 29.03.2020
5833 Clouds 18 1012 63 10000 6.2 320 09:18 29.03.2020
5834 Clouds 17 1011 72 10000 5.7 320 08:43 29.03.2020
5835 Clouds 17 1011 72 10000 5.7 320 08:24 29.03.2020
5836 Clouds 15 1011 87 10000 4.6 300 07:47 29.03.2020
5837 Clouds 15 1011 87 10000 4.6 300 07:23 29.03.2020
5838 Clouds 14 1010 93 10000 3.1 310 06:34 29.03.2020
5839 Clear 14 1010 93 10000 2.1 280 04:56 29.03.2020
5840 Clear 13 1009 93 10000 3.1 320 03:41 29.03.2020
5841 Rain 13 1009 93 10000 3.1 320 03:20 29.03.2020
5842 Rain 17 1007 76 0 1.04 244 01:40 29.03.2020
5843 Rain 14 1009 93 10000 2.1 310 01:21 29.03.2020
5844 Rain 14 1009 93 10000 2.1 310 00:40 29.03.2020
5845 Rain 14 1009 93 10000 2.1 310 00:19 29.03.2020
5846 Rain 15 1009 100 10000 2.6 280 23:40 28.03.2020
5847 Rain 15 1009 100 10000 2.6 280 23:22 28.03.2020
5848 Rain 15 1009 100 10000 2.1 310 22:44 28.03.2020
5849 Rain 15 1009 100 10000 2.1 310 22:22 28.03.2020
5850 Clouds 17 1009 88 10000 2.1 300 21:57 28.03.2020
5851 Clouds 17 1009 88 10000 2.1 300 21:57 28.03.2020
5852 Clouds 17 1009 88 10000 2.1 300 21:39 28.03.2020
5853 Clouds 17 1009 88 10000 2.1 300 21:20 28.03.2020
5854 Clouds 17 1010 82 10000 4.6 330 20:57 28.03.2020
5855 Clouds 17 1010 82 10000 4.6 330 20:38 28.03.2020
5856 Clouds 17 1010 82 10000 4.6 330 20:19 28.03.2020
5857 Clouds 18 1010 88 10000 2.1 300 19:55 28.03.2020
5858 Clouds 18 1010 88 10000 2.1 300 19:36 28.03.2020
5859 Clouds 18 1010 88 10000 2.1 300 19:18 28.03.2020
5860 Rain 18 1010 82 9000 4.1 340 18:42 28.03.2020
5861 Rain 18 1010 82 9000 4.1 340 18:20 28.03.2020
5862 Rain 20 1008 72 10000 5.1 150 17:43 28.03.2020
5863 Clouds 21 1008 60 10000 4.1 150 17:24 28.03.2020
5864 Clouds 22 1007 53 10000 5.1 130 16:59 28.03.2020
5865 Clouds 22 1007 53 10000 5.1 130 16:40 28.03.2020
5866 Clouds 22 1007 53 10000 5.1 130 16:18 28.03.2020
5867 Clouds 23 1007 49 10000 5.7 120 15:55 28.03.2020
5868 Clouds 23 1007 49 10000 5.7 120 15:37 28.03.2020
5869 Clouds 23 1007 49 10000 5.7 120 15:18 28.03.2020
5870 Clouds 24 1007 44 10000 5.1 130 14:41 28.03.2020
5871 Clouds 24 1007 44 10000 5.1 130 14:21 28.03.2020
5872 Clouds 24 1007 44 10000 5.1 130 14:21 28.03.2020
5873 Clouds 22 1008 60 10000 5.1 150 13:44 28.03.2020
5874 Clouds 22 1008 60 10000 5.1 150 13:25 28.03.2020
5875 Rain 22 1008 56 10000 4.1 140 12:57 28.03.2020
5876 Rain 22 1008 56 10000 4.1 140 12:37 28.03.2020
5877 Rain 22 1008 56 10000 4.1 140 12:18 28.03.2020
5878 Clouds 22 1008 53 10000 4.6 160 11:41 28.03.2020
5879 Clouds 22 1008 53 10000 4.6 160 11:21 28.03.2020
5880 Clouds 23 1009 49 9000 4.6 150 10:41 28.03.2020
5881 Clouds 23 1009 49 9000 4.6 150 10:22 28.03.2020
5882 Rain 25 1007 36 0 4.39 135 09:59 28.03.2020
5883 Rain 25 1007 36 0 4.39 135 09:39 28.03.2020
5884 Rain 21 1009 60 10000 3.1 140 09:20 28.03.2020
5885 Rain 21 1009 60 10000 3.1 140 08:42 28.03.2020
5886 Rain 21 1009 60 10000 3.1 140 08:23 28.03.2020
5887 Rain 19 1010 63 10000 4.6 160 07:49 28.03.2020
5888 Rain 19 1010 63 10000 4.6 160 07:31 28.03.2020
5889 Clouds 21 1008 52 10000 4.1 120 06:45 28.03.2020
5890 Clouds 21 1008 52 10000 4.1 120 06:19 28.03.2020
5891 Rain 19 1008 63 10000 4.1 120 05:24 28.03.2020
5892 Clouds 18 1008 63 10000 3.6 120 04:48 28.03.2020
5893 Clouds 18 1008 63 10000 3.6 120 04:28 28.03.2020
5894 Clouds 18 1008 63 10000 4.1 130 02:50 28.03.2020
5895 Clouds 19 1008 59 10000 5.7 130 01:47 28.03.2020
5896 Clouds 19 1008 59 10000 5.7 130 01:23 28.03.2020
5897 Clouds 20 1008 52 10000 6.7 130 00:47 28.03.2020
5898 Clouds 20 1008 52 10000 6.7 130 00:21 28.03.2020
5899 Clouds 20 1009 52 10000 6.2 130 23:43 27.03.2020
5900 Clouds 20 1009 52 10000 6.2 130 23:25 27.03.2020
5901 Clouds 21 1009 49 10000 5.7 140 22:57 27.03.2020
5902 Clouds 21 1009 49 10000 5.7 140 22:39 27.03.2020
5903 Clouds 21 1009 49 10000 5.7 140 22:20 27.03.2020
5904 Clouds 20 1010 52 10000 3.6 140 21:57 27.03.2020
5905 Clouds 20 1010 52 10000 3.6 140 21:38 27.03.2020
5906 Clouds 20 1010 52 10000 3.6 140 21:20 27.03.2020
5907 Clouds 22 1008 43 10000 7.2 120 20:55 27.03.2020
5908 Clouds 22 1008 43 10000 7.2 120 20:37 27.03.2020
5909 Clouds 22 1008 43 10000 7.2 120 20:19 27.03.2020
5910 Rain 23 1009 40 10000 6.2 110 19:43 27.03.2020
5911 Rain 23 1009 40 10000 6.2 110 19:23 27.03.2020
5912 Clouds 24 1009 38 10000 6.2 120 18:57 27.03.2020
5913 Clouds 24 1009 38 10000 6.2 120 18:38 27.03.2020
5914 Clouds 24 1009 38 10000 6.2 120 18:20 27.03.2020
5915 Clouds 24 1009 41 10000 3.6 90 17:40 27.03.2020
5916 Clouds 24 1009 41 10000 3.6 90 17:20 27.03.2020
5917 Clouds 24 1010 41 10000 3.6 120 16:55 27.03.2020
5918 Clouds 24 1010 41 10000 3.6 120 16:37 27.03.2020
5919 Clouds 24 1010 41 10000 3.6 120 16:19 27.03.2020
5920 Clouds 25 1010 38 10000 3.6 120 15:42 27.03.2020
5921 Clouds 25 1010 36 10000 5.7 120 15:24 27.03.2020
5922 Clouds 26 1010 36 10000 5.7 90 14:46 27.03.2020
5923 Clouds 26 1010 36 10000 5.7 90 14:25 27.03.2020
5924 Clouds 25 1011 33 10000 5.7 110 13:58 27.03.2020
5925 Clouds 25 1011 33 10000 5.7 110 13:40 27.03.2020
5926 Clouds 25 1011 33 10000 5.7 110 13:21 27.03.2020
5927 Clouds 25 1011 33 10000 6.2 110 12:57 27.03.2020
5928 Clouds 25 1011 33 10000 6.2 110 12:39 27.03.2020
5929 Clouds 25 1011 38 10000 4.6 90 12:19 27.03.2020
5930 Clouds 25 1012 41 10000 4.6 110 11:41 27.03.2020
5931 Clouds 25 1012 41 10000 4.6 110 11:23 27.03.2020
5932 Clouds 25 1012 41 10000 4.6 110 11:23 27.03.2020
5933 Rain 24 1013 44 10000 6.7 150 10:55 27.03.2020
5934 Clouds 24 1013 44 10000 7.2 140 10:37 27.03.2020
5935 Clouds 24 1013 44 10000 7.2 140 10:19 27.03.2020
5936 Clouds 24 1013 44 10000 7.2 130 09:57 27.03.2020
5937 Clouds 24 1013 44 10000 7.2 130 09:37 27.03.2020
5938 Clouds 24 1013 44 10000 7.2 130 09:18 27.03.2020
5939 Clouds 22 1014 49 10000 7.7 130 08:56 27.03.2020
5940 Clouds 22 1014 49 10000 7.7 130 08:38 27.03.2020
5941 Clouds 22 1014 49 10000 7.7 130 08:20 27.03.2020
5942 Clouds 21 1014 52 10000 6.7 130 07:50 27.03.2020
5943 Clouds 21 1014 52 10000 6.7 130 07:24 27.03.2020
5944 Clouds 19 1013 59 10000 6.2 130 06:53 27.03.2020
5945 Clouds 19 1013 59 10000 5.7 140 06:35 27.03.2020
5946 Clouds 16 1012 67 10000 5.1 130 04:24 27.03.2020
5947 Clouds 17 1012 63 10000 3.6 140 02:32 27.03.2020
5948 Clouds 17 1012 59 10000 4.6 140 01:23 27.03.2020
5949 Clouds 17 1012 59 10000 4.6 140 00:50 27.03.2020
5950 Clouds 17 1012 59 10000 4.6 140 00:31 27.03.2020
5951 Clouds 17 1012 63 10000 4.6 140 23:44 26.03.2020
5952 Clouds 17 1012 63 10000 4.6 140 23:23 26.03.2020
5953 Clouds 18 1012 59 10000 3.6 140 22:59 26.03.2020
5954 Clouds 18 1012 59 10000 3.6 140 22:38 26.03.2020
5955 Clouds 18 1012 59 10000 3.6 140 22:20 26.03.2020
5956 Clouds 19 1012 55 10000 4.6 140 21:57 26.03.2020
5957 Clouds 19 1012 55 10000 4.6 140 21:38 26.03.2020
5958 Clouds 19 1012 55 10000 4.6 140 21:20 26.03.2020
5959 Clouds 20 1012 52 10000 4.1 120 20:57 26.03.2020
5960 Clouds 20 1012 52 10000 4.1 120 20:38 26.03.2020
5961 Clear 20 1012 52 10000 4.1 120 20:20 26.03.2020
5962 Clouds 21 1011 46 10000 6.7 140 19:54 26.03.2020
5963 Clouds 21 1011 46 10000 6.7 140 19:36 26.03.2020
5964 Clouds 21 1011 46 10000 6.7 140 19:18 26.03.2020
5965 Clouds 22 1010 43 10000 7.2 130 18:41 26.03.2020
5966 Clouds 22 1010 43 10000 7.2 130 18:23 26.03.2020
5967 Clouds 22 1010 43 10000 7.2 130 18:23 26.03.2020
5968 Clouds 24 1010 38 10000 6.7 120 17:56 26.03.2020
5969 Clouds 24 1010 38 10000 6.7 120 17:37 26.03.2020
5970 Clouds 24 1010 38 10000 6.7 120 17:18 26.03.2020
5971 Clouds 25 1009 36 10000 6.2 110 16:45 26.03.2020
5972 Clouds 25 1009 36 10000 6.2 110 16:26 26.03.2020
5973 Clouds 26 1009 34 10000 7.7 120 15:58 26.03.2020
5974 Clouds 26 1009 34 10000 7.7 120 15:39 26.03.2020
5975 Clouds 26 1009 34 10000 7.7 120 15:21 26.03.2020
5976 Clouds 28 1009 32 10000 9.3 140 14:57 26.03.2020
5977 Clouds 28 1009 32 10000 9.3 140 14:38 26.03.2020
5978 Clouds 28 1009 32 10000 9.3 140 14:18 26.03.2020
5979 Clouds 28 1009 30 10000 8.7 130 13:43 26.03.2020
5980 Clouds 28 1009 30 10000 8.7 130 13:23 26.03.2020
5981 Clouds 28 1010 32 10000 9.3 150 12:56 26.03.2020
5982 Clouds 28 1010 32 10000 9.3 150 12:37 26.03.2020
5983 Clouds 28 1010 32 10000 9.3 150 12:19 26.03.2020
5984 Clouds 27 1010 34 10000 9.3 130 11:44 26.03.2020
5985 Clouds 27 1010 34 10000 9.3 130 11:20 26.03.2020
5986 Clear 26 1011 39 10000 10.3 110 10:56 26.03.2020
5987 Clear 26 1011 39 10000 10.3 110 10:37 26.03.2020
5988 Clear 26 1011 39 10000 10.3 110 10:18 26.03.2020
5989 Clear 25 1011 38 10000 9.3 100 09:43 26.03.2020
5990 Clear 25 1011 38 10000 9.3 100 09:19 26.03.2020
5991 Clear 23 1011 49 10000 7.7 110 08:54 26.03.2020
5992 Clear 23 1011 49 10000 7.7 110 08:36 26.03.2020
5993 Rain 23 1011 49 10000 7.7 110 08:18 26.03.2020
5994 Clouds 21 1011 52 10000 6.2 110 07:41 26.03.2020
5995 Clouds 21 1011 52 10000 6.2 110 07:20 26.03.2020
5996 Clouds 21 1011 52 10000 6.2 110 07:20 26.03.2020
5997 Clouds 19 1011 59 10000 6.7 70 06:47 26.03.2020
5998 Clouds 18 1010 59 10000 4.1 60 05:52 26.03.2020
5999 Clouds 17 1009 63 10000 3.6 10 03:58 26.03.2020
6000 Clouds 17 1009 63 10000 3.6 10 03:35 26.03.2020
6001 Clouds 17 1009 63 10000 3.1 10 02:53 26.03.2020
6002 Clouds 17 1010 63 10000 2.6 340 01:44 26.03.2020
6003 Clouds 17 1010 63 10000 2.6 340 00:45 26.03.2020
6004 Clouds 18 1010 59 10000 1.5 280 23:47 25.03.2020
6005 Clouds 18 1010 59 10000 1.5 280 23:28 25.03.2020
6006 Clouds 17 1009 59 10000 1.5 180 22:58 25.03.2020
6007 Clouds 17 1009 59 10000 1.5 180 22:38 25.03.2020
6008 Clouds 17 1009 59 10000 1.5 180 22:19 25.03.2020
6009 Clouds 19 1009 55 10000 4.1 130 21:55 25.03.2020
6010 Clouds 19 1009 55 10000 4.1 130 21:37 25.03.2020
6011 Clouds 19 1009 55 10000 4.1 130 21:18 25.03.2020
6012 Clouds 19 1009 55 10000 4.1 130 21:18 25.03.2020
6013 Clouds 20 1009 52 10000 4.6 130 20:40 25.03.2020
6014 Clouds 20 1009 52 10000 4.6 130 20:20 25.03.2020
6015 Clouds 20 1008 52 10000 5.7 120 19:59 25.03.2020
6016 Clouds 20 1008 52 10000 5.7 120 19:41 25.03.2020
6017 Rain 20 1008 52 10000 5.7 120 19:21 25.03.2020
6018 Clouds 21 1008 49 10000 4.6 130 18:56 25.03.2020
6019 Clouds 21 1008 49 10000 4.6 130 18:37 25.03.2020
6020 Clouds 21 1008 49 10000 4.6 130 18:19 25.03.2020
6021 Clouds 22 1008 46 10000 5.1 120 17:42 25.03.2020
6022 Clouds 22 1008 46 10000 5.1 120 17:23 25.03.2020
6023 Clouds 24 1008 41 10000 6.7 130 16:59 25.03.2020
6024 -273 0 0 0 0 0 16:41 25.03.2020
6025 Clouds 24 1008 41 10000 6.7 130 16:21 25.03.2020
6026 Clouds 25 1008 33 10000 6.7 130 15:55 25.03.2020
6027 Clouds 25 1008 33 10000 6.7 130 15:37 25.03.2020
6028 Clouds 25 1008 33 10000 6.7 130 15:18 25.03.2020
6029 Clouds 25 1008 33 10000 8.2 130 14:40 25.03.2020
6030 Clouds 25 1008 33 10000 8.2 130 14:21 25.03.2020
6031 Clouds 26 1009 34 10000 10.3 140 13:46 25.03.2020
6032 Clouds 26 1009 34 10000 10.3 140 13:26 25.03.2020
6033 Rain 26 1008 34 10000 8.2 120 12:55 25.03.2020
6034 Rain 26 1008 34 10000 8.2 120 12:37 25.03.2020
6035 Rain 26 1008 34 10000 8.2 120 12:18 25.03.2020
6036 Rain 26 1009 36 10000 9.8 130 11:41 25.03.2020
6037 Rain 26 1009 36 10000 9.8 130 11:21 25.03.2020
6038 Rain 26 1009 36 10000 9.8 130 11:21 25.03.2020
6039 Clouds 25 1010 36 10000 9.8 130 10:59 25.03.2020
6040 Clouds 25 1010 36 10000 9.8 130 10:40 25.03.2020
6041 Clouds 25 1010 36 10000 9.8 130 10:19 25.03.2020
6042 Clouds 23 1010 40 10000 8.7 130 09:59 25.03.2020
6043 Clouds 23 1010 40 10000 8.7 130 09:40 25.03.2020
6044 Clouds 23 1010 40 10000 8.7 130 09:22 25.03.2020
6045 Clouds 21 1011 46 10000 7.2 130 08:54 25.03.2020
6046 Clouds 21 1011 46 10000 7.2 130 08:36 25.03.2020
6047 Clouds 21 1011 46 10000 7.2 130 08:18 25.03.2020
6048 Clouds 19 1011 55 10000 5.7 130 07:39 25.03.2020
6049 Clouds 19 1011 55 10000 5.7 130 07:20 25.03.2020
6050 Clouds 17 1010 59 10000 7.2 120 06:46 25.03.2020
6051 Clouds 17 1010 59 10000 7.2 120 06:25 25.03.2020
6052 -273 0 0 0 0 0 05:50 25.03.2020
6053 Clouds 17 1010 59 10000 6.7 110 04:59 25.03.2020
6054 Clouds 17 1010 59 10000 6.7 110 04:39 25.03.2020
6055 Clouds 16 1010 67 10000 5.1 120 03:35 25.03.2020
6056 Clear 16 1010 63 10000 5.7 130 01:57 25.03.2020
6057 Clear 16 1010 63 10000 5.7 130 01:20 25.03.2020
6058 Clear 18 1010 55 10000 5.7 120 00:47 25.03.2020
6059 Clear 18 1010 55 10000 5.7 120 00:19 25.03.2020
6060 Clear 18 1010 55 10000 4.6 110 23:45 24.03.2020
6061 Clear 18 1010 55 10000 4.6 110 23:25 24.03.2020
6062 Clear 19 1010 48 10000 4.1 110 22:56 24.03.2020
6063 Clear 19 1010 48 10000 4.1 110 22:37 24.03.2020
6064 Clear 19 1010 48 10000 4.1 110 22:19 24.03.2020
6065 Clear 20 1011 45 10000 4.1 110 21:55 24.03.2020
6066 Clear 20 1011 45 10000 4.1 110 21:37 24.03.2020
6067 Clear 20 1011 45 10000 4.1 110 21:18 24.03.2020
6068 Clear 20 1011 45 10000 4.1 110 20:43 24.03.2020
6069 Clear 20 1011 45 10000 4.1 110 20:24 24.03.2020
6070 Clouds 20 1011 45 10000 3.6 110 19:57 24.03.2020
6071 Clouds 20 1011 45 10000 3.6 110 19:39 24.03.2020
6072 Clouds 20 1011 45 10000 3.6 110 19:18 24.03.2020
6073 Clouds 21 1011 43 10000 3.1 100 18:55 24.03.2020
6074 Clouds 21 1011 43 10000 3.1 100 18:55 24.03.2020
6075 Clouds 21 1011 43 10000 3.1 100 18:36 24.03.2020
6076 Clouds 21 1011 43 10000 3.1 100 18:18 24.03.2020
6077 Clouds 22 1010 37 10000 3.1 110 17:42 24.03.2020
6078 Clouds 22 1010 37 10000 3.1 110 17:22 24.03.2020
6079 Clouds 23 1011 33 10000 3.6 130 16:58 24.03.2020
6080 Clouds 23 1011 33 10000 3.6 130 16:39 24.03.2020
6081 Clouds 23 1011 33 10000 3.6 130 16:21 24.03.2020
6082 Clouds 22 1011 25 0 2.87 89 15:57 24.03.2020
6083 Clouds 22 1011 25 0 2.87 89 15:37 24.03.2020
6084 Clouds 25 1011 25 10000 2.1 130 15:19 24.03.2020
6085 Clouds 25 1011 25 10000 2.1 130 14:42 24.03.2020
6086 Clouds 25 1011 25 10000 2.1 130 14:19 24.03.2020
6087 Clouds 25 1011 27 10000 2.1 0 13:43 24.03.2020
6088 Clouds 25 1011 27 10000 2.1 0 13:24 24.03.2020
6089 Clouds 24 1012 29 10000 2.1 220 12:57 24.03.2020
6090 Clouds 24 1012 29 10000 2.1 220 12:37 24.03.2020
6091 Clouds 24 1012 29 10000 2.1 220 12:19 24.03.2020
6092 Clouds 25 1012 29 10000 2.6 0 11:39 24.03.2020
6093 Clouds 25 1012 29 10000 2.6 0 11:20 24.03.2020
6094 Clouds 23 1013 33 10000 2.6 140 10:43 24.03.2020
6095 Clouds 23 1013 33 10000 2.6 140 10:20 24.03.2020
6096 Clouds 23 1013 33 10000 2.6 140 10:20 24.03.2020
6097 Clouds 23 1014 35 10000 3.1 140 09:59 24.03.2020
6098 Clouds 23 1014 35 10000 3.1 140 09:41 24.03.2020
6099 Clouds 23 1014 35 10000 3.1 140 09:22 24.03.2020
6100 Clouds 21 1014 43 10000 3.1 160 08:39 24.03.2020
6101 Clouds 21 1014 43 10000 3.1 160 08:21 24.03.2020
6102 Clouds 21 1014 43 10000 3.1 160 08:21 24.03.2020
6103 Clear 18 1014 48 10000 3.1 150 07:50 24.03.2020
6104 Clear 18 1014 48 10000 3.1 150 07:25 24.03.2020
6105 Clear 18 1014 48 10000 3.1 150 07:25 24.03.2020
6106 Clear 15 1014 58 10000 3.1 120 06:59 24.03.2020
6107 Clear 15 1014 58 10000 3.1 120 06:32 24.03.2020
6108 Clear 12 1014 71 10000 2.1 100 05:29 24.03.2020
6109 Clear 11 1014 71 10000 1.5 110 04:41 24.03.2020
6110 Clear 12 1014 66 10000 1 40 03:19 24.03.2020
6111 Clear 12 1013 71 10000 1.5 150 01:59 24.03.2020
6112 Clear 12 1013 71 10000 1.5 130 00:52 24.03.2020
6113 Clear 13 1013 66 10000 1 130 00:26 24.03.2020
6114 Clear 13 1014 66 10000 1 0 23:50 23.03.2020
6115 Clear 13 1014 66 10000 1 0 23:30 23.03.2020
6116 Clear 13 1013 62 10000 0.5 0 22:59 23.03.2020
6117 Clear 13 1013 62 10000 0.5 0 22:40 23.03.2020
6118 Clear 13 1013 62 10000 0.5 0 22:22 23.03.2020
6119 Clear 14 1014 58 10000 1 0 21:54 23.03.2020
6120 Clear 14 1014 58 10000 1 0 21:36 23.03.2020
6121 Clear 14 1014 58 10000 1 0 21:18 23.03.2020
6122 Clear 16 1014 55 10000 1 140 20:41 23.03.2020
6123 Clear 16 1014 55 10000 1 140 20:23 23.03.2020
6124 Clear 17 1014 48 10000 3.18 283 19:55 23.03.2020
6125 Clear 17 1014 48 10000 3.18 283 19:55 23.03.2020
6126 Clear 17 1014 48 10000 3.18 283 19:37 23.03.2020
6127 Clear 17 1014 48 10000 3.18 283 19:18 23.03.2020
6128 Clear 18 1013 45 10000 0.5 330 18:43 23.03.2020
6129 Clear 18 1013 45 10000 0.5 330 18:24 23.03.2020
6130 Clear 19 1013 42 10000 2.6 320 17:58 23.03.2020
6131 Clear 19 1013 42 10000 2.6 320 17:39 23.03.2020
6132 Clouds 22 1013 30 10000 4.6 320 17:19 23.03.2020
6133 Clouds 22 1013 30 10000 4.6 320 16:43 23.03.2020
6134 Clouds 22 1013 30 10000 4.6 320 16:25 23.03.2020
6135 Clouds 23 1012 27 10000 6.2 300 15:54 23.03.2020
6136 Clouds 23 1012 27 10000 6.2 300 15:36 23.03.2020
6137 Clouds 23 1012 27 10000 6.2 300 15:18 23.03.2020
6138 -273 0 0 0 0 0 14:37 23.03.2020
6139 Clouds 23 1012 31 10000 7.7 300 14:19 23.03.2020
6140 Clouds 23 1012 31 10000 7.7 300 14:19 23.03.2020
6141 Clouds 23 1013 35 10000 7.2 290 13:55 23.03.2020
6142 Clouds 23 1013 35 10000 7.2 290 13:37 23.03.2020
6143 Clouds 23 1013 35 10000 7.2 290 13:19 23.03.2020
6144 Clouds 23 1013 38 10000 8.2 300 12:42 23.03.2020
6145 Clouds 23 1013 38 10000 8.2 300 12:22 23.03.2020
6146 Clouds 23 1013 38 10000 8.2 300 12:22 23.03.2020
6147 Clouds 23 1013 38 10000 8.2 300 11:55 23.03.2020
6148 Clear 22 1014 40 10000 7.2 270 11:37 23.03.2020
6149 Clear 22 1014 40 10000 7.2 270 11:18 23.03.2020
6150 Clear 21 1014 46 10000 5.7 280 10:42 23.03.2020
6151 Clear 21 1014 46 10000 5.7 280 10:23 23.03.2020
6152 Clear 19 1015 55 10000 5.1 290 09:59 23.03.2020
6153 Clear 19 1015 55 10000 5.1 290 09:41 23.03.2020
6154 Clear 19 1015 55 10000 5.1 290 09:19 23.03.2020
6155 Clear 18 1015 59 10000 5.7 300 08:38 23.03.2020
6156 Clear 18 1015 59 10000 5.7 300 08:20 23.03.2020
6157 Clear 16 1015 63 10000 5.7 290 07:52 23.03.2020
6158 Clear 16 1015 63 10000 5.7 290 07:33 23.03.2020
6159 Clear 16 1014 63 10000 6.2 290 06:56 23.03.2020
6160 Clear 14 1014 71 10000 5.7 290 06:34 23.03.2020
6161 Clear 11 1013 81 10000 3.1 260 05:44 23.03.2020
6162 Clear 11 1012 81 10000 2.1 250 03:54 23.03.2020
6163 Clear 10 1012 93 10000 1.62 314 02:45 23.03.2020
6164 Clouds 11 1012 81 10000 1.5 260 01:50 23.03.2020
6165 Clouds 11 1012 87 10000 2.1 260 00:50 23.03.2020
6166 Clouds 11 1012 87 10000 2.1 260 00:29 23.03.2020
6167 Clouds 12 1012 76 10000 3.1 250 23:44 22.03.2020
6168 Clouds 12 1012 76 10000 3.1 250 23:24 22.03.2020
6169 Clouds 12 1012 81 10000 1 0 22:42 22.03.2020
6170 Clouds 12 1012 81 10000 1 0 22:22 22.03.2020
6171 Clouds 12 1013 81 10000 2.1 290 21:54 22.03.2020
6172 Clouds 12 1013 81 10000 2.1 290 21:36 22.03.2020
6173 Clouds 12 1013 81 10000 2.1 290 21:18 22.03.2020
6174 Clouds 13 1012 76 10000 3.1 320 20:42 22.03.2020
6175 Clouds 13 1012 76 10000 3.1 320 20:24 22.03.2020
6176 Clouds 14 1013 71 10000 4.1 310 19:56 22.03.2020
6177 Clouds 14 1013 71 10000 4.1 310 19:38 22.03.2020
6178 Clouds 14 1013 71 10000 4.1 310 19:19 22.03.2020
6179 Clouds 14 1012 71 10000 3.6 320 18:58 22.03.2020
6180 Clouds 14 1012 71 10000 3.6 320 18:40 22.03.2020
6181 Clouds 14 1012 71 10000 3.6 320 18:21 22.03.2020
6182 Clouds 15 1011 67 10000 3.6 320 17:57 22.03.2020
6183 Clouds 15 1011 67 10000 3.6 320 17:38 22.03.2020
6184 Clouds 15 1011 67 10000 3.6 320 17:20 22.03.2020
6185 Clouds 17 1010 55 10000 7.2 310 16:57 22.03.2020
6186 Clouds 17 1010 55 10000 7.2 310 16:39 22.03.2020
6187 Clouds 17 1010 55 10000 7.2 310 16:39 22.03.2020
6188 Clouds 17 1010 55 10000 7.2 310 16:20 22.03.2020
6189 Clouds 18 1010 45 10000 6.7 310 15:40 22.03.2020
6190 Clouds 18 1010 45 10000 6.7 310 15:20 22.03.2020
6191 Clouds 18 1010 45 10000 6.2 300 14:46 22.03.2020
6192 Clouds 18 1010 45 10000 6.2 300 14:19 22.03.2020
6193 Clouds 18 1010 45 10000 6.2 300 14:19 22.03.2020
6194 Clouds 18 1010 45 10000 6.2 310 13:44 22.03.2020
6195 Clouds 18 1010 45 10000 6.2 310 13:20 22.03.2020
6196 Clouds 17 1010 51 10000 5.7 310 12:59 22.03.2020
6197 Clouds 17 1010 51 10000 5.7 310 12:41 22.03.2020
6198 Clouds 17 1010 51 10000 5.7 310 12:19 22.03.2020
6199 Clouds 16 1010 59 10000 5.7 310 11:43 22.03.2020
6200 Clouds 16 1010 59 10000 5.7 310 11:25 22.03.2020
6201 Clouds 17 1010 55 10000 1.5 250 10:58 22.03.2020
6202 Clouds 17 1010 55 10000 1.5 250 10:40 22.03.2020
6203 Clouds 17 1010 55 10000 1.5 250 10:22 22.03.2020
6204 Clouds 15 1011 58 10000 1.5 230 09:46 22.03.2020
6205 Clouds 15 1011 58 10000 1.5 230 09:27 22.03.2020
6206 Clouds 14 1011 71 10000 0.5 0 08:48 22.03.2020
6207 Clouds 14 1011 71 10000 0.5 0 08:48 22.03.2020
6208 Clouds 14 1011 71 10000 0.5 0 08:30 22.03.2020
6209 Clouds 11 1011 93 10000 1.5 200 07:55 22.03.2020
6210 Clouds 11 1011 93 10000 1.5 200 07:37 22.03.2020
6211 Clouds 9 1010 93 10000 1.5 170 06:41 22.03.2020
6212 Clouds 8 1009 93 10000 2.1 200 05:52 22.03.2020
6213 Clouds 7 1009 93 10000 1.5 180 04:39 22.03.2020
6214 Rain 12 1007 78 0 0.91 218 01:47 22.03.2020
6215 Rain 8 1009 93 10000 2.1 130 00:50 22.03.2020
6216 Rain 8 1009 93 10000 2.1 130 00:31 22.03.2020
6217 Rain 12 1007 80 0 1.77 188 23:46 21.03.2020
6218 Rain 10 1008 81 10000 3.1 260 23:23 21.03.2020
6219 Rain 10 1008 81 10000 3.1 260 22:59 21.03.2020
6220 Rain 10 1008 81 10000 3.1 260 22:38 21.03.2020
6221 Rain 10 1008 81 10000 3.1 260 22:20 21.03.2020
6222 Rain 10 1008 81 10000 4.1 250 21:58 21.03.2020
6223 Rain 10 1008 81 10000 4.1 250 21:38 21.03.2020
6224 Rain 10 1008 81 10000 4.1 250 21:20 21.03.2020
6225 Clouds 11 1008 76 10000 4.6 270 20:43 21.03.2020
6226 Clouds 11 1008 76 10000 4.6 270 20:22 21.03.2020
6227 Thunderstorm 11 1008 81 10000 4.1 290 19:56 21.03.2020
6228 Thunderstorm 11 1008 81 10000 4.1 290 19:38 21.03.2020
6229 Thunderstorm 11 1008 81 10000 4.1 290 19:19 21.03.2020
6230 Thunderstorm 11 1009 76 10000 6.7 220 18:54 21.03.2020
6231 Thunderstorm 11 1009 76 10000 6.7 220 18:36 21.03.2020
6232 Thunderstorm 11 1009 76 10000 6.7 220 18:18 21.03.2020
6233 Thunderstorm 12 1007 76 10000 6.2 240 17:42 21.03.2020
6234 Thunderstorm 12 1007 76 10000 6.2 240 17:22 21.03.2020
6235 Rain 13 1006 66 10000 8.7 270 16:43 21.03.2020
6236 Rain 13 1006 66 10000 8.7 270 16:24 21.03.2020
6237 Rain 13 1006 66 10000 8.7 270 16:24 21.03.2020
6238 Thunderstorm 14 1007 71 10000 8.7 220 15:59 21.03.2020
6239 Thunderstorm 14 1007 71 10000 8.7 220 15:41 21.03.2020
6240 Rain 16 1005 56 0 11.96 301 15:23 21.03.2020
6241 Clouds 16 1005 55 10000 9.8 280 14:58 21.03.2020
6242 Clouds 16 1005 55 10000 9.8 280 14:40 21.03.2020
6243 Clouds 16 1005 55 10000 9.8 280 14:20 21.03.2020
6244 Clouds 17 1005 55 10000 12.3 280 13:59 21.03.2020
6245 Clouds 17 1005 55 10000 12.3 280 13:40 21.03.2020
6246 Clouds 17 1005 55 10000 12.3 280 13:21 21.03.2020
6247 Clouds 17 1005 55 10000 12.3 280 13:21 21.03.2020
6248 Clouds 20 1005 56 10000 10.3 280 12:58 21.03.2020
6249 Clouds 20 1005 56 10000 10.3 280 12:37 21.03.2020
6250 Clouds 20 1005 56 10000 10.3 280 12:19 21.03.2020
6251 Clouds 21 1005 46 10000 5.1 300 11:55 21.03.2020
6252 Clouds 21 1005 46 10000 5.1 300 11:37 21.03.2020
6253 Clouds 21 1005 46 10000 5.1 300 11:18 21.03.2020
6254 Clouds 21 1006 43 10000 4.1 330 10:56 21.03.2020
6255 Clouds 21 1006 43 10000 4.1 330 10:38 21.03.2020
6256 Clouds 21 1006 43 10000 4.1 330 10:19 21.03.2020
6257 Clouds 21 1007 46 10000 4.1 360 09:55 21.03.2020
6258 Clouds 21 1007 46 10000 4.1 360 09:36 21.03.2020
6259 Clouds 21 1007 46 10000 4.1 360 09:18 21.03.2020
6260 Clouds 19 1007 55 10000 3.6 20 08:42 21.03.2020
6261 Clouds 19 1007 55 10000 3.6 20 08:23 21.03.2020
6262 Clouds 18 1008 55 10000 4.1 10 07:42 21.03.2020
6263 Clouds 18 1008 55 10000 4.1 10 07:23 21.03.2020
6264 Clouds 15 1008 67 10000 3.6 350 06:46 21.03.2020
6265 Clouds 15 1008 67 10000 3.6 350 06:27 21.03.2020
6266 Clouds 14 1008 71 10000 3.6 20 05:46 21.03.2020
6267 Clouds 14 1008 67 10000 5.1 20 04:46 21.03.2020
6268 Clouds 13 1009 87 10000 3.1 10 02:48 21.03.2020
6269 Clouds 13 1009 87 10000 3.1 10 02:30 21.03.2020
6270 Rain 12 1009 93 10000 3.1 320 01:32 21.03.2020
6271 Rain 15 1010 72 10000 3.1 40 00:48 21.03.2020
6272 Rain 15 1010 72 10000 3.1 40 00:25 21.03.2020
6273 Rain 15 1010 72 10000 5.7 70 23:49 20.03.2020
6274 Rain 15 1010 72 10000 5.7 70 23:26 20.03.2020
6275 Clouds 14 1011 82 10000 3.6 60 22:57 20.03.2020
6276 Clouds 14 1011 82 10000 3.6 60 22:39 20.03.2020
6277 Clouds 14 1011 82 10000 3.6 60 22:20 20.03.2020
6278 Rain 14 1012 82 10000 2.1 350 21:55 20.03.2020
6279 Rain 14 1012 82 10000 2.1 350 21:37 20.03.2020
6280 Rain 14 1012 82 10000 2.1 350 21:18 20.03.2020
6281 Rain 14 1013 76 10000 3.6 300 20:55 20.03.2020
6282 Rain 14 1013 76 10000 3.6 300 20:37 20.03.2020
6283 Rain 14 1013 76 10000 3.6 300 20:18 20.03.2020
6284 Rain 15 1012 67 10000 6.2 300 19:44 20.03.2020
6285 Rain 15 1012 67 10000 6.2 300 19:18 20.03.2020
6286 Rain 16 1012 55 10000 3.6 350 18:54 20.03.2020
6287 Rain 16 1012 55 10000 3.6 350 18:36 20.03.2020
6288 Rain 16 1012 55 10000 3.6 350 18:18 20.03.2020
6289 Rain 16 1012 59 10000 4.1 320 17:39 20.03.2020
6290 Rain 16 1012 59 10000 4.1 320 17:21 20.03.2020
6291 Clouds 17 1011 55 10000 4.1 330 16:57 20.03.2020
6292 Clouds 17 1011 55 10000 4.1 330 16:39 20.03.2020
6293 Clouds 17 1011 55 10000 4.1 330 16:18 20.03.2020
6294 Clouds 20 1011 45 10000 5.7 300 15:42 20.03.2020
6295 Clouds 20 1011 45 10000 5.7 300 15:21 20.03.2020
6296 Rain 21 1011 40 10000 2.1 240 14:55 20.03.2020
6297 Rain 21 1011 40 10000 2.1 240 14:37 20.03.2020
6298 Rain 21 1011 40 10000 2.1 240 14:18 20.03.2020
6299 Clouds 21 1011 40 9000 3.6 180 13:42 20.03.2020
6300 Clouds 21 1011 40 9000 3.6 180 13:19 20.03.2020
6301 Clouds 21 1012 37 10000 3.1 210 12:40 20.03.2020
6302 Clouds 21 1012 37 10000 3.1 210 12:22 20.03.2020
6303 Clouds 22 1013 35 10000 4.6 200 11:57 20.03.2020
6304 Clouds 22 1013 35 10000 4.6 200 11:38 20.03.2020
6305 Clouds 22 1013 35 10000 4.6 200 11:19 20.03.2020
6306 Clear 21 1014 35 10000 6.2 180 10:41 20.03.2020
6307 Clear 21 1014 35 10000 6.2 180 10:21 20.03.2020
6308 Clear 20 1014 42 9000 4.1 160 09:57 20.03.2020
6309 Clear 20 1014 42 9000 4.1 160 09:39 20.03.2020
6310 Clear 20 1014 42 9000 4.1 160 09:19 20.03.2020
6311 Clear 17 1015 51 8000 4.1 190 08:42 20.03.2020
6312 Clear 17 1015 51 8000 4.1 190 08:22 20.03.2020
6313 Clouds 15 1015 67 8000 3.6 210 07:54 20.03.2020
6314 Clouds 15 1015 67 8000 3.6 210 07:36 20.03.2020
6315 Clouds 15 1015 67 8000 3.6 210 07:18 20.03.2020
6316 Clouds 15 1015 62 8000 3.6 210 06:41 20.03.2020
6317 Clouds 13 1014 66 8000 4.1 130 04:51 20.03.2020
6318 Clouds 14 1013 62 10000 4.1 110 03:22 20.03.2020
6319 Clouds 15 1013 54 10000 3.6 100 02:20 20.03.2020
6320 Clouds 15 1013 54 10000 3.6 100 00:59 20.03.2020
6321 Clouds 15 1013 54 10000 3.1 100 00:31 20.03.2020
6322 Clouds 15 1013 58 10000 3.1 100 23:49 19.03.2020
6323 Clouds 15 1014 58 10000 3.1 100 23:28 19.03.2020
6324 Clouds 16 1014 55 10000 4.1 90 22:57 19.03.2020
6325 Clouds 16 1014 55 10000 4.1 90 22:38 19.03.2020
6326 Clouds 16 1014 55 10000 4.1 90 22:20 19.03.2020
6327 Clouds 15 1014 54 10000 2.6 100 21:42 19.03.2020
6328 Clouds 15 1014 54 10000 2.6 100 21:20 19.03.2020
6329 Clouds 16 1015 55 10000 3.1 90 20:59 19.03.2020
6330 Clouds 16 1015 55 10000 3.1 90 20:41 19.03.2020
6331 Clouds 16 1015 55 10000 3.1 90 20:23 19.03.2020
6332 Clear 16 1015 51 10000 1.5 60 19:55 19.03.2020
6333 Clear 16 1015 51 10000 1.5 60 19:37 19.03.2020
6334 Clear 16 1015 51 10000 1.5 60 19:19 19.03.2020
6335 Clear 16 1014 59 10000 1 70 18:55 19.03.2020
6336 Clear 16 1014 59 10000 1 70 18:37 19.03.2020
6337 Clear 16 1014 59 10000 1 70 18:37 19.03.2020
6338 Clear 16 1014 59 10000 1 70 18:19 19.03.2020
6339 Clear 17 1014 45 10000 0.5 0 17:41 19.03.2020
6340 Clouds 19 1014 39 10000 1.5 0 17:19 19.03.2020
6341 Clouds 19 1014 39 10000 1.5 0 16:44 19.03.2020
6342 Clouds 19 1014 39 10000 1.5 0 16:24 19.03.2020
6343 Clouds 19 1014 39 10000 1.5 240 15:54 19.03.2020
6344 Clouds 19 1014 39 10000 1.5 240 15:36 19.03.2020
6345 Clouds 19 1014 39 10000 1.5 240 15:18 19.03.2020
6346 Clouds 19 1014 39 10000 2.6 230 14:42 19.03.2020
6347 Clouds 19 1014 39 10000 2.6 230 14:21 19.03.2020
6348 Clouds 19 1014 45 10000 3.6 250 13:41 19.03.2020
6349 Clouds 19 1014 45 10000 3.6 250 13:19 19.03.2020
6350 Clouds 19 1015 45 10000 5.7 240 12:57 19.03.2020
6351 Clouds 19 1015 45 10000 5.7 240 12:39 19.03.2020
6352 Clouds 19 1015 45 10000 5.7 240 12:21 19.03.2020
6353 Clouds 18 1015 52 9000 4.6 220 11:42 19.03.2020
6354 Clouds 18 1015 52 9000 4.6 220 11:23 19.03.2020
6355 Clouds 17 1016 59 10000 3.1 260 10:57 19.03.2020
6356 Clouds 17 1016 59 10000 3.1 260 10:38 19.03.2020
6357 Clouds 17 1016 59 10000 3.1 260 10:19 19.03.2020
6358 Clouds 16 1016 59 10000 4.1 270 09:45 19.03.2020
6359 Clouds 16 1016 59 10000 4.1 270 09:27 19.03.2020
6360 Clouds 16 1016 59 10000 5.1 280 08:59 19.03.2020
6361 Clouds 16 1016 59 10000 5.1 280 08:41 19.03.2020
6362 Clouds 16 1016 59 10000 5.1 280 08:19 19.03.2020
6363 Clouds 14 1016 76 10000 5.7 280 07:44 19.03.2020
6364 Clouds 14 1016 76 10000 5.7 280 07:23 19.03.2020
6365 Clear 13 1015 82 10000 6.2 280 06:34 19.03.2020
6366 Clear 12 1014 87 8000 3.6 260 05:47 19.03.2020
6367 Clear 12 1013 76 8000 2.6 260 04:53 19.03.2020
6368 Clear 12 1013 76 8000 2.6 260 04:34 19.03.2020
6369 Clear 13 1012 71 10000 3.6 250 02:34 19.03.2020
6370 Clouds 14 1012 71 10000 3.6 220 00:58 19.03.2020
6371 Clouds 14 1012 71 10000 3.6 220 00:22 19.03.2020
6372 Clouds 14 1012 87 10000 3.1 190 23:48 18.03.2020
6373 Clouds 14 1012 87 10000 3.1 190 23:27 18.03.2020
6374 Clouds 14 1012 93 10000 3.1 120 22:44 18.03.2020
6375 Clouds 14 1012 93 10000 3.1 120 22:24 18.03.2020
6376 Clouds 14 1012 87 10000 3.6 120 21:59 18.03.2020
6377 Clouds 14 1012 87 10000 3.6 120 21:41 18.03.2020
6378 Clouds 14 1012 87 10000 3.6 120 21:21 18.03.2020
6379 Clouds 14 1012 71 10000 3.6 100 20:57 18.03.2020
6380 Clouds 14 1012 71 10000 3.6 100 20:39 18.03.2020
6381 Clouds 14 1012 71 10000 3.6 100 20:20 18.03.2020
6382 Clouds 16 1012 63 10000 3.6 140 19:56 18.03.2020
6383 Clouds 16 1012 63 10000 3.6 140 19:56 18.03.2020
6384 Clouds 16 1012 63 10000 3.6 140 19:36 18.03.2020
6385 Clouds 16 1012 63 10000 3.6 140 19:18 18.03.2020
6386 Clouds 16 1012 63 10000 1.5 110 18:41 18.03.2020
6387 Clouds 16 1012 63 10000 1.5 110 18:20 18.03.2020
6388 Clouds 17 1011 59 10000 0.5 0 17:58 18.03.2020
6389 Clouds 17 1011 59 10000 0.5 0 17:39 18.03.2020
6390 Clouds 17 1011 59 10000 0.5 0 17:21 18.03.2020
6391 Clouds 20 1010 45 10000 2.1 240 16:55 18.03.2020
6392 Clouds 20 1010 45 10000 2.1 240 16:37 18.03.2020
6393 Clouds 20 1010 45 10000 2.1 240 16:19 18.03.2020
6394 Clouds 21 1010 40 10000 4.1 220 15:45 18.03.2020
6395 Clouds 21 1010 40 10000 4.1 220 15:20 18.03.2020
6396 Clouds 21 1009 40 10000 4.6 230 14:45 18.03.2020
6397 Clouds 21 1009 40 10000 4.6 230 14:22 18.03.2020
6398 Clouds 21 1009 40 10000 5.7 240 13:58 18.03.2020
6399 Clouds 21 1009 40 10000 5.7 240 13:36 18.03.2020
6400 Clouds 21 1009 40 10000 5.7 240 13:18 18.03.2020
6401 Clouds 21 1009 49 10000 4.6 230 12:41 18.03.2020
6402 Clouds 21 1009 49 10000 4.6 230 12:19 18.03.2020
6403 Clouds 20 1009 56 10000 5.7 250 11:40 18.03.2020
6404 Clouds 20 1009 56 10000 5.7 250 11:21 18.03.2020
6405 Clouds 19 1009 72 10000 11.8 160 10:58 18.03.2020
6406 Clouds 19 1009 72 10000 11.8 160 10:39 18.03.2020
6407 Clouds 19 1009 72 10000 11.8 160 10:20 18.03.2020
6408 Rain 18 1009 77 7000 9.8 160 09:44 18.03.2020
6409 Rain 18 1009 77 7000 9.8 160 09:26 18.03.2020
6410 Rain 18 1009 82 9000 10.3 150 08:58 18.03.2020
6411 Rain 18 1009 82 9000 10.3 150 08:39 18.03.2020
6412 Rain 18 1009 82 9000 10.3 150 08:21 18.03.2020
6413 Clouds 18 1008 77 9000 10.3 140 07:49 18.03.2020
6414 Clouds 18 1008 77 9000 10.3 140 07:30 18.03.2020
6415 Clouds 18 1007 77 9000 10.3 140 06:45 18.03.2020
6416 Clouds 18 1007 77 9000 10.3 140 06:23 18.03.2020
6417 Clouds 18 1006 77 0 8.2 120 05:35 18.03.2020
6418 Clouds 18 1006 77 10000 8.2 120 04:27 18.03.2020
6419 Thunderstorm 19 1006 72 8000 6.7 110 02:49 18.03.2020
6420 Thunderstorm 19 1007 77 8000 5.1 110 01:48 18.03.2020
6421 Thunderstorm 19 1007 77 8000 5.1 110 01:29 18.03.2020
6422 Rain 19 1007 82 8000 5.7 100 00:26 18.03.2020
6423 Rain 19 1007 82 8000 5.7 100 23:59 17.03.2020
6424 Clouds 19 1008 77 10000 4.6 60 23:40 17.03.2020
6425 Rain 18 1009 82 7000 7.2 140 23:19 17.03.2020
6426 Rain 18 1009 82 7000 7.2 140 22:42 17.03.2020
6427 Rain 18 1009 82 7000 7.2 140 22:23 17.03.2020
6428 Rain 20 1010 68 10000 2.6 170 21:42 17.03.2020
6429 Rain 20 1010 68 10000 2.6 170 21:22 17.03.2020
6430 Thunderstorm 23 1008 49 10000 6.7 120 20:41 17.03.2020
6431 Thunderstorm 23 1008 49 10000 6.7 120 20:23 17.03.2020
6432 Clouds 23 1008 53 10000 8.7 120 19:59 17.03.2020
6433 Clouds 23 1008 53 10000 8.7 120 19:40 17.03.2020
6434 Clouds 23 1008 53 10000 8.7 120 19:18 17.03.2020
6435 Clouds 23 1009 49 10000 6.7 120 18:56 17.03.2020
6436 Clouds 23 1009 49 10000 6.7 120 18:38 17.03.2020
6437 Clouds 23 1009 49 10000 6.7 120 18:38 17.03.2020
6438 Clouds 23 1009 49 10000 6.7 120 18:20 17.03.2020
6439 Clouds 23 1009 53 10000 5.1 120 17:41 17.03.2020
6440 Clouds 23 1009 53 10000 5.1 120 17:22 17.03.2020
6441 Clouds 25 1010 44 10000 6.2 130 16:56 17.03.2020
6442 Clouds 25 1010 44 10000 6.2 130 16:38 17.03.2020
6443 Clouds 25 1010 44 10000 6.2 130 16:18 17.03.2020
6444 Clouds 26 1010 41 10000 6.2 130 15:43 17.03.2020
6445 Clouds 26 1010 41 10000 6.2 130 15:21 17.03.2020
6446 Clouds 26 1011 41 10000 7.7 140 14:44 17.03.2020
6447 Clouds 26 1011 41 10000 7.7 140 14:23 17.03.2020
6448 Clouds 26 1012 39 10000 6.2 130 13:56 17.03.2020
6449 Clouds 26 1012 39 10000 6.2 130 13:38 17.03.2020
6450 Clouds 26 1012 39 10000 6.2 130 13:20 17.03.2020
6451 Clouds 26 1012 39 10000 6.2 130 12:42 17.03.2020
6452 Clouds 26 1012 39 10000 6.2 130 12:22 17.03.2020
6453 Clouds 26 1013 41 10000 5.7 160 11:47 17.03.2020
6454 Clouds 26 1013 41 10000 5.7 160 11:29 17.03.2020
6455 Clouds 25 1014 44 10000 5.1 140 10:58 17.03.2020
6456 Clouds 25 1014 44 10000 5.1 140 10:39 17.03.2020
6457 Clouds 25 1014 44 10000 5.1 140 10:21 17.03.2020
6458 Clouds 24 1015 50 10000 6.7 140 09:59 17.03.2020
6459 Clouds 24 1015 50 10000 6.7 140 09:40 17.03.2020
6460 Clouds 24 1015 50 10000 6.7 140 09:19 17.03.2020
6461 Clear 23 1015 56 9000 6.2 140 08:48 17.03.2020
6462 Clear 23 1015 56 9000 6.2 140 08:23 17.03.2020
6463 Clouds 20 1015 68 9000 5.1 120 07:56 17.03.2020
6464 Clouds 20 1015 68 9000 5.1 120 07:38 17.03.2020
6465 Clouds 20 1015 68 9000 5.1 120 07:19 17.03.2020
6466 Clouds 17 1015 82 6000 4.1 120 06:38 17.03.2020
6467 Clouds 17 1015 82 5000 3.6 120 05:58 17.03.2020
6468 Mist 15 1014 93 6000 2.6 110 03:56 17.03.2020
6469 Clouds 14 1014 82 6000 2.1 90 02:54 17.03.2020
6470 Clouds 15 1014 82 6000 1.5 130 01:49 17.03.2020
6471 Clouds 15 1014 82 6000 1.5 130 01:25 17.03.2020
6472 Clouds 15 1014 82 7000 1.5 120 00:46 17.03.2020
6473 Clouds 15 1015 82 8000 2.1 120 23:50 16.03.2020
6474 Clouds 15 1015 82 8000 2.1 120 23:32 16.03.2020
6475 Clouds 17 1015 77 10000 1.5 110 22:42 16.03.2020
6476 Clouds 17 1015 77 10000 1.5 110 22:24 16.03.2020
6477 Clouds 17 1015 72 10000 0.5 130 21:58 16.03.2020
6478 Clouds 17 1015 72 10000 0.5 130 21:40 16.03.2020
6479 Clouds 17 1015 72 10000 0.5 130 21:22 16.03.2020
6480 Clouds 18 1015 88 10000 1 70 20:56 16.03.2020
6481 Clouds 18 1015 88 10000 1 70 20:38 16.03.2020
6482 Clouds 18 1015 88 10000 1 70 20:19 16.03.2020
6483 Clouds 19 1015 63 10000 2.96 228 19:41 16.03.2020
6484 Clouds 19 1015 63 10000 2.96 228 19:21 16.03.2020
6485 Clouds 20 1015 60 10000 2.96 228 18:56 16.03.2020
6486 Clouds 20 1015 60 10000 2.96 228 18:37 16.03.2020
6487 Clouds 20 1015 60 10000 2.96 228 18:18 16.03.2020
6488 Clouds 22 1015 53 10000 1 0 17:42 16.03.2020
6489 Clouds 22 1015 53 10000 1 0 17:22 16.03.2020
6490 Clouds 23 1015 49 10000 1.5 250 16:45 16.03.2020
6491 Clouds 23 1015 49 10000 1.5 250 16:27 16.03.2020
6492 Clouds 23 1015 49 10000 2.1 240 15:56 16.03.2020
6493 Clouds 23 1015 49 10000 2.1 240 15:37 16.03.2020
6494 Clouds 23 1015 49 10000 2.1 240 15:18 16.03.2020
6495 Clouds 23 1015 49 10000 3.1 250 14:39 16.03.2020
6496 Clouds 23 1015 49 10000 3.1 250 14:19 16.03.2020
6497 Clouds 24 1015 47 9000 1.5 180 13:41 16.03.2020
6498 Clouds 24 1015 47 9000 1.5 180 13:22 16.03.2020
6499 Clouds 23 1015 53 7000 3.1 220 12:45 16.03.2020
6500 Clouds 23 1015 53 7000 3.1 220 12:26 16.03.2020
6501 Clouds 23 1016 53 7000 2.1 0 11:58 16.03.2020
6502 Clouds 23 1016 53 7000 2.1 0 11:39 16.03.2020
6503 Clouds 23 1016 53 7000 2.1 0 11:18 16.03.2020
6504 Clouds 22 1016 60 6000 2.6 270 10:41 16.03.2020
6505 Clouds 22 1016 60 6000 2.6 270 10:19 16.03.2020
6506 Clouds 21 1017 64 5000 2.1 310 09:44 16.03.2020
6507 Clouds 21 1017 64 5000 2.1 310 09:24 16.03.2020
6508 Haze 21 1017 64 4700 1.5 290 08:54 16.03.2020
6509 Haze 21 1017 64 4700 1.5 290 08:25 16.03.2020
6510 Mist 18 1017 82 3500 2.1 300 07:50 16.03.2020
6511 Mist 18 1017 82 3500 2.1 300 07:27 16.03.2020
6512 Haze 15 1017 100 3000 1.5 340 06:54 16.03.2020
6513 Haze 15 1017 100 3000 1.5 340 06:26 16.03.2020
6514 Mist 14 1017 93 3800 2.6 290 05:50 16.03.2020
6515 Clouds 13 1015 100 7000 1 290 02:45 16.03.2020
6516 Clear 15 1015 87 7000 1 120 01:20 16.03.2020
6517 Clear 15 1015 87 8000 2.6 310 00:40 16.03.2020
6518 Clear 15 1016 87 8000 1.5 320 23:48 15.03.2020
6519 Clear 15 1016 87 8000 1.5 320 23:20 15.03.2020
6520 Clear 17 1016 82 8000 0.5 0 22:43 15.03.2020
6521 Clear 17 1016 82 8000 0.5 0 22:24 15.03.2020
6522 Clouds 17 1016 82 8000 2.1 330 21:59 15.03.2020
6523 Clouds 17 1016 82 8000 2.1 330 21:38 15.03.2020
6524 Clouds 17 1016 82 8000 2.1 330 21:19 15.03.2020
6525 Clouds 18 1016 77 8000 1.5 80 20:43 15.03.2020
6526 Clouds 18 1016 77 8000 1.5 80 20:22 15.03.2020
6527 Clouds 18 1016 77 8000 2.6 320 19:58 15.03.2020
6528 Clouds 18 1016 77 8000 2.6 320 19:40 15.03.2020
6529 Clouds 18 1016 77 8000 2.6 320 19:21 15.03.2020
6530 Clouds 19 1015 68 8000 2.1 300 18:56 15.03.2020
6531 Clouds 19 1015 68 8000 2.1 300 18:38 15.03.2020
6532 Clouds 19 1015 68 8000 2.1 300 18:20 15.03.2020
6533 Clouds 21 1015 60 9000 1.5 310 17:41 15.03.2020
6534 Clouds 21 1015 60 9000 1.5 310 17:22 15.03.2020
6535 Rain 21 1014 60 7000 1.5 180 16:59 15.03.2020
6536 Rain 21 1014 60 7000 1.5 180 16:40 15.03.2020
6537 Rain 21 1014 60 7000 1.5 180 16:21 15.03.2020
6538 Rain 21 1014 60 6000 2.1 180 15:54 15.03.2020
6539 Rain 21 1014 60 6000 2.1 180 15:36 15.03.2020
6540 Clouds 21 1014 60 6000 1.5 20 15:18 15.03.2020
6541 Clouds 22 1013 56 7000 2.1 360 14:39 15.03.2020
6542 Clouds 22 1013 56 7000 2.1 360 14:21 15.03.2020
6543 Clouds 22 1013 56 6000 3.1 10 13:56 15.03.2020
6544 Clouds 22 1013 56 6000 3.1 10 13:37 15.03.2020
6545 Clouds 22 1013 56 6000 3.1 10 13:18 15.03.2020
6546 Clouds 21 1013 64 5000 2.6 340 12:40 15.03.2020
6547 Clouds 21 1013 64 5000 2.6 340 12:22 15.03.2020
6548 Haze 21 1014 64 5000 3.1 350 11:44 15.03.2020
6549 Haze 21 1014 64 5000 3.1 350 11:25 15.03.2020
6550 Haze 20 1014 64 5000 2.6 30 10:59 15.03.2020
6551 Haze 20 1014 64 5000 2.6 30 10:40 15.03.2020
6552 Haze 20 1014 68 4900 3.1 360 10:21 15.03.2020
6553 Haze 19 1014 72 5000 3.1 320 09:59 15.03.2020
6554 Haze 19 1014 72 5000 3.1 320 09:38 15.03.2020
6555 Haze 19 1014 72 5000 3.1 320 09:19 15.03.2020
6556 Clouds 18 1015 77 7000 1.5 250 08:41 15.03.2020
6557 Clouds 18 1015 77 7000 1.5 250 08:19 15.03.2020
6558 Clouds 17 1014 77 7000 1.5 290 07:48 15.03.2020
6559 Clouds 17 1014 77 7000 1.5 290 07:22 15.03.2020
6560 Rain 16 1014 93 6000 1.5 40 06:44 15.03.2020
6561 Clouds 15 1013 93 8000 1 0 05:48 15.03.2020
6562 Clouds 15 1012 93 8000 1.5 70 04:57 15.03.2020
6563 Clouds 15 1012 93 8000 1.5 70 04:38 15.03.2020
6564 Clouds 15 1012 93 8000 1.5 70 04:20 15.03.2020
6565 Clouds 15 1012 93 9000 1 70 03:19 15.03.2020
6566 Clouds 15 1011 93 6000 2.6 90 02:23 15.03.2020
6567 Clouds 15 1011 100 10000 3.6 130 00:59 15.03.2020
6568 Clouds 15 1011 100 10000 3.6 130 00:40 15.03.2020
6569 Clouds 15 1011 100 10000 3.6 130 00:19 15.03.2020
6570 Clouds 16 1011 93 10000 3.6 120 23:39 14.03.2020
6571 Clouds 16 1011 93 10000 3.6 120 23:20 14.03.2020
6572 Clouds 16 1011 93 10000 4.6 130 22:56 14.03.2020
6573 Clouds 16 1011 93 10000 4.6 130 22:38 14.03.2020
6574 Clouds 16 1011 93 10000 4.6 130 22:19 14.03.2020
6575 Clouds 16 1011 93 10000 5.7 130 21:55 14.03.2020
6576 Clouds 16 1011 93 10000 5.7 130 21:36 14.03.2020
6577 Clouds 16 1011 93 10000 5.7 130 21:36 14.03.2020
6578 Clouds 16 1011 93 10000 5.7 130 21:18 14.03.2020
6579 Rain 16 1011 93 10000 3.6 130 20:56 14.03.2020
6580 Rain 16 1011 93 10000 3.6 130 20:38 14.03.2020
6581 Rain 16 1011 93 10000 3.6 130 20:18 14.03.2020
6582 Clouds 16 1011 93 10000 4.6 120 19:41 14.03.2020
6583 Clouds 16 1011 93 10000 4.6 120 19:21 14.03.2020
6584 Clouds 16 1011 93 10000 3.1 120 18:40 14.03.2020
6585 Clouds 16 1011 93 10000 3.1 120 18:21 14.03.2020
6586 Rain 16 1010 93 9000 6.2 130 17:43 14.03.2020
6587 Rain 16 1010 93 9000 6.2 130 17:24 14.03.2020
6588 Mist 17 1010 93 4800 2.6 10 16:59 14.03.2020
6589 Mist 17 1010 93 4800 2.6 10 16:39 14.03.2020
6590 Mist 17 1010 93 4800 2.6 10 16:20 14.03.2020
6591 Mist 18 1009 88 4000 2.1 260 15:51 14.03.2020
6592 Mist 18 1009 88 4000 2.1 260 15:25 14.03.2020
6593 Rain 18 1009 82 4600 2.1 200 14:45 14.03.2020
6594 Rain 18 1009 82 4600 2.1 200 14:23 14.03.2020
6595 Rain 19 1009 77 5000 4.6 180 13:57 14.03.2020
6596 Rain 19 1009 77 5000 4.6 180 13:39 14.03.2020
6597 Rain 19 1009 77 5000 4.6 180 13:20 14.03.2020
6598 Rain 20 1009 68 6000 7.2 160 12:44 14.03.2020
6599 Rain 20 1009 68 6000 7.2 160 12:26 14.03.2020
6600 Clouds 20 1009 68 7000 8.7 160 11:48 14.03.2020
6601 Clouds 20 1009 68 7000 8.7 160 11:28 14.03.2020
6602 Clouds 20 1009 68 9000 11.8 150 10:59 14.03.2020
6603 Clouds 20 1009 68 9000 11.8 150 10:41 14.03.2020
6604 Clouds 20 1009 68 9000 11.8 150 10:23 14.03.2020
6605 Clouds 20 1009 64 10000 11.8 140 09:44 14.03.2020
6606 Clouds 20 1009 64 10000 11.8 140 09:24 14.03.2020
6607 Rain 19 1009 68 10000 11.8 130 08:48 14.03.2020
6608 Rain 19 1009 68 10000 11.8 130 08:29 14.03.2020
6609 Clouds 17 1010 72 9000 10.3 130 07:55 14.03.2020
6610 Clouds 17 1010 72 9000 10.3 130 07:37 14.03.2020
6611 Clouds 17 1010 72 9000 10.3 130 07:19 14.03.2020
6612 Clouds 16 1010 77 8000 8.7 130 06:40 14.03.2020
6613 Clouds 16 1009 72 8000 7.2 120 05:24 14.03.2020
6614 Clouds 16 1008 67 9000 7.7 100 03:46 14.03.2020
6615 Clouds 16 1008 67 9000 7.7 100 03:24 14.03.2020
6616 Clouds 16 1009 72 9000 4.6 120 02:22 14.03.2020
6617 Rain 16 1010 72 9000 7.2 90 00:46 14.03.2020
6618 Rain 18 1011 63 10000 2.6 340 23:46 13.03.2020
6619 Rain 18 1011 63 10000 2.6 340 23:28 13.03.2020
6620 Rain 18 1012 51 0 2.37 121 22:49 13.03.2020
6621 Rain 18 1012 51 0 2.37 121 22:26 13.03.2020
6622 Rain 18 1012 51 0 2.37 121 21:44 13.03.2020
6623 Clouds 19 1011 55 10000 3.6 330 21:22 13.03.2020
6624 Clouds 19 1011 55 10000 3.6 330 20:59 13.03.2020
6625 Clouds 19 1011 55 10000 3.6 330 20:40 13.03.2020
6626 Clouds 19 1011 55 10000 3.6 330 20:21 13.03.2020
6627 Clouds 20 1011 52 10000 4.6 320 19:48 13.03.2020
6628 Clouds 20 1011 52 10000 4.6 320 19:30 13.03.2020
6629 Clouds 21 1008 43 10000 7.2 110 18:49 13.03.2020
6630 Clouds 21 1008 43 10000 7.2 110 18:31 13.03.2020
6631 Thunderstorm 23 1007 33 10000 9.3 110 17:57 13.03.2020
6632 Thunderstorm 23 1007 33 10000 9.3 110 17:39 13.03.2020
6633 Thunderstorm 23 1007 33 10000 9.3 110 17:20 13.03.2020
6634 Clouds 22 1008 37 10000 10.8 120 16:42 13.03.2020
6635 Clouds 22 1008 37 10000 10.8 120 16:24 13.03.2020
6636 Clouds 23 1008 33 10000 8.2 110 15:58 13.03.2020
6637 Clouds 23 1008 33 10000 8.2 110 15:38 13.03.2020
6638 Clouds 23 1008 33 10000 8.2 110 15:20 13.03.2020
6639 Rain 23 1011 33 10000 5.7 130 14:41 13.03.2020
6640 Rain 23 1011 33 10000 5.7 130 14:22 13.03.2020
6641 Clouds 24 1011 27 10000 8.2 120 13:57 13.03.2020
6642 Clouds 24 1011 27 10000 8.2 120 13:39 13.03.2020
6643 Clouds 24 1011 27 10000 8.2 120 13:19 13.03.2020
6644 Clouds 25 1011 29 10000 8.2 110 12:55 13.03.2020
6645 Clouds 25 1011 29 10000 8.2 110 12:36 13.03.2020
6646 Clouds 25 1011 29 10000 8.2 110 12:18 13.03.2020
6647 Clouds 24 1012 31 10000 8.7 130 11:42 13.03.2020
6648 Clouds 24 1012 31 10000 8.7 130 11:24 13.03.2020
6649 Clouds 25 1012 29 10000 8.2 130 10:57 13.03.2020
6650 Clouds 25 1012 29 10000 8.2 130 10:38 13.03.2020
6651 Clouds 25 1012 29 10000 8.2 130 10:20 13.03.2020
6652 Clouds 24 1013 29 10000 9.3 130 09:43 13.03.2020
6653 Clouds 24 1013 29 10000 9.3 130 09:24 13.03.2020
6654 Clouds 22 1014 37 10000 6.2 130 08:47 13.03.2020
6655 Clouds 22 1014 37 10000 6.2 130 08:23 13.03.2020
6656 Clouds 21 1015 40 10000 5.7 140 07:58 13.03.2020
6657 Clouds 21 1015 40 10000 5.7 140 07:38 13.03.2020
6658 Clouds 21 1015 40 10000 5.7 140 07:18 13.03.2020
6659 Clouds 20 1014 45 10000 4.6 120 06:43 13.03.2020
6660 Clouds 19 1014 48 10000 3.6 130 05:56 13.03.2020
6661 Clouds 19 1014 48 10000 3.6 130 05:37 13.03.2020
6662 Clouds 20 1014 42 10000 4.6 110 04:38 13.03.2020
6663 Clouds 21 1014 40 10000 4.1 110 03:46 13.03.2020
6664 Clouds 21 1013 43 10000 3.1 70 01:48 13.03.2020
6665 Clouds 21 1013 43 10000 3.1 70 01:19 13.03.2020
6666 Clouds 21 1014 37 10000 4.1 130 00:56 13.03.2020
6667 Clouds 21 1014 37 10000 4.1 130 00:29 13.03.2020
6668 Clouds 23 1014 35 10000 3.6 70 23:59 12.03.2020
6669 Clouds 23 1014 35 10000 3.6 70 23:29 12.03.2020
6670 Clouds 22 1014 37 10000 3.1 60 22:58 12.03.2020
6671 Clouds 22 1014 37 10000 3.1 60 22:40 12.03.2020
6672 Clouds 22 1014 37 10000 3.1 60 22:22 12.03.2020
6673 Clouds 23 1014 35 10000 3.1 70 21:46 12.03.2020
6674 Clouds 23 1014 35 10000 3.1 70 21:28 12.03.2020
6675 Clouds 23 1014 35 10000 2.6 60 20:59 12.03.2020
6676 Clouds 23 1014 35 10000 2.6 60 20:40 12.03.2020
6677 Clouds 23 1014 35 10000 2.6 60 20:19 12.03.2020
6678 Clouds 23 1014 38 10000 3.6 80 19:42 12.03.2020
6679 Clouds 23 1014 38 10000 3.6 80 19:21 12.03.2020
6680 Clouds 24 1014 38 10000 3.1 90 18:45 12.03.2020
6681 Clouds 24 1014 38 10000 3.1 90 18:25 12.03.2020
6682 Clouds 24 1014 38 10000 3.1 90